<?xml version="1.0" encoding="UTF-8" standalone="no" ?>
<gpx xmlns="http://www.topografix.com/GPX/1/1" xmlns:xsi="http://www.w3.org/2001/XMLSchema-instance" xsi:schemaLocation="http://www.topografix.com/GPX/1/1 http://www.topografix.com/GPX/1/1/gpx.xsd" version="1.1" creator="VisuGPX - https://www.visugpx.com">
  <metadata>
    <name>Champagnat Cyclisme sur route</name>
  </metadata>
  <trk>
    <name><![CDATA[Champagnat Cyclisme sur route_1]]></name>
    <trkseg>
      <trkpt lat="46.48267" lon="5.36835">
        <ele>261.8</ele>
        <time>2022-06-04T05:43:28Z</time>
      </trkpt>
      <trkpt lat="46.48257" lon="5.36823">
        <ele>261.4</ele>
        <time>2022-06-04T05:43:29Z</time>
      </trkpt>
      <trkpt lat="46.48247" lon="5.36813">
        <ele>260.4</ele>
        <time>2022-06-04T05:43:30Z</time>
      </trkpt>
      <trkpt lat="46.48226" lon="5.36794">
        <ele>258.8</ele>
        <time>2022-06-04T05:43:32Z</time>
      </trkpt>
      <trkpt lat="46.48215" lon="5.36785">
        <ele>257.8</ele>
        <time>2022-06-04T05:43:33Z</time>
      </trkpt>
      <trkpt lat="46.48193" lon="5.36768">
        <ele>256.2</ele>
        <time>2022-06-04T05:43:35Z</time>
      </trkpt>
      <trkpt lat="46.48172" lon="5.3675">
        <ele>254.8</ele>
        <time>2022-06-04T05:43:37Z</time>
      </trkpt>
      <trkpt lat="46.48142" lon="5.36726">
        <ele>253.4</ele>
        <time>2022-06-04T05:43:40Z</time>
      </trkpt>
      <trkpt lat="46.48125" lon="5.36713">
        <ele>251.6</ele>
        <time>2022-06-04T05:43:42Z</time>
      </trkpt>
      <trkpt lat="46.48112" lon="5.36702">
        <ele>250.6</ele>
        <time>2022-06-04T05:43:44Z</time>
      </trkpt>
      <trkpt lat="46.48109" lon="5.36695">
        <ele>250.2</ele>
        <time>2022-06-04T05:43:45Z</time>
      </trkpt>
      <trkpt lat="46.48108" lon="5.36688">
        <ele>249.8</ele>
        <time>2022-06-04T05:43:46Z</time>
      </trkpt>
      <trkpt lat="46.48109" lon="5.3668">
        <ele>249.6</ele>
        <time>2022-06-04T05:43:47Z</time>
      </trkpt>
      <trkpt lat="46.48112" lon="5.36674">
        <ele>249.4</ele>
        <time>2022-06-04T05:43:48Z</time>
      </trkpt>
      <trkpt lat="46.48122" lon="5.36663">
        <ele>248.8</ele>
        <time>2022-06-04T05:43:50Z</time>
      </trkpt>
      <trkpt lat="46.48134" lon="5.36652">
        <ele>248.2</ele>
        <time>2022-06-04T05:43:52Z</time>
      </trkpt>
      <trkpt lat="46.48146" lon="5.36641">
        <ele>246.8</ele>
        <time>2022-06-04T05:43:54Z</time>
      </trkpt>
      <trkpt lat="46.48153" lon="5.36636">
        <ele>246.4</ele>
        <time>2022-06-04T05:43:55Z</time>
      </trkpt>
      <trkpt lat="46.48166" lon="5.36623">
        <ele>245.8</ele>
        <time>2022-06-04T05:43:57Z</time>
      </trkpt>
      <trkpt lat="46.4818" lon="5.36611">
        <ele>245.4</ele>
        <time>2022-06-04T05:43:59Z</time>
      </trkpt>
      <trkpt lat="46.48188" lon="5.36608">
        <ele>245.2</ele>
        <time>2022-06-04T05:44:00Z</time>
      </trkpt>
      <trkpt lat="46.48209" lon="5.36599">
        <ele>244.8</ele>
        <time>2022-06-04T05:44:03Z</time>
      </trkpt>
      <trkpt lat="46.48215" lon="5.36592">
        <ele>244.8</ele>
        <time>2022-06-04T05:44:04Z</time>
      </trkpt>
      <trkpt lat="46.48218" lon="5.36584">
        <ele>244.6</ele>
        <time>2022-06-04T05:44:05Z</time>
      </trkpt>
      <trkpt lat="46.48224" lon="5.36566">
        <ele>244.4</ele>
        <time>2022-06-04T05:44:07Z</time>
      </trkpt>
      <trkpt lat="46.48234" lon="5.36552">
        <ele>244.4</ele>
        <time>2022-06-04T05:44:09Z</time>
      </trkpt>
      <trkpt lat="46.4824" lon="5.36546">
        <ele>244.2</ele>
        <time>2022-06-04T05:44:10Z</time>
      </trkpt>
      <trkpt lat="46.48269" lon="5.36513">
        <ele>243.6</ele>
        <time>2022-06-04T05:44:15Z</time>
      </trkpt>
      <trkpt lat="46.483" lon="5.3648">
        <ele>242.6</ele>
        <time>2022-06-04T05:44:20Z</time>
      </trkpt>
      <trkpt lat="46.48318" lon="5.36459">
        <ele>242</ele>
        <time>2022-06-04T05:44:23Z</time>
      </trkpt>
      <trkpt lat="46.48336" lon="5.36439">
        <ele>241.4</ele>
        <time>2022-06-04T05:44:26Z</time>
      </trkpt>
      <trkpt lat="46.48367" lon="5.36404">
        <ele>240.4</ele>
        <time>2022-06-04T05:44:31Z</time>
      </trkpt>
      <trkpt lat="46.48392" lon="5.36377">
        <ele>239.2</ele>
        <time>2022-06-04T05:44:35Z</time>
      </trkpt>
      <trkpt lat="46.48406" lon="5.36366">
        <ele>239</ele>
        <time>2022-06-04T05:44:37Z</time>
      </trkpt>
      <trkpt lat="46.48442" lon="5.36349">
        <ele>238.2</ele>
        <time>2022-06-04T05:44:42Z</time>
      </trkpt>
      <trkpt lat="46.48498" lon="5.3634">
        <ele>237.8</ele>
        <time>2022-06-04T05:44:50Z</time>
      </trkpt>
      <trkpt lat="46.48554" lon="5.36331">
        <ele>237.4</ele>
        <time>2022-06-04T05:44:58Z</time>
      </trkpt>
      <trkpt lat="46.48576" lon="5.36328">
        <ele>237.2</ele>
        <time>2022-06-04T05:45:01Z</time>
      </trkpt>
      <trkpt lat="46.48614" lon="5.3632">
        <ele>236.6</ele>
        <time>2022-06-04T05:45:06Z</time>
      </trkpt>
      <trkpt lat="46.48621" lon="5.36315">
        <ele>236.2</ele>
        <time>2022-06-04T05:45:07Z</time>
      </trkpt>
      <trkpt lat="46.48627" lon="5.36306">
        <ele>235.8</ele>
        <time>2022-06-04T05:45:08Z</time>
      </trkpt>
      <trkpt lat="46.48634" lon="5.36285">
        <ele>235.2</ele>
        <time>2022-06-04T05:45:10Z</time>
      </trkpt>
      <trkpt lat="46.48636" lon="5.36273">
        <ele>235</ele>
        <time>2022-06-04T05:45:11Z</time>
      </trkpt>
      <trkpt lat="46.48641" lon="5.36235">
        <ele>234</ele>
        <time>2022-06-04T05:45:14Z</time>
      </trkpt>
      <trkpt lat="46.48644" lon="5.36197">
        <ele>233</ele>
        <time>2022-06-04T05:45:17Z</time>
      </trkpt>
      <trkpt lat="46.48648" lon="5.36149">
        <ele>231.8</ele>
        <time>2022-06-04T05:45:21Z</time>
      </trkpt>
      <trkpt lat="46.48656" lon="5.36101">
        <ele>231</ele>
        <time>2022-06-04T05:45:25Z</time>
      </trkpt>
      <trkpt lat="46.48659" lon="5.3609">
        <ele>230.8</ele>
        <time>2022-06-04T05:45:26Z</time>
      </trkpt>
      <trkpt lat="46.48671" lon="5.3604">
        <ele>230.6</ele>
        <time>2022-06-04T05:45:31Z</time>
      </trkpt>
      <trkpt lat="46.48678" lon="5.35998">
        <ele>231.2</ele>
        <time>2022-06-04T05:45:36Z</time>
      </trkpt>
      <trkpt lat="46.4868" lon="5.3599">
        <ele>231.6</ele>
        <time>2022-06-04T05:45:37Z</time>
      </trkpt>
      <trkpt lat="46.48681" lon="5.35983">
        <ele>231.8</ele>
        <time>2022-06-04T05:45:38Z</time>
      </trkpt>
      <trkpt lat="46.48683" lon="5.35974">
        <ele>232.4</ele>
        <time>2022-06-04T05:45:39Z</time>
      </trkpt>
      <trkpt lat="46.48685" lon="5.35957">
        <ele>233.2</ele>
        <time>2022-06-04T05:45:41Z</time>
      </trkpt>
      <trkpt lat="46.48691" lon="5.3592">
        <ele>233.4</ele>
        <time>2022-06-04T05:45:45Z</time>
      </trkpt>
      <trkpt lat="46.48698" lon="5.35893">
        <ele>233.2</ele>
        <time>2022-06-04T05:45:48Z</time>
      </trkpt>
      <trkpt lat="46.4872" lon="5.35839">
        <ele>232.6</ele>
        <time>2022-06-04T05:45:54Z</time>
      </trkpt>
      <trkpt lat="46.48727" lon="5.3582">
        <ele>231.8</ele>
        <time>2022-06-04T05:45:56Z</time>
      </trkpt>
      <trkpt lat="46.48731" lon="5.35811">
        <ele>231.6</ele>
        <time>2022-06-04T05:45:57Z</time>
      </trkpt>
      <trkpt lat="46.48741" lon="5.35784">
        <ele>231</ele>
        <time>2022-06-04T05:46:00Z</time>
      </trkpt>
      <trkpt lat="46.48748" lon="5.35766">
        <ele>230.8</ele>
        <time>2022-06-04T05:46:02Z</time>
      </trkpt>
      <trkpt lat="46.48752" lon="5.35757">
        <ele>230.8</ele>
        <time>2022-06-04T05:46:03Z</time>
      </trkpt>
      <trkpt lat="46.48763" lon="5.3573">
        <ele>230.4</ele>
        <time>2022-06-04T05:46:06Z</time>
      </trkpt>
      <trkpt lat="46.48796" lon="5.35657">
        <ele>230</ele>
        <time>2022-06-04T05:46:15Z</time>
      </trkpt>
      <trkpt lat="46.48799" lon="5.3565">
        <ele>230</ele>
        <time>2022-06-04T05:46:16Z</time>
      </trkpt>
      <trkpt lat="46.48803" lon="5.35642">
        <ele>230</ele>
        <time>2022-06-04T05:46:17Z</time>
      </trkpt>
      <trkpt lat="46.48814" lon="5.35618">
        <ele>230</ele>
        <time>2022-06-04T05:46:20Z</time>
      </trkpt>
      <trkpt lat="46.48817" lon="5.35609">
        <ele>230</ele>
        <time>2022-06-04T05:46:21Z</time>
      </trkpt>
      <trkpt lat="46.48827" lon="5.35585">
        <ele>230</ele>
        <time>2022-06-04T05:46:24Z</time>
      </trkpt>
      <trkpt lat="46.48834" lon="5.35571">
        <ele>230.2</ele>
        <time>2022-06-04T05:46:26Z</time>
      </trkpt>
      <trkpt lat="46.48847" lon="5.35562">
        <ele>230.4</ele>
        <time>2022-06-04T05:46:28Z</time>
      </trkpt>
      <trkpt lat="46.48853" lon="5.3556">
        <ele>230.4</ele>
        <time>2022-06-04T05:46:29Z</time>
      </trkpt>
      <trkpt lat="46.48894" lon="5.35558">
        <ele>230</ele>
        <time>2022-06-04T05:46:35Z</time>
      </trkpt>
      <trkpt lat="46.48914" lon="5.35556">
        <ele>229.8</ele>
        <time>2022-06-04T05:46:38Z</time>
      </trkpt>
      <trkpt lat="46.48939" lon="5.35555">
        <ele>229.2</ele>
        <time>2022-06-04T05:46:41Z</time>
      </trkpt>
      <trkpt lat="46.48965" lon="5.35554">
        <ele>228.6</ele>
        <time>2022-06-04T05:46:44Z</time>
      </trkpt>
      <trkpt lat="46.4899" lon="5.35554">
        <ele>228</ele>
        <time>2022-06-04T05:46:47Z</time>
      </trkpt>
      <trkpt lat="46.49005" lon="5.35553">
        <ele>227.4</ele>
        <time>2022-06-04T05:46:49Z</time>
      </trkpt>
      <trkpt lat="46.49043" lon="5.35551">
        <ele>227.2</ele>
        <time>2022-06-04T05:46:54Z</time>
      </trkpt>
      <trkpt lat="46.49075" lon="5.3555">
        <ele>227.2</ele>
        <time>2022-06-04T05:46:59Z</time>
      </trkpt>
      <trkpt lat="46.49119" lon="5.35549">
        <ele>228.4</ele>
        <time>2022-06-04T05:47:06Z</time>
      </trkpt>
      <trkpt lat="46.49124" lon="5.35549">
        <ele>228.6</ele>
        <time>2022-06-04T05:47:07Z</time>
      </trkpt>
      <trkpt lat="46.49139" lon="5.35547">
        <ele>229</ele>
        <time>2022-06-04T05:47:10Z</time>
      </trkpt>
      <trkpt lat="46.49145" lon="5.35546">
        <ele>229.2</ele>
        <time>2022-06-04T05:47:11Z</time>
      </trkpt>
      <trkpt lat="46.49162" lon="5.35546">
        <ele>230</ele>
        <time>2022-06-04T05:47:14Z</time>
      </trkpt>
      <trkpt lat="46.49188" lon="5.35544">
        <ele>230.6</ele>
        <time>2022-06-04T05:47:19Z</time>
      </trkpt>
      <trkpt lat="46.49201" lon="5.35542">
        <ele>231</ele>
        <time>2022-06-04T05:47:22Z</time>
      </trkpt>
      <trkpt lat="46.49213" lon="5.3554">
        <ele>231.4</ele>
        <time>2022-06-04T05:47:24Z</time>
      </trkpt>
      <trkpt lat="46.4922" lon="5.3554">
        <ele>231.4</ele>
        <time>2022-06-04T05:47:25Z</time>
      </trkpt>
      <trkpt lat="46.49231" lon="5.35539">
        <ele>231.6</ele>
        <time>2022-06-04T05:47:27Z</time>
      </trkpt>
      <trkpt lat="46.49248" lon="5.35538">
        <ele>231.8</ele>
        <time>2022-06-04T05:47:30Z</time>
      </trkpt>
      <trkpt lat="46.49299" lon="5.35536">
        <ele>231.6</ele>
        <time>2022-06-04T05:47:37Z</time>
      </trkpt>
      <trkpt lat="46.49321" lon="5.35536">
        <ele>231.4</ele>
        <time>2022-06-04T05:47:40Z</time>
      </trkpt>
      <trkpt lat="46.49343" lon="5.35534">
        <ele>231.4</ele>
        <time>2022-06-04T05:47:43Z</time>
      </trkpt>
      <trkpt lat="46.49384" lon="5.35536">
        <ele>230.8</ele>
        <time>2022-06-04T05:47:48Z</time>
      </trkpt>
      <trkpt lat="46.49404" lon="5.35541">
        <ele>230.2</ele>
        <time>2022-06-04T05:47:51Z</time>
      </trkpt>
      <trkpt lat="46.49415" lon="5.35546">
        <ele>229.8</ele>
        <time>2022-06-04T05:47:53Z</time>
      </trkpt>
      <trkpt lat="46.49422" lon="5.35548">
        <ele>229.6</ele>
        <time>2022-06-04T05:47:54Z</time>
      </trkpt>
      <trkpt lat="46.49443" lon="5.35557">
        <ele>229</ele>
        <time>2022-06-04T05:47:57Z</time>
      </trkpt>
      <trkpt lat="46.49465" lon="5.35566">
        <ele>228.6</ele>
        <time>2022-06-04T05:48:00Z</time>
      </trkpt>
      <trkpt lat="46.49479" lon="5.35572">
        <ele>228.4</ele>
        <time>2022-06-04T05:48:02Z</time>
      </trkpt>
      <trkpt lat="46.49526" lon="5.35593">
        <ele>228</ele>
        <time>2022-06-04T05:48:09Z</time>
      </trkpt>
      <trkpt lat="46.4957" lon="5.35609">
        <ele>227.4</ele>
        <time>2022-06-04T05:48:15Z</time>
      </trkpt>
      <trkpt lat="46.49585" lon="5.35614">
        <ele>227</ele>
        <time>2022-06-04T05:48:17Z</time>
      </trkpt>
      <trkpt lat="46.49614" lon="5.35623">
        <ele>226.4</ele>
        <time>2022-06-04T05:48:21Z</time>
      </trkpt>
      <trkpt lat="46.49636" lon="5.3563">
        <ele>225.8</ele>
        <time>2022-06-04T05:48:24Z</time>
      </trkpt>
      <trkpt lat="46.49664" lon="5.35638">
        <ele>225.4</ele>
        <time>2022-06-04T05:48:28Z</time>
      </trkpt>
      <trkpt lat="46.49683" lon="5.35644">
        <ele>225</ele>
        <time>2022-06-04T05:48:31Z</time>
      </trkpt>
      <trkpt lat="46.49692" lon="5.35647">
        <ele>224.8</ele>
        <time>2022-06-04T05:48:33Z</time>
      </trkpt>
      <trkpt lat="46.49696" lon="5.35646">
        <ele>224.8</ele>
        <time>2022-06-04T05:48:34Z</time>
      </trkpt>
      <trkpt lat="46.49704" lon="5.35629">
        <ele>224.6</ele>
        <time>2022-06-04T05:48:38Z</time>
      </trkpt>
      <trkpt lat="46.49708" lon="5.35605">
        <ele>224.2</ele>
        <time>2022-06-04T05:48:41Z</time>
      </trkpt>
      <trkpt lat="46.4971" lon="5.35595">
        <ele>224.2</ele>
        <time>2022-06-04T05:48:42Z</time>
      </trkpt>
      <trkpt lat="46.49718" lon="5.35521">
        <ele>223.4</ele>
        <time>2022-06-04T05:48:49Z</time>
      </trkpt>
      <trkpt lat="46.49721" lon="5.3549">
        <ele>223.2</ele>
        <time>2022-06-04T05:48:52Z</time>
      </trkpt>
      <trkpt lat="46.4973" lon="5.35427">
        <ele>222.6</ele>
        <time>2022-06-04T05:48:58Z</time>
      </trkpt>
      <trkpt lat="46.49734" lon="5.35374">
        <ele>222</ele>
        <time>2022-06-04T05:49:03Z</time>
      </trkpt>
      <trkpt lat="46.49734" lon="5.35339">
        <ele>221.4</ele>
        <time>2022-06-04T05:49:06Z</time>
      </trkpt>
      <trkpt lat="46.49731" lon="5.3531">
        <ele>221</ele>
        <time>2022-06-04T05:49:09Z</time>
      </trkpt>
      <trkpt lat="46.49729" lon="5.35293">
        <ele>221</ele>
        <time>2022-06-04T05:49:11Z</time>
      </trkpt>
      <trkpt lat="46.49717" lon="5.35235">
        <ele>221.8</ele>
        <time>2022-06-04T05:49:18Z</time>
      </trkpt>
      <trkpt lat="46.49715" lon="5.35227">
        <ele>222</ele>
        <time>2022-06-04T05:49:19Z</time>
      </trkpt>
      <trkpt lat="46.49706" lon="5.35184">
        <ele>222.2</ele>
        <time>2022-06-04T05:49:24Z</time>
      </trkpt>
      <trkpt lat="46.49692" lon="5.35116">
        <ele>222.2</ele>
        <time>2022-06-04T05:49:31Z</time>
      </trkpt>
      <trkpt lat="46.4968" lon="5.35058">
        <ele>221.4</ele>
        <time>2022-06-04T05:49:37Z</time>
      </trkpt>
      <trkpt lat="46.49667" lon="5.34998">
        <ele>222</ele>
        <time>2022-06-04T05:49:44Z</time>
      </trkpt>
      <trkpt lat="46.49658" lon="5.34948">
        <ele>222.6</ele>
        <time>2022-06-04T05:49:50Z</time>
      </trkpt>
      <trkpt lat="46.49656" lon="5.34923">
        <ele>223</ele>
        <time>2022-06-04T05:49:53Z</time>
      </trkpt>
      <trkpt lat="46.49655" lon="5.34915">
        <ele>223.2</ele>
        <time>2022-06-04T05:49:54Z</time>
      </trkpt>
      <trkpt lat="46.49647" lon="5.34887">
        <ele>223.8</ele>
        <time>2022-06-04T05:49:57Z</time>
      </trkpt>
      <trkpt lat="46.49645" lon="5.34879">
        <ele>223.8</ele>
        <time>2022-06-04T05:49:58Z</time>
      </trkpt>
      <trkpt lat="46.49638" lon="5.34838">
        <ele>223.8</ele>
        <time>2022-06-04T05:50:03Z</time>
      </trkpt>
      <trkpt lat="46.49631" lon="5.34792">
        <ele>223.8</ele>
        <time>2022-06-04T05:50:08Z</time>
      </trkpt>
      <trkpt lat="46.49631" lon="5.34782">
        <ele>223.6</ele>
        <time>2022-06-04T05:50:09Z</time>
      </trkpt>
      <trkpt lat="46.4963" lon="5.34732">
        <ele>222.6</ele>
        <time>2022-06-04T05:50:13Z</time>
      </trkpt>
      <trkpt lat="46.4963" lon="5.34707">
        <ele>222</ele>
        <time>2022-06-04T05:50:15Z</time>
      </trkpt>
      <trkpt lat="46.49634" lon="5.34669">
        <ele>220.6</ele>
        <time>2022-06-04T05:50:18Z</time>
      </trkpt>
      <trkpt lat="46.49637" lon="5.34631">
        <ele>219.2</ele>
        <time>2022-06-04T05:50:21Z</time>
      </trkpt>
      <trkpt lat="46.49643" lon="5.34586">
        <ele>218</ele>
        <time>2022-06-04T05:50:24Z</time>
      </trkpt>
      <trkpt lat="46.49652" lon="5.34534">
        <ele>216.6</ele>
        <time>2022-06-04T05:50:28Z</time>
      </trkpt>
      <trkpt lat="46.49655" lon="5.34522">
        <ele>216.4</ele>
        <time>2022-06-04T05:50:29Z</time>
      </trkpt>
      <trkpt lat="46.4966" lon="5.345">
        <ele>216</ele>
        <time>2022-06-04T05:50:31Z</time>
      </trkpt>
      <trkpt lat="46.49668" lon="5.34473">
        <ele>215.8</ele>
        <time>2022-06-04T05:50:34Z</time>
      </trkpt>
      <trkpt lat="46.49676" lon="5.34445">
        <ele>216.4</ele>
        <time>2022-06-04T05:50:37Z</time>
      </trkpt>
      <trkpt lat="46.49683" lon="5.3442">
        <ele>217.2</ele>
        <time>2022-06-04T05:50:40Z</time>
      </trkpt>
      <trkpt lat="46.49688" lon="5.34404">
        <ele>217.4</ele>
        <time>2022-06-04T05:50:42Z</time>
      </trkpt>
      <trkpt lat="46.49691" lon="5.34397">
        <ele>217.6</ele>
        <time>2022-06-04T05:50:43Z</time>
      </trkpt>
      <trkpt lat="46.49695" lon="5.34382">
        <ele>218.2</ele>
        <time>2022-06-04T05:50:45Z</time>
      </trkpt>
      <trkpt lat="46.49699" lon="5.34359">
        <ele>218.8</ele>
        <time>2022-06-04T05:50:48Z</time>
      </trkpt>
      <trkpt lat="46.497" lon="5.34353">
        <ele>219</ele>
        <time>2022-06-04T05:50:49Z</time>
      </trkpt>
      <trkpt lat="46.49704" lon="5.34339">
        <ele>219.4</ele>
        <time>2022-06-04T05:50:51Z</time>
      </trkpt>
      <trkpt lat="46.49709" lon="5.34318">
        <ele>219.8</ele>
        <time>2022-06-04T05:50:54Z</time>
      </trkpt>
      <trkpt lat="46.49712" lon="5.3431">
        <ele>220.2</ele>
        <time>2022-06-04T05:50:55Z</time>
      </trkpt>
      <trkpt lat="46.49714" lon="5.34302">
        <ele>220.6</ele>
        <time>2022-06-04T05:50:56Z</time>
      </trkpt>
      <trkpt lat="46.49719" lon="5.34294">
        <ele>220.6</ele>
        <time>2022-06-04T05:50:57Z</time>
      </trkpt>
      <trkpt lat="46.49734" lon="5.34273">
        <ele>220.8</ele>
        <time>2022-06-04T05:51:00Z</time>
      </trkpt>
      <trkpt lat="46.49762" lon="5.34228">
        <ele>221</ele>
        <time>2022-06-04T05:51:06Z</time>
      </trkpt>
      <trkpt lat="46.4978" lon="5.342">
        <ele>221</ele>
        <time>2022-06-04T05:51:10Z</time>
      </trkpt>
      <trkpt lat="46.49784" lon="5.34192">
        <ele>221</ele>
        <time>2022-06-04T05:51:11Z</time>
      </trkpt>
      <trkpt lat="46.49805" lon="5.34158">
        <ele>221.4</ele>
        <time>2022-06-04T05:51:16Z</time>
      </trkpt>
      <trkpt lat="46.49818" lon="5.3414">
        <ele>221.6</ele>
        <time>2022-06-04T05:51:19Z</time>
      </trkpt>
      <trkpt lat="46.49858" lon="5.34078">
        <ele>222</ele>
        <time>2022-06-04T05:51:28Z</time>
      </trkpt>
      <trkpt lat="46.49889" lon="5.34039">
        <ele>221.4</ele>
        <time>2022-06-04T05:51:34Z</time>
      </trkpt>
      <trkpt lat="46.49908" lon="5.34018">
        <ele>221.4</ele>
        <time>2022-06-04T05:51:38Z</time>
      </trkpt>
      <trkpt lat="46.49916" lon="5.34008">
        <ele>221.6</ele>
        <time>2022-06-04T05:51:40Z</time>
      </trkpt>
      <trkpt lat="46.49922" lon="5.34003">
        <ele>221.6</ele>
        <time>2022-06-04T05:51:41Z</time>
      </trkpt>
      <trkpt lat="46.49935" lon="5.33989">
        <ele>222.2</ele>
        <time>2022-06-04T05:51:44Z</time>
      </trkpt>
      <trkpt lat="46.4994" lon="5.33983">
        <ele>222.4</ele>
        <time>2022-06-04T05:51:45Z</time>
      </trkpt>
      <trkpt lat="46.4995" lon="5.33974">
        <ele>222.8</ele>
        <time>2022-06-04T05:51:47Z</time>
      </trkpt>
      <trkpt lat="46.49959" lon="5.33964">
        <ele>222.8</ele>
        <time>2022-06-04T05:51:49Z</time>
      </trkpt>
      <trkpt lat="46.49968" lon="5.33953">
        <ele>223.2</ele>
        <time>2022-06-04T05:51:51Z</time>
      </trkpt>
      <trkpt lat="46.49977" lon="5.33943">
        <ele>223.4</ele>
        <time>2022-06-04T05:51:53Z</time>
      </trkpt>
      <trkpt lat="46.50008" lon="5.33906">
        <ele>224.4</ele>
        <time>2022-06-04T05:51:59Z</time>
      </trkpt>
      <trkpt lat="46.50017" lon="5.33895">
        <ele>224.6</ele>
        <time>2022-06-04T05:52:01Z</time>
      </trkpt>
      <trkpt lat="46.50028" lon="5.33884">
        <ele>224.6</ele>
        <time>2022-06-04T05:52:03Z</time>
      </trkpt>
      <trkpt lat="46.5005" lon="5.33859">
        <ele>224.6</ele>
        <time>2022-06-04T05:52:07Z</time>
      </trkpt>
      <trkpt lat="46.50061" lon="5.33845">
        <ele>224.4</ele>
        <time>2022-06-04T05:52:09Z</time>
      </trkpt>
      <trkpt lat="46.50093" lon="5.33811">
        <ele>223.6</ele>
        <time>2022-06-04T05:52:14Z</time>
      </trkpt>
      <trkpt lat="46.50104" lon="5.33798">
        <ele>223.2</ele>
        <time>2022-06-04T05:52:16Z</time>
      </trkpt>
      <trkpt lat="46.50122" lon="5.33778">
        <ele>222</ele>
        <time>2022-06-04T05:52:19Z</time>
      </trkpt>
      <trkpt lat="46.50129" lon="5.33771">
        <ele>221.8</ele>
        <time>2022-06-04T05:52:20Z</time>
      </trkpt>
      <trkpt lat="46.50135" lon="5.33765">
        <ele>221.8</ele>
        <time>2022-06-04T05:52:21Z</time>
      </trkpt>
      <trkpt lat="46.50146" lon="5.33755">
        <ele>221.6</ele>
        <time>2022-06-04T05:52:23Z</time>
      </trkpt>
      <trkpt lat="46.50162" lon="5.33744">
        <ele>221.6</ele>
        <time>2022-06-04T05:52:25Z</time>
      </trkpt>
      <trkpt lat="46.50175" lon="5.33734">
        <ele>221.6</ele>
        <time>2022-06-04T05:52:27Z</time>
      </trkpt>
      <trkpt lat="46.50185" lon="5.33718">
        <ele>221.6</ele>
        <time>2022-06-04T05:52:29Z</time>
      </trkpt>
      <trkpt lat="46.50191" lon="5.33704">
        <ele>221.8</ele>
        <time>2022-06-04T05:52:31Z</time>
      </trkpt>
      <trkpt lat="46.50203" lon="5.3369">
        <ele>222</ele>
        <time>2022-06-04T05:52:33Z</time>
      </trkpt>
      <trkpt lat="46.50208" lon="5.33685">
        <ele>222</ele>
        <time>2022-06-04T05:52:34Z</time>
      </trkpt>
      <trkpt lat="46.50227" lon="5.3367">
        <ele>222.2</ele>
        <time>2022-06-04T05:52:37Z</time>
      </trkpt>
      <trkpt lat="46.50234" lon="5.33663">
        <ele>222.2</ele>
        <time>2022-06-04T05:52:38Z</time>
      </trkpt>
      <trkpt lat="46.5024" lon="5.33656">
        <ele>222.2</ele>
        <time>2022-06-04T05:52:39Z</time>
      </trkpt>
      <trkpt lat="46.50257" lon="5.33639">
        <ele>222.2</ele>
        <time>2022-06-04T05:52:42Z</time>
      </trkpt>
      <trkpt lat="46.50262" lon="5.33633">
        <ele>222.2</ele>
        <time>2022-06-04T05:52:43Z</time>
      </trkpt>
      <trkpt lat="46.50293" lon="5.33594">
        <ele>221.6</ele>
        <time>2022-06-04T05:52:49Z</time>
      </trkpt>
      <trkpt lat="46.50314" lon="5.33573">
        <ele>221.4</ele>
        <time>2022-06-04T05:52:53Z</time>
      </trkpt>
      <trkpt lat="46.5032" lon="5.33567">
        <ele>221.4</ele>
        <time>2022-06-04T05:52:54Z</time>
      </trkpt>
      <trkpt lat="46.5035" lon="5.33536">
        <ele>220.8</ele>
        <time>2022-06-04T05:52:59Z</time>
      </trkpt>
      <trkpt lat="46.50357" lon="5.33529">
        <ele>220.6</ele>
        <time>2022-06-04T05:53:00Z</time>
      </trkpt>
      <trkpt lat="46.50364" lon="5.33524">
        <ele>220.6</ele>
        <time>2022-06-04T05:53:01Z</time>
      </trkpt>
      <trkpt lat="46.50406" lon="5.33476">
        <ele>220.2</ele>
        <time>2022-06-04T05:53:09Z</time>
      </trkpt>
      <trkpt lat="46.50411" lon="5.3347">
        <ele>220.2</ele>
        <time>2022-06-04T05:53:10Z</time>
      </trkpt>
      <trkpt lat="46.50438" lon="5.33443">
        <ele>219.6</ele>
        <time>2022-06-04T05:53:14Z</time>
      </trkpt>
      <trkpt lat="46.50443" lon="5.33429">
        <ele>219.2</ele>
        <time>2022-06-04T05:53:16Z</time>
      </trkpt>
      <trkpt lat="46.50445" lon="5.33421">
        <ele>219</ele>
        <time>2022-06-04T05:53:17Z</time>
      </trkpt>
      <trkpt lat="46.50452" lon="5.33391">
        <ele>218.6</ele>
        <time>2022-06-04T05:53:20Z</time>
      </trkpt>
      <trkpt lat="46.50453" lon="5.3338">
        <ele>218.4</ele>
        <time>2022-06-04T05:53:21Z</time>
      </trkpt>
      <trkpt lat="46.50453" lon="5.33368">
        <ele>218.4</ele>
        <time>2022-06-04T05:53:22Z</time>
      </trkpt>
      <trkpt lat="46.50453" lon="5.33333">
        <ele>218.2</ele>
        <time>2022-06-04T05:53:25Z</time>
      </trkpt>
      <trkpt lat="46.50456" lon="5.33303">
        <ele>217.8</ele>
        <time>2022-06-04T05:53:28Z</time>
      </trkpt>
      <trkpt lat="46.50455" lon="5.33272">
        <ele>218</ele>
        <time>2022-06-04T05:53:31Z</time>
      </trkpt>
      <trkpt lat="46.50453" lon="5.33222">
        <ele>218.2</ele>
        <time>2022-06-04T05:53:36Z</time>
      </trkpt>
      <trkpt lat="46.50455" lon="5.33152">
        <ele>218.2</ele>
        <time>2022-06-04T05:53:43Z</time>
      </trkpt>
      <trkpt lat="46.50455" lon="5.33132">
        <ele>218.2</ele>
        <time>2022-06-04T05:53:45Z</time>
      </trkpt>
      <trkpt lat="46.5046" lon="5.33092">
        <ele>217.8</ele>
        <time>2022-06-04T05:53:48Z</time>
      </trkpt>
      <trkpt lat="46.50462" lon="5.33049">
        <ele>217.2</ele>
        <time>2022-06-04T05:53:51Z</time>
      </trkpt>
      <trkpt lat="46.50467" lon="5.33012">
        <ele>216.2</ele>
        <time>2022-06-04T05:53:54Z</time>
      </trkpt>
      <trkpt lat="46.50468" lon="5.32982">
        <ele>215.4</ele>
        <time>2022-06-04T05:53:56Z</time>
      </trkpt>
      <trkpt lat="46.50469" lon="5.32968">
        <ele>214.8</ele>
        <time>2022-06-04T05:53:57Z</time>
      </trkpt>
      <trkpt lat="46.5047" lon="5.32939">
        <ele>213.8</ele>
        <time>2022-06-04T05:53:59Z</time>
      </trkpt>
      <trkpt lat="46.50471" lon="5.3291">
        <ele>212.8</ele>
        <time>2022-06-04T05:54:01Z</time>
      </trkpt>
      <trkpt lat="46.50473" lon="5.3288">
        <ele>211.4</ele>
        <time>2022-06-04T05:54:03Z</time>
      </trkpt>
      <trkpt lat="46.50473" lon="5.32865">
        <ele>210.8</ele>
        <time>2022-06-04T05:54:04Z</time>
      </trkpt>
      <trkpt lat="46.50473" lon="5.3285">
        <ele>210.2</ele>
        <time>2022-06-04T05:54:05Z</time>
      </trkpt>
      <trkpt lat="46.50474" lon="5.3282">
        <ele>208.8</ele>
        <time>2022-06-04T05:54:07Z</time>
      </trkpt>
      <trkpt lat="46.50474" lon="5.3279">
        <ele>207.4</ele>
        <time>2022-06-04T05:54:09Z</time>
      </trkpt>
      <trkpt lat="46.50475" lon="5.32747">
        <ele>206.2</ele>
        <time>2022-06-04T05:54:12Z</time>
      </trkpt>
      <trkpt lat="46.50475" lon="5.3272">
        <ele>205.6</ele>
        <time>2022-06-04T05:54:14Z</time>
      </trkpt>
      <trkpt lat="46.50476" lon="5.32707">
        <ele>205</ele>
        <time>2022-06-04T05:54:15Z</time>
      </trkpt>
      <trkpt lat="46.50476" lon="5.32627">
        <ele>204.2</ele>
        <time>2022-06-04T05:54:21Z</time>
      </trkpt>
      <trkpt lat="46.50476" lon="5.32614">
        <ele>204</ele>
        <time>2022-06-04T05:54:22Z</time>
      </trkpt>
      <trkpt lat="46.50473" lon="5.32524">
        <ele>203</ele>
        <time>2022-06-04T05:54:29Z</time>
      </trkpt>
      <trkpt lat="46.50472" lon="5.32511">
        <ele>202.8</ele>
        <time>2022-06-04T05:54:30Z</time>
      </trkpt>
      <trkpt lat="46.50466" lon="5.32437">
        <ele>202</ele>
        <time>2022-06-04T05:54:36Z</time>
      </trkpt>
      <trkpt lat="46.5046" lon="5.32401">
        <ele>202</ele>
        <time>2022-06-04T05:54:39Z</time>
      </trkpt>
      <trkpt lat="46.50447" lon="5.32344">
        <ele>201</ele>
        <time>2022-06-04T05:54:44Z</time>
      </trkpt>
      <trkpt lat="46.50445" lon="5.32333">
        <ele>200.8</ele>
        <time>2022-06-04T05:54:45Z</time>
      </trkpt>
      <trkpt lat="46.50433" lon="5.3227">
        <ele>200.6</ele>
        <time>2022-06-04T05:54:51Z</time>
      </trkpt>
      <trkpt lat="46.50432" lon="5.32257">
        <ele>200.8</ele>
        <time>2022-06-04T05:54:52Z</time>
      </trkpt>
      <trkpt lat="46.5043" lon="5.32224">
        <ele>200.6</ele>
        <time>2022-06-04T05:54:55Z</time>
      </trkpt>
      <trkpt lat="46.5043" lon="5.32201">
        <ele>200.6</ele>
        <time>2022-06-04T05:54:57Z</time>
      </trkpt>
      <trkpt lat="46.50432" lon="5.32121">
        <ele>199.8</ele>
        <time>2022-06-04T05:55:04Z</time>
      </trkpt>
      <trkpt lat="46.50432" lon="5.32112">
        <ele>199.8</ele>
        <time>2022-06-04T05:55:05Z</time>
      </trkpt>
      <trkpt lat="46.50432" lon="5.32098">
        <ele>199.6</ele>
        <time>2022-06-04T05:55:06Z</time>
      </trkpt>
      <trkpt lat="46.50435" lon="5.32016">
        <ele>198.6</ele>
        <time>2022-06-04T05:55:13Z</time>
      </trkpt>
      <trkpt lat="46.50436" lon="5.31981">
        <ele>198.2</ele>
        <time>2022-06-04T05:55:16Z</time>
      </trkpt>
      <trkpt lat="46.50438" lon="5.31925">
        <ele>197.6</ele>
        <time>2022-06-04T05:55:21Z</time>
      </trkpt>
      <trkpt lat="46.50439" lon="5.31881">
        <ele>197.2</ele>
        <time>2022-06-04T05:55:25Z</time>
      </trkpt>
      <trkpt lat="46.5043" lon="5.31827">
        <ele>197</ele>
        <time>2022-06-04T05:55:30Z</time>
      </trkpt>
      <trkpt lat="46.50408" lon="5.31746">
        <ele>196.8</ele>
        <time>2022-06-04T05:55:38Z</time>
      </trkpt>
      <trkpt lat="46.50405" lon="5.31736">
        <ele>196.8</ele>
        <time>2022-06-04T05:55:39Z</time>
      </trkpt>
      <trkpt lat="46.50377" lon="5.31683">
        <ele>196.6</ele>
        <time>2022-06-04T05:55:45Z</time>
      </trkpt>
      <trkpt lat="46.50366" lon="5.31667">
        <ele>196.6</ele>
        <time>2022-06-04T05:55:47Z</time>
      </trkpt>
      <trkpt lat="46.50346" lon="5.31647">
        <ele>196.2</ele>
        <time>2022-06-04T05:55:50Z</time>
      </trkpt>
      <trkpt lat="46.50298" lon="5.31612">
        <ele>195.4</ele>
        <time>2022-06-04T05:55:57Z</time>
      </trkpt>
      <trkpt lat="46.50291" lon="5.31606">
        <ele>195.4</ele>
        <time>2022-06-04T05:55:58Z</time>
      </trkpt>
      <trkpt lat="46.50249" lon="5.31565">
        <ele>195.4</ele>
        <time>2022-06-04T05:56:05Z</time>
      </trkpt>
      <trkpt lat="46.50225" lon="5.31528">
        <ele>195.6</ele>
        <time>2022-06-04T05:56:10Z</time>
      </trkpt>
      <trkpt lat="46.5021" lon="5.31493">
        <ele>196.2</ele>
        <time>2022-06-04T05:56:15Z</time>
      </trkpt>
      <trkpt lat="46.50204" lon="5.31479">
        <ele>196.6</ele>
        <time>2022-06-04T05:56:17Z</time>
      </trkpt>
      <trkpt lat="46.50195" lon="5.31452">
        <ele>197.6</ele>
        <time>2022-06-04T05:56:21Z</time>
      </trkpt>
      <trkpt lat="46.50192" lon="5.31444">
        <ele>198.2</ele>
        <time>2022-06-04T05:56:22Z</time>
      </trkpt>
      <trkpt lat="46.50188" lon="5.31431">
        <ele>199</ele>
        <time>2022-06-04T05:56:24Z</time>
      </trkpt>
      <trkpt lat="46.50181" lon="5.31412">
        <ele>200.2</ele>
        <time>2022-06-04T05:56:27Z</time>
      </trkpt>
      <trkpt lat="46.50176" lon="5.31395">
        <ele>200.6</ele>
        <time>2022-06-04T05:56:30Z</time>
      </trkpt>
      <trkpt lat="46.50171" lon="5.31383">
        <ele>201.2</ele>
        <time>2022-06-04T05:56:32Z</time>
      </trkpt>
      <trkpt lat="46.50163" lon="5.31361">
        <ele>202.2</ele>
        <time>2022-06-04T05:56:36Z</time>
      </trkpt>
      <trkpt lat="46.50161" lon="5.31356">
        <ele>202.4</ele>
        <time>2022-06-04T05:56:37Z</time>
      </trkpt>
      <trkpt lat="46.50149" lon="5.31321">
        <ele>203.2</ele>
        <time>2022-06-04T05:56:42Z</time>
      </trkpt>
      <trkpt lat="46.50147" lon="5.31313">
        <ele>203.4</ele>
        <time>2022-06-04T05:56:43Z</time>
      </trkpt>
      <trkpt lat="46.50125" lon="5.31248">
        <ele>204.4</ele>
        <time>2022-06-04T05:56:51Z</time>
      </trkpt>
      <trkpt lat="46.50103" lon="5.31181">
        <ele>203.8</ele>
        <time>2022-06-04T05:56:58Z</time>
      </trkpt>
      <trkpt lat="46.50082" lon="5.31119">
        <ele>202.2</ele>
        <time>2022-06-04T05:57:04Z</time>
      </trkpt>
      <trkpt lat="46.50064" lon="5.31065">
        <ele>201.8</ele>
        <time>2022-06-04T05:57:10Z</time>
      </trkpt>
      <trkpt lat="46.50051" lon="5.31029">
        <ele>202.6</ele>
        <time>2022-06-04T05:57:15Z</time>
      </trkpt>
      <trkpt lat="46.50049" lon="5.31023">
        <ele>202.6</ele>
        <time>2022-06-04T05:57:16Z</time>
      </trkpt>
      <trkpt lat="46.50044" lon="5.31011">
        <ele>203.4</ele>
        <time>2022-06-04T05:57:18Z</time>
      </trkpt>
      <trkpt lat="46.50036" lon="5.30988">
        <ele>204.8</ele>
        <time>2022-06-04T05:57:22Z</time>
      </trkpt>
      <trkpt lat="46.50035" lon="5.30982">
        <ele>205</ele>
        <time>2022-06-04T05:57:23Z</time>
      </trkpt>
      <trkpt lat="46.50029" lon="5.30966">
        <ele>206</ele>
        <time>2022-06-04T05:57:26Z</time>
      </trkpt>
      <trkpt lat="46.50019" lon="5.30937">
        <ele>207.2</ele>
        <time>2022-06-04T05:57:31Z</time>
      </trkpt>
      <trkpt lat="46.50015" lon="5.30926">
        <ele>207.8</ele>
        <time>2022-06-04T05:57:33Z</time>
      </trkpt>
      <trkpt lat="46.50013" lon="5.3092">
        <ele>208.2</ele>
        <time>2022-06-04T05:57:34Z</time>
      </trkpt>
      <trkpt lat="46.50006" lon="5.30904">
        <ele>208.8</ele>
        <time>2022-06-04T05:57:37Z</time>
      </trkpt>
      <trkpt lat="46.50003" lon="5.30892">
        <ele>209.4</ele>
        <time>2022-06-04T05:57:39Z</time>
      </trkpt>
      <trkpt lat="46.50001" lon="5.30887">
        <ele>209.8</ele>
        <time>2022-06-04T05:57:40Z</time>
      </trkpt>
      <trkpt lat="46.49995" lon="5.30871">
        <ele>210.4</ele>
        <time>2022-06-04T05:57:43Z</time>
      </trkpt>
      <trkpt lat="46.49984" lon="5.30839">
        <ele>211.6</ele>
        <time>2022-06-04T05:57:49Z</time>
      </trkpt>
      <trkpt lat="46.4998" lon="5.30825">
        <ele>212</ele>
        <time>2022-06-04T05:57:51Z</time>
      </trkpt>
      <trkpt lat="46.49973" lon="5.308">
        <ele>212.6</ele>
        <time>2022-06-04T05:57:55Z</time>
      </trkpt>
      <trkpt lat="46.49966" lon="5.30772">
        <ele>213</ele>
        <time>2022-06-04T05:57:59Z</time>
      </trkpt>
      <trkpt lat="46.49958" lon="5.30733">
        <ele>213.6</ele>
        <time>2022-06-04T05:58:05Z</time>
      </trkpt>
      <trkpt lat="46.49955" lon="5.30719">
        <ele>213.8</ele>
        <time>2022-06-04T05:58:07Z</time>
      </trkpt>
      <trkpt lat="46.4995" lon="5.30688">
        <ele>214</ele>
        <time>2022-06-04T05:58:11Z</time>
      </trkpt>
      <trkpt lat="46.49947" lon="5.30671">
        <ele>214</ele>
        <time>2022-06-04T05:58:13Z</time>
      </trkpt>
      <trkpt lat="46.49934" lon="5.30612">
        <ele>213.4</ele>
        <time>2022-06-04T05:58:19Z</time>
      </trkpt>
      <trkpt lat="46.49933" lon="5.306">
        <ele>213</ele>
        <time>2022-06-04T05:58:20Z</time>
      </trkpt>
      <trkpt lat="46.49932" lon="5.30577">
        <ele>212.6</ele>
        <time>2022-06-04T05:58:22Z</time>
      </trkpt>
      <trkpt lat="46.49933" lon="5.30565">
        <ele>212.4</ele>
        <time>2022-06-04T05:58:23Z</time>
      </trkpt>
      <trkpt lat="46.49935" lon="5.30542">
        <ele>211.6</ele>
        <time>2022-06-04T05:58:25Z</time>
      </trkpt>
      <trkpt lat="46.49937" lon="5.3053">
        <ele>211.2</ele>
        <time>2022-06-04T05:58:26Z</time>
      </trkpt>
      <trkpt lat="46.4994" lon="5.30518">
        <ele>211</ele>
        <time>2022-06-04T05:58:27Z</time>
      </trkpt>
      <trkpt lat="46.49947" lon="5.30496">
        <ele>209.8</ele>
        <time>2022-06-04T05:58:29Z</time>
      </trkpt>
      <trkpt lat="46.49956" lon="5.30475">
        <ele>209.2</ele>
        <time>2022-06-04T05:58:31Z</time>
      </trkpt>
      <trkpt lat="46.49962" lon="5.30465">
        <ele>209</ele>
        <time>2022-06-04T05:58:32Z</time>
      </trkpt>
      <trkpt lat="46.49968" lon="5.30456">
        <ele>208.8</ele>
        <time>2022-06-04T05:58:33Z</time>
      </trkpt>
      <trkpt lat="46.49982" lon="5.30441">
        <ele>208</ele>
        <time>2022-06-04T05:58:35Z</time>
      </trkpt>
      <trkpt lat="46.49989" lon="5.30434">
        <ele>207.6</ele>
        <time>2022-06-04T05:58:36Z</time>
      </trkpt>
      <trkpt lat="46.50019" lon="5.30411">
        <ele>206.4</ele>
        <time>2022-06-04T05:58:40Z</time>
      </trkpt>
      <trkpt lat="46.50027" lon="5.30405">
        <ele>206.4</ele>
        <time>2022-06-04T05:58:41Z</time>
      </trkpt>
      <trkpt lat="46.50046" lon="5.30386">
        <ele>205.2</ele>
        <time>2022-06-04T05:58:44Z</time>
      </trkpt>
      <trkpt lat="46.50057" lon="5.30371">
        <ele>204.8</ele>
        <time>2022-06-04T05:58:46Z</time>
      </trkpt>
      <trkpt lat="46.50076" lon="5.30331">
        <ele>204.6</ele>
        <time>2022-06-04T05:58:51Z</time>
      </trkpt>
      <trkpt lat="46.50083" lon="5.30308">
        <ele>204.6</ele>
        <time>2022-06-04T05:58:54Z</time>
      </trkpt>
      <trkpt lat="46.50085" lon="5.30292">
        <ele>205</ele>
        <time>2022-06-04T05:58:56Z</time>
      </trkpt>
      <trkpt lat="46.50087" lon="5.30276">
        <ele>205.6</ele>
        <time>2022-06-04T05:58:58Z</time>
      </trkpt>
      <trkpt lat="46.50088" lon="5.30252">
        <ele>206.8</ele>
        <time>2022-06-04T05:59:01Z</time>
      </trkpt>
      <trkpt lat="46.50088" lon="5.30244">
        <ele>207.2</ele>
        <time>2022-06-04T05:59:02Z</time>
      </trkpt>
      <trkpt lat="46.50088" lon="5.30219">
        <ele>208</ele>
        <time>2022-06-04T05:59:05Z</time>
      </trkpt>
      <trkpt lat="46.50088" lon="5.30206">
        <ele>208</ele>
        <time>2022-06-04T05:59:07Z</time>
      </trkpt>
      <trkpt lat="46.50088" lon="5.3019">
        <ele>208</ele>
        <time>2022-06-04T05:59:09Z</time>
      </trkpt>
      <trkpt lat="46.50089" lon="5.30182">
        <ele>208.2</ele>
        <time>2022-06-04T05:59:10Z</time>
      </trkpt>
      <trkpt lat="46.5009" lon="5.3015">
        <ele>208.2</ele>
        <time>2022-06-04T05:59:14Z</time>
      </trkpt>
      <trkpt lat="46.5009" lon="5.30094">
        <ele>208.8</ele>
        <time>2022-06-04T05:59:21Z</time>
      </trkpt>
      <trkpt lat="46.5009" lon="5.30085">
        <ele>208.8</ele>
        <time>2022-06-04T05:59:22Z</time>
      </trkpt>
      <trkpt lat="46.5009" lon="5.30077">
        <ele>209</ele>
        <time>2022-06-04T05:59:23Z</time>
      </trkpt>
      <trkpt lat="46.50089" lon="5.30015">
        <ele>209.4</ele>
        <time>2022-06-04T05:59:30Z</time>
      </trkpt>
      <trkpt lat="46.50079" lon="5.29965">
        <ele>209.2</ele>
        <time>2022-06-04T05:59:36Z</time>
      </trkpt>
      <trkpt lat="46.50057" lon="5.29914">
        <ele>208.8</ele>
        <time>2022-06-04T05:59:42Z</time>
      </trkpt>
      <trkpt lat="46.50027" lon="5.29875">
        <ele>208</ele>
        <time>2022-06-04T05:59:48Z</time>
      </trkpt>
      <trkpt lat="46.50015" lon="5.29864">
        <ele>207.6</ele>
        <time>2022-06-04T05:59:50Z</time>
      </trkpt>
      <trkpt lat="46.50001" lon="5.29856">
        <ele>207.4</ele>
        <time>2022-06-04T05:59:52Z</time>
      </trkpt>
      <trkpt lat="46.49994" lon="5.29854">
        <ele>207.2</ele>
        <time>2022-06-04T05:59:53Z</time>
      </trkpt>
      <trkpt lat="46.49947" lon="5.29846">
        <ele>206.8</ele>
        <time>2022-06-04T06:00:00Z</time>
      </trkpt>
      <trkpt lat="46.49917" lon="5.29836">
        <ele>207</ele>
        <time>2022-06-04T06:00:05Z</time>
      </trkpt>
      <trkpt lat="46.49883" lon="5.29822">
        <ele>208.4</ele>
        <time>2022-06-04T06:00:11Z</time>
      </trkpt>
      <trkpt lat="46.49879" lon="5.2982">
        <ele>208.6</ele>
        <time>2022-06-04T06:00:12Z</time>
      </trkpt>
      <trkpt lat="46.49872" lon="5.29817">
        <ele>208.8</ele>
        <time>2022-06-04T06:00:13Z</time>
      </trkpt>
      <trkpt lat="46.49855" lon="5.2981">
        <ele>209.4</ele>
        <time>2022-06-04T06:00:16Z</time>
      </trkpt>
      <trkpt lat="46.49844" lon="5.29806">
        <ele>209.6</ele>
        <time>2022-06-04T06:00:18Z</time>
      </trkpt>
      <trkpt lat="46.49832" lon="5.29802">
        <ele>209.8</ele>
        <time>2022-06-04T06:00:20Z</time>
      </trkpt>
      <trkpt lat="46.49786" lon="5.29788">
        <ele>210.4</ele>
        <time>2022-06-04T06:00:28Z</time>
      </trkpt>
      <trkpt lat="46.49775" lon="5.29787">
        <ele>210.4</ele>
        <time>2022-06-04T06:00:30Z</time>
      </trkpt>
      <trkpt lat="46.49759" lon="5.29784">
        <ele>210.6</ele>
        <time>2022-06-04T06:00:33Z</time>
      </trkpt>
      <trkpt lat="46.4975" lon="5.29773">
        <ele>210.4</ele>
        <time>2022-06-04T06:00:35Z</time>
      </trkpt>
      <trkpt lat="46.49746" lon="5.29765">
        <ele>210.4</ele>
        <time>2022-06-04T06:00:36Z</time>
      </trkpt>
      <trkpt lat="46.4973" lon="5.29731">
        <ele>210.2</ele>
        <time>2022-06-04T06:00:42Z</time>
      </trkpt>
      <trkpt lat="46.4973" lon="5.2973">
        <ele>210</ele>
        <time>2022-06-04T06:00:45Z</time>
      </trkpt>
      <trkpt lat="46.49726" lon="5.29724">
        <ele>210.2</ele>
        <time>2022-06-04T06:02:55Z</time>
      </trkpt>
      <trkpt lat="46.49722" lon="5.29718">
        <ele>210.2</ele>
        <time>2022-06-04T06:02:57Z</time>
      </trkpt>
      <trkpt lat="46.49706" lon="5.29694">
        <ele>210.4</ele>
        <time>2022-06-04T06:03:02Z</time>
      </trkpt>
      <trkpt lat="46.49682" lon="5.29652">
        <ele>210.2</ele>
        <time>2022-06-04T06:03:08Z</time>
      </trkpt>
      <trkpt lat="46.49655" lon="5.29603">
        <ele>210.4</ele>
        <time>2022-06-04T06:03:15Z</time>
      </trkpt>
      <trkpt lat="46.49636" lon="5.29569">
        <ele>210.8</ele>
        <time>2022-06-04T06:03:20Z</time>
      </trkpt>
      <trkpt lat="46.49616" lon="5.29533">
        <ele>211.2</ele>
        <time>2022-06-04T06:03:25Z</time>
      </trkpt>
      <trkpt lat="46.49579" lon="5.29466">
        <ele>211.2</ele>
        <time>2022-06-04T06:03:34Z</time>
      </trkpt>
      <trkpt lat="46.49545" lon="5.29407">
        <ele>210.8</ele>
        <time>2022-06-04T06:03:42Z</time>
      </trkpt>
      <trkpt lat="46.49523" lon="5.2936">
        <ele>210.2</ele>
        <time>2022-06-04T06:03:47Z</time>
      </trkpt>
      <trkpt lat="46.49517" lon="5.29335">
        <ele>209.8</ele>
        <time>2022-06-04T06:03:49Z</time>
      </trkpt>
      <trkpt lat="46.49513" lon="5.29308">
        <ele>208.8</ele>
        <time>2022-06-04T06:03:51Z</time>
      </trkpt>
      <trkpt lat="46.49513" lon="5.29294">
        <ele>208.6</ele>
        <time>2022-06-04T06:03:52Z</time>
      </trkpt>
      <trkpt lat="46.49514" lon="5.29266">
        <ele>207.4</ele>
        <time>2022-06-04T06:03:54Z</time>
      </trkpt>
      <trkpt lat="46.49517" lon="5.29251">
        <ele>206.4</ele>
        <time>2022-06-04T06:03:55Z</time>
      </trkpt>
      <trkpt lat="46.49521" lon="5.29237">
        <ele>205.8</ele>
        <time>2022-06-04T06:03:56Z</time>
      </trkpt>
      <trkpt lat="46.49532" lon="5.29208">
        <ele>205.2</ele>
        <time>2022-06-04T06:03:58Z</time>
      </trkpt>
      <trkpt lat="46.49544" lon="5.29184">
        <ele>203.8</ele>
        <time>2022-06-04T06:04:00Z</time>
      </trkpt>
      <trkpt lat="46.49557" lon="5.29155">
        <ele>202</ele>
        <time>2022-06-04T06:04:02Z</time>
      </trkpt>
      <trkpt lat="46.4956" lon="5.29143">
        <ele>201.4</ele>
        <time>2022-06-04T06:04:03Z</time>
      </trkpt>
      <trkpt lat="46.49569" lon="5.2911">
        <ele>200.6</ele>
        <time>2022-06-04T06:04:05Z</time>
      </trkpt>
      <trkpt lat="46.49574" lon="5.29081">
        <ele>199.2</ele>
        <time>2022-06-04T06:04:07Z</time>
      </trkpt>
      <trkpt lat="46.49578" lon="5.29062">
        <ele>198.8</ele>
        <time>2022-06-04T06:04:08Z</time>
      </trkpt>
      <trkpt lat="46.4958" lon="5.29049">
        <ele>198</ele>
        <time>2022-06-04T06:04:09Z</time>
      </trkpt>
      <trkpt lat="46.49586" lon="5.29013">
        <ele>196.4</ele>
        <time>2022-06-04T06:04:11Z</time>
      </trkpt>
      <trkpt lat="46.49591" lon="5.28983">
        <ele>195.2</ele>
        <time>2022-06-04T06:04:13Z</time>
      </trkpt>
      <trkpt lat="46.49597" lon="5.28951">
        <ele>194</ele>
        <time>2022-06-04T06:04:15Z</time>
      </trkpt>
      <trkpt lat="46.49606" lon="5.28903">
        <ele>192.2</ele>
        <time>2022-06-04T06:04:18Z</time>
      </trkpt>
      <trkpt lat="46.49612" lon="5.28869">
        <ele>190.6</ele>
        <time>2022-06-04T06:04:20Z</time>
      </trkpt>
      <trkpt lat="46.49621" lon="5.28826">
        <ele>189.6</ele>
        <time>2022-06-04T06:04:23Z</time>
      </trkpt>
      <trkpt lat="46.49635" lon="5.28747">
        <ele>188.6</ele>
        <time>2022-06-04T06:04:29Z</time>
      </trkpt>
      <trkpt lat="46.49653" lon="5.28667">
        <ele>188</ele>
        <time>2022-06-04T06:04:36Z</time>
      </trkpt>
      <trkpt lat="46.49672" lon="5.28593">
        <ele>189.4</ele>
        <time>2022-06-04T06:04:43Z</time>
      </trkpt>
      <trkpt lat="46.49674" lon="5.28583">
        <ele>189.6</ele>
        <time>2022-06-04T06:04:44Z</time>
      </trkpt>
      <trkpt lat="46.49676" lon="5.28573">
        <ele>189.6</ele>
        <time>2022-06-04T06:04:45Z</time>
      </trkpt>
      <trkpt lat="46.4969" lon="5.28498">
        <ele>189.8</ele>
        <time>2022-06-04T06:04:52Z</time>
      </trkpt>
      <trkpt lat="46.497" lon="5.28419">
        <ele>189.6</ele>
        <time>2022-06-04T06:04:59Z</time>
      </trkpt>
      <trkpt lat="46.49714" lon="5.28356">
        <ele>188.8</ele>
        <time>2022-06-04T06:05:05Z</time>
      </trkpt>
      <trkpt lat="46.49736" lon="5.28276">
        <ele>188.6</ele>
        <time>2022-06-04T06:05:13Z</time>
      </trkpt>
      <trkpt lat="46.49739" lon="5.28266">
        <ele>188.6</ele>
        <time>2022-06-04T06:05:14Z</time>
      </trkpt>
      <trkpt lat="46.49741" lon="5.28256">
        <ele>188.6</ele>
        <time>2022-06-04T06:05:15Z</time>
      </trkpt>
      <trkpt lat="46.49751" lon="5.28195">
        <ele>188.6</ele>
        <time>2022-06-04T06:05:21Z</time>
      </trkpt>
      <trkpt lat="46.49763" lon="5.28113">
        <ele>188.8</ele>
        <time>2022-06-04T06:05:29Z</time>
      </trkpt>
      <trkpt lat="46.49764" lon="5.28103">
        <ele>188.6</ele>
        <time>2022-06-04T06:05:30Z</time>
      </trkpt>
      <trkpt lat="46.49766" lon="5.28083">
        <ele>188.6</ele>
        <time>2022-06-04T06:05:32Z</time>
      </trkpt>
      <trkpt lat="46.49768" lon="5.28033">
        <ele>188.6</ele>
        <time>2022-06-04T06:05:37Z</time>
      </trkpt>
      <trkpt lat="46.49766" lon="5.27949">
        <ele>189.6</ele>
        <time>2022-06-04T06:05:46Z</time>
      </trkpt>
      <trkpt lat="46.49766" lon="5.27941">
        <ele>189.8</ele>
        <time>2022-06-04T06:05:47Z</time>
      </trkpt>
      <trkpt lat="46.49764" lon="5.27864">
        <ele>191</ele>
        <time>2022-06-04T06:05:56Z</time>
      </trkpt>
      <trkpt lat="46.49757" lon="5.27805">
        <ele>191.8</ele>
        <time>2022-06-04T06:06:03Z</time>
      </trkpt>
      <trkpt lat="46.4975" lon="5.27772">
        <ele>192</ele>
        <time>2022-06-04T06:06:07Z</time>
      </trkpt>
      <trkpt lat="46.49745" lon="5.2774">
        <ele>192.2</ele>
        <time>2022-06-04T06:06:11Z</time>
      </trkpt>
      <trkpt lat="46.49736" lon="5.2769">
        <ele>193</ele>
        <time>2022-06-04T06:06:18Z</time>
      </trkpt>
      <trkpt lat="46.49733" lon="5.27674">
        <ele>193.2</ele>
        <time>2022-06-04T06:06:20Z</time>
      </trkpt>
      <trkpt lat="46.4973" lon="5.27652">
        <ele>194</ele>
        <time>2022-06-04T06:06:23Z</time>
      </trkpt>
      <trkpt lat="46.49727" lon="5.27609">
        <ele>194.8</ele>
        <time>2022-06-04T06:06:29Z</time>
      </trkpt>
      <trkpt lat="46.49727" lon="5.27595">
        <ele>195.2</ele>
        <time>2022-06-04T06:06:31Z</time>
      </trkpt>
      <trkpt lat="46.49728" lon="5.27556">
        <ele>196.4</ele>
        <time>2022-06-04T06:06:37Z</time>
      </trkpt>
      <trkpt lat="46.49728" lon="5.27543">
        <ele>196.8</ele>
        <time>2022-06-04T06:06:39Z</time>
      </trkpt>
      <trkpt lat="46.49729" lon="5.27526">
        <ele>197.6</ele>
        <time>2022-06-04T06:06:42Z</time>
      </trkpt>
      <trkpt lat="46.49729" lon="5.27513">
        <ele>198</ele>
        <time>2022-06-04T06:06:44Z</time>
      </trkpt>
      <trkpt lat="46.49729" lon="5.27502">
        <ele>198.6</ele>
        <time>2022-06-04T06:06:46Z</time>
      </trkpt>
      <trkpt lat="46.49728" lon="5.27479">
        <ele>199.6</ele>
        <time>2022-06-04T06:06:50Z</time>
      </trkpt>
      <trkpt lat="46.49728" lon="5.27474">
        <ele>199.8</ele>
        <time>2022-06-04T06:06:51Z</time>
      </trkpt>
      <trkpt lat="46.49725" lon="5.27446">
        <ele>201.2</ele>
        <time>2022-06-04T06:06:56Z</time>
      </trkpt>
      <trkpt lat="46.49723" lon="5.27436">
        <ele>201.8</ele>
        <time>2022-06-04T06:06:58Z</time>
      </trkpt>
      <trkpt lat="46.4972" lon="5.27425">
        <ele>202.4</ele>
        <time>2022-06-04T06:07:00Z</time>
      </trkpt>
      <trkpt lat="46.49712" lon="5.27405">
        <ele>203</ele>
        <time>2022-06-04T06:07:04Z</time>
      </trkpt>
      <trkpt lat="46.49708" lon="5.27396">
        <ele>203.6</ele>
        <time>2022-06-04T06:07:06Z</time>
      </trkpt>
      <trkpt lat="46.49699" lon="5.27377">
        <ele>204.8</ele>
        <time>2022-06-04T06:07:10Z</time>
      </trkpt>
      <trkpt lat="46.49698" lon="5.27372">
        <ele>204.8</ele>
        <time>2022-06-04T06:07:11Z</time>
      </trkpt>
      <trkpt lat="46.49689" lon="5.27353">
        <ele>205.8</ele>
        <time>2022-06-04T06:07:15Z</time>
      </trkpt>
      <trkpt lat="46.49685" lon="5.27345">
        <ele>206.2</ele>
        <time>2022-06-04T06:07:17Z</time>
      </trkpt>
      <trkpt lat="46.49675" lon="5.27328">
        <ele>207.2</ele>
        <time>2022-06-04T06:07:21Z</time>
      </trkpt>
      <trkpt lat="46.49667" lon="5.27314">
        <ele>207.8</ele>
        <time>2022-06-04T06:07:24Z</time>
      </trkpt>
      <trkpt lat="46.49661" lon="5.27304">
        <ele>208.2</ele>
        <time>2022-06-04T06:07:26Z</time>
      </trkpt>
      <trkpt lat="46.49654" lon="5.27279">
        <ele>208.8</ele>
        <time>2022-06-04T06:07:30Z</time>
      </trkpt>
      <trkpt lat="46.49647" lon="5.27261">
        <ele>209.4</ele>
        <time>2022-06-04T06:07:33Z</time>
      </trkpt>
      <trkpt lat="46.49641" lon="5.27237">
        <ele>210.4</ele>
        <time>2022-06-04T06:07:37Z</time>
      </trkpt>
      <trkpt lat="46.49638" lon="5.27208">
        <ele>211.6</ele>
        <time>2022-06-04T06:07:42Z</time>
      </trkpt>
      <trkpt lat="46.49638" lon="5.27192">
        <ele>212</ele>
        <time>2022-06-04T06:07:45Z</time>
      </trkpt>
      <trkpt lat="46.49638" lon="5.2718">
        <ele>212.6</ele>
        <time>2022-06-04T06:07:47Z</time>
      </trkpt>
      <trkpt lat="46.49642" lon="5.27147">
        <ele>213.8</ele>
        <time>2022-06-04T06:07:53Z</time>
      </trkpt>
      <trkpt lat="46.49652" lon="5.27104">
        <ele>214.8</ele>
        <time>2022-06-04T06:08:00Z</time>
      </trkpt>
      <trkpt lat="46.49654" lon="5.27098">
        <ele>214.8</ele>
        <time>2022-06-04T06:08:01Z</time>
      </trkpt>
      <trkpt lat="46.49676" lon="5.27028">
        <ele>215.4</ele>
        <time>2022-06-04T06:08:11Z</time>
      </trkpt>
      <trkpt lat="46.49691" lon="5.26981">
        <ele>215</ele>
        <time>2022-06-04T06:08:17Z</time>
      </trkpt>
      <trkpt lat="46.49699" lon="5.26965">
        <ele>214.4</ele>
        <time>2022-06-04T06:08:19Z</time>
      </trkpt>
      <trkpt lat="46.49702" lon="5.26956">
        <ele>214</ele>
        <time>2022-06-04T06:08:20Z</time>
      </trkpt>
      <trkpt lat="46.49712" lon="5.26925">
        <ele>213.4</ele>
        <time>2022-06-04T06:08:23Z</time>
      </trkpt>
      <trkpt lat="46.49722" lon="5.26891">
        <ele>212.4</ele>
        <time>2022-06-04T06:08:26Z</time>
      </trkpt>
      <trkpt lat="46.49728" lon="5.26856">
        <ele>211.8</ele>
        <time>2022-06-04T06:08:29Z</time>
      </trkpt>
      <trkpt lat="46.49739" lon="5.26798">
        <ele>211.4</ele>
        <time>2022-06-04T06:08:34Z</time>
      </trkpt>
      <trkpt lat="46.49743" lon="5.26744">
        <ele>211.8</ele>
        <time>2022-06-04T06:08:39Z</time>
      </trkpt>
      <trkpt lat="46.49737" lon="5.26706">
        <ele>212</ele>
        <time>2022-06-04T06:08:43Z</time>
      </trkpt>
      <trkpt lat="46.49734" lon="5.26685">
        <ele>212.2</ele>
        <time>2022-06-04T06:08:45Z</time>
      </trkpt>
      <trkpt lat="46.49717" lon="5.26621">
        <ele>211.8</ele>
        <time>2022-06-04T06:08:52Z</time>
      </trkpt>
      <trkpt lat="46.49706" lon="5.26591">
        <ele>211.2</ele>
        <time>2022-06-04T06:08:55Z</time>
      </trkpt>
      <trkpt lat="46.49701" lon="5.2658">
        <ele>211</ele>
        <time>2022-06-04T06:08:56Z</time>
      </trkpt>
      <trkpt lat="46.49695" lon="5.26567">
        <ele>211</ele>
        <time>2022-06-04T06:08:57Z</time>
      </trkpt>
      <trkpt lat="46.4969" lon="5.26556">
        <ele>210.2</ele>
        <time>2022-06-04T06:08:58Z</time>
      </trkpt>
      <trkpt lat="46.49679" lon="5.26531">
        <ele>209</ele>
        <time>2022-06-04T06:09:00Z</time>
      </trkpt>
      <trkpt lat="46.49669" lon="5.26506">
        <ele>208</ele>
        <time>2022-06-04T06:09:02Z</time>
      </trkpt>
      <trkpt lat="46.49664" lon="5.26492">
        <ele>207.8</ele>
        <time>2022-06-04T06:09:03Z</time>
      </trkpt>
      <trkpt lat="46.49654" lon="5.26463">
        <ele>206.4</ele>
        <time>2022-06-04T06:09:05Z</time>
      </trkpt>
      <trkpt lat="46.49641" lon="5.26418">
        <ele>205</ele>
        <time>2022-06-04T06:09:08Z</time>
      </trkpt>
      <trkpt lat="46.49634" lon="5.26371">
        <ele>202.6</ele>
        <time>2022-06-04T06:09:11Z</time>
      </trkpt>
      <trkpt lat="46.49633" lon="5.26355">
        <ele>201.6</ele>
        <time>2022-06-04T06:09:12Z</time>
      </trkpt>
      <trkpt lat="46.4963" lon="5.26306">
        <ele>200.4</ele>
        <time>2022-06-04T06:09:15Z</time>
      </trkpt>
      <trkpt lat="46.49628" lon="5.26274">
        <ele>199.6</ele>
        <time>2022-06-04T06:09:17Z</time>
      </trkpt>
      <trkpt lat="46.49626" lon="5.26258">
        <ele>199.2</ele>
        <time>2022-06-04T06:09:18Z</time>
      </trkpt>
      <trkpt lat="46.49624" lon="5.26227">
        <ele>197.6</ele>
        <time>2022-06-04T06:09:20Z</time>
      </trkpt>
      <trkpt lat="46.49622" lon="5.26184">
        <ele>196.2</ele>
        <time>2022-06-04T06:09:23Z</time>
      </trkpt>
      <trkpt lat="46.4962" lon="5.2617">
        <ele>196.2</ele>
        <time>2022-06-04T06:09:24Z</time>
      </trkpt>
      <trkpt lat="46.49616" lon="5.26144">
        <ele>195.8</ele>
        <time>2022-06-04T06:09:26Z</time>
      </trkpt>
      <trkpt lat="46.49611" lon="5.26121">
        <ele>195.4</ele>
        <time>2022-06-04T06:09:28Z</time>
      </trkpt>
      <trkpt lat="46.49591" lon="5.26069">
        <ele>195.8</ele>
        <time>2022-06-04T06:09:33Z</time>
      </trkpt>
      <trkpt lat="46.49565" lon="5.26028">
        <ele>196.2</ele>
        <time>2022-06-04T06:09:38Z</time>
      </trkpt>
      <trkpt lat="46.49535" lon="5.25995">
        <ele>196.8</ele>
        <time>2022-06-04T06:09:43Z</time>
      </trkpt>
      <trkpt lat="46.49499" lon="5.25956">
        <ele>196.8</ele>
        <time>2022-06-04T06:09:49Z</time>
      </trkpt>
      <trkpt lat="46.49448" lon="5.25908">
        <ele>196.4</ele>
        <time>2022-06-04T06:09:57Z</time>
      </trkpt>
      <trkpt lat="46.49398" lon="5.2586">
        <ele>196</ele>
        <time>2022-06-04T06:10:05Z</time>
      </trkpt>
      <trkpt lat="46.49387" lon="5.25847">
        <ele>195.8</ele>
        <time>2022-06-04T06:10:07Z</time>
      </trkpt>
      <trkpt lat="46.49345" lon="5.25807">
        <ele>196.2</ele>
        <time>2022-06-04T06:10:14Z</time>
      </trkpt>
      <trkpt lat="46.49299" lon="5.25761">
        <ele>196</ele>
        <time>2022-06-04T06:10:22Z</time>
      </trkpt>
      <trkpt lat="46.49288" lon="5.2575">
        <ele>196</ele>
        <time>2022-06-04T06:10:24Z</time>
      </trkpt>
      <trkpt lat="46.49245" lon="5.25708">
        <ele>195.6</ele>
        <time>2022-06-04T06:10:31Z</time>
      </trkpt>
      <trkpt lat="46.49227" lon="5.25691">
        <ele>195.8</ele>
        <time>2022-06-04T06:10:34Z</time>
      </trkpt>
      <trkpt lat="46.49216" lon="5.2568">
        <ele>195.8</ele>
        <time>2022-06-04T06:10:36Z</time>
      </trkpt>
      <trkpt lat="46.49182" lon="5.2565">
        <ele>195.8</ele>
        <time>2022-06-04T06:10:42Z</time>
      </trkpt>
      <trkpt lat="46.49159" lon="5.25624">
        <ele>195.8</ele>
        <time>2022-06-04T06:10:47Z</time>
      </trkpt>
      <trkpt lat="46.49152" lon="5.25618">
        <ele>196</ele>
        <time>2022-06-04T06:10:48Z</time>
      </trkpt>
      <trkpt lat="46.4911" lon="5.25577">
        <ele>196.8</ele>
        <time>2022-06-04T06:10:56Z</time>
      </trkpt>
      <trkpt lat="46.49094" lon="5.25561">
        <ele>197</ele>
        <time>2022-06-04T06:10:59Z</time>
      </trkpt>
      <trkpt lat="46.4909" lon="5.25555">
        <ele>197.2</ele>
        <time>2022-06-04T06:11:00Z</time>
      </trkpt>
      <trkpt lat="46.49085" lon="5.2555">
        <ele>197.2</ele>
        <time>2022-06-04T06:11:01Z</time>
      </trkpt>
      <trkpt lat="46.49076" lon="5.25533">
        <ele>197.6</ele>
        <time>2022-06-04T06:11:04Z</time>
      </trkpt>
      <trkpt lat="46.49075" lon="5.25527">
        <ele>197.8</ele>
        <time>2022-06-04T06:11:05Z</time>
      </trkpt>
      <trkpt lat="46.49071" lon="5.2551">
        <ele>198.2</ele>
        <time>2022-06-04T06:11:07Z</time>
      </trkpt>
      <trkpt lat="46.49069" lon="5.25502">
        <ele>198.4</ele>
        <time>2022-06-04T06:11:08Z</time>
      </trkpt>
      <trkpt lat="46.49066" lon="5.25481">
        <ele>199.2</ele>
        <time>2022-06-04T06:11:11Z</time>
      </trkpt>
      <trkpt lat="46.49065" lon="5.25473">
        <ele>199.6</ele>
        <time>2022-06-04T06:11:12Z</time>
      </trkpt>
      <trkpt lat="46.49062" lon="5.2545">
        <ele>200.6</ele>
        <time>2022-06-04T06:11:15Z</time>
      </trkpt>
      <trkpt lat="46.4906" lon="5.25434">
        <ele>201</ele>
        <time>2022-06-04T06:11:17Z</time>
      </trkpt>
      <trkpt lat="46.49059" lon="5.25428">
        <ele>201.4</ele>
        <time>2022-06-04T06:11:18Z</time>
      </trkpt>
      <trkpt lat="46.49058" lon="5.25419">
        <ele>201.6</ele>
        <time>2022-06-04T06:11:19Z</time>
      </trkpt>
      <trkpt lat="46.49055" lon="5.25394">
        <ele>202.4</ele>
        <time>2022-06-04T06:11:22Z</time>
      </trkpt>
      <trkpt lat="46.49055" lon="5.25386">
        <ele>202.8</ele>
        <time>2022-06-04T06:11:23Z</time>
      </trkpt>
      <trkpt lat="46.49053" lon="5.25371">
        <ele>203.2</ele>
        <time>2022-06-04T06:11:25Z</time>
      </trkpt>
      <trkpt lat="46.49051" lon="5.25347">
        <ele>203.8</ele>
        <time>2022-06-04T06:11:28Z</time>
      </trkpt>
      <trkpt lat="46.4904" lon="5.25284">
        <ele>204.4</ele>
        <time>2022-06-04T06:11:35Z</time>
      </trkpt>
      <trkpt lat="46.49033" lon="5.2522">
        <ele>203.4</ele>
        <time>2022-06-04T06:11:41Z</time>
      </trkpt>
      <trkpt lat="46.49029" lon="5.2518">
        <ele>202.6</ele>
        <time>2022-06-04T06:11:45Z</time>
      </trkpt>
      <trkpt lat="46.49022" lon="5.25135">
        <ele>202</ele>
        <time>2022-06-04T06:11:49Z</time>
      </trkpt>
      <trkpt lat="46.49013" lon="5.25061">
        <ele>202</ele>
        <time>2022-06-04T06:11:57Z</time>
      </trkpt>
      <trkpt lat="46.49005" lon="5.24998">
        <ele>203.6</ele>
        <time>2022-06-04T06:12:05Z</time>
      </trkpt>
      <trkpt lat="46.49004" lon="5.24991">
        <ele>204</ele>
        <time>2022-06-04T06:12:06Z</time>
      </trkpt>
      <trkpt lat="46.49001" lon="5.24964">
        <ele>204.6</ele>
        <time>2022-06-04T06:12:10Z</time>
      </trkpt>
      <trkpt lat="46.48997" lon="5.24946">
        <ele>205</ele>
        <time>2022-06-04T06:12:13Z</time>
      </trkpt>
      <trkpt lat="46.48992" lon="5.24928">
        <ele>205.6</ele>
        <time>2022-06-04T06:12:16Z</time>
      </trkpt>
      <trkpt lat="46.48987" lon="5.24915">
        <ele>206.2</ele>
        <time>2022-06-04T06:12:18Z</time>
      </trkpt>
      <trkpt lat="46.4898" lon="5.24898">
        <ele>207</ele>
        <time>2022-06-04T06:12:21Z</time>
      </trkpt>
      <trkpt lat="46.48972" lon="5.24886">
        <ele>207.6</ele>
        <time>2022-06-04T06:12:23Z</time>
      </trkpt>
      <trkpt lat="46.4895" lon="5.24856">
        <ele>208.6</ele>
        <time>2022-06-04T06:12:29Z</time>
      </trkpt>
      <trkpt lat="46.48941" lon="5.24846">
        <ele>208.8</ele>
        <time>2022-06-04T06:12:31Z</time>
      </trkpt>
      <trkpt lat="46.48924" lon="5.24825">
        <ele>209.8</ele>
        <time>2022-06-04T06:12:35Z</time>
      </trkpt>
      <trkpt lat="46.48915" lon="5.24815">
        <ele>210</ele>
        <time>2022-06-04T06:12:37Z</time>
      </trkpt>
      <trkpt lat="46.48886" lon="5.24778">
        <ele>210.6</ele>
        <time>2022-06-04T06:12:44Z</time>
      </trkpt>
      <trkpt lat="46.48868" lon="5.24758">
        <ele>210.8</ele>
        <time>2022-06-04T06:12:48Z</time>
      </trkpt>
      <trkpt lat="46.48845" lon="5.24734">
        <ele>211.4</ele>
        <time>2022-06-04T06:12:53Z</time>
      </trkpt>
      <trkpt lat="46.48805" lon="5.24692">
        <ele>211.4</ele>
        <time>2022-06-04T06:13:01Z</time>
      </trkpt>
      <trkpt lat="46.48771" lon="5.24657">
        <ele>211.6</ele>
        <time>2022-06-04T06:13:08Z</time>
      </trkpt>
      <trkpt lat="46.48767" lon="5.24652">
        <ele>211.6</ele>
        <time>2022-06-04T06:13:09Z</time>
      </trkpt>
      <trkpt lat="46.48765" lon="5.24646">
        <ele>211.8</ele>
        <time>2022-06-04T06:13:10Z</time>
      </trkpt>
      <trkpt lat="46.48762" lon="5.24638">
        <ele>211.8</ele>
        <time>2022-06-04T06:13:12Z</time>
      </trkpt>
      <trkpt lat="46.48761" lon="5.24636">
        <ele>211.8</ele>
        <time>2022-06-04T06:13:14Z</time>
      </trkpt>
      <trkpt lat="46.48761" lon="5.24636">
        <ele>211.8</ele>
        <time>2022-06-04T06:13:15Z</time>
      </trkpt>
      <trkpt lat="46.48758" lon="5.2463">
        <ele>212.2</ele>
        <time>2022-06-04T06:13:22Z</time>
      </trkpt>
      <trkpt lat="46.48753" lon="5.24629">
        <ele>212.2</ele>
        <time>2022-06-04T06:13:24Z</time>
      </trkpt>
      <trkpt lat="46.4873" lon="5.24627">
        <ele>212.2</ele>
        <time>2022-06-04T06:13:28Z</time>
      </trkpt>
      <trkpt lat="46.48694" lon="5.24613">
        <ele>211.6</ele>
        <time>2022-06-04T06:13:33Z</time>
      </trkpt>
      <trkpt lat="46.48667" lon="5.24599">
        <ele>210.8</ele>
        <time>2022-06-04T06:13:37Z</time>
      </trkpt>
      <trkpt lat="46.4864" lon="5.24584">
        <ele>210.4</ele>
        <time>2022-06-04T06:13:41Z</time>
      </trkpt>
      <trkpt lat="46.48603" lon="5.24563">
        <ele>211</ele>
        <time>2022-06-04T06:13:47Z</time>
      </trkpt>
      <trkpt lat="46.48585" lon="5.24551">
        <ele>211.4</ele>
        <time>2022-06-04T06:13:50Z</time>
      </trkpt>
      <trkpt lat="46.48567" lon="5.24534">
        <ele>211.4</ele>
        <time>2022-06-04T06:13:53Z</time>
      </trkpt>
      <trkpt lat="46.48527" lon="5.24485">
        <ele>211.4</ele>
        <time>2022-06-04T06:14:00Z</time>
      </trkpt>
      <trkpt lat="46.48485" lon="5.24433">
        <ele>210.4</ele>
        <time>2022-06-04T06:14:07Z</time>
      </trkpt>
      <trkpt lat="46.48479" lon="5.24426">
        <ele>210.2</ele>
        <time>2022-06-04T06:14:08Z</time>
      </trkpt>
      <trkpt lat="46.48455" lon="5.24398">
        <ele>209.6</ele>
        <time>2022-06-04T06:14:12Z</time>
      </trkpt>
      <trkpt lat="46.48431" lon="5.24373">
        <ele>209</ele>
        <time>2022-06-04T06:14:16Z</time>
      </trkpt>
      <trkpt lat="46.48407" lon="5.24352">
        <ele>208.6</ele>
        <time>2022-06-04T06:14:20Z</time>
      </trkpt>
      <trkpt lat="46.48401" lon="5.24349">
        <ele>208.6</ele>
        <time>2022-06-04T06:14:21Z</time>
      </trkpt>
      <trkpt lat="46.4837" lon="5.24337">
        <ele>209</ele>
        <time>2022-06-04T06:14:26Z</time>
      </trkpt>
      <trkpt lat="46.48365" lon="5.24334">
        <ele>209.2</ele>
        <time>2022-06-04T06:14:27Z</time>
      </trkpt>
      <trkpt lat="46.48355" lon="5.24327">
        <ele>209.6</ele>
        <time>2022-06-04T06:14:29Z</time>
      </trkpt>
      <trkpt lat="46.48351" lon="5.24322">
        <ele>209.8</ele>
        <time>2022-06-04T06:14:30Z</time>
      </trkpt>
      <trkpt lat="46.48335" lon="5.24301">
        <ele>211</ele>
        <time>2022-06-04T06:14:34Z</time>
      </trkpt>
      <trkpt lat="46.48326" lon="5.24289">
        <ele>211.8</ele>
        <time>2022-06-04T06:14:36Z</time>
      </trkpt>
      <trkpt lat="46.48316" lon="5.24278">
        <ele>212.2</ele>
        <time>2022-06-04T06:14:38Z</time>
      </trkpt>
      <trkpt lat="46.48306" lon="5.24271">
        <ele>212.8</ele>
        <time>2022-06-04T06:14:40Z</time>
      </trkpt>
      <trkpt lat="46.483" lon="5.24269">
        <ele>213.2</ele>
        <time>2022-06-04T06:14:41Z</time>
      </trkpt>
      <trkpt lat="46.48289" lon="5.24266">
        <ele>213.4</ele>
        <time>2022-06-04T06:14:43Z</time>
      </trkpt>
      <trkpt lat="46.48259" lon="5.24258">
        <ele>213.8</ele>
        <time>2022-06-04T06:14:48Z</time>
      </trkpt>
      <trkpt lat="46.48218" lon="5.24249">
        <ele>214.2</ele>
        <time>2022-06-04T06:14:55Z</time>
      </trkpt>
      <trkpt lat="46.48212" lon="5.2425">
        <ele>214.2</ele>
        <time>2022-06-04T06:14:56Z</time>
      </trkpt>
      <trkpt lat="46.48206" lon="5.24251">
        <ele>214.4</ele>
        <time>2022-06-04T06:14:57Z</time>
      </trkpt>
      <trkpt lat="46.48194" lon="5.24256">
        <ele>214.4</ele>
        <time>2022-06-04T06:14:59Z</time>
      </trkpt>
      <trkpt lat="46.48188" lon="5.2426">
        <ele>214.4</ele>
        <time>2022-06-04T06:15:00Z</time>
      </trkpt>
      <trkpt lat="46.48154" lon="5.24304">
        <ele>214.4</ele>
        <time>2022-06-04T06:15:07Z</time>
      </trkpt>
      <trkpt lat="46.48137" lon="5.24322">
        <ele>213.6</ele>
        <time>2022-06-04T06:15:10Z</time>
      </trkpt>
      <trkpt lat="46.48123" lon="5.24328">
        <ele>213.6</ele>
        <time>2022-06-04T06:15:12Z</time>
      </trkpt>
      <trkpt lat="46.48107" lon="5.24328">
        <ele>213.2</ele>
        <time>2022-06-04T06:15:14Z</time>
      </trkpt>
      <trkpt lat="46.48099" lon="5.24324">
        <ele>213.2</ele>
        <time>2022-06-04T06:15:15Z</time>
      </trkpt>
      <trkpt lat="46.48092" lon="5.24317">
        <ele>212.8</ele>
        <time>2022-06-04T06:15:16Z</time>
      </trkpt>
      <trkpt lat="46.48085" lon="5.24308">
        <ele>212.2</ele>
        <time>2022-06-04T06:15:17Z</time>
      </trkpt>
      <trkpt lat="46.48079" lon="5.24298">
        <ele>211</ele>
        <time>2022-06-04T06:15:18Z</time>
      </trkpt>
      <trkpt lat="46.48075" lon="5.24273">
        <ele>210.2</ele>
        <time>2022-06-04T06:15:20Z</time>
      </trkpt>
      <trkpt lat="46.48075" lon="5.24256">
        <ele>210.2</ele>
        <time>2022-06-04T06:15:21Z</time>
      </trkpt>
      <trkpt lat="46.48078" lon="5.24241">
        <ele>209.2</ele>
        <time>2022-06-04T06:15:22Z</time>
      </trkpt>
      <trkpt lat="46.48085" lon="5.24214">
        <ele>208</ele>
        <time>2022-06-04T06:15:24Z</time>
      </trkpt>
      <trkpt lat="46.48095" lon="5.24187">
        <ele>206.6</ele>
        <time>2022-06-04T06:15:26Z</time>
      </trkpt>
      <trkpt lat="46.481" lon="5.24173">
        <ele>205.4</ele>
        <time>2022-06-04T06:15:27Z</time>
      </trkpt>
      <trkpt lat="46.48109" lon="5.24148">
        <ele>204.2</ele>
        <time>2022-06-04T06:15:29Z</time>
      </trkpt>
      <trkpt lat="46.48115" lon="5.24131">
        <ele>203.8</ele>
        <time>2022-06-04T06:15:30Z</time>
      </trkpt>
      <trkpt lat="46.48121" lon="5.24117">
        <ele>203.2</ele>
        <time>2022-06-04T06:15:31Z</time>
      </trkpt>
      <trkpt lat="46.48132" lon="5.24088">
        <ele>202</ele>
        <time>2022-06-04T06:15:33Z</time>
      </trkpt>
      <trkpt lat="46.4815" lon="5.24043">
        <ele>200.6</ele>
        <time>2022-06-04T06:15:36Z</time>
      </trkpt>
      <trkpt lat="46.48161" lon="5.24016">
        <ele>199.2</ele>
        <time>2022-06-04T06:15:38Z</time>
      </trkpt>
      <trkpt lat="46.48174" lon="5.23982">
        <ele>197.8</ele>
        <time>2022-06-04T06:15:40Z</time>
      </trkpt>
      <trkpt lat="46.48185" lon="5.23952">
        <ele>196.4</ele>
        <time>2022-06-04T06:15:42Z</time>
      </trkpt>
      <trkpt lat="46.48189" lon="5.23936">
        <ele>194.8</ele>
        <time>2022-06-04T06:15:43Z</time>
      </trkpt>
      <trkpt lat="46.48191" lon="5.23903">
        <ele>193</ele>
        <time>2022-06-04T06:15:45Z</time>
      </trkpt>
      <trkpt lat="46.48187" lon="5.23871">
        <ele>192.2</ele>
        <time>2022-06-04T06:15:47Z</time>
      </trkpt>
      <trkpt lat="46.48183" lon="5.23857">
        <ele>191.8</ele>
        <time>2022-06-04T06:15:48Z</time>
      </trkpt>
      <trkpt lat="46.48178" lon="5.23844">
        <ele>191.6</ele>
        <time>2022-06-04T06:15:49Z</time>
      </trkpt>
      <trkpt lat="46.48164" lon="5.23822">
        <ele>191.4</ele>
        <time>2022-06-04T06:15:51Z</time>
      </trkpt>
      <trkpt lat="46.48134" lon="5.23786">
        <ele>190.6</ele>
        <time>2022-06-04T06:15:55Z</time>
      </trkpt>
      <trkpt lat="46.4812" lon="5.23768">
        <ele>190.2</ele>
        <time>2022-06-04T06:15:57Z</time>
      </trkpt>
      <trkpt lat="46.4809" lon="5.23715">
        <ele>190</ele>
        <time>2022-06-04T06:16:02Z</time>
      </trkpt>
      <trkpt lat="46.48072" lon="5.23655">
        <ele>189.6</ele>
        <time>2022-06-04T06:16:07Z</time>
      </trkpt>
      <trkpt lat="46.48064" lon="5.23591">
        <ele>189.2</ele>
        <time>2022-06-04T06:16:12Z</time>
      </trkpt>
      <trkpt lat="46.48062" lon="5.23504">
        <ele>188.8</ele>
        <time>2022-06-04T06:16:19Z</time>
      </trkpt>
      <trkpt lat="46.48061" lon="5.23481">
        <ele>188.8</ele>
        <time>2022-06-04T06:16:21Z</time>
      </trkpt>
      <trkpt lat="46.4806" lon="5.23415">
        <ele>189.4</ele>
        <time>2022-06-04T06:16:27Z</time>
      </trkpt>
      <trkpt lat="46.48057" lon="5.23336">
        <ele>189.6</ele>
        <time>2022-06-04T06:16:34Z</time>
      </trkpt>
      <trkpt lat="46.48057" lon="5.23325">
        <ele>189.6</ele>
        <time>2022-06-04T06:16:35Z</time>
      </trkpt>
      <trkpt lat="46.48057" lon="5.23303">
        <ele>189.8</ele>
        <time>2022-06-04T06:16:37Z</time>
      </trkpt>
      <trkpt lat="46.48055" lon="5.23222">
        <ele>190</ele>
        <time>2022-06-04T06:16:45Z</time>
      </trkpt>
      <trkpt lat="46.48054" lon="5.2321">
        <ele>190.2</ele>
        <time>2022-06-04T06:16:46Z</time>
      </trkpt>
      <trkpt lat="46.48052" lon="5.2315">
        <ele>190.8</ele>
        <time>2022-06-04T06:16:52Z</time>
      </trkpt>
      <trkpt lat="46.48052" lon="5.23122">
        <ele>191.2</ele>
        <time>2022-06-04T06:16:55Z</time>
      </trkpt>
      <trkpt lat="46.48052" lon="5.23089">
        <ele>192.2</ele>
        <time>2022-06-04T06:16:59Z</time>
      </trkpt>
      <trkpt lat="46.48052" lon="5.23083">
        <ele>192.4</ele>
        <time>2022-06-04T06:17:00Z</time>
      </trkpt>
      <trkpt lat="46.48052" lon="5.2305">
        <ele>193.6</ele>
        <time>2022-06-04T06:17:04Z</time>
      </trkpt>
      <trkpt lat="46.48051" lon="5.23029">
        <ele>194.2</ele>
        <time>2022-06-04T06:17:07Z</time>
      </trkpt>
      <trkpt lat="46.48051" lon="5.23005">
        <ele>194.6</ele>
        <time>2022-06-04T06:17:10Z</time>
      </trkpt>
      <trkpt lat="46.48047" lon="5.22961">
        <ele>195.6</ele>
        <time>2022-06-04T06:17:16Z</time>
      </trkpt>
      <trkpt lat="46.48047" lon="5.22953">
        <ele>196.2</ele>
        <time>2022-06-04T06:17:17Z</time>
      </trkpt>
      <trkpt lat="46.48043" lon="5.22933">
        <ele>196.8</ele>
        <time>2022-06-04T06:17:20Z</time>
      </trkpt>
      <trkpt lat="46.48041" lon="5.22925">
        <ele>197</ele>
        <time>2022-06-04T06:17:21Z</time>
      </trkpt>
      <trkpt lat="46.48029" lon="5.22885">
        <ele>198.2</ele>
        <time>2022-06-04T06:17:27Z</time>
      </trkpt>
      <trkpt lat="46.48026" lon="5.22878">
        <ele>198.2</ele>
        <time>2022-06-04T06:17:28Z</time>
      </trkpt>
      <trkpt lat="46.48021" lon="5.22866">
        <ele>198.4</ele>
        <time>2022-06-04T06:17:30Z</time>
      </trkpt>
      <trkpt lat="46.48013" lon="5.2284">
        <ele>199.2</ele>
        <time>2022-06-04T06:17:34Z</time>
      </trkpt>
      <trkpt lat="46.4801" lon="5.22834">
        <ele>199.2</ele>
        <time>2022-06-04T06:17:35Z</time>
      </trkpt>
      <trkpt lat="46.47989" lon="5.22776">
        <ele>200</ele>
        <time>2022-06-04T06:17:44Z</time>
      </trkpt>
      <trkpt lat="46.47981" lon="5.22758">
        <ele>200.2</ele>
        <time>2022-06-04T06:17:47Z</time>
      </trkpt>
      <trkpt lat="46.47964" lon="5.22728">
        <ele>200.6</ele>
        <time>2022-06-04T06:17:52Z</time>
      </trkpt>
      <trkpt lat="46.47949" lon="5.2271">
        <ele>201.2</ele>
        <time>2022-06-04T06:17:56Z</time>
      </trkpt>
      <trkpt lat="46.47929" lon="5.22687">
        <ele>202</ele>
        <time>2022-06-04T06:18:01Z</time>
      </trkpt>
      <trkpt lat="46.47926" lon="5.22684">
        <ele>202.6</ele>
        <time>2022-06-04T06:18:02Z</time>
      </trkpt>
      <trkpt lat="46.47902" lon="5.22659">
        <ele>203.4</ele>
        <time>2022-06-04T06:18:08Z</time>
      </trkpt>
      <trkpt lat="46.479" lon="5.22656">
        <ele>203.6</ele>
        <time>2022-06-04T06:18:09Z</time>
      </trkpt>
      <trkpt lat="46.47896" lon="5.22651">
        <ele>203.8</ele>
        <time>2022-06-04T06:18:10Z</time>
      </trkpt>
      <trkpt lat="46.47878" lon="5.2263">
        <ele>204.8</ele>
        <time>2022-06-04T06:18:15Z</time>
      </trkpt>
      <trkpt lat="46.47871" lon="5.22623">
        <ele>205.2</ele>
        <time>2022-06-04T06:18:17Z</time>
      </trkpt>
      <trkpt lat="46.47859" lon="5.22611">
        <ele>205.8</ele>
        <time>2022-06-04T06:18:20Z</time>
      </trkpt>
      <trkpt lat="46.47845" lon="5.22595">
        <ele>206.8</ele>
        <time>2022-06-04T06:18:24Z</time>
      </trkpt>
      <trkpt lat="46.47843" lon="5.22592">
        <ele>207.2</ele>
        <time>2022-06-04T06:18:25Z</time>
      </trkpt>
      <trkpt lat="46.47832" lon="5.22581">
        <ele>208</ele>
        <time>2022-06-04T06:18:28Z</time>
      </trkpt>
      <trkpt lat="46.47819" lon="5.22563">
        <ele>208.8</ele>
        <time>2022-06-04T06:18:32Z</time>
      </trkpt>
      <trkpt lat="46.47816" lon="5.22558">
        <ele>209.2</ele>
        <time>2022-06-04T06:18:33Z</time>
      </trkpt>
      <trkpt lat="46.47814" lon="5.22553">
        <ele>209.4</ele>
        <time>2022-06-04T06:18:34Z</time>
      </trkpt>
      <trkpt lat="46.47804" lon="5.22521">
        <ele>210</ele>
        <time>2022-06-04T06:18:39Z</time>
      </trkpt>
      <trkpt lat="46.47803" lon="5.22514">
        <ele>210.4</ele>
        <time>2022-06-04T06:18:40Z</time>
      </trkpt>
      <trkpt lat="46.47792" lon="5.22463">
        <ele>211.2</ele>
        <time>2022-06-04T06:18:47Z</time>
      </trkpt>
      <trkpt lat="46.47776" lon="5.22389">
        <ele>211.2</ele>
        <time>2022-06-04T06:18:56Z</time>
      </trkpt>
      <trkpt lat="46.47766" lon="5.22306">
        <ele>210.6</ele>
        <time>2022-06-04T06:19:05Z</time>
      </trkpt>
      <trkpt lat="46.47761" lon="5.22248">
        <ele>210</ele>
        <time>2022-06-04T06:19:11Z</time>
      </trkpt>
      <trkpt lat="46.47757" lon="5.22204">
        <ele>209.4</ele>
        <time>2022-06-04T06:19:15Z</time>
      </trkpt>
      <trkpt lat="46.47753" lon="5.2216">
        <ele>208.6</ele>
        <time>2022-06-04T06:19:19Z</time>
      </trkpt>
      <trkpt lat="46.47751" lon="5.22137">
        <ele>208.2</ele>
        <time>2022-06-04T06:19:21Z</time>
      </trkpt>
      <trkpt lat="46.47745" lon="5.22059">
        <ele>207.8</ele>
        <time>2022-06-04T06:19:28Z</time>
      </trkpt>
      <trkpt lat="46.47738" lon="5.21981">
        <ele>207.4</ele>
        <time>2022-06-04T06:19:35Z</time>
      </trkpt>
      <trkpt lat="46.47737" lon="5.2197">
        <ele>207</ele>
        <time>2022-06-04T06:19:36Z</time>
      </trkpt>
      <trkpt lat="46.47732" lon="5.21904">
        <ele>206</ele>
        <time>2022-06-04T06:19:42Z</time>
      </trkpt>
      <trkpt lat="46.4773" lon="5.21881">
        <ele>205.8</ele>
        <time>2022-06-04T06:19:44Z</time>
      </trkpt>
      <trkpt lat="46.47724" lon="5.21821">
        <ele>206</ele>
        <time>2022-06-04T06:19:50Z</time>
      </trkpt>
      <trkpt lat="46.4772" lon="5.21754">
        <ele>206.8</ele>
        <time>2022-06-04T06:19:57Z</time>
      </trkpt>
      <trkpt lat="46.47717" lon="5.21715">
        <ele>207.2</ele>
        <time>2022-06-04T06:20:01Z</time>
      </trkpt>
      <trkpt lat="46.47718" lon="5.21706">
        <ele>207.4</ele>
        <time>2022-06-04T06:20:02Z</time>
      </trkpt>
      <trkpt lat="46.47718" lon="5.21696">
        <ele>207.4</ele>
        <time>2022-06-04T06:20:03Z</time>
      </trkpt>
      <trkpt lat="46.4772" lon="5.21686">
        <ele>207.6</ele>
        <time>2022-06-04T06:20:04Z</time>
      </trkpt>
      <trkpt lat="46.47728" lon="5.21656">
        <ele>208</ele>
        <time>2022-06-04T06:20:07Z</time>
      </trkpt>
      <trkpt lat="46.4775" lon="5.21581">
        <ele>207.2</ele>
        <time>2022-06-04T06:20:14Z</time>
      </trkpt>
      <trkpt lat="46.47763" lon="5.21535">
        <ele>206</ele>
        <time>2022-06-04T06:20:18Z</time>
      </trkpt>
      <trkpt lat="46.47775" lon="5.21495">
        <ele>205</ele>
        <time>2022-06-04T06:20:21Z</time>
      </trkpt>
      <trkpt lat="46.47785" lon="5.21459">
        <ele>203.6</ele>
        <time>2022-06-04T06:20:24Z</time>
      </trkpt>
      <trkpt lat="46.47798" lon="5.21416">
        <ele>203.2</ele>
        <time>2022-06-04T06:20:28Z</time>
      </trkpt>
      <trkpt lat="46.47815" lon="5.21359">
        <ele>203.6</ele>
        <time>2022-06-04T06:20:34Z</time>
      </trkpt>
      <trkpt lat="46.4783" lon="5.21307">
        <ele>204.6</ele>
        <time>2022-06-04T06:20:40Z</time>
      </trkpt>
      <trkpt lat="46.47833" lon="5.21296">
        <ele>204.8</ele>
        <time>2022-06-04T06:20:41Z</time>
      </trkpt>
      <trkpt lat="46.47852" lon="5.2122">
        <ele>204.8</ele>
        <time>2022-06-04T06:20:49Z</time>
      </trkpt>
      <trkpt lat="46.47855" lon="5.21207">
        <ele>204.8</ele>
        <time>2022-06-04T06:20:50Z</time>
      </trkpt>
      <trkpt lat="46.47871" lon="5.21138">
        <ele>203.6</ele>
        <time>2022-06-04T06:20:56Z</time>
      </trkpt>
      <trkpt lat="46.47873" lon="5.21128">
        <ele>203.2</ele>
        <time>2022-06-04T06:20:57Z</time>
      </trkpt>
      <trkpt lat="46.47879" lon="5.21102">
        <ele>202.2</ele>
        <time>2022-06-04T06:20:59Z</time>
      </trkpt>
      <trkpt lat="46.47886" lon="5.21066">
        <ele>201</ele>
        <time>2022-06-04T06:21:02Z</time>
      </trkpt>
      <trkpt lat="46.47895" lon="5.21024">
        <ele>200</ele>
        <time>2022-06-04T06:21:05Z</time>
      </trkpt>
      <trkpt lat="46.47897" lon="5.21013">
        <ele>199.6</ele>
        <time>2022-06-04T06:21:06Z</time>
      </trkpt>
      <trkpt lat="46.47906" lon="5.20971">
        <ele>198.2</ele>
        <time>2022-06-04T06:21:09Z</time>
      </trkpt>
      <trkpt lat="46.47914" lon="5.20931">
        <ele>197.4</ele>
        <time>2022-06-04T06:21:12Z</time>
      </trkpt>
      <trkpt lat="46.47916" lon="5.20921">
        <ele>197.2</ele>
        <time>2022-06-04T06:21:13Z</time>
      </trkpt>
      <trkpt lat="46.47922" lon="5.20856">
        <ele>196.4</ele>
        <time>2022-06-04T06:21:18Z</time>
      </trkpt>
      <trkpt lat="46.47918" lon="5.20801">
        <ele>196.2</ele>
        <time>2022-06-04T06:21:23Z</time>
      </trkpt>
      <trkpt lat="46.47915" lon="5.20753">
        <ele>196.8</ele>
        <time>2022-06-04T06:21:28Z</time>
      </trkpt>
      <trkpt lat="46.4791" lon="5.20709">
        <ele>198.2</ele>
        <time>2022-06-04T06:21:33Z</time>
      </trkpt>
      <trkpt lat="46.47909" lon="5.20701">
        <ele>198.6</ele>
        <time>2022-06-04T06:21:34Z</time>
      </trkpt>
      <trkpt lat="46.47908" lon="5.20685">
        <ele>199.2</ele>
        <time>2022-06-04T06:21:36Z</time>
      </trkpt>
      <trkpt lat="46.47906" lon="5.20655">
        <ele>200.4</ele>
        <time>2022-06-04T06:21:40Z</time>
      </trkpt>
      <trkpt lat="46.47905" lon="5.20634">
        <ele>201.6</ele>
        <time>2022-06-04T06:21:43Z</time>
      </trkpt>
      <trkpt lat="46.47902" lon="5.20605">
        <ele>202.6</ele>
        <time>2022-06-04T06:21:47Z</time>
      </trkpt>
      <trkpt lat="46.47902" lon="5.206">
        <ele>203</ele>
        <time>2022-06-04T06:21:48Z</time>
      </trkpt>
      <trkpt lat="46.47898" lon="5.20565">
        <ele>204</ele>
        <time>2022-06-04T06:21:53Z</time>
      </trkpt>
      <trkpt lat="46.47898" lon="5.2056">
        <ele>204.4</ele>
        <time>2022-06-04T06:21:54Z</time>
      </trkpt>
      <trkpt lat="46.47898" lon="5.20553">
        <ele>204.8</ele>
        <time>2022-06-04T06:21:55Z</time>
      </trkpt>
      <trkpt lat="46.47897" lon="5.20539">
        <ele>205.4</ele>
        <time>2022-06-04T06:21:57Z</time>
      </trkpt>
      <trkpt lat="46.47893" lon="5.20481">
        <ele>206.4</ele>
        <time>2022-06-04T06:22:05Z</time>
      </trkpt>
      <trkpt lat="46.47888" lon="5.20441">
        <ele>207.4</ele>
        <time>2022-06-04T06:22:10Z</time>
      </trkpt>
      <trkpt lat="46.47885" lon="5.20418">
        <ele>207.8</ele>
        <time>2022-06-04T06:22:13Z</time>
      </trkpt>
      <trkpt lat="46.47879" lon="5.20362">
        <ele>208</ele>
        <time>2022-06-04T06:22:19Z</time>
      </trkpt>
      <trkpt lat="46.47871" lon="5.20295">
        <ele>207.4</ele>
        <time>2022-06-04T06:22:26Z</time>
      </trkpt>
      <trkpt lat="46.47861" lon="5.20211">
        <ele>206.8</ele>
        <time>2022-06-04T06:22:34Z</time>
      </trkpt>
      <trkpt lat="46.4786" lon="5.20203">
        <ele>206.8</ele>
        <time>2022-06-04T06:22:35Z</time>
      </trkpt>
      <trkpt lat="46.47852" lon="5.20131">
        <ele>207.6</ele>
        <time>2022-06-04T06:22:43Z</time>
      </trkpt>
      <trkpt lat="46.47847" lon="5.20074">
        <ele>208.4</ele>
        <time>2022-06-04T06:22:50Z</time>
      </trkpt>
      <trkpt lat="46.47844" lon="5.20037">
        <ele>209</ele>
        <time>2022-06-04T06:22:54Z</time>
      </trkpt>
      <trkpt lat="46.4784" lon="5.20002">
        <ele>209.4</ele>
        <time>2022-06-04T06:22:58Z</time>
      </trkpt>
      <trkpt lat="46.47839" lon="5.1999">
        <ele>209.6</ele>
        <time>2022-06-04T06:22:59Z</time>
      </trkpt>
      <trkpt lat="46.47832" lon="5.19919">
        <ele>209.6</ele>
        <time>2022-06-04T06:23:06Z</time>
      </trkpt>
      <trkpt lat="46.47825" lon="5.19839">
        <ele>209.4</ele>
        <time>2022-06-04T06:23:14Z</time>
      </trkpt>
      <trkpt lat="46.47823" lon="5.1982">
        <ele>209.4</ele>
        <time>2022-06-04T06:23:16Z</time>
      </trkpt>
      <trkpt lat="46.47816" lon="5.19742">
        <ele>209.4</ele>
        <time>2022-06-04T06:23:24Z</time>
      </trkpt>
      <trkpt lat="46.47814" lon="5.19713">
        <ele>209.6</ele>
        <time>2022-06-04T06:23:27Z</time>
      </trkpt>
      <trkpt lat="46.47807" lon="5.19635">
        <ele>209.6</ele>
        <time>2022-06-04T06:23:35Z</time>
      </trkpt>
      <trkpt lat="46.478" lon="5.19551">
        <ele>210</ele>
        <time>2022-06-04T06:23:44Z</time>
      </trkpt>
      <trkpt lat="46.47798" lon="5.19534">
        <ele>210.2</ele>
        <time>2022-06-04T06:23:46Z</time>
      </trkpt>
      <trkpt lat="46.47791" lon="5.19448">
        <ele>210.6</ele>
        <time>2022-06-04T06:23:55Z</time>
      </trkpt>
      <trkpt lat="46.4779" lon="5.19438">
        <ele>210.6</ele>
        <time>2022-06-04T06:23:56Z</time>
      </trkpt>
      <trkpt lat="46.47788" lon="5.19419">
        <ele>210.8</ele>
        <time>2022-06-04T06:23:58Z</time>
      </trkpt>
      <trkpt lat="46.4778" lon="5.19337">
        <ele>210.6</ele>
        <time>2022-06-04T06:24:06Z</time>
      </trkpt>
      <trkpt lat="46.47774" lon="5.19273">
        <ele>209.6</ele>
        <time>2022-06-04T06:24:12Z</time>
      </trkpt>
      <trkpt lat="46.47774" lon="5.19265">
        <ele>209.4</ele>
        <time>2022-06-04T06:24:13Z</time>
      </trkpt>
      <trkpt lat="46.47768" lon="5.19202">
        <ele>208.4</ele>
        <time>2022-06-04T06:24:18Z</time>
      </trkpt>
      <trkpt lat="46.47764" lon="5.19162">
        <ele>207.2</ele>
        <time>2022-06-04T06:24:21Z</time>
      </trkpt>
      <trkpt lat="46.47761" lon="5.19135">
        <ele>206.2</ele>
        <time>2022-06-04T06:24:23Z</time>
      </trkpt>
      <trkpt lat="46.47758" lon="5.19107">
        <ele>205.6</ele>
        <time>2022-06-04T06:24:25Z</time>
      </trkpt>
      <trkpt lat="46.47756" lon="5.1908">
        <ele>204.8</ele>
        <time>2022-06-04T06:24:27Z</time>
      </trkpt>
      <trkpt lat="46.47752" lon="5.1904">
        <ele>203.8</ele>
        <time>2022-06-04T06:24:30Z</time>
      </trkpt>
      <trkpt lat="46.47748" lon="5.18998">
        <ele>202.8</ele>
        <time>2022-06-04T06:24:33Z</time>
      </trkpt>
      <trkpt lat="46.47747" lon="5.18984">
        <ele>202.4</ele>
        <time>2022-06-04T06:24:34Z</time>
      </trkpt>
      <trkpt lat="46.47743" lon="5.18926">
        <ele>201.2</ele>
        <time>2022-06-04T06:24:38Z</time>
      </trkpt>
      <trkpt lat="46.47737" lon="5.18869">
        <ele>200</ele>
        <time>2022-06-04T06:24:42Z</time>
      </trkpt>
      <trkpt lat="46.47735" lon="5.18841">
        <ele>198.8</ele>
        <time>2022-06-04T06:24:44Z</time>
      </trkpt>
      <trkpt lat="46.47731" lon="5.188">
        <ele>197.8</ele>
        <time>2022-06-04T06:24:47Z</time>
      </trkpt>
      <trkpt lat="46.47726" lon="5.18747">
        <ele>196.8</ele>
        <time>2022-06-04T06:24:51Z</time>
      </trkpt>
      <trkpt lat="46.47725" lon="5.18724">
        <ele>196.6</ele>
        <time>2022-06-04T06:24:53Z</time>
      </trkpt>
      <trkpt lat="46.47718" lon="5.18647">
        <ele>196.6</ele>
        <time>2022-06-04T06:24:59Z</time>
      </trkpt>
      <trkpt lat="46.47711" lon="5.18567">
        <ele>196.8</ele>
        <time>2022-06-04T06:25:06Z</time>
      </trkpt>
      <trkpt lat="46.4771" lon="5.18554">
        <ele>196.8</ele>
        <time>2022-06-04T06:25:07Z</time>
      </trkpt>
      <trkpt lat="46.47703" lon="5.18476">
        <ele>196.6</ele>
        <time>2022-06-04T06:25:14Z</time>
      </trkpt>
      <trkpt lat="46.47701" lon="5.18454">
        <ele>196.6</ele>
        <time>2022-06-04T06:25:16Z</time>
      </trkpt>
      <trkpt lat="46.47694" lon="5.18371">
        <ele>196.8</ele>
        <time>2022-06-04T06:25:24Z</time>
      </trkpt>
      <trkpt lat="46.47687" lon="5.18292">
        <ele>197.6</ele>
        <time>2022-06-04T06:25:32Z</time>
      </trkpt>
      <trkpt lat="46.47686" lon="5.18283">
        <ele>197.6</ele>
        <time>2022-06-04T06:25:33Z</time>
      </trkpt>
      <trkpt lat="46.47685" lon="5.18272">
        <ele>197.8</ele>
        <time>2022-06-04T06:25:34Z</time>
      </trkpt>
      <trkpt lat="46.47683" lon="5.18247">
        <ele>198.4</ele>
        <time>2022-06-04T06:25:37Z</time>
      </trkpt>
      <trkpt lat="46.47681" lon="5.1823">
        <ele>198.6</ele>
        <time>2022-06-04T06:25:39Z</time>
      </trkpt>
      <trkpt lat="46.4768" lon="5.18213">
        <ele>198.8</ele>
        <time>2022-06-04T06:25:41Z</time>
      </trkpt>
      <trkpt lat="46.47676" lon="5.18163">
        <ele>200</ele>
        <time>2022-06-04T06:25:47Z</time>
      </trkpt>
      <trkpt lat="46.47676" lon="5.18155">
        <ele>200.2</ele>
        <time>2022-06-04T06:25:48Z</time>
      </trkpt>
      <trkpt lat="46.47672" lon="5.18109">
        <ele>201</ele>
        <time>2022-06-04T06:25:54Z</time>
      </trkpt>
      <trkpt lat="46.47671" lon="5.18088">
        <ele>201.6</ele>
        <time>2022-06-04T06:25:57Z</time>
      </trkpt>
      <trkpt lat="46.4767" lon="5.18074">
        <ele>202</ele>
        <time>2022-06-04T06:25:59Z</time>
      </trkpt>
      <trkpt lat="46.47668" lon="5.18044">
        <ele>203.2</ele>
        <time>2022-06-04T06:26:03Z</time>
      </trkpt>
      <trkpt lat="46.47667" lon="5.18031">
        <ele>203.6</ele>
        <time>2022-06-04T06:26:05Z</time>
      </trkpt>
      <trkpt lat="46.47666" lon="5.18012">
        <ele>204.4</ele>
        <time>2022-06-04T06:26:08Z</time>
      </trkpt>
      <trkpt lat="46.47663" lon="5.17983">
        <ele>205.6</ele>
        <time>2022-06-04T06:26:12Z</time>
      </trkpt>
      <trkpt lat="46.47662" lon="5.17977">
        <ele>206</ele>
        <time>2022-06-04T06:26:13Z</time>
      </trkpt>
      <trkpt lat="46.4766" lon="5.17956">
        <ele>206.6</ele>
        <time>2022-06-04T06:26:16Z</time>
      </trkpt>
      <trkpt lat="46.47658" lon="5.17929">
        <ele>207.6</ele>
        <time>2022-06-04T06:26:20Z</time>
      </trkpt>
      <trkpt lat="46.47658" lon="5.17924">
        <ele>207.8</ele>
        <time>2022-06-04T06:26:21Z</time>
      </trkpt>
      <trkpt lat="46.47653" lon="5.17869">
        <ele>208.8</ele>
        <time>2022-06-04T06:26:28Z</time>
      </trkpt>
      <trkpt lat="46.47648" lon="5.17812">
        <ele>209.8</ele>
        <time>2022-06-04T06:26:35Z</time>
      </trkpt>
      <trkpt lat="46.47642" lon="5.17752">
        <ele>209.4</ele>
        <time>2022-06-04T06:26:41Z</time>
      </trkpt>
      <trkpt lat="46.47635" lon="5.17674">
        <ele>207.8</ele>
        <time>2022-06-04T06:26:48Z</time>
      </trkpt>
      <trkpt lat="46.47634" lon="5.17664">
        <ele>207.6</ele>
        <time>2022-06-04T06:26:49Z</time>
      </trkpt>
      <trkpt lat="46.47631" lon="5.17626">
        <ele>206.6</ele>
        <time>2022-06-04T06:26:52Z</time>
      </trkpt>
      <trkpt lat="46.47626" lon="5.1758">
        <ele>206</ele>
        <time>2022-06-04T06:26:56Z</time>
      </trkpt>
      <trkpt lat="46.47618" lon="5.17495">
        <ele>205.8</ele>
        <time>2022-06-04T06:27:04Z</time>
      </trkpt>
      <trkpt lat="46.47614" lon="5.17446">
        <ele>206.2</ele>
        <time>2022-06-04T06:27:09Z</time>
      </trkpt>
      <trkpt lat="46.47608" lon="5.17387">
        <ele>207.6</ele>
        <time>2022-06-04T06:27:16Z</time>
      </trkpt>
      <trkpt lat="46.47604" lon="5.17344">
        <ele>208.8</ele>
        <time>2022-06-04T06:27:21Z</time>
      </trkpt>
      <trkpt lat="46.476" lon="5.17303">
        <ele>209.4</ele>
        <time>2022-06-04T06:27:26Z</time>
      </trkpt>
      <trkpt lat="46.47598" lon="5.17279">
        <ele>209.8</ele>
        <time>2022-06-04T06:27:29Z</time>
      </trkpt>
      <trkpt lat="46.47593" lon="5.17226">
        <ele>210.2</ele>
        <time>2022-06-04T06:27:35Z</time>
      </trkpt>
      <trkpt lat="46.47586" lon="5.17151">
        <ele>210.8</ele>
        <time>2022-06-04T06:27:44Z</time>
      </trkpt>
      <trkpt lat="46.47586" lon="5.17143">
        <ele>210.8</ele>
        <time>2022-06-04T06:27:45Z</time>
      </trkpt>
      <trkpt lat="46.47577" lon="5.17061">
        <ele>211.8</ele>
        <time>2022-06-04T06:27:55Z</time>
      </trkpt>
      <trkpt lat="46.47576" lon="5.17053">
        <ele>211.8</ele>
        <time>2022-06-04T06:27:56Z</time>
      </trkpt>
      <trkpt lat="46.47569" lon="5.16976">
        <ele>213</ele>
        <time>2022-06-04T06:28:05Z</time>
      </trkpt>
      <trkpt lat="46.47567" lon="5.16958">
        <ele>213.2</ele>
        <time>2022-06-04T06:28:07Z</time>
      </trkpt>
      <trkpt lat="46.47558" lon="5.16875">
        <ele>213</ele>
        <time>2022-06-04T06:28:16Z</time>
      </trkpt>
      <trkpt lat="46.47555" lon="5.16847">
        <ele>212.8</ele>
        <time>2022-06-04T06:28:19Z</time>
      </trkpt>
      <trkpt lat="46.47548" lon="5.16763">
        <ele>213.2</ele>
        <time>2022-06-04T06:28:28Z</time>
      </trkpt>
      <trkpt lat="46.47538" lon="5.16678">
        <ele>213.6</ele>
        <time>2022-06-04T06:28:37Z</time>
      </trkpt>
      <trkpt lat="46.47535" lon="5.16649">
        <ele>213.4</ele>
        <time>2022-06-04T06:28:40Z</time>
      </trkpt>
      <trkpt lat="46.47529" lon="5.16577">
        <ele>213</ele>
        <time>2022-06-04T06:28:47Z</time>
      </trkpt>
      <trkpt lat="46.47521" lon="5.16497">
        <ele>213.2</ele>
        <time>2022-06-04T06:28:55Z</time>
      </trkpt>
      <trkpt lat="46.47514" lon="5.16426">
        <ele>213.2</ele>
        <time>2022-06-04T06:29:02Z</time>
      </trkpt>
      <trkpt lat="46.47505" lon="5.16341">
        <ele>213.4</ele>
        <time>2022-06-04T06:29:11Z</time>
      </trkpt>
      <trkpt lat="46.47496" lon="5.16254">
        <ele>212.8</ele>
        <time>2022-06-04T06:29:19Z</time>
      </trkpt>
      <trkpt lat="46.47495" lon="5.16244">
        <ele>212.6</ele>
        <time>2022-06-04T06:29:20Z</time>
      </trkpt>
      <trkpt lat="46.4749" lon="5.16192">
        <ele>212.2</ele>
        <time>2022-06-04T06:29:25Z</time>
      </trkpt>
      <trkpt lat="46.47486" lon="5.16154">
        <ele>212.2</ele>
        <time>2022-06-04T06:29:29Z</time>
      </trkpt>
      <trkpt lat="46.47478" lon="5.16077">
        <ele>213.2</ele>
        <time>2022-06-04T06:29:37Z</time>
      </trkpt>
      <trkpt lat="46.47478" lon="5.1607">
        <ele>213.2</ele>
        <time>2022-06-04T06:29:38Z</time>
      </trkpt>
      <trkpt lat="46.47472" lon="5.16014">
        <ele>213.6</ele>
        <time>2022-06-04T06:29:44Z</time>
      </trkpt>
      <trkpt lat="46.47468" lon="5.15981">
        <ele>214</ele>
        <time>2022-06-04T06:29:48Z</time>
      </trkpt>
      <trkpt lat="46.47464" lon="5.15973">
        <ele>214</ele>
        <time>2022-06-04T06:29:49Z</time>
      </trkpt>
      <trkpt lat="46.47453" lon="5.15969">
        <ele>214.2</ele>
        <time>2022-06-04T06:29:51Z</time>
      </trkpt>
      <trkpt lat="46.47447" lon="5.15968">
        <ele>214.2</ele>
        <time>2022-06-04T06:29:52Z</time>
      </trkpt>
      <trkpt lat="46.47404" lon="5.15963">
        <ele>213.4</ele>
        <time>2022-06-04T06:29:58Z</time>
      </trkpt>
      <trkpt lat="46.47346" lon="5.15945">
        <ele>213.2</ele>
        <time>2022-06-04T06:30:06Z</time>
      </trkpt>
      <trkpt lat="46.47293" lon="5.1592">
        <ele>213</ele>
        <time>2022-06-04T06:30:13Z</time>
      </trkpt>
      <trkpt lat="46.47249" lon="5.15905">
        <ele>212.8</ele>
        <time>2022-06-04T06:30:19Z</time>
      </trkpt>
      <trkpt lat="46.4724" lon="5.15903">
        <ele>212.8</ele>
        <time>2022-06-04T06:30:20Z</time>
      </trkpt>
      <trkpt lat="46.47199" lon="5.15903">
        <ele>212.4</ele>
        <time>2022-06-04T06:30:25Z</time>
      </trkpt>
      <trkpt lat="46.47139" lon="5.15906">
        <ele>212.4</ele>
        <time>2022-06-04T06:30:33Z</time>
      </trkpt>
      <trkpt lat="46.4708" lon="5.1591">
        <ele>212.6</ele>
        <time>2022-06-04T06:30:41Z</time>
      </trkpt>
      <trkpt lat="46.47059" lon="5.15911">
        <ele>212.6</ele>
        <time>2022-06-04T06:30:44Z</time>
      </trkpt>
      <trkpt lat="46.47017" lon="5.15905">
        <ele>212.6</ele>
        <time>2022-06-04T06:30:50Z</time>
      </trkpt>
      <trkpt lat="46.46983" lon="5.15886">
        <ele>212.6</ele>
        <time>2022-06-04T06:30:55Z</time>
      </trkpt>
      <trkpt lat="46.46931" lon="5.15845">
        <ele>212.6</ele>
        <time>2022-06-04T06:31:03Z</time>
      </trkpt>
      <trkpt lat="46.46919" lon="5.15835">
        <ele>212.4</ele>
        <time>2022-06-04T06:31:05Z</time>
      </trkpt>
      <trkpt lat="46.46869" lon="5.15795">
        <ele>212.4</ele>
        <time>2022-06-04T06:31:13Z</time>
      </trkpt>
      <trkpt lat="46.46855" lon="5.15786">
        <ele>212.4</ele>
        <time>2022-06-04T06:31:15Z</time>
      </trkpt>
      <trkpt lat="46.46801" lon="5.15746">
        <ele>212.4</ele>
        <time>2022-06-04T06:31:23Z</time>
      </trkpt>
      <trkpt lat="46.46753" lon="5.15707">
        <ele>212.2</ele>
        <time>2022-06-04T06:31:30Z</time>
      </trkpt>
      <trkpt lat="46.46746" lon="5.15702">
        <ele>212</ele>
        <time>2022-06-04T06:31:31Z</time>
      </trkpt>
      <trkpt lat="46.46739" lon="5.15697">
        <ele>211.8</ele>
        <time>2022-06-04T06:31:32Z</time>
      </trkpt>
      <trkpt lat="46.46691" lon="5.15659">
        <ele>211.4</ele>
        <time>2022-06-04T06:31:39Z</time>
      </trkpt>
      <trkpt lat="46.4667" lon="5.15644">
        <ele>210.8</ele>
        <time>2022-06-04T06:31:42Z</time>
      </trkpt>
      <trkpt lat="46.46661" lon="5.15637">
        <ele>210.8</ele>
        <time>2022-06-04T06:31:43Z</time>
      </trkpt>
      <trkpt lat="46.46607" lon="5.15609">
        <ele>209.8</ele>
        <time>2022-06-04T06:31:50Z</time>
      </trkpt>
      <trkpt lat="46.46591" lon="5.15602">
        <ele>209.6</ele>
        <time>2022-06-04T06:31:52Z</time>
      </trkpt>
      <trkpt lat="46.46558" lon="5.15591">
        <ele>208.6</ele>
        <time>2022-06-04T06:31:56Z</time>
      </trkpt>
      <trkpt lat="46.4655" lon="5.15589">
        <ele>208.4</ele>
        <time>2022-06-04T06:31:57Z</time>
      </trkpt>
      <trkpt lat="46.46492" lon="5.15572">
        <ele>207.6</ele>
        <time>2022-06-04T06:32:04Z</time>
      </trkpt>
      <trkpt lat="46.46484" lon="5.1557">
        <ele>207.2</ele>
        <time>2022-06-04T06:32:05Z</time>
      </trkpt>
      <trkpt lat="46.46426" lon="5.15553">
        <ele>206.8</ele>
        <time>2022-06-04T06:32:12Z</time>
      </trkpt>
      <trkpt lat="46.4637" lon="5.15534">
        <ele>206.2</ele>
        <time>2022-06-04T06:32:19Z</time>
      </trkpt>
      <trkpt lat="46.46354" lon="5.15528">
        <ele>206.2</ele>
        <time>2022-06-04T06:32:21Z</time>
      </trkpt>
      <trkpt lat="46.46299" lon="5.15506">
        <ele>206.2</ele>
        <time>2022-06-04T06:32:28Z</time>
      </trkpt>
      <trkpt lat="46.46268" lon="5.15494">
        <ele>206.2</ele>
        <time>2022-06-04T06:32:32Z</time>
      </trkpt>
      <trkpt lat="46.4626" lon="5.1549">
        <ele>206</ele>
        <time>2022-06-04T06:32:33Z</time>
      </trkpt>
      <trkpt lat="46.4623" lon="5.15479">
        <ele>205.8</ele>
        <time>2022-06-04T06:32:37Z</time>
      </trkpt>
      <trkpt lat="46.46183" lon="5.1546">
        <ele>205.6</ele>
        <time>2022-06-04T06:32:43Z</time>
      </trkpt>
      <trkpt lat="46.46144" lon="5.15444">
        <ele>205</ele>
        <time>2022-06-04T06:32:48Z</time>
      </trkpt>
      <trkpt lat="46.46128" lon="5.15435">
        <ele>204.8</ele>
        <time>2022-06-04T06:32:50Z</time>
      </trkpt>
      <trkpt lat="46.46091" lon="5.15406">
        <ele>204</ele>
        <time>2022-06-04T06:32:55Z</time>
      </trkpt>
      <trkpt lat="46.46078" lon="5.15393">
        <ele>203.8</ele>
        <time>2022-06-04T06:32:57Z</time>
      </trkpt>
      <trkpt lat="46.46047" lon="5.15358">
        <ele>203.8</ele>
        <time>2022-06-04T06:33:02Z</time>
      </trkpt>
      <trkpt lat="46.46021" lon="5.15322">
        <ele>204.2</ele>
        <time>2022-06-04T06:33:08Z</time>
      </trkpt>
      <trkpt lat="46.46012" lon="5.15309">
        <ele>205</ele>
        <time>2022-06-04T06:33:11Z</time>
      </trkpt>
      <trkpt lat="46.46009" lon="5.15306">
        <ele>205.2</ele>
        <time>2022-06-04T06:33:12Z</time>
      </trkpt>
      <trkpt lat="46.46007" lon="5.15302">
        <ele>205.4</ele>
        <time>2022-06-04T06:33:13Z</time>
      </trkpt>
      <trkpt lat="46.46002" lon="5.15291">
        <ele>206.4</ele>
        <time>2022-06-04T06:33:16Z</time>
      </trkpt>
      <trkpt lat="46.45999" lon="5.15288">
        <ele>206.6</ele>
        <time>2022-06-04T06:33:17Z</time>
      </trkpt>
      <trkpt lat="46.45984" lon="5.15268">
        <ele>207.4</ele>
        <time>2022-06-04T06:33:22Z</time>
      </trkpt>
      <trkpt lat="46.45965" lon="5.1524">
        <ele>208.6</ele>
        <time>2022-06-04T06:33:28Z</time>
      </trkpt>
      <trkpt lat="46.45962" lon="5.15235">
        <ele>208.8</ele>
        <time>2022-06-04T06:33:29Z</time>
      </trkpt>
      <trkpt lat="46.45947" lon="5.1521">
        <ele>210</ele>
        <time>2022-06-04T06:33:34Z</time>
      </trkpt>
      <trkpt lat="46.4594" lon="5.15201">
        <ele>210.6</ele>
        <time>2022-06-04T06:33:36Z</time>
      </trkpt>
      <trkpt lat="46.45932" lon="5.15193">
        <ele>211</ele>
        <time>2022-06-04T06:33:38Z</time>
      </trkpt>
      <trkpt lat="46.4592" lon="5.15179">
        <ele>211.6</ele>
        <time>2022-06-04T06:33:41Z</time>
      </trkpt>
      <trkpt lat="46.45911" lon="5.1517">
        <ele>212</ele>
        <time>2022-06-04T06:33:43Z</time>
      </trkpt>
      <trkpt lat="46.45896" lon="5.1516">
        <ele>212.4</ele>
        <time>2022-06-04T06:33:46Z</time>
      </trkpt>
      <trkpt lat="46.45864" lon="5.1515">
        <ele>212.8</ele>
        <time>2022-06-04T06:33:51Z</time>
      </trkpt>
      <trkpt lat="46.45826" lon="5.15144">
        <ele>212.4</ele>
        <time>2022-06-04T06:33:56Z</time>
      </trkpt>
      <trkpt lat="46.45778" lon="5.15144">
        <ele>211.4</ele>
        <time>2022-06-04T06:34:02Z</time>
      </trkpt>
      <trkpt lat="46.45734" lon="5.15159">
        <ele>211.2</ele>
        <time>2022-06-04T06:34:08Z</time>
      </trkpt>
      <trkpt lat="46.45727" lon="5.15162">
        <ele>211.4</ele>
        <time>2022-06-04T06:34:09Z</time>
      </trkpt>
      <trkpt lat="46.45703" lon="5.15182">
        <ele>211.4</ele>
        <time>2022-06-04T06:34:13Z</time>
      </trkpt>
      <trkpt lat="46.45665" lon="5.15222">
        <ele>212.4</ele>
        <time>2022-06-04T06:34:20Z</time>
      </trkpt>
      <trkpt lat="46.45639" lon="5.1525">
        <ele>213.2</ele>
        <time>2022-06-04T06:34:25Z</time>
      </trkpt>
      <trkpt lat="46.45624" lon="5.15267">
        <ele>213.4</ele>
        <time>2022-06-04T06:34:28Z</time>
      </trkpt>
      <trkpt lat="46.45582" lon="5.15307">
        <ele>214.2</ele>
        <time>2022-06-04T06:34:36Z</time>
      </trkpt>
      <trkpt lat="46.45577" lon="5.15312">
        <ele>214.4</ele>
        <time>2022-06-04T06:34:37Z</time>
      </trkpt>
      <trkpt lat="46.45536" lon="5.15344">
        <ele>215</ele>
        <time>2022-06-04T06:34:44Z</time>
      </trkpt>
      <trkpt lat="46.45486" lon="5.15376">
        <ele>214.4</ele>
        <time>2022-06-04T06:34:51Z</time>
      </trkpt>
      <trkpt lat="46.4544" lon="5.15401">
        <ele>213.4</ele>
        <time>2022-06-04T06:34:57Z</time>
      </trkpt>
      <trkpt lat="46.45432" lon="5.15404">
        <ele>213</ele>
        <time>2022-06-04T06:34:58Z</time>
      </trkpt>
      <trkpt lat="46.45388" lon="5.15413">
        <ele>212.2</ele>
        <time>2022-06-04T06:35:03Z</time>
      </trkpt>
      <trkpt lat="46.45379" lon="5.15414">
        <ele>212</ele>
        <time>2022-06-04T06:35:04Z</time>
      </trkpt>
      <trkpt lat="46.45361" lon="5.15416">
        <ele>211.2</ele>
        <time>2022-06-04T06:35:06Z</time>
      </trkpt>
      <trkpt lat="46.45315" lon="5.15423">
        <ele>210</ele>
        <time>2022-06-04T06:35:11Z</time>
      </trkpt>
      <trkpt lat="46.45295" lon="5.15426">
        <ele>209.6</ele>
        <time>2022-06-04T06:35:13Z</time>
      </trkpt>
      <trkpt lat="46.45287" lon="5.15427">
        <ele>209</ele>
        <time>2022-06-04T06:35:14Z</time>
      </trkpt>
      <trkpt lat="46.45248" lon="5.15433">
        <ele>208.6</ele>
        <time>2022-06-04T06:35:19Z</time>
      </trkpt>
      <trkpt lat="46.45195" lon="5.1544">
        <ele>209.2</ele>
        <time>2022-06-04T06:35:26Z</time>
      </trkpt>
      <trkpt lat="46.45138" lon="5.15448">
        <ele>209.6</ele>
        <time>2022-06-04T06:35:33Z</time>
      </trkpt>
      <trkpt lat="46.4513" lon="5.15449">
        <ele>209.6</ele>
        <time>2022-06-04T06:35:34Z</time>
      </trkpt>
      <trkpt lat="46.4507" lon="5.15456">
        <ele>207.6</ele>
        <time>2022-06-04T06:35:41Z</time>
      </trkpt>
      <trkpt lat="46.45043" lon="5.15451">
        <ele>206.4</ele>
        <time>2022-06-04T06:35:44Z</time>
      </trkpt>
      <trkpt lat="46.45034" lon="5.15448">
        <ele>206.4</ele>
        <time>2022-06-04T06:35:45Z</time>
      </trkpt>
      <trkpt lat="46.45008" lon="5.15432">
        <ele>205.2</ele>
        <time>2022-06-04T06:35:48Z</time>
      </trkpt>
      <trkpt lat="46.44992" lon="5.1542">
        <ele>205</ele>
        <time>2022-06-04T06:35:50Z</time>
      </trkpt>
      <trkpt lat="46.4497" lon="5.15401">
        <ele>204</ele>
        <time>2022-06-04T06:35:53Z</time>
      </trkpt>
      <trkpt lat="46.44957" lon="5.15389">
        <ele>203.8</ele>
        <time>2022-06-04T06:35:55Z</time>
      </trkpt>
      <trkpt lat="46.44906" lon="5.15346">
        <ele>204.6</ele>
        <time>2022-06-04T06:36:03Z</time>
      </trkpt>
      <trkpt lat="46.44887" lon="5.15331">
        <ele>205.2</ele>
        <time>2022-06-04T06:36:06Z</time>
      </trkpt>
      <trkpt lat="46.44863" lon="5.15311">
        <ele>205.6</ele>
        <time>2022-06-04T06:36:10Z</time>
      </trkpt>
      <trkpt lat="46.44821" lon="5.15279">
        <ele>206.2</ele>
        <time>2022-06-04T06:36:17Z</time>
      </trkpt>
      <trkpt lat="46.44815" lon="5.15275">
        <ele>206.4</ele>
        <time>2022-06-04T06:36:18Z</time>
      </trkpt>
      <trkpt lat="46.44766" lon="5.15249">
        <ele>206.8</ele>
        <time>2022-06-04T06:36:26Z</time>
      </trkpt>
      <trkpt lat="46.44747" lon="5.15242">
        <ele>207.2</ele>
        <time>2022-06-04T06:36:29Z</time>
      </trkpt>
      <trkpt lat="46.44724" lon="5.15235">
        <ele>208</ele>
        <time>2022-06-04T06:36:33Z</time>
      </trkpt>
      <trkpt lat="46.44718" lon="5.15234">
        <ele>208.4</ele>
        <time>2022-06-04T06:36:34Z</time>
      </trkpt>
      <trkpt lat="46.4468" lon="5.1523">
        <ele>209</ele>
        <time>2022-06-04T06:36:40Z</time>
      </trkpt>
      <trkpt lat="46.44619" lon="5.15234">
        <ele>209.6</ele>
        <time>2022-06-04T06:36:50Z</time>
      </trkpt>
      <trkpt lat="46.44608" lon="5.15235">
        <ele>210</ele>
        <time>2022-06-04T06:36:52Z</time>
      </trkpt>
      <trkpt lat="46.44592" lon="5.15237">
        <ele>210.4</ele>
        <time>2022-06-04T06:36:55Z</time>
      </trkpt>
      <trkpt lat="46.44582" lon="5.15238">
        <ele>210.6</ele>
        <time>2022-06-04T06:36:57Z</time>
      </trkpt>
      <trkpt lat="46.44562" lon="5.15246">
        <ele>210.8</ele>
        <time>2022-06-04T06:37:00Z</time>
      </trkpt>
      <trkpt lat="46.44531" lon="5.15254">
        <ele>211.6</ele>
        <time>2022-06-04T06:37:05Z</time>
      </trkpt>
      <trkpt lat="46.44524" lon="5.15255">
        <ele>211.8</ele>
        <time>2022-06-04T06:37:06Z</time>
      </trkpt>
      <trkpt lat="46.44472" lon="5.15264">
        <ele>212.6</ele>
        <time>2022-06-04T06:37:14Z</time>
      </trkpt>
      <trkpt lat="46.44465" lon="5.15265">
        <ele>212.8</ele>
        <time>2022-06-04T06:37:15Z</time>
      </trkpt>
      <trkpt lat="46.4442" lon="5.15274">
        <ele>213</ele>
        <time>2022-06-04T06:37:21Z</time>
      </trkpt>
      <trkpt lat="46.44365" lon="5.15288">
        <ele>211.8</ele>
        <time>2022-06-04T06:37:28Z</time>
      </trkpt>
      <trkpt lat="46.44357" lon="5.15291">
        <ele>211.6</ele>
        <time>2022-06-04T06:37:29Z</time>
      </trkpt>
      <trkpt lat="46.44321" lon="5.15312">
        <ele>210.6</ele>
        <time>2022-06-04T06:37:34Z</time>
      </trkpt>
      <trkpt lat="46.44269" lon="5.1535">
        <ele>211.2</ele>
        <time>2022-06-04T06:37:42Z</time>
      </trkpt>
      <trkpt lat="46.44263" lon="5.15353">
        <ele>211.4</ele>
        <time>2022-06-04T06:37:43Z</time>
      </trkpt>
      <trkpt lat="46.44247" lon="5.15358">
        <ele>211.4</ele>
        <time>2022-06-04T06:37:45Z</time>
      </trkpt>
      <trkpt lat="46.44241" lon="5.15359">
        <ele>211.6</ele>
        <time>2022-06-04T06:37:46Z</time>
      </trkpt>
      <trkpt lat="46.44197" lon="5.15356">
        <ele>211.6</ele>
        <time>2022-06-04T06:37:52Z</time>
      </trkpt>
      <trkpt lat="46.44135" lon="5.15352">
        <ele>211.4</ele>
        <time>2022-06-04T06:38:00Z</time>
      </trkpt>
      <trkpt lat="46.44128" lon="5.15352">
        <ele>211.4</ele>
        <time>2022-06-04T06:38:01Z</time>
      </trkpt>
      <trkpt lat="46.44066" lon="5.1535">
        <ele>211.2</ele>
        <time>2022-06-04T06:38:09Z</time>
      </trkpt>
      <trkpt lat="46.44042" lon="5.1535">
        <ele>211.2</ele>
        <time>2022-06-04T06:38:12Z</time>
      </trkpt>
      <trkpt lat="46.43981" lon="5.15351">
        <ele>211.6</ele>
        <time>2022-06-04T06:38:20Z</time>
      </trkpt>
      <trkpt lat="46.43967" lon="5.15351">
        <ele>211.6</ele>
        <time>2022-06-04T06:38:22Z</time>
      </trkpt>
      <trkpt lat="46.4396" lon="5.15351">
        <ele>211.8</ele>
        <time>2022-06-04T06:38:23Z</time>
      </trkpt>
      <trkpt lat="46.43918" lon="5.15352">
        <ele>212.8</ele>
        <time>2022-06-04T06:38:29Z</time>
      </trkpt>
      <trkpt lat="46.43911" lon="5.15351">
        <ele>213</ele>
        <time>2022-06-04T06:38:30Z</time>
      </trkpt>
      <trkpt lat="46.43864" lon="5.15345">
        <ele>213.8</ele>
        <time>2022-06-04T06:38:37Z</time>
      </trkpt>
      <trkpt lat="46.43827" lon="5.15326">
        <ele>215</ele>
        <time>2022-06-04T06:38:43Z</time>
      </trkpt>
      <trkpt lat="46.43793" lon="5.15297">
        <ele>215.8</ele>
        <time>2022-06-04T06:38:50Z</time>
      </trkpt>
      <trkpt lat="46.43788" lon="5.15292">
        <ele>216</ele>
        <time>2022-06-04T06:38:51Z</time>
      </trkpt>
      <trkpt lat="46.43748" lon="5.15246">
        <ele>217</ele>
        <time>2022-06-04T06:38:59Z</time>
      </trkpt>
      <trkpt lat="46.43743" lon="5.1524">
        <ele>217.2</ele>
        <time>2022-06-04T06:39:00Z</time>
      </trkpt>
      <trkpt lat="46.43703" lon="5.15192">
        <ele>216.6</ele>
        <time>2022-06-04T06:39:07Z</time>
      </trkpt>
      <trkpt lat="46.43684" lon="5.1517">
        <ele>216</ele>
        <time>2022-06-04T06:39:10Z</time>
      </trkpt>
      <trkpt lat="46.43664" lon="5.15146">
        <ele>215</ele>
        <time>2022-06-04T06:39:13Z</time>
      </trkpt>
      <trkpt lat="46.4365" lon="5.1513">
        <ele>214.2</ele>
        <time>2022-06-04T06:39:15Z</time>
      </trkpt>
      <trkpt lat="46.43643" lon="5.15121">
        <ele>213.8</ele>
        <time>2022-06-04T06:39:16Z</time>
      </trkpt>
      <trkpt lat="46.43622" lon="5.15096">
        <ele>212.6</ele>
        <time>2022-06-04T06:39:19Z</time>
      </trkpt>
      <trkpt lat="46.43592" lon="5.15061">
        <ele>211.2</ele>
        <time>2022-06-04T06:39:23Z</time>
      </trkpt>
      <trkpt lat="46.43585" lon="5.15052">
        <ele>211</ele>
        <time>2022-06-04T06:39:24Z</time>
      </trkpt>
      <trkpt lat="46.43562" lon="5.15025">
        <ele>210.2</ele>
        <time>2022-06-04T06:39:27Z</time>
      </trkpt>
      <trkpt lat="46.43539" lon="5.14998">
        <ele>209</ele>
        <time>2022-06-04T06:39:30Z</time>
      </trkpt>
      <trkpt lat="46.43515" lon="5.1497">
        <ele>208</ele>
        <time>2022-06-04T06:39:33Z</time>
      </trkpt>
      <trkpt lat="46.43507" lon="5.14961">
        <ele>207.4</ele>
        <time>2022-06-04T06:39:34Z</time>
      </trkpt>
      <trkpt lat="46.43499" lon="5.14951">
        <ele>207</ele>
        <time>2022-06-04T06:39:35Z</time>
      </trkpt>
      <trkpt lat="46.43458" lon="5.14903">
        <ele>205.6</ele>
        <time>2022-06-04T06:39:40Z</time>
      </trkpt>
      <trkpt lat="46.43442" lon="5.14884">
        <ele>204.6</ele>
        <time>2022-06-04T06:39:42Z</time>
      </trkpt>
      <trkpt lat="46.43427" lon="5.14866">
        <ele>204</ele>
        <time>2022-06-04T06:39:44Z</time>
      </trkpt>
      <trkpt lat="46.43411" lon="5.14848">
        <ele>203.4</ele>
        <time>2022-06-04T06:39:46Z</time>
      </trkpt>
      <trkpt lat="46.43387" lon="5.14825">
        <ele>203.2</ele>
        <time>2022-06-04T06:39:49Z</time>
      </trkpt>
      <trkpt lat="46.43357" lon="5.14801">
        <ele>202.2</ele>
        <time>2022-06-04T06:39:53Z</time>
      </trkpt>
      <trkpt lat="46.43349" lon="5.14796">
        <ele>202</ele>
        <time>2022-06-04T06:39:54Z</time>
      </trkpt>
      <trkpt lat="46.43302" lon="5.14758">
        <ele>202.8</ele>
        <time>2022-06-04T06:40:01Z</time>
      </trkpt>
      <trkpt lat="46.43289" lon="5.14748">
        <ele>203.2</ele>
        <time>2022-06-04T06:40:03Z</time>
      </trkpt>
      <trkpt lat="46.4327" lon="5.14732">
        <ele>204.2</ele>
        <time>2022-06-04T06:40:06Z</time>
      </trkpt>
      <trkpt lat="46.43264" lon="5.14727">
        <ele>204.4</ele>
        <time>2022-06-04T06:40:07Z</time>
      </trkpt>
      <trkpt lat="46.43223" lon="5.14682">
        <ele>204.8</ele>
        <time>2022-06-04T06:40:14Z</time>
      </trkpt>
      <trkpt lat="46.43192" lon="5.14642">
        <ele>205.4</ele>
        <time>2022-06-04T06:40:20Z</time>
      </trkpt>
      <trkpt lat="46.43152" lon="5.14589">
        <ele>206.2</ele>
        <time>2022-06-04T06:40:28Z</time>
      </trkpt>
      <trkpt lat="46.43133" lon="5.14566">
        <ele>206.4</ele>
        <time>2022-06-04T06:40:32Z</time>
      </trkpt>
      <trkpt lat="46.43123" lon="5.14554">
        <ele>206.8</ele>
        <time>2022-06-04T06:40:34Z</time>
      </trkpt>
      <trkpt lat="46.43099" lon="5.14517">
        <ele>207.4</ele>
        <time>2022-06-04T06:40:39Z</time>
      </trkpt>
      <trkpt lat="46.43077" lon="5.14479">
        <ele>207.2</ele>
        <time>2022-06-04T06:40:43Z</time>
      </trkpt>
      <trkpt lat="46.43066" lon="5.14462">
        <ele>207.2</ele>
        <time>2022-06-04T06:40:45Z</time>
      </trkpt>
      <trkpt lat="46.43026" lon="5.14397">
        <ele>205.4</ele>
        <time>2022-06-04T06:40:52Z</time>
      </trkpt>
      <trkpt lat="46.43021" lon="5.14388">
        <ele>205.2</ele>
        <time>2022-06-04T06:40:53Z</time>
      </trkpt>
      <trkpt lat="46.42985" lon="5.14331">
        <ele>204.6</ele>
        <time>2022-06-04T06:41:00Z</time>
      </trkpt>
      <trkpt lat="46.42948" lon="5.14283">
        <ele>205.6</ele>
        <time>2022-06-04T06:41:07Z</time>
      </trkpt>
      <trkpt lat="46.42919" lon="5.14256">
        <ele>206.4</ele>
        <time>2022-06-04T06:41:12Z</time>
      </trkpt>
      <trkpt lat="46.42915" lon="5.14253">
        <ele>206.4</ele>
        <time>2022-06-04T06:41:13Z</time>
      </trkpt>
      <trkpt lat="46.42876" lon="5.14221">
        <ele>207.4</ele>
        <time>2022-06-04T06:41:20Z</time>
      </trkpt>
      <trkpt lat="46.4287" lon="5.14215">
        <ele>207.8</ele>
        <time>2022-06-04T06:41:21Z</time>
      </trkpt>
      <trkpt lat="46.42817" lon="5.1417">
        <ele>208.4</ele>
        <time>2022-06-04T06:41:30Z</time>
      </trkpt>
      <trkpt lat="46.42813" lon="5.14166">
        <ele>208.4</ele>
        <time>2022-06-04T06:41:31Z</time>
      </trkpt>
      <trkpt lat="46.42789" lon="5.14134">
        <ele>208.2</ele>
        <time>2022-06-04T06:41:35Z</time>
      </trkpt>
      <trkpt lat="46.42781" lon="5.14117">
        <ele>208</ele>
        <time>2022-06-04T06:41:37Z</time>
      </trkpt>
      <trkpt lat="46.42775" lon="5.14095">
        <ele>207.4</ele>
        <time>2022-06-04T06:41:39Z</time>
      </trkpt>
      <trkpt lat="46.42772" lon="5.14058">
        <ele>206.2</ele>
        <time>2022-06-04T06:41:42Z</time>
      </trkpt>
      <trkpt lat="46.42772" lon="5.14046">
        <ele>206</ele>
        <time>2022-06-04T06:41:43Z</time>
      </trkpt>
      <trkpt lat="46.42775" lon="5.13985">
        <ele>205</ele>
        <time>2022-06-04T06:41:48Z</time>
      </trkpt>
      <trkpt lat="46.42776" lon="5.13961">
        <ele>204.8</ele>
        <time>2022-06-04T06:41:50Z</time>
      </trkpt>
      <trkpt lat="46.42776" lon="5.13939">
        <ele>204.8</ele>
        <time>2022-06-04T06:41:52Z</time>
      </trkpt>
      <trkpt lat="46.42774" lon="5.13918">
        <ele>204.8</ele>
        <time>2022-06-04T06:41:54Z</time>
      </trkpt>
      <trkpt lat="46.42772" lon="5.13908">
        <ele>204.8</ele>
        <time>2022-06-04T06:41:55Z</time>
      </trkpt>
      <trkpt lat="46.42766" lon="5.1389">
        <ele>204.8</ele>
        <time>2022-06-04T06:41:57Z</time>
      </trkpt>
      <trkpt lat="46.42762" lon="5.13881">
        <ele>205</ele>
        <time>2022-06-04T06:41:58Z</time>
      </trkpt>
      <trkpt lat="46.42741" lon="5.13846">
        <ele>206</ele>
        <time>2022-06-04T06:42:03Z</time>
      </trkpt>
      <trkpt lat="46.42715" lon="5.13807">
        <ele>206.4</ele>
        <time>2022-06-04T06:42:09Z</time>
      </trkpt>
      <trkpt lat="46.4268" lon="5.13756">
        <ele>207</ele>
        <time>2022-06-04T06:42:17Z</time>
      </trkpt>
      <trkpt lat="46.42675" lon="5.13749">
        <ele>207</ele>
        <time>2022-06-04T06:42:18Z</time>
      </trkpt>
      <trkpt lat="46.4267" lon="5.13743">
        <ele>207.2</ele>
        <time>2022-06-04T06:42:19Z</time>
      </trkpt>
      <trkpt lat="46.42651" lon="5.1373">
        <ele>207.6</ele>
        <time>2022-06-04T06:42:22Z</time>
      </trkpt>
      <trkpt lat="46.42645" lon="5.13727">
        <ele>207.8</ele>
        <time>2022-06-04T06:42:23Z</time>
      </trkpt>
      <trkpt lat="46.4264" lon="5.13726">
        <ele>207.8</ele>
        <time>2022-06-04T06:42:24Z</time>
      </trkpt>
      <trkpt lat="46.42617" lon="5.13721">
        <ele>207.8</ele>
        <time>2022-06-04T06:42:27Z</time>
      </trkpt>
      <trkpt lat="46.42583" lon="5.13702">
        <ele>207.8</ele>
        <time>2022-06-04T06:42:32Z</time>
      </trkpt>
      <trkpt lat="46.42565" lon="5.13683">
        <ele>207.2</ele>
        <time>2022-06-04T06:42:35Z</time>
      </trkpt>
      <trkpt lat="46.42561" lon="5.13677">
        <ele>207.2</ele>
        <time>2022-06-04T06:42:36Z</time>
      </trkpt>
      <trkpt lat="46.42536" lon="5.1363">
        <ele>207.2</ele>
        <time>2022-06-04T06:42:42Z</time>
      </trkpt>
      <trkpt lat="46.4251" lon="5.13591">
        <ele>208.2</ele>
        <time>2022-06-04T06:42:48Z</time>
      </trkpt>
      <trkpt lat="46.42482" lon="5.13567">
        <ele>208.8</ele>
        <time>2022-06-04T06:42:54Z</time>
      </trkpt>
      <trkpt lat="46.42472" lon="5.13563">
        <ele>209.2</ele>
        <time>2022-06-04T06:42:56Z</time>
      </trkpt>
      <trkpt lat="46.42445" lon="5.13552">
        <ele>210.2</ele>
        <time>2022-06-04T06:43:01Z</time>
      </trkpt>
      <trkpt lat="46.42439" lon="5.13549">
        <ele>210.6</ele>
        <time>2022-06-04T06:43:02Z</time>
      </trkpt>
      <trkpt lat="46.42417" lon="5.13541">
        <ele>211.4</ele>
        <time>2022-06-04T06:43:06Z</time>
      </trkpt>
      <trkpt lat="46.42412" lon="5.13539">
        <ele>211.6</ele>
        <time>2022-06-04T06:43:07Z</time>
      </trkpt>
      <trkpt lat="46.42406" lon="5.13535">
        <ele>211.6</ele>
        <time>2022-06-04T06:43:08Z</time>
      </trkpt>
      <trkpt lat="46.42381" lon="5.13524">
        <ele>212</ele>
        <time>2022-06-04T06:43:12Z</time>
      </trkpt>
      <trkpt lat="46.42368" lon="5.13519">
        <ele>212.2</ele>
        <time>2022-06-04T06:43:14Z</time>
      </trkpt>
      <trkpt lat="46.42344" lon="5.13509">
        <ele>212.6</ele>
        <time>2022-06-04T06:43:18Z</time>
      </trkpt>
      <trkpt lat="46.4234" lon="5.13505">
        <ele>212.8</ele>
        <time>2022-06-04T06:43:19Z</time>
      </trkpt>
      <trkpt lat="46.42333" lon="5.13502">
        <ele>212.8</ele>
        <time>2022-06-04T06:43:20Z</time>
      </trkpt>
      <trkpt lat="46.42277" lon="5.13481">
        <ele>212.6</ele>
        <time>2022-06-04T06:43:28Z</time>
      </trkpt>
      <trkpt lat="46.4227" lon="5.13478">
        <ele>212.6</ele>
        <time>2022-06-04T06:43:29Z</time>
      </trkpt>
      <trkpt lat="46.4223" lon="5.13459">
        <ele>211.6</ele>
        <time>2022-06-04T06:43:35Z</time>
      </trkpt>
      <trkpt lat="46.42223" lon="5.13456">
        <ele>211.6</ele>
        <time>2022-06-04T06:43:36Z</time>
      </trkpt>
      <trkpt lat="46.42171" lon="5.13426">
        <ele>210.8</ele>
        <time>2022-06-04T06:43:44Z</time>
      </trkpt>
      <trkpt lat="46.42132" lon="5.13385">
        <ele>210.8</ele>
        <time>2022-06-04T06:43:51Z</time>
      </trkpt>
      <trkpt lat="46.42092" lon="5.13336">
        <ele>210.8</ele>
        <time>2022-06-04T06:43:59Z</time>
      </trkpt>
      <trkpt lat="46.42057" lon="5.13287">
        <ele>211.8</ele>
        <time>2022-06-04T06:44:07Z</time>
      </trkpt>
      <trkpt lat="46.4204" lon="5.13264">
        <ele>212.6</ele>
        <time>2022-06-04T06:44:11Z</time>
      </trkpt>
      <trkpt lat="46.42027" lon="5.13246">
        <ele>213</ele>
        <time>2022-06-04T06:44:14Z</time>
      </trkpt>
      <trkpt lat="46.42009" lon="5.13224">
        <ele>213.6</ele>
        <time>2022-06-04T06:44:19Z</time>
      </trkpt>
      <trkpt lat="46.41997" lon="5.13208">
        <ele>214.6</ele>
        <time>2022-06-04T06:44:22Z</time>
      </trkpt>
      <trkpt lat="46.41984" lon="5.13191">
        <ele>215</ele>
        <time>2022-06-04T06:44:25Z</time>
      </trkpt>
      <trkpt lat="46.41946" lon="5.13145">
        <ele>215.8</ele>
        <time>2022-06-04T06:44:34Z</time>
      </trkpt>
      <trkpt lat="46.41942" lon="5.13139">
        <ele>215.8</ele>
        <time>2022-06-04T06:44:35Z</time>
      </trkpt>
      <trkpt lat="46.41909" lon="5.13096">
        <ele>216.8</ele>
        <time>2022-06-04T06:44:43Z</time>
      </trkpt>
      <trkpt lat="46.41901" lon="5.13084">
        <ele>217</ele>
        <time>2022-06-04T06:44:45Z</time>
      </trkpt>
      <trkpt lat="46.41877" lon="5.13053">
        <ele>217.8</ele>
        <time>2022-06-04T06:44:50Z</time>
      </trkpt>
      <trkpt lat="46.41872" lon="5.13046">
        <ele>218</ele>
        <time>2022-06-04T06:44:51Z</time>
      </trkpt>
      <trkpt lat="46.41838" lon="5.13002">
        <ele>218.4</ele>
        <time>2022-06-04T06:44:58Z</time>
      </trkpt>
      <trkpt lat="46.41799" lon="5.12951">
        <ele>218.6</ele>
        <time>2022-06-04T06:45:06Z</time>
      </trkpt>
      <trkpt lat="46.41756" lon="5.12896">
        <ele>218.8</ele>
        <time>2022-06-04T06:45:14Z</time>
      </trkpt>
      <trkpt lat="46.41721" lon="5.12861">
        <ele>218.6</ele>
        <time>2022-06-04T06:45:20Z</time>
      </trkpt>
      <trkpt lat="46.4167" lon="5.12825">
        <ele>218.2</ele>
        <time>2022-06-04T06:45:28Z</time>
      </trkpt>
      <trkpt lat="46.41618" lon="5.12789">
        <ele>218.2</ele>
        <time>2022-06-04T06:45:36Z</time>
      </trkpt>
      <trkpt lat="46.41605" lon="5.1278">
        <ele>218.2</ele>
        <time>2022-06-04T06:45:38Z</time>
      </trkpt>
      <trkpt lat="46.41555" lon="5.12745">
        <ele>218</ele>
        <time>2022-06-04T06:45:46Z</time>
      </trkpt>
      <trkpt lat="46.41528" lon="5.12727">
        <ele>218.2</ele>
        <time>2022-06-04T06:45:50Z</time>
      </trkpt>
      <trkpt lat="46.4149" lon="5.12701">
        <ele>218.4</ele>
        <time>2022-06-04T06:45:56Z</time>
      </trkpt>
      <trkpt lat="46.41467" lon="5.12684">
        <ele>218.8</ele>
        <time>2022-06-04T06:46:00Z</time>
      </trkpt>
      <trkpt lat="46.41436" lon="5.12664">
        <ele>219</ele>
        <time>2022-06-04T06:46:05Z</time>
      </trkpt>
      <trkpt lat="46.41386" lon="5.12628">
        <ele>219.4</ele>
        <time>2022-06-04T06:46:13Z</time>
      </trkpt>
      <trkpt lat="46.41361" lon="5.12611">
        <ele>220</ele>
        <time>2022-06-04T06:46:17Z</time>
      </trkpt>
      <trkpt lat="46.41324" lon="5.12585">
        <ele>220.2</ele>
        <time>2022-06-04T06:46:23Z</time>
      </trkpt>
      <trkpt lat="46.41272" lon="5.1255">
        <ele>220.2</ele>
        <time>2022-06-04T06:46:31Z</time>
      </trkpt>
      <trkpt lat="46.41259" lon="5.1254">
        <ele>220</ele>
        <time>2022-06-04T06:46:33Z</time>
      </trkpt>
      <trkpt lat="46.41206" lon="5.12504">
        <ele>219.4</ele>
        <time>2022-06-04T06:46:41Z</time>
      </trkpt>
      <trkpt lat="46.41181" lon="5.12486">
        <ele>219.4</ele>
        <time>2022-06-04T06:46:45Z</time>
      </trkpt>
      <trkpt lat="46.41126" lon="5.12449">
        <ele>219.4</ele>
        <time>2022-06-04T06:46:53Z</time>
      </trkpt>
      <trkpt lat="46.41119" lon="5.12444">
        <ele>219.2</ele>
        <time>2022-06-04T06:46:54Z</time>
      </trkpt>
      <trkpt lat="46.41097" lon="5.12429">
        <ele>219.2</ele>
        <time>2022-06-04T06:46:57Z</time>
      </trkpt>
      <trkpt lat="46.41066" lon="5.12408">
        <ele>218.8</ele>
        <time>2022-06-04T06:47:01Z</time>
      </trkpt>
      <trkpt lat="46.4105" lon="5.12396">
        <ele>218.4</ele>
        <time>2022-06-04T06:47:03Z</time>
      </trkpt>
      <trkpt lat="46.41035" lon="5.12385">
        <ele>217.8</ele>
        <time>2022-06-04T06:47:05Z</time>
      </trkpt>
      <trkpt lat="46.41003" lon="5.12362">
        <ele>216.4</ele>
        <time>2022-06-04T06:47:09Z</time>
      </trkpt>
      <trkpt lat="46.40986" lon="5.12351">
        <ele>216</ele>
        <time>2022-06-04T06:47:11Z</time>
      </trkpt>
      <trkpt lat="46.40953" lon="5.12328">
        <ele>214.8</ele>
        <time>2022-06-04T06:47:15Z</time>
      </trkpt>
      <trkpt lat="46.40928" lon="5.12311">
        <ele>213.6</ele>
        <time>2022-06-04T06:47:18Z</time>
      </trkpt>
      <trkpt lat="46.40893" lon="5.12286">
        <ele>212.2</ele>
        <time>2022-06-04T06:47:22Z</time>
      </trkpt>
      <trkpt lat="46.40867" lon="5.12268">
        <ele>211</ele>
        <time>2022-06-04T06:47:25Z</time>
      </trkpt>
      <trkpt lat="46.40822" lon="5.12237">
        <ele>209.8</ele>
        <time>2022-06-04T06:47:30Z</time>
      </trkpt>
      <trkpt lat="46.40813" lon="5.1223">
        <ele>209.8</ele>
        <time>2022-06-04T06:47:31Z</time>
      </trkpt>
      <trkpt lat="46.40804" lon="5.12224">
        <ele>208.8</ele>
        <time>2022-06-04T06:47:32Z</time>
      </trkpt>
      <trkpt lat="46.40778" lon="5.12206">
        <ele>207.6</ele>
        <time>2022-06-04T06:47:35Z</time>
      </trkpt>
      <trkpt lat="46.40743" lon="5.12182">
        <ele>206.6</ele>
        <time>2022-06-04T06:47:39Z</time>
      </trkpt>
      <trkpt lat="46.40719" lon="5.12166">
        <ele>206.4</ele>
        <time>2022-06-04T06:47:42Z</time>
      </trkpt>
      <trkpt lat="46.40668" lon="5.12133">
        <ele>206.8</ele>
        <time>2022-06-04T06:47:49Z</time>
      </trkpt>
      <trkpt lat="46.40616" lon="5.121">
        <ele>207.4</ele>
        <time>2022-06-04T06:47:56Z</time>
      </trkpt>
      <trkpt lat="46.406" lon="5.12091">
        <ele>207.2</ele>
        <time>2022-06-04T06:47:58Z</time>
      </trkpt>
      <trkpt lat="46.40547" lon="5.12064">
        <ele>205.2</ele>
        <time>2022-06-04T06:48:04Z</time>
      </trkpt>
      <trkpt lat="46.40519" lon="5.12051">
        <ele>204.2</ele>
        <time>2022-06-04T06:48:07Z</time>
      </trkpt>
      <trkpt lat="46.40483" lon="5.12035">
        <ele>203</ele>
        <time>2022-06-04T06:48:11Z</time>
      </trkpt>
      <trkpt lat="46.40465" lon="5.12027">
        <ele>202.8</ele>
        <time>2022-06-04T06:48:13Z</time>
      </trkpt>
      <trkpt lat="46.40416" lon="5.12007">
        <ele>202.6</ele>
        <time>2022-06-04T06:48:19Z</time>
      </trkpt>
      <trkpt lat="46.40366" lon="5.11986">
        <ele>203.2</ele>
        <time>2022-06-04T06:48:26Z</time>
      </trkpt>
      <trkpt lat="46.40324" lon="5.11972">
        <ele>204.4</ele>
        <time>2022-06-04T06:48:32Z</time>
      </trkpt>
      <trkpt lat="46.40283" lon="5.11956">
        <ele>205.4</ele>
        <time>2022-06-04T06:48:38Z</time>
      </trkpt>
      <trkpt lat="46.40252" lon="5.11943">
        <ele>205.6</ele>
        <time>2022-06-04T06:48:43Z</time>
      </trkpt>
      <trkpt lat="46.40239" lon="5.11938">
        <ele>205.8</ele>
        <time>2022-06-04T06:48:46Z</time>
      </trkpt>
      <trkpt lat="46.40236" lon="5.11938">
        <ele>205.8</ele>
        <time>2022-06-04T06:48:47Z</time>
      </trkpt>
      <trkpt lat="46.40233" lon="5.1194">
        <ele>205.8</ele>
        <time>2022-06-04T06:48:48Z</time>
      </trkpt>
      <trkpt lat="46.4023" lon="5.11948">
        <ele>205.8</ele>
        <time>2022-06-04T06:48:50Z</time>
      </trkpt>
      <trkpt lat="46.40232" lon="5.11962">
        <ele>205.8</ele>
        <time>2022-06-04T06:48:52Z</time>
      </trkpt>
      <trkpt lat="46.40236" lon="5.11977">
        <ele>205.8</ele>
        <time>2022-06-04T06:48:54Z</time>
      </trkpt>
      <trkpt lat="46.4025" lon="5.12036">
        <ele>205.8</ele>
        <time>2022-06-04T06:49:01Z</time>
      </trkpt>
      <trkpt lat="46.40268" lon="5.12119">
        <ele>206.4</ele>
        <time>2022-06-04T06:49:10Z</time>
      </trkpt>
      <trkpt lat="46.40277" lon="5.12158">
        <ele>206.4</ele>
        <time>2022-06-04T06:49:14Z</time>
      </trkpt>
      <trkpt lat="46.40287" lon="5.12206">
        <ele>206.4</ele>
        <time>2022-06-04T06:49:19Z</time>
      </trkpt>
      <trkpt lat="46.40302" lon="5.12282">
        <ele>206</ele>
        <time>2022-06-04T06:49:27Z</time>
      </trkpt>
      <trkpt lat="46.40318" lon="5.12358">
        <ele>206.2</ele>
        <time>2022-06-04T06:49:35Z</time>
      </trkpt>
      <trkpt lat="46.4032" lon="5.12368">
        <ele>206.2</ele>
        <time>2022-06-04T06:49:36Z</time>
      </trkpt>
      <trkpt lat="46.40333" lon="5.1243">
        <ele>206.2</ele>
        <time>2022-06-04T06:49:43Z</time>
      </trkpt>
      <trkpt lat="46.40337" lon="5.12444">
        <ele>206.6</ele>
        <time>2022-06-04T06:49:45Z</time>
      </trkpt>
      <trkpt lat="46.40341" lon="5.12465">
        <ele>207.4</ele>
        <time>2022-06-04T06:49:48Z</time>
      </trkpt>
      <trkpt lat="46.40343" lon="5.12473">
        <ele>207.6</ele>
        <time>2022-06-04T06:49:49Z</time>
      </trkpt>
      <trkpt lat="46.40349" lon="5.12502">
        <ele>208.8</ele>
        <time>2022-06-04T06:49:53Z</time>
      </trkpt>
      <trkpt lat="46.40355" lon="5.12529">
        <ele>210.2</ele>
        <time>2022-06-04T06:49:57Z</time>
      </trkpt>
      <trkpt lat="46.4036" lon="5.12556">
        <ele>211.2</ele>
        <time>2022-06-04T06:50:01Z</time>
      </trkpt>
      <trkpt lat="46.40362" lon="5.12569">
        <ele>211.6</ele>
        <time>2022-06-04T06:50:03Z</time>
      </trkpt>
      <trkpt lat="46.40365" lon="5.12584">
        <ele>212.2</ele>
        <time>2022-06-04T06:50:05Z</time>
      </trkpt>
      <trkpt lat="46.40373" lon="5.12617">
        <ele>213</ele>
        <time>2022-06-04T06:50:10Z</time>
      </trkpt>
      <trkpt lat="46.40377" lon="5.12638">
        <ele>213.4</ele>
        <time>2022-06-04T06:50:13Z</time>
      </trkpt>
      <trkpt lat="46.40386" lon="5.12674">
        <ele>214.4</ele>
        <time>2022-06-04T06:50:18Z</time>
      </trkpt>
      <trkpt lat="46.40392" lon="5.12702">
        <ele>215</ele>
        <time>2022-06-04T06:50:22Z</time>
      </trkpt>
      <trkpt lat="46.40397" lon="5.12726">
        <ele>215.6</ele>
        <time>2022-06-04T06:50:25Z</time>
      </trkpt>
      <trkpt lat="46.40409" lon="5.12788">
        <ele>216.2</ele>
        <time>2022-06-04T06:50:33Z</time>
      </trkpt>
      <trkpt lat="46.40414" lon="5.12812">
        <ele>216.6</ele>
        <time>2022-06-04T06:50:36Z</time>
      </trkpt>
      <trkpt lat="46.40423" lon="5.12858">
        <ele>217.2</ele>
        <time>2022-06-04T06:50:42Z</time>
      </trkpt>
      <trkpt lat="46.40431" lon="5.12902">
        <ele>217.8</ele>
        <time>2022-06-04T06:50:48Z</time>
      </trkpt>
      <trkpt lat="46.40436" lon="5.12927">
        <ele>218.2</ele>
        <time>2022-06-04T06:50:51Z</time>
      </trkpt>
      <trkpt lat="46.40439" lon="5.12942">
        <ele>218.2</ele>
        <time>2022-06-04T06:50:53Z</time>
      </trkpt>
      <trkpt lat="46.40452" lon="5.13011">
        <ele>218.6</ele>
        <time>2022-06-04T06:51:01Z</time>
      </trkpt>
      <trkpt lat="46.40467" lon="5.13085">
        <ele>218.2</ele>
        <time>2022-06-04T06:51:08Z</time>
      </trkpt>
      <trkpt lat="46.40476" lon="5.13133">
        <ele>216.2</ele>
        <time>2022-06-04T06:51:12Z</time>
      </trkpt>
      <trkpt lat="46.40483" lon="5.13167">
        <ele>215.2</ele>
        <time>2022-06-04T06:51:15Z</time>
      </trkpt>
      <trkpt lat="46.40486" lon="5.13179">
        <ele>214.6</ele>
        <time>2022-06-04T06:51:16Z</time>
      </trkpt>
      <trkpt lat="46.40497" lon="5.1324">
        <ele>213.6</ele>
        <time>2022-06-04T06:51:21Z</time>
      </trkpt>
      <trkpt lat="46.405" lon="5.13252">
        <ele>213.6</ele>
        <time>2022-06-04T06:51:22Z</time>
      </trkpt>
      <trkpt lat="46.40512" lon="5.13312">
        <ele>213.4</ele>
        <time>2022-06-04T06:51:28Z</time>
      </trkpt>
      <trkpt lat="46.40521" lon="5.13365">
        <ele>214</ele>
        <time>2022-06-04T06:51:34Z</time>
      </trkpt>
      <trkpt lat="46.40524" lon="5.1338">
        <ele>214.8</ele>
        <time>2022-06-04T06:51:36Z</time>
      </trkpt>
      <trkpt lat="46.40526" lon="5.13395">
        <ele>215.8</ele>
        <time>2022-06-04T06:51:38Z</time>
      </trkpt>
      <trkpt lat="46.4053" lon="5.13418">
        <ele>217</ele>
        <time>2022-06-04T06:51:41Z</time>
      </trkpt>
      <trkpt lat="46.40536" lon="5.13448">
        <ele>218.2</ele>
        <time>2022-06-04T06:51:45Z</time>
      </trkpt>
      <trkpt lat="46.40542" lon="5.13486">
        <ele>219.2</ele>
        <time>2022-06-04T06:51:50Z</time>
      </trkpt>
      <trkpt lat="46.40544" lon="5.13494">
        <ele>219.4</ele>
        <time>2022-06-04T06:51:51Z</time>
      </trkpt>
      <trkpt lat="46.40558" lon="5.13564">
        <ele>220.2</ele>
        <time>2022-06-04T06:51:59Z</time>
      </trkpt>
      <trkpt lat="46.40573" lon="5.13638">
        <ele>220.2</ele>
        <time>2022-06-04T06:52:07Z</time>
      </trkpt>
      <trkpt lat="46.40589" lon="5.13716">
        <ele>219</ele>
        <time>2022-06-04T06:52:15Z</time>
      </trkpt>
      <trkpt lat="46.40604" lon="5.13794">
        <ele>218.4</ele>
        <time>2022-06-04T06:52:22Z</time>
      </trkpt>
      <trkpt lat="46.40607" lon="5.13808">
        <ele>218</ele>
        <time>2022-06-04T06:52:23Z</time>
      </trkpt>
      <trkpt lat="46.40612" lon="5.13831">
        <ele>217.2</ele>
        <time>2022-06-04T06:52:25Z</time>
      </trkpt>
      <trkpt lat="46.40625" lon="5.13897">
        <ele>216.2</ele>
        <time>2022-06-04T06:52:31Z</time>
      </trkpt>
      <trkpt lat="46.40634" lon="5.13947">
        <ele>216.2</ele>
        <time>2022-06-04T06:52:36Z</time>
      </trkpt>
      <trkpt lat="46.40641" lon="5.13983">
        <ele>217.4</ele>
        <time>2022-06-04T06:52:40Z</time>
      </trkpt>
      <trkpt lat="46.40643" lon="5.13994">
        <ele>217.6</ele>
        <time>2022-06-04T06:52:41Z</time>
      </trkpt>
      <trkpt lat="46.40645" lon="5.14001">
        <ele>217.8</ele>
        <time>2022-06-04T06:52:42Z</time>
      </trkpt>
      <trkpt lat="46.40656" lon="5.14058">
        <ele>218.4</ele>
        <time>2022-06-04T06:52:48Z</time>
      </trkpt>
      <trkpt lat="46.40657" lon="5.14068">
        <ele>218.6</ele>
        <time>2022-06-04T06:52:49Z</time>
      </trkpt>
      <trkpt lat="46.40672" lon="5.14143">
        <ele>218.2</ele>
        <time>2022-06-04T06:52:56Z</time>
      </trkpt>
      <trkpt lat="46.4068" lon="5.14192">
        <ele>217.4</ele>
        <time>2022-06-04T06:53:00Z</time>
      </trkpt>
      <trkpt lat="46.40683" lon="5.14205">
        <ele>217.2</ele>
        <time>2022-06-04T06:53:01Z</time>
      </trkpt>
      <trkpt lat="46.40691" lon="5.14241">
        <ele>216</ele>
        <time>2022-06-04T06:53:04Z</time>
      </trkpt>
      <trkpt lat="46.40699" lon="5.14287">
        <ele>215.2</ele>
        <time>2022-06-04T06:53:08Z</time>
      </trkpt>
      <trkpt lat="46.4071" lon="5.14346">
        <ele>215.2</ele>
        <time>2022-06-04T06:53:14Z</time>
      </trkpt>
      <trkpt lat="46.40721" lon="5.14407">
        <ele>216</ele>
        <time>2022-06-04T06:53:20Z</time>
      </trkpt>
      <trkpt lat="46.40726" lon="5.14453">
        <ele>215.8</ele>
        <time>2022-06-04T06:53:24Z</time>
      </trkpt>
      <trkpt lat="46.40726" lon="5.14478">
        <ele>215.2</ele>
        <time>2022-06-04T06:53:26Z</time>
      </trkpt>
      <trkpt lat="46.40725" lon="5.14491">
        <ele>215</ele>
        <time>2022-06-04T06:53:27Z</time>
      </trkpt>
      <trkpt lat="46.40719" lon="5.1453">
        <ele>213.4</ele>
        <time>2022-06-04T06:53:30Z</time>
      </trkpt>
      <trkpt lat="46.40711" lon="5.14568">
        <ele>212.4</ele>
        <time>2022-06-04T06:53:33Z</time>
      </trkpt>
      <trkpt lat="46.40708" lon="5.1458">
        <ele>211.6</ele>
        <time>2022-06-04T06:53:34Z</time>
      </trkpt>
      <trkpt lat="46.40704" lon="5.14603">
        <ele>211.2</ele>
        <time>2022-06-04T06:53:36Z</time>
      </trkpt>
      <trkpt lat="46.40695" lon="5.1465">
        <ele>210.8</ele>
        <time>2022-06-04T06:53:40Z</time>
      </trkpt>
      <trkpt lat="46.40687" lon="5.14713">
        <ele>211.2</ele>
        <time>2022-06-04T06:53:46Z</time>
      </trkpt>
      <trkpt lat="46.40685" lon="5.14781">
        <ele>212.8</ele>
        <time>2022-06-04T06:53:53Z</time>
      </trkpt>
      <trkpt lat="46.40685" lon="5.14823">
        <ele>213.6</ele>
        <time>2022-06-04T06:53:58Z</time>
      </trkpt>
      <trkpt lat="46.40684" lon="5.1484">
        <ele>214</ele>
        <time>2022-06-04T06:54:00Z</time>
      </trkpt>
      <trkpt lat="46.40685" lon="5.14873">
        <ele>214.6</ele>
        <time>2022-06-04T06:54:04Z</time>
      </trkpt>
      <trkpt lat="46.40684" lon="5.14891">
        <ele>215</ele>
        <time>2022-06-04T06:54:06Z</time>
      </trkpt>
      <trkpt lat="46.40684" lon="5.14914">
        <ele>216</ele>
        <time>2022-06-04T06:54:09Z</time>
      </trkpt>
      <trkpt lat="46.40685" lon="5.14962">
        <ele>216.8</ele>
        <time>2022-06-04T06:54:15Z</time>
      </trkpt>
      <trkpt lat="46.40685" lon="5.1497">
        <ele>217</ele>
        <time>2022-06-04T06:54:16Z</time>
      </trkpt>
      <trkpt lat="46.40683" lon="5.15">
        <ele>218</ele>
        <time>2022-06-04T06:54:20Z</time>
      </trkpt>
      <trkpt lat="46.40683" lon="5.15015">
        <ele>218.4</ele>
        <time>2022-06-04T06:54:22Z</time>
      </trkpt>
      <trkpt lat="46.40682" lon="5.15047">
        <ele>219</ele>
        <time>2022-06-04T06:54:26Z</time>
      </trkpt>
      <trkpt lat="46.40681" lon="5.15071">
        <ele>219.6</ele>
        <time>2022-06-04T06:54:29Z</time>
      </trkpt>
      <trkpt lat="46.4068" lon="5.15095">
        <ele>220.4</ele>
        <time>2022-06-04T06:54:32Z</time>
      </trkpt>
      <trkpt lat="46.40679" lon="5.15146">
        <ele>220.4</ele>
        <time>2022-06-04T06:54:38Z</time>
      </trkpt>
      <trkpt lat="46.40677" lon="5.15221">
        <ele>220.6</ele>
        <time>2022-06-04T06:54:46Z</time>
      </trkpt>
      <trkpt lat="46.40676" lon="5.15303">
        <ele>220.2</ele>
        <time>2022-06-04T06:54:54Z</time>
      </trkpt>
      <trkpt lat="46.40676" lon="5.15358">
        <ele>219.4</ele>
        <time>2022-06-04T06:54:59Z</time>
      </trkpt>
      <trkpt lat="46.40675" lon="5.15391">
        <ele>218.8</ele>
        <time>2022-06-04T06:55:02Z</time>
      </trkpt>
      <trkpt lat="46.40674" lon="5.15436">
        <ele>218.2</ele>
        <time>2022-06-04T06:55:06Z</time>
      </trkpt>
      <trkpt lat="46.40673" lon="5.15492">
        <ele>217.6</ele>
        <time>2022-06-04T06:55:11Z</time>
      </trkpt>
      <trkpt lat="46.40673" lon="5.15539">
        <ele>217</ele>
        <time>2022-06-04T06:55:15Z</time>
      </trkpt>
      <trkpt lat="46.40672" lon="5.15611">
        <ele>216</ele>
        <time>2022-06-04T06:55:21Z</time>
      </trkpt>
      <trkpt lat="46.40671" lon="5.15672">
        <ele>214.8</ele>
        <time>2022-06-04T06:55:26Z</time>
      </trkpt>
      <trkpt lat="46.4067" lon="5.15719">
        <ele>214.2</ele>
        <time>2022-06-04T06:55:30Z</time>
      </trkpt>
      <trkpt lat="46.40669" lon="5.15788">
        <ele>215.2</ele>
        <time>2022-06-04T06:55:37Z</time>
      </trkpt>
      <trkpt lat="46.40668" lon="5.15822">
        <ele>216</ele>
        <time>2022-06-04T06:55:41Z</time>
      </trkpt>
      <trkpt lat="46.40668" lon="5.1584">
        <ele>216.4</ele>
        <time>2022-06-04T06:55:43Z</time>
      </trkpt>
      <trkpt lat="46.40669" lon="5.15882">
        <ele>217.2</ele>
        <time>2022-06-04T06:55:48Z</time>
      </trkpt>
      <trkpt lat="46.40668" lon="5.15899">
        <ele>217.8</ele>
        <time>2022-06-04T06:55:50Z</time>
      </trkpt>
      <trkpt lat="46.40667" lon="5.15917">
        <ele>218.4</ele>
        <time>2022-06-04T06:55:52Z</time>
      </trkpt>
      <trkpt lat="46.40666" lon="5.15966">
        <ele>218.6</ele>
        <time>2022-06-04T06:55:57Z</time>
      </trkpt>
      <trkpt lat="46.40665" lon="5.16044">
        <ele>217.8</ele>
        <time>2022-06-04T06:56:04Z</time>
      </trkpt>
      <trkpt lat="46.40664" lon="5.16091">
        <ele>217</ele>
        <time>2022-06-04T06:56:08Z</time>
      </trkpt>
      <trkpt lat="46.40664" lon="5.16129">
        <ele>216</ele>
        <time>2022-06-04T06:56:11Z</time>
      </trkpt>
      <trkpt lat="46.40663" lon="5.16142">
        <ele>216</ele>
        <time>2022-06-04T06:56:12Z</time>
      </trkpt>
      <trkpt lat="46.40663" lon="5.16193">
        <ele>214.8</ele>
        <time>2022-06-04T06:56:16Z</time>
      </trkpt>
      <trkpt lat="46.40662" lon="5.16221">
        <ele>214</ele>
        <time>2022-06-04T06:56:18Z</time>
      </trkpt>
      <trkpt lat="46.40662" lon="5.16233">
        <ele>213.8</ele>
        <time>2022-06-04T06:56:19Z</time>
      </trkpt>
      <trkpt lat="46.40661" lon="5.16288">
        <ele>213.2</ele>
        <time>2022-06-04T06:56:24Z</time>
      </trkpt>
      <trkpt lat="46.4066" lon="5.16342">
        <ele>214.4</ele>
        <time>2022-06-04T06:56:30Z</time>
      </trkpt>
      <trkpt lat="46.40659" lon="5.16365">
        <ele>215.4</ele>
        <time>2022-06-04T06:56:33Z</time>
      </trkpt>
      <trkpt lat="46.40659" lon="5.1638">
        <ele>216</ele>
        <time>2022-06-04T06:56:35Z</time>
      </trkpt>
      <trkpt lat="46.40659" lon="5.16387">
        <ele>216.2</ele>
        <time>2022-06-04T06:56:36Z</time>
      </trkpt>
      <trkpt lat="46.40658" lon="5.1641">
        <ele>217.2</ele>
        <time>2022-06-04T06:56:39Z</time>
      </trkpt>
      <trkpt lat="46.40659" lon="5.16424">
        <ele>217.8</ele>
        <time>2022-06-04T06:56:41Z</time>
      </trkpt>
      <trkpt lat="46.40659" lon="5.16461">
        <ele>218.2</ele>
        <time>2022-06-04T06:56:45Z</time>
      </trkpt>
      <trkpt lat="46.40659" lon="5.16476">
        <ele>218.6</ele>
        <time>2022-06-04T06:56:47Z</time>
      </trkpt>
      <trkpt lat="46.40658" lon="5.16535">
        <ele>219</ele>
        <time>2022-06-04T06:56:53Z</time>
      </trkpt>
      <trkpt lat="46.40656" lon="5.16614">
        <ele>218.4</ele>
        <time>2022-06-04T06:57:01Z</time>
      </trkpt>
      <trkpt lat="46.40655" lon="5.16692">
        <ele>217.4</ele>
        <time>2022-06-04T06:57:08Z</time>
      </trkpt>
      <trkpt lat="46.40655" lon="5.16715">
        <ele>217.2</ele>
        <time>2022-06-04T06:57:10Z</time>
      </trkpt>
      <trkpt lat="46.40654" lon="5.1676">
        <ele>216.6</ele>
        <time>2022-06-04T06:57:14Z</time>
      </trkpt>
      <trkpt lat="46.40652" lon="5.1683">
        <ele>216.6</ele>
        <time>2022-06-04T06:57:21Z</time>
      </trkpt>
      <trkpt lat="46.4065" lon="5.16886">
        <ele>217.6</ele>
        <time>2022-06-04T06:57:27Z</time>
      </trkpt>
      <trkpt lat="46.4065" lon="5.16896">
        <ele>217.8</ele>
        <time>2022-06-04T06:57:28Z</time>
      </trkpt>
      <trkpt lat="46.40649" lon="5.16924">
        <ele>218.2</ele>
        <time>2022-06-04T06:57:31Z</time>
      </trkpt>
      <trkpt lat="46.40648" lon="5.16943">
        <ele>218.4</ele>
        <time>2022-06-04T06:57:33Z</time>
      </trkpt>
      <trkpt lat="46.40646" lon="5.17024">
        <ele>218.2</ele>
        <time>2022-06-04T06:57:41Z</time>
      </trkpt>
      <trkpt lat="46.40644" lon="5.17106">
        <ele>218.2</ele>
        <time>2022-06-04T06:57:49Z</time>
      </trkpt>
      <trkpt lat="46.40644" lon="5.17116">
        <ele>218.2</ele>
        <time>2022-06-04T06:57:50Z</time>
      </trkpt>
      <trkpt lat="46.40641" lon="5.17179">
        <ele>218</ele>
        <time>2022-06-04T06:57:56Z</time>
      </trkpt>
      <trkpt lat="46.40639" lon="5.17245">
        <ele>218</ele>
        <time>2022-06-04T06:58:02Z</time>
      </trkpt>
      <trkpt lat="46.40639" lon="5.17268">
        <ele>217.8</ele>
        <time>2022-06-04T06:58:04Z</time>
      </trkpt>
      <trkpt lat="46.40639" lon="5.17292">
        <ele>217.2</ele>
        <time>2022-06-04T06:58:06Z</time>
      </trkpt>
      <trkpt lat="46.40638" lon="5.17331">
        <ele>216.2</ele>
        <time>2022-06-04T06:58:09Z</time>
      </trkpt>
      <trkpt lat="46.40638" lon="5.17345">
        <ele>216</ele>
        <time>2022-06-04T06:58:10Z</time>
      </trkpt>
      <trkpt lat="46.40637" lon="5.17372">
        <ele>215</ele>
        <time>2022-06-04T06:58:12Z</time>
      </trkpt>
      <trkpt lat="46.40636" lon="5.17414">
        <ele>213</ele>
        <time>2022-06-04T06:58:15Z</time>
      </trkpt>
      <trkpt lat="46.40636" lon="5.17429">
        <ele>212.8</ele>
        <time>2022-06-04T06:58:16Z</time>
      </trkpt>
      <trkpt lat="46.40635" lon="5.17459">
        <ele>212</ele>
        <time>2022-06-04T06:58:18Z</time>
      </trkpt>
      <trkpt lat="46.40634" lon="5.17505">
        <ele>210.2</ele>
        <time>2022-06-04T06:58:21Z</time>
      </trkpt>
      <trkpt lat="46.40634" lon="5.17536">
        <ele>208.8</ele>
        <time>2022-06-04T06:58:23Z</time>
      </trkpt>
      <trkpt lat="46.40633" lon="5.17552">
        <ele>207.8</ele>
        <time>2022-06-04T06:58:24Z</time>
      </trkpt>
      <trkpt lat="46.40633" lon="5.17582">
        <ele>206.6</ele>
        <time>2022-06-04T06:58:26Z</time>
      </trkpt>
      <trkpt lat="46.40632" lon="5.17626">
        <ele>205.4</ele>
        <time>2022-06-04T06:58:29Z</time>
      </trkpt>
      <trkpt lat="46.40633" lon="5.17668">
        <ele>205</ele>
        <time>2022-06-04T06:58:32Z</time>
      </trkpt>
      <trkpt lat="46.40631" lon="5.17745">
        <ele>204.4</ele>
        <time>2022-06-04T06:58:38Z</time>
      </trkpt>
      <trkpt lat="46.40629" lon="5.17827">
        <ele>204.4</ele>
        <time>2022-06-04T06:58:45Z</time>
      </trkpt>
      <trkpt lat="46.40628" lon="5.17891">
        <ele>205</ele>
        <time>2022-06-04T06:58:51Z</time>
      </trkpt>
      <trkpt lat="46.40625" lon="5.17919">
        <ele>205.4</ele>
        <time>2022-06-04T06:58:54Z</time>
      </trkpt>
      <trkpt lat="46.40623" lon="5.17935">
        <ele>206.2</ele>
        <time>2022-06-04T06:58:56Z</time>
      </trkpt>
      <trkpt lat="46.40621" lon="5.17943">
        <ele>206.4</ele>
        <time>2022-06-04T06:58:57Z</time>
      </trkpt>
      <trkpt lat="46.4062" lon="5.17957">
        <ele>207.6</ele>
        <time>2022-06-04T06:58:59Z</time>
      </trkpt>
      <trkpt lat="46.40619" lon="5.17964">
        <ele>207.8</ele>
        <time>2022-06-04T06:59:00Z</time>
      </trkpt>
      <trkpt lat="46.40618" lon="5.1797">
        <ele>208.2</ele>
        <time>2022-06-04T06:59:01Z</time>
      </trkpt>
      <trkpt lat="46.40617" lon="5.17977">
        <ele>208.2</ele>
        <time>2022-06-04T06:59:02Z</time>
      </trkpt>
      <trkpt lat="46.40614" lon="5.17996">
        <ele>208.8</ele>
        <time>2022-06-04T06:59:05Z</time>
      </trkpt>
      <trkpt lat="46.40613" lon="5.18003">
        <ele>209.2</ele>
        <time>2022-06-04T06:59:06Z</time>
      </trkpt>
      <trkpt lat="46.40611" lon="5.18009">
        <ele>210</ele>
        <time>2022-06-04T06:59:07Z</time>
      </trkpt>
      <trkpt lat="46.40609" lon="5.18031">
        <ele>211</ele>
        <time>2022-06-04T06:59:10Z</time>
      </trkpt>
      <trkpt lat="46.4061" lon="5.18046">
        <ele>211.6</ele>
        <time>2022-06-04T06:59:12Z</time>
      </trkpt>
      <trkpt lat="46.4061" lon="5.18062">
        <ele>212</ele>
        <time>2022-06-04T06:59:14Z</time>
      </trkpt>
      <trkpt lat="46.4061" lon="5.18069">
        <ele>212.4</ele>
        <time>2022-06-04T06:59:15Z</time>
      </trkpt>
      <trkpt lat="46.40611" lon="5.18084">
        <ele>213</ele>
        <time>2022-06-04T06:59:17Z</time>
      </trkpt>
      <trkpt lat="46.40611" lon="5.18091">
        <ele>213.2</ele>
        <time>2022-06-04T06:59:18Z</time>
      </trkpt>
      <trkpt lat="46.40611" lon="5.18097">
        <ele>213.4</ele>
        <time>2022-06-04T06:59:19Z</time>
      </trkpt>
      <trkpt lat="46.40611" lon="5.18109">
        <ele>213.8</ele>
        <time>2022-06-04T06:59:21Z</time>
      </trkpt>
      <trkpt lat="46.40612" lon="5.18124">
        <ele>214.2</ele>
        <time>2022-06-04T06:59:23Z</time>
      </trkpt>
      <trkpt lat="46.40615" lon="5.18167">
        <ele>215.4</ele>
        <time>2022-06-04T06:59:29Z</time>
      </trkpt>
      <trkpt lat="46.40615" lon="5.18174">
        <ele>215.4</ele>
        <time>2022-06-04T06:59:30Z</time>
      </trkpt>
      <trkpt lat="46.40616" lon="5.18214">
        <ele>216.2</ele>
        <time>2022-06-04T06:59:36Z</time>
      </trkpt>
      <trkpt lat="46.40609" lon="5.18223">
        <ele>216.4</ele>
        <time>2022-06-04T06:59:38Z</time>
      </trkpt>
      <trkpt lat="46.40604" lon="5.18223">
        <ele>216.6</ele>
        <time>2022-06-04T06:59:39Z</time>
      </trkpt>
      <trkpt lat="46.406" lon="5.18221">
        <ele>216.8</ele>
        <time>2022-06-04T06:59:40Z</time>
      </trkpt>
      <trkpt lat="46.40595" lon="5.18219">
        <ele>216.8</ele>
        <time>2022-06-04T06:59:41Z</time>
      </trkpt>
      <trkpt lat="46.40559" lon="5.18198">
        <ele>216.8</ele>
        <time>2022-06-04T06:59:48Z</time>
      </trkpt>
      <trkpt lat="46.40524" lon="5.18177">
        <ele>216.6</ele>
        <time>2022-06-04T06:59:54Z</time>
      </trkpt>
      <trkpt lat="46.40504" lon="5.18173">
        <ele>216.6</ele>
        <time>2022-06-04T06:59:57Z</time>
      </trkpt>
      <trkpt lat="46.40491" lon="5.18172">
        <ele>216.6</ele>
        <time>2022-06-04T06:59:59Z</time>
      </trkpt>
      <trkpt lat="46.40431" lon="5.18169">
        <ele>216.6</ele>
        <time>2022-06-04T07:00:08Z</time>
      </trkpt>
      <trkpt lat="46.4038" lon="5.18161">
        <ele>217.2</ele>
        <time>2022-06-04T07:00:16Z</time>
      </trkpt>
      <trkpt lat="46.40355" lon="5.18158">
        <ele>217.6</ele>
        <time>2022-06-04T07:00:20Z</time>
      </trkpt>
      <trkpt lat="46.40316" lon="5.18157">
        <ele>217.8</ele>
        <time>2022-06-04T07:00:26Z</time>
      </trkpt>
      <trkpt lat="46.40259" lon="5.18161">
        <ele>218.2</ele>
        <time>2022-06-04T07:00:35Z</time>
      </trkpt>
      <trkpt lat="46.40228" lon="5.18169">
        <ele>218.6</ele>
        <time>2022-06-04T07:00:40Z</time>
      </trkpt>
      <trkpt lat="46.40222" lon="5.18172">
        <ele>218.6</ele>
        <time>2022-06-04T07:00:41Z</time>
      </trkpt>
      <trkpt lat="46.4021" lon="5.18181">
        <ele>218.6</ele>
        <time>2022-06-04T07:00:43Z</time>
      </trkpt>
      <trkpt lat="46.40195" lon="5.18199">
        <ele>218.8</ele>
        <time>2022-06-04T07:00:46Z</time>
      </trkpt>
      <trkpt lat="46.40172" lon="5.18229">
        <ele>219.2</ele>
        <time>2022-06-04T07:00:51Z</time>
      </trkpt>
      <trkpt lat="46.40162" lon="5.18245">
        <ele>219.4</ele>
        <time>2022-06-04T07:00:53Z</time>
      </trkpt>
      <trkpt lat="46.40158" lon="5.18252">
        <ele>219.6</ele>
        <time>2022-06-04T07:00:54Z</time>
      </trkpt>
      <trkpt lat="46.4013" lon="5.18305">
        <ele>219.8</ele>
        <time>2022-06-04T07:01:01Z</time>
      </trkpt>
      <trkpt lat="46.40114" lon="5.18335">
        <ele>219.8</ele>
        <time>2022-06-04T07:01:05Z</time>
      </trkpt>
      <trkpt lat="46.40105" lon="5.18347">
        <ele>220</ele>
        <time>2022-06-04T07:01:07Z</time>
      </trkpt>
      <trkpt lat="46.40099" lon="5.18352">
        <ele>220.2</ele>
        <time>2022-06-04T07:01:08Z</time>
      </trkpt>
      <trkpt lat="46.40077" lon="5.18369">
        <ele>220.6</ele>
        <time>2022-06-04T07:01:12Z</time>
      </trkpt>
      <trkpt lat="46.40065" lon="5.18375">
        <ele>220.8</ele>
        <time>2022-06-04T07:01:14Z</time>
      </trkpt>
      <trkpt lat="46.40051" lon="5.18376">
        <ele>221</ele>
        <time>2022-06-04T07:01:16Z</time>
      </trkpt>
      <trkpt lat="46.40025" lon="5.18368">
        <ele>220.6</ele>
        <time>2022-06-04T07:01:20Z</time>
      </trkpt>
      <trkpt lat="46.40012" lon="5.18366">
        <ele>220.4</ele>
        <time>2022-06-04T07:01:22Z</time>
      </trkpt>
      <trkpt lat="46.4" lon="5.18369">
        <ele>220.4</ele>
        <time>2022-06-04T07:01:24Z</time>
      </trkpt>
      <trkpt lat="46.39989" lon="5.18379">
        <ele>220.4</ele>
        <time>2022-06-04T07:01:26Z</time>
      </trkpt>
      <trkpt lat="46.39984" lon="5.18386">
        <ele>220.4</ele>
        <time>2022-06-04T07:01:27Z</time>
      </trkpt>
      <trkpt lat="46.39981" lon="5.18394">
        <ele>220.4</ele>
        <time>2022-06-04T07:01:28Z</time>
      </trkpt>
      <trkpt lat="46.39974" lon="5.18418">
        <ele>220.4</ele>
        <time>2022-06-04T07:01:31Z</time>
      </trkpt>
      <trkpt lat="46.39972" lon="5.18428">
        <ele>220.4</ele>
        <time>2022-06-04T07:01:32Z</time>
      </trkpt>
      <trkpt lat="46.39961" lon="5.18461">
        <ele>220.4</ele>
        <time>2022-06-04T07:01:36Z</time>
      </trkpt>
      <trkpt lat="46.39943" lon="5.18501">
        <ele>220.4</ele>
        <time>2022-06-04T07:01:41Z</time>
      </trkpt>
      <trkpt lat="46.39939" lon="5.18509">
        <ele>220.2</ele>
        <time>2022-06-04T07:01:42Z</time>
      </trkpt>
      <trkpt lat="46.39929" lon="5.18523">
        <ele>220.2</ele>
        <time>2022-06-04T07:01:44Z</time>
      </trkpt>
      <trkpt lat="46.39918" lon="5.18534">
        <ele>220.2</ele>
        <time>2022-06-04T07:01:46Z</time>
      </trkpt>
      <trkpt lat="46.39912" lon="5.18538">
        <ele>220</ele>
        <time>2022-06-04T07:01:47Z</time>
      </trkpt>
      <trkpt lat="46.39876" lon="5.18565">
        <ele>219.8</ele>
        <time>2022-06-04T07:01:53Z</time>
      </trkpt>
      <trkpt lat="46.3987" lon="5.18569">
        <ele>219.6</ele>
        <time>2022-06-04T07:01:54Z</time>
      </trkpt>
      <trkpt lat="46.39852" lon="5.18574">
        <ele>219.6</ele>
        <time>2022-06-04T07:01:57Z</time>
      </trkpt>
      <trkpt lat="46.39847" lon="5.18575">
        <ele>219.6</ele>
        <time>2022-06-04T07:01:58Z</time>
      </trkpt>
      <trkpt lat="46.39833" lon="5.18578">
        <ele>219.6</ele>
        <time>2022-06-04T07:02:00Z</time>
      </trkpt>
      <trkpt lat="46.39805" lon="5.18585">
        <ele>219.6</ele>
        <time>2022-06-04T07:02:04Z</time>
      </trkpt>
      <trkpt lat="46.3977" lon="5.18601">
        <ele>219.6</ele>
        <time>2022-06-04T07:02:09Z</time>
      </trkpt>
      <trkpt lat="46.39763" lon="5.18604">
        <ele>219.6</ele>
        <time>2022-06-04T07:02:10Z</time>
      </trkpt>
      <trkpt lat="46.39739" lon="5.18609">
        <ele>219.4</ele>
        <time>2022-06-04T07:02:13Z</time>
      </trkpt>
      <trkpt lat="46.39709" lon="5.18613">
        <ele>219.4</ele>
        <time>2022-06-04T07:02:17Z</time>
      </trkpt>
      <trkpt lat="46.39702" lon="5.18617">
        <ele>219.2</ele>
        <time>2022-06-04T07:02:18Z</time>
      </trkpt>
      <trkpt lat="46.39696" lon="5.18623">
        <ele>219.2</ele>
        <time>2022-06-04T07:02:19Z</time>
      </trkpt>
      <trkpt lat="46.39685" lon="5.1864">
        <ele>219</ele>
        <time>2022-06-04T07:02:21Z</time>
      </trkpt>
      <trkpt lat="46.39667" lon="5.18675">
        <ele>218.6</ele>
        <time>2022-06-04T07:02:25Z</time>
      </trkpt>
      <trkpt lat="46.39651" lon="5.18711">
        <ele>218.4</ele>
        <time>2022-06-04T07:02:29Z</time>
      </trkpt>
      <trkpt lat="46.39647" lon="5.18718">
        <ele>218.2</ele>
        <time>2022-06-04T07:02:30Z</time>
      </trkpt>
      <trkpt lat="46.39636" lon="5.18729">
        <ele>217.6</ele>
        <time>2022-06-04T07:02:32Z</time>
      </trkpt>
      <trkpt lat="46.39631" lon="5.18733">
        <ele>217.6</ele>
        <time>2022-06-04T07:02:33Z</time>
      </trkpt>
      <trkpt lat="46.39625" lon="5.18736">
        <ele>217.6</ele>
        <time>2022-06-04T07:02:34Z</time>
      </trkpt>
      <trkpt lat="46.3962" lon="5.18738">
        <ele>217.4</ele>
        <time>2022-06-04T07:02:35Z</time>
      </trkpt>
      <trkpt lat="46.39608" lon="5.18742">
        <ele>217.2</ele>
        <time>2022-06-04T07:02:37Z</time>
      </trkpt>
      <trkpt lat="46.39567" lon="5.18747">
        <ele>217</ele>
        <time>2022-06-04T07:02:44Z</time>
      </trkpt>
      <trkpt lat="46.39545" lon="5.18743">
        <ele>217.2</ele>
        <time>2022-06-04T07:02:49Z</time>
      </trkpt>
      <trkpt lat="46.3954" lon="5.18742">
        <ele>217.4</ele>
        <time>2022-06-04T07:02:50Z</time>
      </trkpt>
      <trkpt lat="46.39518" lon="5.18738">
        <ele>217.6</ele>
        <time>2022-06-04T07:02:54Z</time>
      </trkpt>
      <trkpt lat="46.39488" lon="5.18726">
        <ele>217.8</ele>
        <time>2022-06-04T07:02:59Z</time>
      </trkpt>
      <trkpt lat="46.39483" lon="5.18722">
        <ele>218</ele>
        <time>2022-06-04T07:03:00Z</time>
      </trkpt>
      <trkpt lat="46.39467" lon="5.18707">
        <ele>218.2</ele>
        <time>2022-06-04T07:03:03Z</time>
      </trkpt>
      <trkpt lat="46.39433" lon="5.18676">
        <ele>218.4</ele>
        <time>2022-06-04T07:03:10Z</time>
      </trkpt>
      <trkpt lat="46.39428" lon="5.18672">
        <ele>218.6</ele>
        <time>2022-06-04T07:03:11Z</time>
      </trkpt>
      <trkpt lat="46.394" lon="5.18653">
        <ele>219.2</ele>
        <time>2022-06-04T07:03:16Z</time>
      </trkpt>
      <trkpt lat="46.39362" lon="5.18627">
        <ele>219.6</ele>
        <time>2022-06-04T07:03:23Z</time>
      </trkpt>
      <trkpt lat="46.39355" lon="5.18623">
        <ele>219.6</ele>
        <time>2022-06-04T07:03:24Z</time>
      </trkpt>
      <trkpt lat="46.39332" lon="5.1861">
        <ele>219.6</ele>
        <time>2022-06-04T07:03:28Z</time>
      </trkpt>
      <trkpt lat="46.39328" lon="5.18606">
        <ele>219.6</ele>
        <time>2022-06-04T07:03:29Z</time>
      </trkpt>
      <trkpt lat="46.39322" lon="5.186">
        <ele>219.6</ele>
        <time>2022-06-04T07:03:30Z</time>
      </trkpt>
      <trkpt lat="46.393" lon="5.18582">
        <ele>219.6</ele>
        <time>2022-06-04T07:03:34Z</time>
      </trkpt>
      <trkpt lat="46.39295" lon="5.1858">
        <ele>219.6</ele>
        <time>2022-06-04T07:03:35Z</time>
      </trkpt>
      <trkpt lat="46.39281" lon="5.18575">
        <ele>219.8</ele>
        <time>2022-06-04T07:03:37Z</time>
      </trkpt>
      <trkpt lat="46.39269" lon="5.18568">
        <ele>220</ele>
        <time>2022-06-04T07:03:39Z</time>
      </trkpt>
      <trkpt lat="46.3924" lon="5.18547">
        <ele>220</ele>
        <time>2022-06-04T07:03:44Z</time>
      </trkpt>
      <trkpt lat="46.39226" lon="5.18542">
        <ele>219.8</ele>
        <time>2022-06-04T07:03:46Z</time>
      </trkpt>
      <trkpt lat="46.39206" lon="5.1854">
        <ele>219.6</ele>
        <time>2022-06-04T07:03:49Z</time>
      </trkpt>
      <trkpt lat="46.39171" lon="5.18541">
        <ele>218.8</ele>
        <time>2022-06-04T07:03:54Z</time>
      </trkpt>
      <trkpt lat="46.39149" lon="5.18541">
        <ele>218.6</ele>
        <time>2022-06-04T07:03:57Z</time>
      </trkpt>
      <trkpt lat="46.39099" lon="5.18531">
        <ele>218.2</ele>
        <time>2022-06-04T07:04:04Z</time>
      </trkpt>
      <trkpt lat="46.39077" lon="5.18525">
        <ele>217.8</ele>
        <time>2022-06-04T07:04:07Z</time>
      </trkpt>
      <trkpt lat="46.39036" lon="5.18512">
        <ele>217.4</ele>
        <time>2022-06-04T07:04:12Z</time>
      </trkpt>
      <trkpt lat="46.39011" lon="5.18504">
        <ele>216.8</ele>
        <time>2022-06-04T07:04:15Z</time>
      </trkpt>
      <trkpt lat="46.38995" lon="5.18498">
        <ele>216.2</ele>
        <time>2022-06-04T07:04:17Z</time>
      </trkpt>
      <trkpt lat="46.38986" lon="5.18495">
        <ele>215.6</ele>
        <time>2022-06-04T07:04:18Z</time>
      </trkpt>
      <trkpt lat="46.38963" lon="5.18492">
        <ele>214.6</ele>
        <time>2022-06-04T07:04:21Z</time>
      </trkpt>
      <trkpt lat="46.38946" lon="5.18492">
        <ele>214.6</ele>
        <time>2022-06-04T07:04:23Z</time>
      </trkpt>
      <trkpt lat="46.38937" lon="5.18495">
        <ele>214.4</ele>
        <time>2022-06-04T07:04:24Z</time>
      </trkpt>
      <trkpt lat="46.38931" lon="5.18497">
        <ele>214.2</ele>
        <time>2022-06-04T07:04:25Z</time>
      </trkpt>
      <trkpt lat="46.389" lon="5.185">
        <ele>214.6</ele>
        <time>2022-06-04T07:04:29Z</time>
      </trkpt>
      <trkpt lat="46.38869" lon="5.18495">
        <ele>215.6</ele>
        <time>2022-06-04T07:04:34Z</time>
      </trkpt>
      <trkpt lat="46.38862" lon="5.18493">
        <ele>215.8</ele>
        <time>2022-06-04T07:04:35Z</time>
      </trkpt>
      <trkpt lat="46.38845" lon="5.18491">
        <ele>216.8</ele>
        <time>2022-06-04T07:04:38Z</time>
      </trkpt>
      <trkpt lat="46.38834" lon="5.18489">
        <ele>217.8</ele>
        <time>2022-06-04T07:04:40Z</time>
      </trkpt>
      <trkpt lat="46.38827" lon="5.18488">
        <ele>218</ele>
        <time>2022-06-04T07:04:41Z</time>
      </trkpt>
      <trkpt lat="46.38798" lon="5.18478">
        <ele>219.2</ele>
        <time>2022-06-04T07:04:46Z</time>
      </trkpt>
      <trkpt lat="46.3876" lon="5.1846">
        <ele>219.8</ele>
        <time>2022-06-04T07:04:52Z</time>
      </trkpt>
      <trkpt lat="46.38721" lon="5.1844">
        <ele>219.2</ele>
        <time>2022-06-04T07:04:58Z</time>
      </trkpt>
      <trkpt lat="46.38715" lon="5.18434">
        <ele>219.2</ele>
        <time>2022-06-04T07:04:59Z</time>
      </trkpt>
      <trkpt lat="46.38709" lon="5.18428">
        <ele>219</ele>
        <time>2022-06-04T07:05:00Z</time>
      </trkpt>
      <trkpt lat="46.38694" lon="5.18407">
        <ele>219</ele>
        <time>2022-06-04T07:05:03Z</time>
      </trkpt>
      <trkpt lat="46.38689" lon="5.18401">
        <ele>219</ele>
        <time>2022-06-04T07:05:04Z</time>
      </trkpt>
      <trkpt lat="46.38672" lon="5.18387">
        <ele>218.8</ele>
        <time>2022-06-04T07:05:07Z</time>
      </trkpt>
      <trkpt lat="46.38625" lon="5.18368">
        <ele>218.6</ele>
        <time>2022-06-04T07:05:14Z</time>
      </trkpt>
      <trkpt lat="46.38574" lon="5.18346">
        <ele>219.4</ele>
        <time>2022-06-04T07:05:22Z</time>
      </trkpt>
      <trkpt lat="46.38531" lon="5.18322">
        <ele>220</ele>
        <time>2022-06-04T07:05:29Z</time>
      </trkpt>
      <trkpt lat="46.38478" lon="5.18284">
        <ele>220.2</ele>
        <time>2022-06-04T07:05:38Z</time>
      </trkpt>
      <trkpt lat="46.38437" lon="5.18252">
        <ele>220</ele>
        <time>2022-06-04T07:05:45Z</time>
      </trkpt>
      <trkpt lat="46.38389" lon="5.18213">
        <ele>220.2</ele>
        <time>2022-06-04T07:05:53Z</time>
      </trkpt>
      <trkpt lat="46.38383" lon="5.18208">
        <ele>220.2</ele>
        <time>2022-06-04T07:05:54Z</time>
      </trkpt>
      <trkpt lat="46.38336" lon="5.18177">
        <ele>219.8</ele>
        <time>2022-06-04T07:06:01Z</time>
      </trkpt>
      <trkpt lat="46.38294" lon="5.18167">
        <ele>218.6</ele>
        <time>2022-06-04T07:06:06Z</time>
      </trkpt>
      <trkpt lat="46.38285" lon="5.18166">
        <ele>218.2</ele>
        <time>2022-06-04T07:06:07Z</time>
      </trkpt>
      <trkpt lat="46.38258" lon="5.18162">
        <ele>217</ele>
        <time>2022-06-04T07:06:10Z</time>
      </trkpt>
      <trkpt lat="46.38231" lon="5.18162">
        <ele>216</ele>
        <time>2022-06-04T07:06:13Z</time>
      </trkpt>
      <trkpt lat="46.38205" lon="5.18165">
        <ele>215</ele>
        <time>2022-06-04T07:06:16Z</time>
      </trkpt>
      <trkpt lat="46.38179" lon="5.1817">
        <ele>214.6</ele>
        <time>2022-06-04T07:06:19Z</time>
      </trkpt>
      <trkpt lat="46.38121" lon="5.18178">
        <ele>214.2</ele>
        <time>2022-06-04T07:06:26Z</time>
      </trkpt>
      <trkpt lat="46.38113" lon="5.18178">
        <ele>214.2</ele>
        <time>2022-06-04T07:06:27Z</time>
      </trkpt>
      <trkpt lat="46.38059" lon="5.18169">
        <ele>214.2</ele>
        <time>2022-06-04T07:06:34Z</time>
      </trkpt>
      <trkpt lat="46.3803" lon="5.18155">
        <ele>214.8</ele>
        <time>2022-06-04T07:06:39Z</time>
      </trkpt>
      <trkpt lat="46.38014" lon="5.18142">
        <ele>216.2</ele>
        <time>2022-06-04T07:06:42Z</time>
      </trkpt>
      <trkpt lat="46.38004" lon="5.18132">
        <ele>217</ele>
        <time>2022-06-04T07:06:44Z</time>
      </trkpt>
      <trkpt lat="46.38" lon="5.18127">
        <ele>217.2</ele>
        <time>2022-06-04T07:06:45Z</time>
      </trkpt>
      <trkpt lat="46.37987" lon="5.18109">
        <ele>218.4</ele>
        <time>2022-06-04T07:06:48Z</time>
      </trkpt>
      <trkpt lat="46.37979" lon="5.18094">
        <ele>218.8</ele>
        <time>2022-06-04T07:06:50Z</time>
      </trkpt>
      <trkpt lat="46.37968" lon="5.18071">
        <ele>219.4</ele>
        <time>2022-06-04T07:06:53Z</time>
      </trkpt>
      <trkpt lat="46.3795" lon="5.18035">
        <ele>219.8</ele>
        <time>2022-06-04T07:06:58Z</time>
      </trkpt>
      <trkpt lat="46.37937" lon="5.18017">
        <ele>219.8</ele>
        <time>2022-06-04T07:07:01Z</time>
      </trkpt>
      <trkpt lat="46.37926" lon="5.18008">
        <ele>219.8</ele>
        <time>2022-06-04T07:07:03Z</time>
      </trkpt>
      <trkpt lat="46.37919" lon="5.18005">
        <ele>219.8</ele>
        <time>2022-06-04T07:07:04Z</time>
      </trkpt>
      <trkpt lat="46.37891" lon="5.17998">
        <ele>219.2</ele>
        <time>2022-06-04T07:07:08Z</time>
      </trkpt>
      <trkpt lat="46.37878" lon="5.17994">
        <ele>219</ele>
        <time>2022-06-04T07:07:10Z</time>
      </trkpt>
      <trkpt lat="46.37865" lon="5.17988">
        <ele>218.8</ele>
        <time>2022-06-04T07:07:12Z</time>
      </trkpt>
      <trkpt lat="46.37826" lon="5.17966">
        <ele>218.6</ele>
        <time>2022-06-04T07:07:18Z</time>
      </trkpt>
      <trkpt lat="46.37814" lon="5.17958">
        <ele>218.4</ele>
        <time>2022-06-04T07:07:20Z</time>
      </trkpt>
      <trkpt lat="46.37794" lon="5.17952">
        <ele>218.2</ele>
        <time>2022-06-04T07:07:23Z</time>
      </trkpt>
      <trkpt lat="46.3774" lon="5.17933">
        <ele>218.2</ele>
        <time>2022-06-04T07:07:31Z</time>
      </trkpt>
      <trkpt lat="46.377" lon="5.17903">
        <ele>217.8</ele>
        <time>2022-06-04T07:07:37Z</time>
      </trkpt>
      <trkpt lat="46.37661" lon="5.17853">
        <ele>217.4</ele>
        <time>2022-06-04T07:07:44Z</time>
      </trkpt>
      <trkpt lat="46.37643" lon="5.17819">
        <ele>217.4</ele>
        <time>2022-06-04T07:07:48Z</time>
      </trkpt>
      <trkpt lat="46.3764" lon="5.1781">
        <ele>217.2</ele>
        <time>2022-06-04T07:07:49Z</time>
      </trkpt>
      <trkpt lat="46.37625" lon="5.17774">
        <ele>217.4</ele>
        <time>2022-06-04T07:07:53Z</time>
      </trkpt>
      <trkpt lat="46.37621" lon="5.17767">
        <ele>217.4</ele>
        <time>2022-06-04T07:07:54Z</time>
      </trkpt>
      <trkpt lat="46.37616" lon="5.1776">
        <ele>217.4</ele>
        <time>2022-06-04T07:07:55Z</time>
      </trkpt>
      <trkpt lat="46.37605" lon="5.17749">
        <ele>217.6</ele>
        <time>2022-06-04T07:07:57Z</time>
      </trkpt>
      <trkpt lat="46.37599" lon="5.17745">
        <ele>217.8</ele>
        <time>2022-06-04T07:07:58Z</time>
      </trkpt>
      <trkpt lat="46.37582" lon="5.17732">
        <ele>218.4</ele>
        <time>2022-06-04T07:08:01Z</time>
      </trkpt>
      <trkpt lat="46.37572" lon="5.17724">
        <ele>218.6</ele>
        <time>2022-06-04T07:08:03Z</time>
      </trkpt>
      <trkpt lat="46.37567" lon="5.1772">
        <ele>218.8</ele>
        <time>2022-06-04T07:08:04Z</time>
      </trkpt>
      <trkpt lat="46.37557" lon="5.17712">
        <ele>218.8</ele>
        <time>2022-06-04T07:08:06Z</time>
      </trkpt>
      <trkpt lat="46.37547" lon="5.17704">
        <ele>219.6</ele>
        <time>2022-06-04T07:08:08Z</time>
      </trkpt>
      <trkpt lat="46.37542" lon="5.177">
        <ele>219.8</ele>
        <time>2022-06-04T07:08:09Z</time>
      </trkpt>
      <trkpt lat="46.37526" lon="5.1769">
        <ele>220.8</ele>
        <time>2022-06-04T07:08:12Z</time>
      </trkpt>
      <trkpt lat="46.37503" lon="5.1768">
        <ele>221.2</ele>
        <time>2022-06-04T07:08:16Z</time>
      </trkpt>
      <trkpt lat="46.37498" lon="5.17678">
        <ele>221.4</ele>
        <time>2022-06-04T07:08:17Z</time>
      </trkpt>
      <trkpt lat="46.37475" lon="5.1767">
        <ele>221.8</ele>
        <time>2022-06-04T07:08:21Z</time>
      </trkpt>
      <trkpt lat="46.3747" lon="5.17668">
        <ele>221.8</ele>
        <time>2022-06-04T07:08:22Z</time>
      </trkpt>
      <trkpt lat="46.37432" lon="5.17652">
        <ele>221.4</ele>
        <time>2022-06-04T07:08:28Z</time>
      </trkpt>
      <trkpt lat="46.37399" lon="5.17638">
        <ele>220.8</ele>
        <time>2022-06-04T07:08:33Z</time>
      </trkpt>
      <trkpt lat="46.37362" lon="5.17623">
        <ele>220</ele>
        <time>2022-06-04T07:08:39Z</time>
      </trkpt>
      <trkpt lat="46.3735" lon="5.17616">
        <ele>220.2</ele>
        <time>2022-06-04T07:08:41Z</time>
      </trkpt>
      <trkpt lat="46.37326" lon="5.17604">
        <ele>220.6</ele>
        <time>2022-06-04T07:08:45Z</time>
      </trkpt>
      <trkpt lat="46.37306" lon="5.17596">
        <ele>220.6</ele>
        <time>2022-06-04T07:08:48Z</time>
      </trkpt>
      <trkpt lat="46.37272" lon="5.17583">
        <ele>220.8</ele>
        <time>2022-06-04T07:08:54Z</time>
      </trkpt>
      <trkpt lat="46.3726" lon="5.17577">
        <ele>220.8</ele>
        <time>2022-06-04T07:08:56Z</time>
      </trkpt>
      <trkpt lat="46.37243" lon="5.17568">
        <ele>221</ele>
        <time>2022-06-04T07:08:59Z</time>
      </trkpt>
      <trkpt lat="46.37209" lon="5.17552">
        <ele>221</ele>
        <time>2022-06-04T07:09:06Z</time>
      </trkpt>
      <trkpt lat="46.37204" lon="5.1755">
        <ele>221.2</ele>
        <time>2022-06-04T07:09:07Z</time>
      </trkpt>
      <trkpt lat="46.3718" lon="5.17539">
        <ele>221.4</ele>
        <time>2022-06-04T07:09:12Z</time>
      </trkpt>
      <trkpt lat="46.37165" lon="5.17534">
        <ele>221.8</ele>
        <time>2022-06-04T07:09:15Z</time>
      </trkpt>
      <trkpt lat="46.37149" lon="5.17528">
        <ele>221.8</ele>
        <time>2022-06-04T07:09:18Z</time>
      </trkpt>
      <trkpt lat="46.37139" lon="5.17523">
        <ele>221.8</ele>
        <time>2022-06-04T07:09:20Z</time>
      </trkpt>
      <trkpt lat="46.37125" lon="5.17519">
        <ele>221.6</ele>
        <time>2022-06-04T07:09:23Z</time>
      </trkpt>
      <trkpt lat="46.37115" lon="5.17516">
        <ele>221.6</ele>
        <time>2022-06-04T07:09:27Z</time>
      </trkpt>
      <trkpt lat="46.37115" lon="5.17517">
        <ele>221.6</ele>
        <time>2022-06-04T07:09:30Z</time>
      </trkpt>
      <trkpt lat="46.37111" lon="5.17517">
        <ele>222</ele>
        <time>2022-06-04T07:12:15Z</time>
      </trkpt>
      <trkpt lat="46.37109" lon="5.17517">
        <ele>222</ele>
        <time>2022-06-04T07:12:16Z</time>
      </trkpt>
      <trkpt lat="46.37096" lon="5.17517">
        <ele>222</ele>
        <time>2022-06-04T07:12:19Z</time>
      </trkpt>
      <trkpt lat="46.37083" lon="5.17519">
        <ele>221.8</ele>
        <time>2022-06-04T07:12:22Z</time>
      </trkpt>
      <trkpt lat="46.37073" lon="5.17521">
        <ele>221.8</ele>
        <time>2022-06-04T07:12:24Z</time>
      </trkpt>
      <trkpt lat="46.37065" lon="5.17523">
        <ele>221.8</ele>
        <time>2022-06-04T07:12:26Z</time>
      </trkpt>
      <trkpt lat="46.37057" lon="5.17528">
        <ele>221.8</ele>
        <time>2022-06-04T07:12:28Z</time>
      </trkpt>
      <trkpt lat="46.37053" lon="5.17533">
        <ele>222</ele>
        <time>2022-06-04T07:12:29Z</time>
      </trkpt>
      <trkpt lat="46.37043" lon="5.17545">
        <ele>222.2</ele>
        <time>2022-06-04T07:12:32Z</time>
      </trkpt>
      <trkpt lat="46.37034" lon="5.17548">
        <ele>222.4</ele>
        <time>2022-06-04T07:12:34Z</time>
      </trkpt>
      <trkpt lat="46.37025" lon="5.17545">
        <ele>222.4</ele>
        <time>2022-06-04T07:12:36Z</time>
      </trkpt>
      <trkpt lat="46.3701" lon="5.17536">
        <ele>222.6</ele>
        <time>2022-06-04T07:12:39Z</time>
      </trkpt>
      <trkpt lat="46.37006" lon="5.17532">
        <ele>222.6</ele>
        <time>2022-06-04T07:12:40Z</time>
      </trkpt>
      <trkpt lat="46.36997" lon="5.17523">
        <ele>222.6</ele>
        <time>2022-06-04T07:12:42Z</time>
      </trkpt>
      <trkpt lat="46.36993" lon="5.17518">
        <ele>222.6</ele>
        <time>2022-06-04T07:12:43Z</time>
      </trkpt>
      <trkpt lat="46.3699" lon="5.17512">
        <ele>222.6</ele>
        <time>2022-06-04T07:12:44Z</time>
      </trkpt>
      <trkpt lat="46.36983" lon="5.17498">
        <ele>222.6</ele>
        <time>2022-06-04T07:12:46Z</time>
      </trkpt>
      <trkpt lat="46.36981" lon="5.17491">
        <ele>222.6</ele>
        <time>2022-06-04T07:12:47Z</time>
      </trkpt>
      <trkpt lat="46.36976" lon="5.17485">
        <ele>222.6</ele>
        <time>2022-06-04T07:12:48Z</time>
      </trkpt>
      <trkpt lat="46.36958" lon="5.17478">
        <ele>222.6</ele>
        <time>2022-06-04T07:12:51Z</time>
      </trkpt>
      <trkpt lat="46.36946" lon="5.17475">
        <ele>222.4</ele>
        <time>2022-06-04T07:12:53Z</time>
      </trkpt>
      <trkpt lat="46.36927" lon="5.17473">
        <ele>222.4</ele>
        <time>2022-06-04T07:12:56Z</time>
      </trkpt>
      <trkpt lat="46.36884" lon="5.17468">
        <ele>222.4</ele>
        <time>2022-06-04T07:13:03Z</time>
      </trkpt>
      <trkpt lat="46.36849" lon="5.17457">
        <ele>222.8</ele>
        <time>2022-06-04T07:13:09Z</time>
      </trkpt>
      <trkpt lat="46.36813" lon="5.17431">
        <ele>222.8</ele>
        <time>2022-06-04T07:13:15Z</time>
      </trkpt>
      <trkpt lat="46.36807" lon="5.17425">
        <ele>222.8</ele>
        <time>2022-06-04T07:13:16Z</time>
      </trkpt>
      <trkpt lat="46.36773" lon="5.17384">
        <ele>222.2</ele>
        <time>2022-06-04T07:13:22Z</time>
      </trkpt>
      <trkpt lat="46.36732" lon="5.17332">
        <ele>222.2</ele>
        <time>2022-06-04T07:13:30Z</time>
      </trkpt>
      <trkpt lat="46.36727" lon="5.17327">
        <ele>222.2</ele>
        <time>2022-06-04T07:13:31Z</time>
      </trkpt>
      <trkpt lat="46.36715" lon="5.17321">
        <ele>222.2</ele>
        <time>2022-06-04T07:13:33Z</time>
      </trkpt>
      <trkpt lat="46.36708" lon="5.17321">
        <ele>222.2</ele>
        <time>2022-06-04T07:13:34Z</time>
      </trkpt>
      <trkpt lat="46.36665" lon="5.17321">
        <ele>221.6</ele>
        <time>2022-06-04T07:13:40Z</time>
      </trkpt>
      <trkpt lat="46.36604" lon="5.17331">
        <ele>221</ele>
        <time>2022-06-04T07:13:48Z</time>
      </trkpt>
      <trkpt lat="46.36597" lon="5.17332">
        <ele>221</ele>
        <time>2022-06-04T07:13:49Z</time>
      </trkpt>
      <trkpt lat="46.36562" lon="5.17346">
        <ele>220.2</ele>
        <time>2022-06-04T07:13:54Z</time>
      </trkpt>
      <trkpt lat="46.3655" lon="5.1735">
        <ele>220</ele>
        <time>2022-06-04T07:13:56Z</time>
      </trkpt>
      <trkpt lat="46.36543" lon="5.1735">
        <ele>220</ele>
        <time>2022-06-04T07:13:57Z</time>
      </trkpt>
      <trkpt lat="46.36536" lon="5.17349">
        <ele>219.8</ele>
        <time>2022-06-04T07:13:58Z</time>
      </trkpt>
      <trkpt lat="46.36497" lon="5.17337">
        <ele>219.4</ele>
        <time>2022-06-04T07:14:03Z</time>
      </trkpt>
      <trkpt lat="46.36475" lon="5.17329">
        <ele>218.8</ele>
        <time>2022-06-04T07:14:06Z</time>
      </trkpt>
      <trkpt lat="46.3644" lon="5.17312">
        <ele>218</ele>
        <time>2022-06-04T07:14:11Z</time>
      </trkpt>
      <trkpt lat="46.36418" lon="5.17303">
        <ele>218</ele>
        <time>2022-06-04T07:14:14Z</time>
      </trkpt>
      <trkpt lat="46.36411" lon="5.17302">
        <ele>218</ele>
        <time>2022-06-04T07:14:15Z</time>
      </trkpt>
      <trkpt lat="46.36403" lon="5.17303">
        <ele>218</ele>
        <time>2022-06-04T07:14:16Z</time>
      </trkpt>
      <trkpt lat="46.36389" lon="5.17309">
        <ele>218</ele>
        <time>2022-06-04T07:14:18Z</time>
      </trkpt>
      <trkpt lat="46.36375" lon="5.17319">
        <ele>217.8</ele>
        <time>2022-06-04T07:14:20Z</time>
      </trkpt>
      <trkpt lat="46.36342" lon="5.17345">
        <ele>216.6</ele>
        <time>2022-06-04T07:14:25Z</time>
      </trkpt>
      <trkpt lat="46.36328" lon="5.17356">
        <ele>216.4</ele>
        <time>2022-06-04T07:14:27Z</time>
      </trkpt>
      <trkpt lat="46.363" lon="5.17378">
        <ele>216.2</ele>
        <time>2022-06-04T07:14:31Z</time>
      </trkpt>
      <trkpt lat="46.36288" lon="5.17393">
        <ele>216</ele>
        <time>2022-06-04T07:14:33Z</time>
      </trkpt>
      <trkpt lat="46.36284" lon="5.17402">
        <ele>216.4</ele>
        <time>2022-06-04T07:14:34Z</time>
      </trkpt>
      <trkpt lat="46.36281" lon="5.17411">
        <ele>216.4</ele>
        <time>2022-06-04T07:14:35Z</time>
      </trkpt>
      <trkpt lat="46.36274" lon="5.17442">
        <ele>216.4</ele>
        <time>2022-06-04T07:14:38Z</time>
      </trkpt>
      <trkpt lat="46.36271" lon="5.17451">
        <ele>216.4</ele>
        <time>2022-06-04T07:14:39Z</time>
      </trkpt>
      <trkpt lat="46.36263" lon="5.17469">
        <ele>216.4</ele>
        <time>2022-06-04T07:14:41Z</time>
      </trkpt>
      <trkpt lat="46.36258" lon="5.17477">
        <ele>216.6</ele>
        <time>2022-06-04T07:14:42Z</time>
      </trkpt>
      <trkpt lat="46.36251" lon="5.17484">
        <ele>216.6</ele>
        <time>2022-06-04T07:14:43Z</time>
      </trkpt>
      <trkpt lat="46.36235" lon="5.17493">
        <ele>216.4</ele>
        <time>2022-06-04T07:14:45Z</time>
      </trkpt>
      <trkpt lat="46.36208" lon="5.17497">
        <ele>216</ele>
        <time>2022-06-04T07:14:48Z</time>
      </trkpt>
      <trkpt lat="46.36199" lon="5.17498">
        <ele>215.8</ele>
        <time>2022-06-04T07:14:49Z</time>
      </trkpt>
      <trkpt lat="46.36181" lon="5.17502">
        <ele>214</ele>
        <time>2022-06-04T07:14:51Z</time>
      </trkpt>
      <trkpt lat="46.36162" lon="5.1751">
        <ele>213</ele>
        <time>2022-06-04T07:14:53Z</time>
      </trkpt>
      <trkpt lat="46.3614" lon="5.17521">
        <ele>212.2</ele>
        <time>2022-06-04T07:14:55Z</time>
      </trkpt>
      <trkpt lat="46.36129" lon="5.17524">
        <ele>212.2</ele>
        <time>2022-06-04T07:14:56Z</time>
      </trkpt>
      <trkpt lat="46.36117" lon="5.17526">
        <ele>210.6</ele>
        <time>2022-06-04T07:14:57Z</time>
      </trkpt>
      <trkpt lat="46.36105" lon="5.17527">
        <ele>209.8</ele>
        <time>2022-06-04T07:14:58Z</time>
      </trkpt>
      <trkpt lat="46.36093" lon="5.17526">
        <ele>209.2</ele>
        <time>2022-06-04T07:14:59Z</time>
      </trkpt>
      <trkpt lat="46.3608" lon="5.17523">
        <ele>207.4</ele>
        <time>2022-06-04T07:15:00Z</time>
      </trkpt>
      <trkpt lat="46.36056" lon="5.17516">
        <ele>206</ele>
        <time>2022-06-04T07:15:02Z</time>
      </trkpt>
      <trkpt lat="46.36033" lon="5.17511">
        <ele>204</ele>
        <time>2022-06-04T07:15:04Z</time>
      </trkpt>
      <trkpt lat="46.36022" lon="5.17511">
        <ele>203</ele>
        <time>2022-06-04T07:15:05Z</time>
      </trkpt>
      <trkpt lat="46.36001" lon="5.17515">
        <ele>202</ele>
        <time>2022-06-04T07:15:07Z</time>
      </trkpt>
      <trkpt lat="46.35991" lon="5.17517">
        <ele>201.8</ele>
        <time>2022-06-04T07:15:08Z</time>
      </trkpt>
      <trkpt lat="46.35949" lon="5.17529">
        <ele>201.6</ele>
        <time>2022-06-04T07:15:13Z</time>
      </trkpt>
      <trkpt lat="46.35934" lon="5.17532">
        <ele>203</ele>
        <time>2022-06-04T07:15:15Z</time>
      </trkpt>
      <trkpt lat="46.35914" lon="5.17533">
        <ele>204.4</ele>
        <time>2022-06-04T07:15:18Z</time>
      </trkpt>
      <trkpt lat="46.35907" lon="5.17534">
        <ele>204.6</ele>
        <time>2022-06-04T07:15:19Z</time>
      </trkpt>
      <trkpt lat="46.35894" lon="5.17535">
        <ele>205.8</ele>
        <time>2022-06-04T07:15:21Z</time>
      </trkpt>
      <trkpt lat="46.35889" lon="5.17535">
        <ele>206</ele>
        <time>2022-06-04T07:15:22Z</time>
      </trkpt>
      <trkpt lat="46.35885" lon="5.17536">
        <ele>206.8</ele>
        <time>2022-06-04T07:15:23Z</time>
      </trkpt>
      <trkpt lat="46.35875" lon="5.17537">
        <ele>208.2</ele>
        <time>2022-06-04T07:15:25Z</time>
      </trkpt>
      <trkpt lat="46.35859" lon="5.1754">
        <ele>209</ele>
        <time>2022-06-04T07:15:28Z</time>
      </trkpt>
      <trkpt lat="46.35848" lon="5.17542">
        <ele>209.4</ele>
        <time>2022-06-04T07:15:30Z</time>
      </trkpt>
      <trkpt lat="46.35844" lon="5.17543">
        <ele>209.8</ele>
        <time>2022-06-04T07:15:31Z</time>
      </trkpt>
      <trkpt lat="46.35839" lon="5.17546">
        <ele>210.4</ele>
        <time>2022-06-04T07:15:32Z</time>
      </trkpt>
      <trkpt lat="46.35828" lon="5.17548">
        <ele>211.2</ele>
        <time>2022-06-04T07:15:34Z</time>
      </trkpt>
      <trkpt lat="46.35823" lon="5.17549">
        <ele>211.6</ele>
        <time>2022-06-04T07:15:35Z</time>
      </trkpt>
      <trkpt lat="46.35806" lon="5.17552">
        <ele>212.6</ele>
        <time>2022-06-04T07:15:39Z</time>
      </trkpt>
      <trkpt lat="46.35786" lon="5.17554">
        <ele>213.6</ele>
        <time>2022-06-04T07:15:43Z</time>
      </trkpt>
      <trkpt lat="46.3578" lon="5.17555">
        <ele>213.8</ele>
        <time>2022-06-04T07:15:44Z</time>
      </trkpt>
      <trkpt lat="46.35758" lon="5.17562">
        <ele>214.4</ele>
        <time>2022-06-04T07:15:48Z</time>
      </trkpt>
      <trkpt lat="46.35741" lon="5.17571">
        <ele>214.6</ele>
        <time>2022-06-04T07:15:51Z</time>
      </trkpt>
      <trkpt lat="46.35699" lon="5.17589">
        <ele>214.2</ele>
        <time>2022-06-04T07:15:58Z</time>
      </trkpt>
      <trkpt lat="46.35659" lon="5.17594">
        <ele>213.2</ele>
        <time>2022-06-04T07:16:03Z</time>
      </trkpt>
      <trkpt lat="46.35625" lon="5.17596">
        <ele>212</ele>
        <time>2022-06-04T07:16:07Z</time>
      </trkpt>
      <trkpt lat="46.35605" lon="5.17597">
        <ele>211.4</ele>
        <time>2022-06-04T07:16:09Z</time>
      </trkpt>
      <trkpt lat="46.35579" lon="5.17597">
        <ele>210.8</ele>
        <time>2022-06-04T07:16:12Z</time>
      </trkpt>
      <trkpt lat="46.35545" lon="5.17591">
        <ele>210.2</ele>
        <time>2022-06-04T07:16:16Z</time>
      </trkpt>
      <trkpt lat="46.3551" lon="5.17579">
        <ele>210.8</ele>
        <time>2022-06-04T07:16:21Z</time>
      </trkpt>
      <trkpt lat="46.35482" lon="5.17569">
        <ele>212.2</ele>
        <time>2022-06-04T07:16:26Z</time>
      </trkpt>
      <trkpt lat="46.35477" lon="5.17567">
        <ele>212.8</ele>
        <time>2022-06-04T07:16:27Z</time>
      </trkpt>
      <trkpt lat="46.35471" lon="5.17566">
        <ele>213.2</ele>
        <time>2022-06-04T07:16:28Z</time>
      </trkpt>
      <trkpt lat="46.35465" lon="5.17564">
        <ele>213.6</ele>
        <time>2022-06-04T07:16:29Z</time>
      </trkpt>
      <trkpt lat="46.35447" lon="5.1756">
        <ele>214.6</ele>
        <time>2022-06-04T07:16:32Z</time>
      </trkpt>
      <trkpt lat="46.35428" lon="5.17555">
        <ele>215.4</ele>
        <time>2022-06-04T07:16:35Z</time>
      </trkpt>
      <trkpt lat="46.35403" lon="5.17543">
        <ele>215.6</ele>
        <time>2022-06-04T07:16:39Z</time>
      </trkpt>
      <trkpt lat="46.35391" lon="5.17532">
        <ele>215.6</ele>
        <time>2022-06-04T07:16:41Z</time>
      </trkpt>
      <trkpt lat="46.35374" lon="5.17515">
        <ele>215.2</ele>
        <time>2022-06-04T07:16:44Z</time>
      </trkpt>
      <trkpt lat="46.35361" lon="5.17509">
        <ele>215</ele>
        <time>2022-06-04T07:16:46Z</time>
      </trkpt>
      <trkpt lat="46.35347" lon="5.17512">
        <ele>214.8</ele>
        <time>2022-06-04T07:16:48Z</time>
      </trkpt>
      <trkpt lat="46.3534" lon="5.17516">
        <ele>214.8</ele>
        <time>2022-06-04T07:16:49Z</time>
      </trkpt>
      <trkpt lat="46.35334" lon="5.17522">
        <ele>214.8</ele>
        <time>2022-06-04T07:16:50Z</time>
      </trkpt>
      <trkpt lat="46.3531" lon="5.17549">
        <ele>214.2</ele>
        <time>2022-06-04T07:16:54Z</time>
      </trkpt>
      <trkpt lat="46.3529" lon="5.1757">
        <ele>213.6</ele>
        <time>2022-06-04T07:16:57Z</time>
      </trkpt>
      <trkpt lat="46.35275" lon="5.17582">
        <ele>213.2</ele>
        <time>2022-06-04T07:16:59Z</time>
      </trkpt>
      <trkpt lat="46.35237" lon="5.17597">
        <ele>212.4</ele>
        <time>2022-06-04T07:17:04Z</time>
      </trkpt>
      <trkpt lat="46.35228" lon="5.176">
        <ele>212.4</ele>
        <time>2022-06-04T07:17:05Z</time>
      </trkpt>
      <trkpt lat="46.35208" lon="5.1761">
        <ele>212.4</ele>
        <time>2022-06-04T07:17:08Z</time>
      </trkpt>
      <trkpt lat="46.35168" lon="5.17641">
        <ele>213.6</ele>
        <time>2022-06-04T07:17:15Z</time>
      </trkpt>
      <trkpt lat="46.35144" lon="5.1766">
        <ele>214.8</ele>
        <time>2022-06-04T07:17:19Z</time>
      </trkpt>
      <trkpt lat="46.35134" lon="5.17666">
        <ele>215</ele>
        <time>2022-06-04T07:17:21Z</time>
      </trkpt>
      <trkpt lat="46.35127" lon="5.1767">
        <ele>215</ele>
        <time>2022-06-04T07:17:22Z</time>
      </trkpt>
      <trkpt lat="46.35112" lon="5.17673">
        <ele>215.2</ele>
        <time>2022-06-04T07:17:24Z</time>
      </trkpt>
      <trkpt lat="46.35105" lon="5.17673">
        <ele>215.2</ele>
        <time>2022-06-04T07:17:25Z</time>
      </trkpt>
      <trkpt lat="46.35062" lon="5.17672">
        <ele>215</ele>
        <time>2022-06-04T07:17:31Z</time>
      </trkpt>
      <trkpt lat="46.35003" lon="5.17671">
        <ele>214.2</ele>
        <time>2022-06-04T07:17:39Z</time>
      </trkpt>
      <trkpt lat="46.34981" lon="5.17664">
        <ele>213.6</ele>
        <time>2022-06-04T07:17:42Z</time>
      </trkpt>
      <trkpt lat="46.34952" lon="5.17652">
        <ele>213.4</ele>
        <time>2022-06-04T07:17:46Z</time>
      </trkpt>
      <trkpt lat="46.34902" lon="5.17631">
        <ele>212.6</ele>
        <time>2022-06-04T07:17:53Z</time>
      </trkpt>
      <trkpt lat="46.34888" lon="5.17623">
        <ele>212.4</ele>
        <time>2022-06-04T07:17:55Z</time>
      </trkpt>
      <trkpt lat="46.34836" lon="5.17598">
        <ele>211.4</ele>
        <time>2022-06-04T07:18:02Z</time>
      </trkpt>
      <trkpt lat="46.34797" lon="5.17589">
        <ele>210.2</ele>
        <time>2022-06-04T07:18:06Z</time>
      </trkpt>
      <trkpt lat="46.34777" lon="5.17588">
        <ele>209</ele>
        <time>2022-06-04T07:18:08Z</time>
      </trkpt>
      <trkpt lat="46.34767" lon="5.17588">
        <ele>207.8</ele>
        <time>2022-06-04T07:18:09Z</time>
      </trkpt>
      <trkpt lat="46.34748" lon="5.17586">
        <ele>207</ele>
        <time>2022-06-04T07:18:11Z</time>
      </trkpt>
      <trkpt lat="46.34739" lon="5.17585">
        <ele>206.4</ele>
        <time>2022-06-04T07:18:12Z</time>
      </trkpt>
      <trkpt lat="46.34705" lon="5.17579">
        <ele>205.6</ele>
        <time>2022-06-04T07:18:16Z</time>
      </trkpt>
      <trkpt lat="46.34681" lon="5.17575">
        <ele>205.4</ele>
        <time>2022-06-04T07:18:19Z</time>
      </trkpt>
      <trkpt lat="46.34659" lon="5.17572">
        <ele>205.6</ele>
        <time>2022-06-04T07:18:22Z</time>
      </trkpt>
      <trkpt lat="46.34635" lon="5.1757">
        <ele>206.6</ele>
        <time>2022-06-04T07:18:26Z</time>
      </trkpt>
      <trkpt lat="46.34629" lon="5.1757">
        <ele>206.8</ele>
        <time>2022-06-04T07:18:27Z</time>
      </trkpt>
      <trkpt lat="46.34619" lon="5.17569">
        <ele>207.6</ele>
        <time>2022-06-04T07:18:29Z</time>
      </trkpt>
      <trkpt lat="46.34603" lon="5.17568">
        <ele>209.4</ele>
        <time>2022-06-04T07:18:32Z</time>
      </trkpt>
      <trkpt lat="46.34587" lon="5.17567">
        <ele>210.6</ele>
        <time>2022-06-04T07:18:35Z</time>
      </trkpt>
      <trkpt lat="46.34573" lon="5.17564">
        <ele>211.8</ele>
        <time>2022-06-04T07:18:38Z</time>
      </trkpt>
      <trkpt lat="46.34563" lon="5.17563">
        <ele>212.4</ele>
        <time>2022-06-04T07:18:40Z</time>
      </trkpt>
      <trkpt lat="46.34554" lon="5.17563">
        <ele>213.2</ele>
        <time>2022-06-04T07:18:42Z</time>
      </trkpt>
      <trkpt lat="46.34524" lon="5.17563">
        <ele>214.4</ele>
        <time>2022-06-04T07:18:48Z</time>
      </trkpt>
      <trkpt lat="46.34517" lon="5.17563">
        <ele>214.8</ele>
        <time>2022-06-04T07:18:50Z</time>
      </trkpt>
      <trkpt lat="46.34511" lon="5.17564">
        <ele>215</ele>
        <time>2022-06-04T07:18:51Z</time>
      </trkpt>
      <trkpt lat="46.34502" lon="5.17566">
        <ele>215.6</ele>
        <time>2022-06-04T07:18:53Z</time>
      </trkpt>
      <trkpt lat="46.34485" lon="5.1757">
        <ele>216.2</ele>
        <time>2022-06-04T07:18:56Z</time>
      </trkpt>
      <trkpt lat="46.34446" lon="5.17573">
        <ele>216.6</ele>
        <time>2022-06-04T07:19:03Z</time>
      </trkpt>
      <trkpt lat="46.3441" lon="5.17575">
        <ele>217.4</ele>
        <time>2022-06-04T07:19:09Z</time>
      </trkpt>
      <trkpt lat="46.34406" lon="5.17577">
        <ele>217.6</ele>
        <time>2022-06-04T07:19:10Z</time>
      </trkpt>
      <trkpt lat="46.34394" lon="5.1758">
        <ele>218.2</ele>
        <time>2022-06-04T07:19:12Z</time>
      </trkpt>
      <trkpt lat="46.34349" lon="5.17606">
        <ele>218</ele>
        <time>2022-06-04T07:19:20Z</time>
      </trkpt>
      <trkpt lat="46.34321" lon="5.17629">
        <ele>218.2</ele>
        <time>2022-06-04T07:19:25Z</time>
      </trkpt>
      <trkpt lat="46.34306" lon="5.17646">
        <ele>218.4</ele>
        <time>2022-06-04T07:19:28Z</time>
      </trkpt>
      <trkpt lat="46.3427" lon="5.17685">
        <ele>218.6</ele>
        <time>2022-06-04T07:19:35Z</time>
      </trkpt>
      <trkpt lat="46.34258" lon="5.17697">
        <ele>218.8</ele>
        <time>2022-06-04T07:19:37Z</time>
      </trkpt>
      <trkpt lat="46.34225" lon="5.17732">
        <ele>218.8</ele>
        <time>2022-06-04T07:19:43Z</time>
      </trkpt>
      <trkpt lat="46.34181" lon="5.1777">
        <ele>218.4</ele>
        <time>2022-06-04T07:19:50Z</time>
      </trkpt>
      <trkpt lat="46.34133" lon="5.17811">
        <ele>218.2</ele>
        <time>2022-06-04T07:19:58Z</time>
      </trkpt>
      <trkpt lat="46.3412" lon="5.17823">
        <ele>218</ele>
        <time>2022-06-04T07:20:00Z</time>
      </trkpt>
      <trkpt lat="46.34097" lon="5.17846">
        <ele>217.6</ele>
        <time>2022-06-04T07:20:04Z</time>
      </trkpt>
      <trkpt lat="46.34074" lon="5.17873">
        <ele>217.2</ele>
        <time>2022-06-04T07:20:08Z</time>
      </trkpt>
      <trkpt lat="46.34037" lon="5.17927">
        <ele>216.6</ele>
        <time>2022-06-04T07:20:15Z</time>
      </trkpt>
      <trkpt lat="46.34021" lon="5.1795">
        <ele>216.4</ele>
        <time>2022-06-04T07:20:18Z</time>
      </trkpt>
      <trkpt lat="46.33975" lon="5.1801">
        <ele>216</ele>
        <time>2022-06-04T07:20:26Z</time>
      </trkpt>
      <trkpt lat="46.3397" lon="5.18016">
        <ele>216</ele>
        <time>2022-06-04T07:20:27Z</time>
      </trkpt>
      <trkpt lat="46.33935" lon="5.18051">
        <ele>215.6</ele>
        <time>2022-06-04T07:20:33Z</time>
      </trkpt>
      <trkpt lat="46.33929" lon="5.18057">
        <ele>215.6</ele>
        <time>2022-06-04T07:20:34Z</time>
      </trkpt>
      <trkpt lat="46.33924" lon="5.18064">
        <ele>215.6</ele>
        <time>2022-06-04T07:20:35Z</time>
      </trkpt>
      <trkpt lat="46.33913" lon="5.18079">
        <ele>215.8</ele>
        <time>2022-06-04T07:20:37Z</time>
      </trkpt>
      <trkpt lat="46.33903" lon="5.18105">
        <ele>215.8</ele>
        <time>2022-06-04T07:20:40Z</time>
      </trkpt>
      <trkpt lat="46.33887" lon="5.18147">
        <ele>216</ele>
        <time>2022-06-04T07:20:45Z</time>
      </trkpt>
      <trkpt lat="46.33883" lon="5.18155">
        <ele>216</ele>
        <time>2022-06-04T07:20:46Z</time>
      </trkpt>
      <trkpt lat="46.33879" lon="5.18163">
        <ele>216</ele>
        <time>2022-06-04T07:20:47Z</time>
      </trkpt>
      <trkpt lat="46.33859" lon="5.18188">
        <ele>216.2</ele>
        <time>2022-06-04T07:20:51Z</time>
      </trkpt>
      <trkpt lat="46.33818" lon="5.18241">
        <ele>215.4</ele>
        <time>2022-06-04T07:20:59Z</time>
      </trkpt>
      <trkpt lat="46.33813" lon="5.18249">
        <ele>215.2</ele>
        <time>2022-06-04T07:21:00Z</time>
      </trkpt>
      <trkpt lat="46.33783" lon="5.18296">
        <ele>214.4</ele>
        <time>2022-06-04T07:21:06Z</time>
      </trkpt>
      <trkpt lat="46.33777" lon="5.18308">
        <ele>214.2</ele>
        <time>2022-06-04T07:21:07Z</time>
      </trkpt>
      <trkpt lat="46.33769" lon="5.18326">
        <ele>213.2</ele>
        <time>2022-06-04T07:21:09Z</time>
      </trkpt>
      <trkpt lat="46.33749" lon="5.18367">
        <ele>212.2</ele>
        <time>2022-06-04T07:21:13Z</time>
      </trkpt>
      <trkpt lat="46.33743" lon="5.18375">
        <ele>212.2</ele>
        <time>2022-06-04T07:21:14Z</time>
      </trkpt>
      <trkpt lat="46.33736" lon="5.18383">
        <ele>212</ele>
        <time>2022-06-04T07:21:15Z</time>
      </trkpt>
      <trkpt lat="46.33713" lon="5.184">
        <ele>212</ele>
        <time>2022-06-04T07:21:18Z</time>
      </trkpt>
      <trkpt lat="46.337" lon="5.18412">
        <ele>211.8</ele>
        <time>2022-06-04T07:21:20Z</time>
      </trkpt>
      <trkpt lat="46.33689" lon="5.18425">
        <ele>211.8</ele>
        <time>2022-06-04T07:21:22Z</time>
      </trkpt>
      <trkpt lat="46.33666" lon="5.18452">
        <ele>212</ele>
        <time>2022-06-04T07:21:26Z</time>
      </trkpt>
      <trkpt lat="46.33653" lon="5.18461">
        <ele>212.2</ele>
        <time>2022-06-04T07:21:28Z</time>
      </trkpt>
      <trkpt lat="46.33626" lon="5.18479">
        <ele>212.6</ele>
        <time>2022-06-04T07:21:33Z</time>
      </trkpt>
      <trkpt lat="46.33605" lon="5.18492">
        <ele>213.2</ele>
        <time>2022-06-04T07:21:37Z</time>
      </trkpt>
      <trkpt lat="46.336" lon="5.18495">
        <ele>213.8</ele>
        <time>2022-06-04T07:21:38Z</time>
      </trkpt>
      <trkpt lat="46.33595" lon="5.18499">
        <ele>214.2</ele>
        <time>2022-06-04T07:21:39Z</time>
      </trkpt>
      <trkpt lat="46.33591" lon="5.18503">
        <ele>214.8</ele>
        <time>2022-06-04T07:21:40Z</time>
      </trkpt>
      <trkpt lat="46.33579" lon="5.18516">
        <ele>215.8</ele>
        <time>2022-06-04T07:21:43Z</time>
      </trkpt>
      <trkpt lat="46.33572" lon="5.18524">
        <ele>216.2</ele>
        <time>2022-06-04T07:21:45Z</time>
      </trkpt>
      <trkpt lat="46.33562" lon="5.18538">
        <ele>217</ele>
        <time>2022-06-04T07:21:48Z</time>
      </trkpt>
      <trkpt lat="46.33548" lon="5.18554">
        <ele>218</ele>
        <time>2022-06-04T07:21:52Z</time>
      </trkpt>
      <trkpt lat="46.33537" lon="5.18567">
        <ele>218.8</ele>
        <time>2022-06-04T07:21:55Z</time>
      </trkpt>
      <trkpt lat="46.33535" lon="5.1857">
        <ele>219.4</ele>
        <time>2022-06-04T07:21:56Z</time>
      </trkpt>
      <trkpt lat="46.33533" lon="5.18573">
        <ele>219.6</ele>
        <time>2022-06-04T07:21:57Z</time>
      </trkpt>
      <trkpt lat="46.33533" lon="5.18574">
        <ele>220.2</ele>
        <time>2022-06-04T07:22:01Z</time>
      </trkpt>
      <trkpt lat="46.33533" lon="5.18574">
        <ele>220.6</ele>
        <time>2022-06-04T07:22:03Z</time>
      </trkpt>
      <trkpt lat="46.33531" lon="5.18575">
        <ele>221.2</ele>
        <time>2022-06-04T07:25:05Z</time>
      </trkpt>
      <trkpt lat="46.33527" lon="5.18577">
        <ele>221.2</ele>
        <time>2022-06-04T07:25:07Z</time>
      </trkpt>
      <trkpt lat="46.3351" lon="5.18589">
        <ele>221.2</ele>
        <time>2022-06-04T07:25:12Z</time>
      </trkpt>
      <trkpt lat="46.3349" lon="5.18601">
        <ele>221.6</ele>
        <time>2022-06-04T07:25:17Z</time>
      </trkpt>
      <trkpt lat="46.33486" lon="5.18602">
        <ele>221.4</ele>
        <time>2022-06-04T07:25:18Z</time>
      </trkpt>
      <trkpt lat="46.33479" lon="5.18606">
        <ele>222</ele>
        <time>2022-06-04T07:25:20Z</time>
      </trkpt>
      <trkpt lat="46.33473" lon="5.18609">
        <ele>222.2</ele>
        <time>2022-06-04T07:25:22Z</time>
      </trkpt>
      <trkpt lat="46.33464" lon="5.18612">
        <ele>222.4</ele>
        <time>2022-06-04T07:25:26Z</time>
      </trkpt>
      <trkpt lat="46.33461" lon="5.18618">
        <ele>222.8</ele>
        <time>2022-06-04T07:25:28Z</time>
      </trkpt>
      <trkpt lat="46.33461" lon="5.18622">
        <ele>223</ele>
        <time>2022-06-04T07:25:29Z</time>
      </trkpt>
      <trkpt lat="46.33454" lon="5.1864">
        <ele>223.6</ele>
        <time>2022-06-04T07:25:33Z</time>
      </trkpt>
      <trkpt lat="46.33446" lon="5.18649">
        <ele>223.6</ele>
        <time>2022-06-04T07:25:35Z</time>
      </trkpt>
      <trkpt lat="46.33437" lon="5.18659">
        <ele>223.4</ele>
        <time>2022-06-04T07:25:37Z</time>
      </trkpt>
      <trkpt lat="46.33399" lon="5.18694">
        <ele>223</ele>
        <time>2022-06-04T07:25:44Z</time>
      </trkpt>
      <trkpt lat="46.33383" lon="5.18708">
        <ele>223</ele>
        <time>2022-06-04T07:25:47Z</time>
      </trkpt>
      <trkpt lat="46.33367" lon="5.18722">
        <ele>223.4</ele>
        <time>2022-06-04T07:25:50Z</time>
      </trkpt>
      <trkpt lat="46.33362" lon="5.18727">
        <ele>223.6</ele>
        <time>2022-06-04T07:25:51Z</time>
      </trkpt>
      <trkpt lat="46.33349" lon="5.18745">
        <ele>224</ele>
        <time>2022-06-04T07:25:54Z</time>
      </trkpt>
      <trkpt lat="46.3334" lon="5.18759">
        <ele>224</ele>
        <time>2022-06-04T07:25:56Z</time>
      </trkpt>
      <trkpt lat="46.33303" lon="5.18819">
        <ele>224.6</ele>
        <time>2022-06-04T07:26:04Z</time>
      </trkpt>
      <trkpt lat="46.33299" lon="5.18827">
        <ele>224.4</ele>
        <time>2022-06-04T07:26:05Z</time>
      </trkpt>
      <trkpt lat="46.33261" lon="5.18891">
        <ele>224.2</ele>
        <time>2022-06-04T07:26:13Z</time>
      </trkpt>
      <trkpt lat="46.33232" lon="5.18934">
        <ele>223.4</ele>
        <time>2022-06-04T07:26:19Z</time>
      </trkpt>
      <trkpt lat="46.33203" lon="5.18976">
        <ele>223.6</ele>
        <time>2022-06-04T07:26:25Z</time>
      </trkpt>
      <trkpt lat="46.33188" lon="5.19021">
        <ele>224.2</ele>
        <time>2022-06-04T07:26:30Z</time>
      </trkpt>
      <trkpt lat="46.33167" lon="5.19074">
        <ele>224.4</ele>
        <time>2022-06-04T07:26:36Z</time>
      </trkpt>
      <trkpt lat="46.33136" lon="5.1914">
        <ele>224.6</ele>
        <time>2022-06-04T07:26:44Z</time>
      </trkpt>
      <trkpt lat="46.33132" lon="5.19147">
        <ele>224.6</ele>
        <time>2022-06-04T07:26:45Z</time>
      </trkpt>
      <trkpt lat="46.33117" lon="5.19168">
        <ele>224.6</ele>
        <time>2022-06-04T07:26:48Z</time>
      </trkpt>
      <trkpt lat="46.33106" lon="5.19179">
        <ele>224.8</ele>
        <time>2022-06-04T07:26:50Z</time>
      </trkpt>
      <trkpt lat="46.331" lon="5.19183">
        <ele>224.8</ele>
        <time>2022-06-04T07:26:51Z</time>
      </trkpt>
      <trkpt lat="46.33087" lon="5.19188">
        <ele>225</ele>
        <time>2022-06-04T07:26:53Z</time>
      </trkpt>
      <trkpt lat="46.3308" lon="5.19189">
        <ele>225</ele>
        <time>2022-06-04T07:26:54Z</time>
      </trkpt>
      <trkpt lat="46.33065" lon="5.1919">
        <ele>225</ele>
        <time>2022-06-04T07:26:56Z</time>
      </trkpt>
      <trkpt lat="46.33029" lon="5.19188">
        <ele>224.8</ele>
        <time>2022-06-04T07:27:01Z</time>
      </trkpt>
      <trkpt lat="46.33014" lon="5.19186">
        <ele>224.6</ele>
        <time>2022-06-04T07:27:03Z</time>
      </trkpt>
      <trkpt lat="46.32997" lon="5.19187">
        <ele>224.2</ele>
        <time>2022-06-04T07:27:05Z</time>
      </trkpt>
      <trkpt lat="46.32988" lon="5.1919">
        <ele>224</ele>
        <time>2022-06-04T07:27:06Z</time>
      </trkpt>
      <trkpt lat="46.32963" lon="5.19199">
        <ele>223</ele>
        <time>2022-06-04T07:27:09Z</time>
      </trkpt>
      <trkpt lat="46.32947" lon="5.19206">
        <ele>222.8</ele>
        <time>2022-06-04T07:27:11Z</time>
      </trkpt>
      <trkpt lat="46.32931" lon="5.19212">
        <ele>222.2</ele>
        <time>2022-06-04T07:27:13Z</time>
      </trkpt>
      <trkpt lat="46.32915" lon="5.19216">
        <ele>222</ele>
        <time>2022-06-04T07:27:15Z</time>
      </trkpt>
      <trkpt lat="46.32906" lon="5.19216">
        <ele>221.8</ele>
        <time>2022-06-04T07:27:16Z</time>
      </trkpt>
      <trkpt lat="46.32852" lon="5.19217">
        <ele>221.4</ele>
        <time>2022-06-04T07:27:23Z</time>
      </trkpt>
      <trkpt lat="46.32844" lon="5.19216">
        <ele>221.4</ele>
        <time>2022-06-04T07:27:24Z</time>
      </trkpt>
      <trkpt lat="46.32814" lon="5.19211">
        <ele>221.4</ele>
        <time>2022-06-04T07:27:28Z</time>
      </trkpt>
      <trkpt lat="46.3276" lon="5.1921">
        <ele>221.8</ele>
        <time>2022-06-04T07:27:35Z</time>
      </trkpt>
      <trkpt lat="46.32711" lon="5.19221">
        <ele>222.4</ele>
        <time>2022-06-04T07:27:42Z</time>
      </trkpt>
      <trkpt lat="46.32655" lon="5.19222">
        <ele>223</ele>
        <time>2022-06-04T07:27:50Z</time>
      </trkpt>
      <trkpt lat="46.32648" lon="5.19222">
        <ele>223</ele>
        <time>2022-06-04T07:27:51Z</time>
      </trkpt>
      <trkpt lat="46.32593" lon="5.19218">
        <ele>223.6</ele>
        <time>2022-06-04T07:27:59Z</time>
      </trkpt>
      <trkpt lat="46.32572" lon="5.19218">
        <ele>223.8</ele>
        <time>2022-06-04T07:28:02Z</time>
      </trkpt>
      <trkpt lat="46.32515" lon="5.19216">
        <ele>223.8</ele>
        <time>2022-06-04T07:28:10Z</time>
      </trkpt>
      <trkpt lat="46.32457" lon="5.19217">
        <ele>223.2</ele>
        <time>2022-06-04T07:28:18Z</time>
      </trkpt>
      <trkpt lat="46.32448" lon="5.19218">
        <ele>223.2</ele>
        <time>2022-06-04T07:28:19Z</time>
      </trkpt>
      <trkpt lat="46.32403" lon="5.19227">
        <ele>222.6</ele>
        <time>2022-06-04T07:28:25Z</time>
      </trkpt>
      <trkpt lat="46.3235" lon="5.19252">
        <ele>222</ele>
        <time>2022-06-04T07:28:32Z</time>
      </trkpt>
      <trkpt lat="46.32343" lon="5.19255">
        <ele>222</ele>
        <time>2022-06-04T07:28:33Z</time>
      </trkpt>
      <trkpt lat="46.32297" lon="5.19284">
        <ele>222.2</ele>
        <time>2022-06-04T07:28:40Z</time>
      </trkpt>
      <trkpt lat="46.32254" lon="5.19316">
        <ele>222.4</ele>
        <time>2022-06-04T07:28:46Z</time>
      </trkpt>
      <trkpt lat="46.32206" lon="5.19342">
        <ele>222.8</ele>
        <time>2022-06-04T07:28:53Z</time>
      </trkpt>
      <trkpt lat="46.32162" lon="5.19369">
        <ele>223.2</ele>
        <time>2022-06-04T07:29:00Z</time>
      </trkpt>
      <trkpt lat="46.32157" lon="5.19371">
        <ele>223.2</ele>
        <time>2022-06-04T07:29:01Z</time>
      </trkpt>
      <trkpt lat="46.32111" lon="5.1939">
        <ele>224.2</ele>
        <time>2022-06-04T07:29:08Z</time>
      </trkpt>
      <trkpt lat="46.32087" lon="5.19396">
        <ele>224.4</ele>
        <time>2022-06-04T07:29:12Z</time>
      </trkpt>
      <trkpt lat="46.3204" lon="5.19409">
        <ele>224.8</ele>
        <time>2022-06-04T07:29:19Z</time>
      </trkpt>
      <trkpt lat="46.32006" lon="5.19422">
        <ele>225</ele>
        <time>2022-06-04T07:29:24Z</time>
      </trkpt>
      <trkpt lat="46.31999" lon="5.19426">
        <ele>225</ele>
        <time>2022-06-04T07:29:25Z</time>
      </trkpt>
      <trkpt lat="46.31956" lon="5.19457">
        <ele>224.6</ele>
        <time>2022-06-04T07:29:32Z</time>
      </trkpt>
      <trkpt lat="46.31919" lon="5.19474">
        <ele>224.4</ele>
        <time>2022-06-04T07:29:38Z</time>
      </trkpt>
      <trkpt lat="46.31865" lon="5.19481">
        <ele>225</ele>
        <time>2022-06-04T07:29:46Z</time>
      </trkpt>
      <trkpt lat="46.31811" lon="5.19479">
        <ele>225.2</ele>
        <time>2022-06-04T07:29:54Z</time>
      </trkpt>
      <trkpt lat="46.31761" lon="5.19479">
        <ele>225</ele>
        <time>2022-06-04T07:30:01Z</time>
      </trkpt>
      <trkpt lat="46.31749" lon="5.19486">
        <ele>224.8</ele>
        <time>2022-06-04T07:30:03Z</time>
      </trkpt>
      <trkpt lat="46.31744" lon="5.19492">
        <ele>224.8</ele>
        <time>2022-06-04T07:30:04Z</time>
      </trkpt>
      <trkpt lat="46.31741" lon="5.195">
        <ele>224.6</ele>
        <time>2022-06-04T07:30:05Z</time>
      </trkpt>
      <trkpt lat="46.31737" lon="5.1952">
        <ele>224.6</ele>
        <time>2022-06-04T07:30:07Z</time>
      </trkpt>
      <trkpt lat="46.31735" lon="5.19572">
        <ele>224.6</ele>
        <time>2022-06-04T07:30:12Z</time>
      </trkpt>
      <trkpt lat="46.31733" lon="5.19582">
        <ele>224.6</ele>
        <time>2022-06-04T07:30:13Z</time>
      </trkpt>
      <trkpt lat="46.31728" lon="5.196">
        <ele>224.6</ele>
        <time>2022-06-04T07:30:15Z</time>
      </trkpt>
      <trkpt lat="46.31719" lon="5.19615">
        <ele>224.8</ele>
        <time>2022-06-04T07:30:17Z</time>
      </trkpt>
      <trkpt lat="46.31713" lon="5.1962">
        <ele>224.8</ele>
        <time>2022-06-04T07:30:18Z</time>
      </trkpt>
      <trkpt lat="46.31707" lon="5.19624">
        <ele>224.8</ele>
        <time>2022-06-04T07:30:19Z</time>
      </trkpt>
      <trkpt lat="46.31693" lon="5.19626">
        <ele>225</ele>
        <time>2022-06-04T07:30:21Z</time>
      </trkpt>
      <trkpt lat="46.31639" lon="5.19629">
        <ele>224.4</ele>
        <time>2022-06-04T07:30:28Z</time>
      </trkpt>
      <trkpt lat="46.31585" lon="5.1964">
        <ele>224.2</ele>
        <time>2022-06-04T07:30:35Z</time>
      </trkpt>
      <trkpt lat="46.3157" lon="5.19642">
        <ele>224.2</ele>
        <time>2022-06-04T07:30:37Z</time>
      </trkpt>
      <trkpt lat="46.31514" lon="5.19647">
        <ele>224.6</ele>
        <time>2022-06-04T07:30:45Z</time>
      </trkpt>
      <trkpt lat="46.31472" lon="5.19655">
        <ele>225.2</ele>
        <time>2022-06-04T07:30:51Z</time>
      </trkpt>
      <trkpt lat="46.31466" lon="5.19657">
        <ele>225.4</ele>
        <time>2022-06-04T07:30:52Z</time>
      </trkpt>
      <trkpt lat="46.31413" lon="5.19674">
        <ele>226.2</ele>
        <time>2022-06-04T07:31:00Z</time>
      </trkpt>
      <trkpt lat="46.31395" lon="5.19679">
        <ele>226.4</ele>
        <time>2022-06-04T07:31:03Z</time>
      </trkpt>
      <trkpt lat="46.31358" lon="5.19688">
        <ele>227.2</ele>
        <time>2022-06-04T07:31:09Z</time>
      </trkpt>
      <trkpt lat="46.31326" lon="5.19696">
        <ele>227.4</ele>
        <time>2022-06-04T07:31:14Z</time>
      </trkpt>
      <trkpt lat="46.31307" lon="5.19697">
        <ele>227.6</ele>
        <time>2022-06-04T07:31:17Z</time>
      </trkpt>
      <trkpt lat="46.31288" lon="5.19698">
        <ele>227.8</ele>
        <time>2022-06-04T07:31:20Z</time>
      </trkpt>
      <trkpt lat="46.31269" lon="5.19696">
        <ele>228</ele>
        <time>2022-06-04T07:31:23Z</time>
      </trkpt>
      <trkpt lat="46.3123" lon="5.19687">
        <ele>228</ele>
        <time>2022-06-04T07:31:29Z</time>
      </trkpt>
      <trkpt lat="46.31222" lon="5.19685">
        <ele>228</ele>
        <time>2022-06-04T07:31:30Z</time>
      </trkpt>
      <trkpt lat="46.31209" lon="5.19684">
        <ele>228</ele>
        <time>2022-06-04T07:31:32Z</time>
      </trkpt>
      <trkpt lat="46.31202" lon="5.19684">
        <ele>228</ele>
        <time>2022-06-04T07:31:33Z</time>
      </trkpt>
      <trkpt lat="46.31187" lon="5.19689">
        <ele>227.8</ele>
        <time>2022-06-04T07:31:35Z</time>
      </trkpt>
      <trkpt lat="46.31166" lon="5.197">
        <ele>227.8</ele>
        <time>2022-06-04T07:31:38Z</time>
      </trkpt>
      <trkpt lat="46.31116" lon="5.19736">
        <ele>227.4</ele>
        <time>2022-06-04T07:31:46Z</time>
      </trkpt>
      <trkpt lat="46.31109" lon="5.19743">
        <ele>227.4</ele>
        <time>2022-06-04T07:31:47Z</time>
      </trkpt>
      <trkpt lat="46.31098" lon="5.19751">
        <ele>227.4</ele>
        <time>2022-06-04T07:31:49Z</time>
      </trkpt>
      <trkpt lat="46.31085" lon="5.19755">
        <ele>227.4</ele>
        <time>2022-06-04T07:31:51Z</time>
      </trkpt>
      <trkpt lat="46.31039" lon="5.19767">
        <ele>227.4</ele>
        <time>2022-06-04T07:31:58Z</time>
      </trkpt>
      <trkpt lat="46.31033" lon="5.1977">
        <ele>227.4</ele>
        <time>2022-06-04T07:31:59Z</time>
      </trkpt>
      <trkpt lat="46.31" lon="5.19786">
        <ele>228</ele>
        <time>2022-06-04T07:32:04Z</time>
      </trkpt>
      <trkpt lat="46.30953" lon="5.19802">
        <ele>228.4</ele>
        <time>2022-06-04T07:32:11Z</time>
      </trkpt>
      <trkpt lat="46.30926" lon="5.19808">
        <ele>228.6</ele>
        <time>2022-06-04T07:32:15Z</time>
      </trkpt>
      <trkpt lat="46.309" lon="5.19814">
        <ele>228.6</ele>
        <time>2022-06-04T07:32:19Z</time>
      </trkpt>
      <trkpt lat="46.3088" lon="5.19819">
        <ele>228.8</ele>
        <time>2022-06-04T07:32:22Z</time>
      </trkpt>
      <trkpt lat="46.3084" lon="5.19827">
        <ele>229.2</ele>
        <time>2022-06-04T07:32:28Z</time>
      </trkpt>
      <trkpt lat="46.30814" lon="5.19833">
        <ele>229.8</ele>
        <time>2022-06-04T07:32:32Z</time>
      </trkpt>
      <trkpt lat="46.30794" lon="5.19837">
        <ele>229.6</ele>
        <time>2022-06-04T07:32:35Z</time>
      </trkpt>
      <trkpt lat="46.30753" lon="5.19848">
        <ele>230</ele>
        <time>2022-06-04T07:32:41Z</time>
      </trkpt>
      <trkpt lat="46.30715" lon="5.19865">
        <ele>229.8</ele>
        <time>2022-06-04T07:32:47Z</time>
      </trkpt>
      <trkpt lat="46.30667" lon="5.19889">
        <ele>229.2</ele>
        <time>2022-06-04T07:32:54Z</time>
      </trkpt>
      <trkpt lat="46.30622" lon="5.19898">
        <ele>229</ele>
        <time>2022-06-04T07:33:00Z</time>
      </trkpt>
      <trkpt lat="46.30592" lon="5.19898">
        <ele>228.4</ele>
        <time>2022-06-04T07:33:04Z</time>
      </trkpt>
      <trkpt lat="46.30534" lon="5.19898">
        <ele>228.2</ele>
        <time>2022-06-04T07:33:11Z</time>
      </trkpt>
      <trkpt lat="46.3048" lon="5.19892">
        <ele>227.8</ele>
        <time>2022-06-04T07:33:18Z</time>
      </trkpt>
      <trkpt lat="46.30472" lon="5.1989">
        <ele>227.8</ele>
        <time>2022-06-04T07:33:19Z</time>
      </trkpt>
      <trkpt lat="46.30433" lon="5.19882">
        <ele>227.6</ele>
        <time>2022-06-04T07:33:24Z</time>
      </trkpt>
      <trkpt lat="46.30377" lon="5.19871">
        <ele>227.8</ele>
        <time>2022-06-04T07:33:31Z</time>
      </trkpt>
      <trkpt lat="46.30369" lon="5.19869">
        <ele>227.8</ele>
        <time>2022-06-04T07:33:32Z</time>
      </trkpt>
      <trkpt lat="46.30309" lon="5.19857">
        <ele>227.8</ele>
        <time>2022-06-04T07:33:40Z</time>
      </trkpt>
      <trkpt lat="46.30255" lon="5.19846">
        <ele>227.6</ele>
        <time>2022-06-04T07:33:47Z</time>
      </trkpt>
      <trkpt lat="46.30225" lon="5.19843">
        <ele>227.4</ele>
        <time>2022-06-04T07:33:51Z</time>
      </trkpt>
      <trkpt lat="46.30174" lon="5.19843">
        <ele>227.6</ele>
        <time>2022-06-04T07:33:58Z</time>
      </trkpt>
      <trkpt lat="46.30129" lon="5.19834">
        <ele>227.8</ele>
        <time>2022-06-04T07:34:04Z</time>
      </trkpt>
      <trkpt lat="46.30072" lon="5.19812">
        <ele>227</ele>
        <time>2022-06-04T07:34:12Z</time>
      </trkpt>
      <trkpt lat="46.30019" lon="5.19797">
        <ele>227.2</ele>
        <time>2022-06-04T07:34:19Z</time>
      </trkpt>
      <trkpt lat="46.29958" lon="5.19787">
        <ele>227</ele>
        <time>2022-06-04T07:34:27Z</time>
      </trkpt>
      <trkpt lat="46.2991" lon="5.19786">
        <ele>226.8</ele>
        <time>2022-06-04T07:34:33Z</time>
      </trkpt>
      <trkpt lat="46.29894" lon="5.19788">
        <ele>226.6</ele>
        <time>2022-06-04T07:34:35Z</time>
      </trkpt>
      <trkpt lat="46.29853" lon="5.19788">
        <ele>226.2</ele>
        <time>2022-06-04T07:34:40Z</time>
      </trkpt>
      <trkpt lat="46.29798" lon="5.19792">
        <ele>225.6</ele>
        <time>2022-06-04T07:34:47Z</time>
      </trkpt>
      <trkpt lat="46.2979" lon="5.19793">
        <ele>225.6</ele>
        <time>2022-06-04T07:34:48Z</time>
      </trkpt>
      <trkpt lat="46.29729" lon="5.19806">
        <ele>224.6</ele>
        <time>2022-06-04T07:34:55Z</time>
      </trkpt>
      <trkpt lat="46.29697" lon="5.19828">
        <ele>223.6</ele>
        <time>2022-06-04T07:34:59Z</time>
      </trkpt>
      <trkpt lat="46.2969" lon="5.19835">
        <ele>223.4</ele>
        <time>2022-06-04T07:35:00Z</time>
      </trkpt>
      <trkpt lat="46.29659" lon="5.19867">
        <ele>222.2</ele>
        <time>2022-06-04T07:35:04Z</time>
      </trkpt>
      <trkpt lat="46.29651" lon="5.19875">
        <ele>221.8</ele>
        <time>2022-06-04T07:35:05Z</time>
      </trkpt>
      <trkpt lat="46.29625" lon="5.19898">
        <ele>221.2</ele>
        <time>2022-06-04T07:35:08Z</time>
      </trkpt>
      <trkpt lat="46.29614" lon="5.19907">
        <ele>220.4</ele>
        <time>2022-06-04T07:35:09Z</time>
      </trkpt>
      <trkpt lat="46.29604" lon="5.19912">
        <ele>220</ele>
        <time>2022-06-04T07:35:10Z</time>
      </trkpt>
      <trkpt lat="46.29583" lon="5.19919">
        <ele>218.4</ele>
        <time>2022-06-04T07:35:12Z</time>
      </trkpt>
      <trkpt lat="46.29564" lon="5.19919">
        <ele>217.6</ele>
        <time>2022-06-04T07:35:14Z</time>
      </trkpt>
      <trkpt lat="46.29553" lon="5.19917">
        <ele>217.2</ele>
        <time>2022-06-04T07:35:15Z</time>
      </trkpt>
      <trkpt lat="46.29523" lon="5.19912">
        <ele>216</ele>
        <time>2022-06-04T07:35:18Z</time>
      </trkpt>
      <trkpt lat="46.29494" lon="5.1991">
        <ele>215.2</ele>
        <time>2022-06-04T07:35:21Z</time>
      </trkpt>
      <trkpt lat="46.29476" lon="5.1991">
        <ele>215</ele>
        <time>2022-06-04T07:35:23Z</time>
      </trkpt>
      <trkpt lat="46.2945" lon="5.19908">
        <ele>214.8</ele>
        <time>2022-06-04T07:35:26Z</time>
      </trkpt>
      <trkpt lat="46.29421" lon="5.19906">
        <ele>216.2</ele>
        <time>2022-06-04T07:35:30Z</time>
      </trkpt>
      <trkpt lat="46.29415" lon="5.19906">
        <ele>216.2</ele>
        <time>2022-06-04T07:35:31Z</time>
      </trkpt>
      <trkpt lat="46.29409" lon="5.19906">
        <ele>216.6</ele>
        <time>2022-06-04T07:35:32Z</time>
      </trkpt>
      <trkpt lat="46.29397" lon="5.19906">
        <ele>217.2</ele>
        <time>2022-06-04T07:35:34Z</time>
      </trkpt>
      <trkpt lat="46.29392" lon="5.19906">
        <ele>217.4</ele>
        <time>2022-06-04T07:35:35Z</time>
      </trkpt>
      <trkpt lat="46.29376" lon="5.19904">
        <ele>218.2</ele>
        <time>2022-06-04T07:35:38Z</time>
      </trkpt>
      <trkpt lat="46.29371" lon="5.19904">
        <ele>218.8</ele>
        <time>2022-06-04T07:35:39Z</time>
      </trkpt>
      <trkpt lat="46.29358" lon="5.19903">
        <ele>220</ele>
        <time>2022-06-04T07:35:42Z</time>
      </trkpt>
      <trkpt lat="46.29349" lon="5.19902">
        <ele>221.2</ele>
        <time>2022-06-04T07:35:44Z</time>
      </trkpt>
      <trkpt lat="46.29341" lon="5.19901">
        <ele>222</ele>
        <time>2022-06-04T07:35:46Z</time>
      </trkpt>
      <trkpt lat="46.29337" lon="5.199">
        <ele>222.2</ele>
        <time>2022-06-04T07:35:47Z</time>
      </trkpt>
      <trkpt lat="46.29333" lon="5.19899">
        <ele>222.6</ele>
        <time>2022-06-04T07:35:48Z</time>
      </trkpt>
      <trkpt lat="46.29328" lon="5.19896">
        <ele>223.2</ele>
        <time>2022-06-04T07:35:49Z</time>
      </trkpt>
      <trkpt lat="46.29324" lon="5.19893">
        <ele>223.6</ele>
        <time>2022-06-04T07:35:50Z</time>
      </trkpt>
      <trkpt lat="46.2932" lon="5.1989">
        <ele>224</ele>
        <time>2022-06-04T07:35:51Z</time>
      </trkpt>
      <trkpt lat="46.29317" lon="5.19886">
        <ele>224</ele>
        <time>2022-06-04T07:35:52Z</time>
      </trkpt>
      <trkpt lat="46.29314" lon="5.1988">
        <ele>224.4</ele>
        <time>2022-06-04T07:35:53Z</time>
      </trkpt>
      <trkpt lat="46.29304" lon="5.19863">
        <ele>225</ele>
        <time>2022-06-04T07:35:56Z</time>
      </trkpt>
      <trkpt lat="46.29297" lon="5.19853">
        <ele>225.4</ele>
        <time>2022-06-04T07:35:58Z</time>
      </trkpt>
      <trkpt lat="46.29288" lon="5.19844">
        <ele>225.8</ele>
        <time>2022-06-04T07:36:00Z</time>
      </trkpt>
      <trkpt lat="46.29284" lon="5.19842">
        <ele>225.8</ele>
        <time>2022-06-04T07:36:01Z</time>
      </trkpt>
      <trkpt lat="46.29275" lon="5.19837">
        <ele>226.2</ele>
        <time>2022-06-04T07:36:03Z</time>
      </trkpt>
      <trkpt lat="46.29264" lon="5.19835">
        <ele>226.6</ele>
        <time>2022-06-04T07:36:05Z</time>
      </trkpt>
      <trkpt lat="46.29259" lon="5.19835">
        <ele>226.6</ele>
        <time>2022-06-04T07:36:06Z</time>
      </trkpt>
      <trkpt lat="46.29224" lon="5.19836">
        <ele>227.2</ele>
        <time>2022-06-04T07:36:13Z</time>
      </trkpt>
      <trkpt lat="46.2919" lon="5.19847">
        <ele>227.6</ele>
        <time>2022-06-04T07:36:19Z</time>
      </trkpt>
      <trkpt lat="46.29167" lon="5.19856">
        <ele>227.8</ele>
        <time>2022-06-04T07:36:23Z</time>
      </trkpt>
      <trkpt lat="46.29149" lon="5.19863">
        <ele>228.2</ele>
        <time>2022-06-04T07:36:26Z</time>
      </trkpt>
      <trkpt lat="46.29108" lon="5.19869">
        <ele>228.6</ele>
        <time>2022-06-04T07:36:33Z</time>
      </trkpt>
      <trkpt lat="46.29096" lon="5.19868">
        <ele>229</ele>
        <time>2022-06-04T07:36:35Z</time>
      </trkpt>
      <trkpt lat="46.29061" lon="5.19864">
        <ele>229.4</ele>
        <time>2022-06-04T07:36:41Z</time>
      </trkpt>
      <trkpt lat="46.29016" lon="5.19854">
        <ele>229.4</ele>
        <time>2022-06-04T07:36:48Z</time>
      </trkpt>
      <trkpt lat="46.28961" lon="5.19839">
        <ele>229.4</ele>
        <time>2022-06-04T07:36:56Z</time>
      </trkpt>
      <trkpt lat="46.28947" lon="5.19834">
        <ele>229.6</ele>
        <time>2022-06-04T07:36:58Z</time>
      </trkpt>
      <trkpt lat="46.28906" lon="5.19826">
        <ele>229.4</ele>
        <time>2022-06-04T07:37:04Z</time>
      </trkpt>
      <trkpt lat="46.28899" lon="5.19827">
        <ele>229.4</ele>
        <time>2022-06-04T07:37:05Z</time>
      </trkpt>
      <trkpt lat="46.28886" lon="5.1983">
        <ele>229.6</ele>
        <time>2022-06-04T07:37:07Z</time>
      </trkpt>
      <trkpt lat="46.28865" lon="5.19838">
        <ele>229.6</ele>
        <time>2022-06-04T07:37:10Z</time>
      </trkpt>
      <trkpt lat="46.28834" lon="5.19857">
        <ele>230</ele>
        <time>2022-06-04T07:37:15Z</time>
      </trkpt>
      <trkpt lat="46.28822" lon="5.19867">
        <ele>230.2</ele>
        <time>2022-06-04T07:37:17Z</time>
      </trkpt>
      <trkpt lat="46.28812" lon="5.19878">
        <ele>230.2</ele>
        <time>2022-06-04T07:37:19Z</time>
      </trkpt>
      <trkpt lat="46.28796" lon="5.19899">
        <ele>230.4</ele>
        <time>2022-06-04T07:37:22Z</time>
      </trkpt>
      <trkpt lat="46.28762" lon="5.19934">
        <ele>230.6</ele>
        <time>2022-06-04T07:37:28Z</time>
      </trkpt>
      <trkpt lat="46.2875" lon="5.19942">
        <ele>230.6</ele>
        <time>2022-06-04T07:37:30Z</time>
      </trkpt>
      <trkpt lat="46.28729" lon="5.19948">
        <ele>230.6</ele>
        <time>2022-06-04T07:37:33Z</time>
      </trkpt>
      <trkpt lat="46.28676" lon="5.19968">
        <ele>230.8</ele>
        <time>2022-06-04T07:37:41Z</time>
      </trkpt>
      <trkpt lat="46.28655" lon="5.19972">
        <ele>231.2</ele>
        <time>2022-06-04T07:37:44Z</time>
      </trkpt>
      <trkpt lat="46.28635" lon="5.19974">
        <ele>231</ele>
        <time>2022-06-04T07:37:47Z</time>
      </trkpt>
      <trkpt lat="46.28577" lon="5.19979">
        <ele>231.2</ele>
        <time>2022-06-04T07:37:55Z</time>
      </trkpt>
      <trkpt lat="46.28571" lon="5.1998">
        <ele>231.2</ele>
        <time>2022-06-04T07:37:56Z</time>
      </trkpt>
      <trkpt lat="46.28539" lon="5.19982">
        <ele>231.4</ele>
        <time>2022-06-04T07:38:01Z</time>
      </trkpt>
      <trkpt lat="46.28534" lon="5.19982">
        <ele>231.6</ele>
        <time>2022-06-04T07:38:02Z</time>
      </trkpt>
      <trkpt lat="46.28524" lon="5.1998">
        <ele>231.6</ele>
        <time>2022-06-04T07:38:04Z</time>
      </trkpt>
      <trkpt lat="46.28507" lon="5.1998">
        <ele>231.8</ele>
        <time>2022-06-04T07:38:07Z</time>
      </trkpt>
      <trkpt lat="46.28467" lon="5.19982">
        <ele>231.8</ele>
        <time>2022-06-04T07:38:13Z</time>
      </trkpt>
      <trkpt lat="46.28446" lon="5.19983">
        <ele>231.6</ele>
        <time>2022-06-04T07:38:16Z</time>
      </trkpt>
      <trkpt lat="46.28425" lon="5.19987">
        <ele>231.8</ele>
        <time>2022-06-04T07:38:19Z</time>
      </trkpt>
      <trkpt lat="46.28403" lon="5.1999">
        <ele>232.2</ele>
        <time>2022-06-04T07:38:22Z</time>
      </trkpt>
      <trkpt lat="46.28376" lon="5.19996">
        <ele>232.6</ele>
        <time>2022-06-04T07:38:26Z</time>
      </trkpt>
      <trkpt lat="46.2837" lon="5.19998">
        <ele>232.6</ele>
        <time>2022-06-04T07:38:27Z</time>
      </trkpt>
      <trkpt lat="46.2835" lon="5.20012">
        <ele>232.6</ele>
        <time>2022-06-04T07:38:30Z</time>
      </trkpt>
      <trkpt lat="46.28316" lon="5.20052">
        <ele>232.4</ele>
        <time>2022-06-04T07:38:36Z</time>
      </trkpt>
      <trkpt lat="46.28287" lon="5.20087">
        <ele>232</ele>
        <time>2022-06-04T07:38:41Z</time>
      </trkpt>
      <trkpt lat="46.28282" lon="5.20091">
        <ele>231.8</ele>
        <time>2022-06-04T07:38:42Z</time>
      </trkpt>
      <trkpt lat="46.28275" lon="5.20095">
        <ele>231.6</ele>
        <time>2022-06-04T07:38:43Z</time>
      </trkpt>
      <trkpt lat="46.2826" lon="5.20095">
        <ele>231.6</ele>
        <time>2022-06-04T07:38:45Z</time>
      </trkpt>
      <trkpt lat="46.28246" lon="5.20089">
        <ele>231.6</ele>
        <time>2022-06-04T07:38:47Z</time>
      </trkpt>
      <trkpt lat="46.28233" lon="5.2008">
        <ele>231.4</ele>
        <time>2022-06-04T07:38:49Z</time>
      </trkpt>
      <trkpt lat="46.28201" lon="5.20059">
        <ele>231.4</ele>
        <time>2022-06-04T07:38:54Z</time>
      </trkpt>
      <trkpt lat="46.28187" lon="5.20053">
        <ele>231.2</ele>
        <time>2022-06-04T07:38:56Z</time>
      </trkpt>
      <trkpt lat="46.28173" lon="5.20051">
        <ele>231.2</ele>
        <time>2022-06-04T07:38:58Z</time>
      </trkpt>
      <trkpt lat="46.2816" lon="5.20052">
        <ele>231</ele>
        <time>2022-06-04T07:39:00Z</time>
      </trkpt>
      <trkpt lat="46.28113" lon="5.20067">
        <ele>231.6</ele>
        <time>2022-06-04T07:39:07Z</time>
      </trkpt>
      <trkpt lat="46.28071" lon="5.20077">
        <ele>232.2</ele>
        <time>2022-06-04T07:39:13Z</time>
      </trkpt>
      <trkpt lat="46.28058" lon="5.20079">
        <ele>232.2</ele>
        <time>2022-06-04T07:39:15Z</time>
      </trkpt>
      <trkpt lat="46.28023" lon="5.20091">
        <ele>232.2</ele>
        <time>2022-06-04T07:39:20Z</time>
      </trkpt>
      <trkpt lat="46.27972" lon="5.2012">
        <ele>231.8</ele>
        <time>2022-06-04T07:39:27Z</time>
      </trkpt>
      <trkpt lat="46.27948" lon="5.20132">
        <ele>231.6</ele>
        <time>2022-06-04T07:39:30Z</time>
      </trkpt>
      <trkpt lat="46.27932" lon="5.2014">
        <ele>231</ele>
        <time>2022-06-04T07:39:32Z</time>
      </trkpt>
      <trkpt lat="46.27918" lon="5.20151">
        <ele>230.8</ele>
        <time>2022-06-04T07:39:34Z</time>
      </trkpt>
      <trkpt lat="46.27883" lon="5.2019">
        <ele>230.8</ele>
        <time>2022-06-04T07:39:40Z</time>
      </trkpt>
      <trkpt lat="46.27836" lon="5.20245">
        <ele>231</ele>
        <time>2022-06-04T07:39:48Z</time>
      </trkpt>
      <trkpt lat="46.27794" lon="5.20296">
        <ele>230.2</ele>
        <time>2022-06-04T07:39:55Z</time>
      </trkpt>
      <trkpt lat="46.27788" lon="5.20303">
        <ele>230.2</ele>
        <time>2022-06-04T07:39:56Z</time>
      </trkpt>
      <trkpt lat="46.27782" lon="5.20311">
        <ele>230</ele>
        <time>2022-06-04T07:39:57Z</time>
      </trkpt>
      <trkpt lat="46.27764" lon="5.20331">
        <ele>230</ele>
        <time>2022-06-04T07:40:00Z</time>
      </trkpt>
      <trkpt lat="46.27752" lon="5.20339">
        <ele>230.2</ele>
        <time>2022-06-04T07:40:02Z</time>
      </trkpt>
      <trkpt lat="46.2771" lon="5.20356">
        <ele>231.2</ele>
        <time>2022-06-04T07:40:08Z</time>
      </trkpt>
      <trkpt lat="46.27654" lon="5.20376">
        <ele>232</ele>
        <time>2022-06-04T07:40:16Z</time>
      </trkpt>
      <trkpt lat="46.27647" lon="5.20378">
        <ele>232</ele>
        <time>2022-06-04T07:40:17Z</time>
      </trkpt>
      <trkpt lat="46.27587" lon="5.20387">
        <ele>231.6</ele>
        <time>2022-06-04T07:40:25Z</time>
      </trkpt>
      <trkpt lat="46.27572" lon="5.20394">
        <ele>231.4</ele>
        <time>2022-06-04T07:40:27Z</time>
      </trkpt>
      <trkpt lat="46.27558" lon="5.20404">
        <ele>231.4</ele>
        <time>2022-06-04T07:40:29Z</time>
      </trkpt>
      <trkpt lat="46.27512" lon="5.20446">
        <ele>230.8</ele>
        <time>2022-06-04T07:40:36Z</time>
      </trkpt>
      <trkpt lat="46.27506" lon="5.20452">
        <ele>230.8</ele>
        <time>2022-06-04T07:40:37Z</time>
      </trkpt>
      <trkpt lat="46.27466" lon="5.20483">
        <ele>230.8</ele>
        <time>2022-06-04T07:40:43Z</time>
      </trkpt>
      <trkpt lat="46.2745" lon="5.20486">
        <ele>230.6</ele>
        <time>2022-06-04T07:40:45Z</time>
      </trkpt>
      <trkpt lat="46.27434" lon="5.20484">
        <ele>230.6</ele>
        <time>2022-06-04T07:40:47Z</time>
      </trkpt>
      <trkpt lat="46.27427" lon="5.20482">
        <ele>230.4</ele>
        <time>2022-06-04T07:40:48Z</time>
      </trkpt>
      <trkpt lat="46.27411" lon="5.20474">
        <ele>230.2</ele>
        <time>2022-06-04T07:40:50Z</time>
      </trkpt>
      <trkpt lat="46.27404" lon="5.20469">
        <ele>230.2</ele>
        <time>2022-06-04T07:40:51Z</time>
      </trkpt>
      <trkpt lat="46.27382" lon="5.2045">
        <ele>229.8</ele>
        <time>2022-06-04T07:40:54Z</time>
      </trkpt>
      <trkpt lat="46.2736" lon="5.20439">
        <ele>228.8</ele>
        <time>2022-06-04T07:40:57Z</time>
      </trkpt>
      <trkpt lat="46.27335" lon="5.20429">
        <ele>228.2</ele>
        <time>2022-06-04T07:41:00Z</time>
      </trkpt>
      <trkpt lat="46.2732" lon="5.20427">
        <ele>227.8</ele>
        <time>2022-06-04T07:41:02Z</time>
      </trkpt>
      <trkpt lat="46.27305" lon="5.20437">
        <ele>227.4</ele>
        <time>2022-06-04T07:41:04Z</time>
      </trkpt>
      <trkpt lat="46.27301" lon="5.20445">
        <ele>227.2</ele>
        <time>2022-06-04T07:41:05Z</time>
      </trkpt>
      <trkpt lat="46.27298" lon="5.20455">
        <ele>227</ele>
        <time>2022-06-04T07:41:06Z</time>
      </trkpt>
      <trkpt lat="46.27295" lon="5.20478">
        <ele>227</ele>
        <time>2022-06-04T07:41:08Z</time>
      </trkpt>
      <trkpt lat="46.27294" lon="5.20498">
        <ele>226.8</ele>
        <time>2022-06-04T07:41:10Z</time>
      </trkpt>
      <trkpt lat="46.27293" lon="5.20522">
        <ele>226.6</ele>
        <time>2022-06-04T07:41:12Z</time>
      </trkpt>
      <trkpt lat="46.27291" lon="5.20533">
        <ele>226.6</ele>
        <time>2022-06-04T07:41:13Z</time>
      </trkpt>
      <trkpt lat="46.27287" lon="5.20545">
        <ele>226.6</ele>
        <time>2022-06-04T07:41:14Z</time>
      </trkpt>
      <trkpt lat="46.27276" lon="5.20565">
        <ele>226.4</ele>
        <time>2022-06-04T07:41:16Z</time>
      </trkpt>
      <trkpt lat="46.27262" lon="5.20585">
        <ele>225.4</ele>
        <time>2022-06-04T07:41:18Z</time>
      </trkpt>
      <trkpt lat="46.27248" lon="5.20606">
        <ele>224.4</ele>
        <time>2022-06-04T07:41:20Z</time>
      </trkpt>
      <trkpt lat="46.27234" lon="5.20628">
        <ele>223.4</ele>
        <time>2022-06-04T07:41:22Z</time>
      </trkpt>
      <trkpt lat="46.27222" lon="5.20653">
        <ele>222</ele>
        <time>2022-06-04T07:41:24Z</time>
      </trkpt>
      <trkpt lat="46.27205" lon="5.20691">
        <ele>220.4</ele>
        <time>2022-06-04T07:41:27Z</time>
      </trkpt>
      <trkpt lat="46.27189" lon="5.20731">
        <ele>219.2</ele>
        <time>2022-06-04T07:41:30Z</time>
      </trkpt>
      <trkpt lat="46.27167" lon="5.20774">
        <ele>218.6</ele>
        <time>2022-06-04T07:41:34Z</time>
      </trkpt>
      <trkpt lat="46.27159" lon="5.20786">
        <ele>218.4</ele>
        <time>2022-06-04T07:41:35Z</time>
      </trkpt>
      <trkpt lat="46.27137" lon="5.2081">
        <ele>218.4</ele>
        <time>2022-06-04T07:41:38Z</time>
      </trkpt>
      <trkpt lat="46.27102" lon="5.20842">
        <ele>218.6</ele>
        <time>2022-06-04T07:41:43Z</time>
      </trkpt>
      <trkpt lat="46.27062" lon="5.20883">
        <ele>219.4</ele>
        <time>2022-06-04T07:41:49Z</time>
      </trkpt>
      <trkpt lat="46.27031" lon="5.20924">
        <ele>220.6</ele>
        <time>2022-06-04T07:41:55Z</time>
      </trkpt>
      <trkpt lat="46.27003" lon="5.20962">
        <ele>221.6</ele>
        <time>2022-06-04T07:42:01Z</time>
      </trkpt>
      <trkpt lat="46.26998" lon="5.2097">
        <ele>222.2</ele>
        <time>2022-06-04T07:42:02Z</time>
      </trkpt>
      <trkpt lat="46.26989" lon="5.20981">
        <ele>222.8</ele>
        <time>2022-06-04T07:42:04Z</time>
      </trkpt>
      <trkpt lat="46.26972" lon="5.21003">
        <ele>223.6</ele>
        <time>2022-06-04T07:42:08Z</time>
      </trkpt>
      <trkpt lat="46.26968" lon="5.21008">
        <ele>223.8</ele>
        <time>2022-06-04T07:42:09Z</time>
      </trkpt>
      <trkpt lat="46.26959" lon="5.21022">
        <ele>224.2</ele>
        <time>2022-06-04T07:42:12Z</time>
      </trkpt>
      <trkpt lat="46.26944" lon="5.21042">
        <ele>225</ele>
        <time>2022-06-04T07:42:16Z</time>
      </trkpt>
      <trkpt lat="46.26935" lon="5.21054">
        <ele>225.8</ele>
        <time>2022-06-04T07:42:19Z</time>
      </trkpt>
      <trkpt lat="46.26932" lon="5.21058">
        <ele>226</ele>
        <time>2022-06-04T07:42:20Z</time>
      </trkpt>
      <trkpt lat="46.26921" lon="5.21073">
        <ele>227.4</ele>
        <time>2022-06-04T07:42:23Z</time>
      </trkpt>
      <trkpt lat="46.26907" lon="5.21092">
        <ele>228.2</ele>
        <time>2022-06-04T07:42:27Z</time>
      </trkpt>
      <trkpt lat="46.269" lon="5.21103">
        <ele>228.8</ele>
        <time>2022-06-04T07:42:29Z</time>
      </trkpt>
      <trkpt lat="46.26892" lon="5.21122">
        <ele>229.8</ele>
        <time>2022-06-04T07:42:32Z</time>
      </trkpt>
      <trkpt lat="46.2689" lon="5.21129">
        <ele>230</ele>
        <time>2022-06-04T07:42:33Z</time>
      </trkpt>
      <trkpt lat="46.26884" lon="5.2115">
        <ele>230.8</ele>
        <time>2022-06-04T07:42:36Z</time>
      </trkpt>
      <trkpt lat="46.26883" lon="5.21157">
        <ele>231.2</ele>
        <time>2022-06-04T07:42:37Z</time>
      </trkpt>
      <trkpt lat="46.26878" lon="5.21172">
        <ele>231.6</ele>
        <time>2022-06-04T07:42:39Z</time>
      </trkpt>
      <trkpt lat="46.26871" lon="5.21195">
        <ele>232</ele>
        <time>2022-06-04T07:42:42Z</time>
      </trkpt>
      <trkpt lat="46.26856" lon="5.21254">
        <ele>232.2</ele>
        <time>2022-06-04T07:42:49Z</time>
      </trkpt>
      <trkpt lat="46.26845" lon="5.21296">
        <ele>232.2</ele>
        <time>2022-06-04T07:42:54Z</time>
      </trkpt>
      <trkpt lat="46.26836" lon="5.2132">
        <ele>232.4</ele>
        <time>2022-06-04T07:42:57Z</time>
      </trkpt>
      <trkpt lat="46.2682" lon="5.21368">
        <ele>232.6</ele>
        <time>2022-06-04T07:43:03Z</time>
      </trkpt>
      <trkpt lat="46.26813" lon="5.21414">
        <ele>233.4</ele>
        <time>2022-06-04T07:43:09Z</time>
      </trkpt>
      <trkpt lat="46.26813" lon="5.21421">
        <ele>233.6</ele>
        <time>2022-06-04T07:43:10Z</time>
      </trkpt>
      <trkpt lat="46.2681" lon="5.21436">
        <ele>233.8</ele>
        <time>2022-06-04T07:43:12Z</time>
      </trkpt>
      <trkpt lat="46.26803" lon="5.21443">
        <ele>234</ele>
        <time>2022-06-04T07:43:14Z</time>
      </trkpt>
      <trkpt lat="46.26797" lon="5.21443">
        <ele>234</ele>
        <time>2022-06-04T07:43:15Z</time>
      </trkpt>
      <trkpt lat="46.26779" lon="5.2144">
        <ele>234.4</ele>
        <time>2022-06-04T07:43:18Z</time>
      </trkpt>
      <trkpt lat="46.26729" lon="5.21434">
        <ele>233.8</ele>
        <time>2022-06-04T07:43:25Z</time>
      </trkpt>
      <trkpt lat="46.26674" lon="5.2143">
        <ele>232.4</ele>
        <time>2022-06-04T07:43:32Z</time>
      </trkpt>
      <trkpt lat="46.26657" lon="5.21434">
        <ele>232.4</ele>
        <time>2022-06-04T07:43:34Z</time>
      </trkpt>
      <trkpt lat="46.26615" lon="5.21438">
        <ele>231.2</ele>
        <time>2022-06-04T07:43:39Z</time>
      </trkpt>
      <trkpt lat="46.26574" lon="5.21453">
        <ele>230</ele>
        <time>2022-06-04T07:43:44Z</time>
      </trkpt>
      <trkpt lat="46.2653" lon="5.21481">
        <ele>229.2</ele>
        <time>2022-06-04T07:43:50Z</time>
      </trkpt>
      <trkpt lat="46.26477" lon="5.21513">
        <ele>229.2</ele>
        <time>2022-06-04T07:43:57Z</time>
      </trkpt>
      <trkpt lat="46.26464" lon="5.2152">
        <ele>229.2</ele>
        <time>2022-06-04T07:43:59Z</time>
      </trkpt>
      <trkpt lat="46.26421" lon="5.21548">
        <ele>229.2</ele>
        <time>2022-06-04T07:44:05Z</time>
      </trkpt>
      <trkpt lat="46.26414" lon="5.21554">
        <ele>229.2</ele>
        <time>2022-06-04T07:44:06Z</time>
      </trkpt>
      <trkpt lat="46.26386" lon="5.21592">
        <ele>229.2</ele>
        <time>2022-06-04T07:44:11Z</time>
      </trkpt>
      <trkpt lat="46.2638" lon="5.21598">
        <ele>229.2</ele>
        <time>2022-06-04T07:44:12Z</time>
      </trkpt>
      <trkpt lat="46.26358" lon="5.21614">
        <ele>228.8</ele>
        <time>2022-06-04T07:44:15Z</time>
      </trkpt>
      <trkpt lat="46.26342" lon="5.21623">
        <ele>228.8</ele>
        <time>2022-06-04T07:44:17Z</time>
      </trkpt>
      <trkpt lat="46.26325" lon="5.21629">
        <ele>228.6</ele>
        <time>2022-06-04T07:44:19Z</time>
      </trkpt>
      <trkpt lat="46.26307" lon="5.21631">
        <ele>228.2</ele>
        <time>2022-06-04T07:44:21Z</time>
      </trkpt>
      <trkpt lat="46.26289" lon="5.21628">
        <ele>227.6</ele>
        <time>2022-06-04T07:44:23Z</time>
      </trkpt>
      <trkpt lat="46.26262" lon="5.21616">
        <ele>226.6</ele>
        <time>2022-06-04T07:44:26Z</time>
      </trkpt>
      <trkpt lat="46.26244" lon="5.21605">
        <ele>226</ele>
        <time>2022-06-04T07:44:28Z</time>
      </trkpt>
      <trkpt lat="46.26226" lon="5.21594">
        <ele>225.4</ele>
        <time>2022-06-04T07:44:30Z</time>
      </trkpt>
      <trkpt lat="46.26199" lon="5.21575">
        <ele>224</ele>
        <time>2022-06-04T07:44:33Z</time>
      </trkpt>
      <trkpt lat="46.26181" lon="5.21561">
        <ele>223.4</ele>
        <time>2022-06-04T07:44:35Z</time>
      </trkpt>
      <trkpt lat="46.2617" lon="5.21551">
        <ele>223</ele>
        <time>2022-06-04T07:44:36Z</time>
      </trkpt>
      <trkpt lat="46.26147" lon="5.21524">
        <ele>221.8</ele>
        <time>2022-06-04T07:44:39Z</time>
      </trkpt>
      <trkpt lat="46.26125" lon="5.21493">
        <ele>220.8</ele>
        <time>2022-06-04T07:44:42Z</time>
      </trkpt>
      <trkpt lat="46.26097" lon="5.21459">
        <ele>219.6</ele>
        <time>2022-06-04T07:44:46Z</time>
      </trkpt>
      <trkpt lat="46.26057" lon="5.21433">
        <ele>219.2</ele>
        <time>2022-06-04T07:44:51Z</time>
      </trkpt>
      <trkpt lat="46.2602" lon="5.21408">
        <ele>218.8</ele>
        <time>2022-06-04T07:44:56Z</time>
      </trkpt>
      <trkpt lat="46.25996" lon="5.21376">
        <ele>219.2</ele>
        <time>2022-06-04T07:45:00Z</time>
      </trkpt>
      <trkpt lat="46.25978" lon="5.2134">
        <ele>220.2</ele>
        <time>2022-06-04T07:45:05Z</time>
      </trkpt>
      <trkpt lat="46.25973" lon="5.21327">
        <ele>221</ele>
        <time>2022-06-04T07:45:07Z</time>
      </trkpt>
      <trkpt lat="46.2597" lon="5.21321">
        <ele>221.2</ele>
        <time>2022-06-04T07:45:08Z</time>
      </trkpt>
      <trkpt lat="46.25963" lon="5.2131">
        <ele>222.2</ele>
        <time>2022-06-04T07:45:10Z</time>
      </trkpt>
      <trkpt lat="46.25954" lon="5.21302">
        <ele>222.8</ele>
        <time>2022-06-04T07:45:12Z</time>
      </trkpt>
      <trkpt lat="46.25951" lon="5.213">
        <ele>223.2</ele>
        <time>2022-06-04T07:45:13Z</time>
      </trkpt>
      <trkpt lat="46.25946" lon="5.21298">
        <ele>223.8</ele>
        <time>2022-06-04T07:45:14Z</time>
      </trkpt>
      <trkpt lat="46.25936" lon="5.21296">
        <ele>224.6</ele>
        <time>2022-06-04T07:45:16Z</time>
      </trkpt>
      <trkpt lat="46.25914" lon="5.21296">
        <ele>225.6</ele>
        <time>2022-06-04T07:45:20Z</time>
      </trkpt>
      <trkpt lat="46.25887" lon="5.21296">
        <ele>226.8</ele>
        <time>2022-06-04T07:45:25Z</time>
      </trkpt>
      <trkpt lat="46.25871" lon="5.21299">
        <ele>227.2</ele>
        <time>2022-06-04T07:45:28Z</time>
      </trkpt>
      <trkpt lat="46.25831" lon="5.21303">
        <ele>227.4</ele>
        <time>2022-06-04T07:45:34Z</time>
      </trkpt>
      <trkpt lat="46.25786" lon="5.21307">
        <ele>227.2</ele>
        <time>2022-06-04T07:45:41Z</time>
      </trkpt>
      <trkpt lat="46.25745" lon="5.21322">
        <ele>227.2</ele>
        <time>2022-06-04T07:45:47Z</time>
      </trkpt>
      <trkpt lat="46.25712" lon="5.21349">
        <ele>227.2</ele>
        <time>2022-06-04T07:45:53Z</time>
      </trkpt>
      <trkpt lat="46.25663" lon="5.21388">
        <ele>227</ele>
        <time>2022-06-04T07:46:01Z</time>
      </trkpt>
      <trkpt lat="46.25657" lon="5.21393">
        <ele>227</ele>
        <time>2022-06-04T07:46:02Z</time>
      </trkpt>
      <trkpt lat="46.2562" lon="5.21419">
        <ele>227.2</ele>
        <time>2022-06-04T07:46:09Z</time>
      </trkpt>
      <trkpt lat="46.25605" lon="5.21431">
        <ele>227.4</ele>
        <time>2022-06-04T07:46:12Z</time>
      </trkpt>
      <trkpt lat="46.25591" lon="5.21445">
        <ele>227.6</ele>
        <time>2022-06-04T07:46:15Z</time>
      </trkpt>
      <trkpt lat="46.25582" lon="5.21453">
        <ele>227.6</ele>
        <time>2022-06-04T07:46:17Z</time>
      </trkpt>
      <trkpt lat="46.25565" lon="5.21464">
        <ele>227.8</ele>
        <time>2022-06-04T07:46:20Z</time>
      </trkpt>
      <trkpt lat="46.25527" lon="5.21494">
        <ele>227.6</ele>
        <time>2022-06-04T07:46:27Z</time>
      </trkpt>
      <trkpt lat="46.25509" lon="5.21505">
        <ele>227.8</ele>
        <time>2022-06-04T07:46:30Z</time>
      </trkpt>
      <trkpt lat="46.25492" lon="5.21514">
        <ele>227.8</ele>
        <time>2022-06-04T07:46:33Z</time>
      </trkpt>
      <trkpt lat="46.25453" lon="5.2153">
        <ele>227.8</ele>
        <time>2022-06-04T07:46:40Z</time>
      </trkpt>
      <trkpt lat="46.25442" lon="5.21533">
        <ele>227.8</ele>
        <time>2022-06-04T07:46:42Z</time>
      </trkpt>
      <trkpt lat="46.25428" lon="5.21539">
        <ele>227.8</ele>
        <time>2022-06-04T07:46:45Z</time>
      </trkpt>
      <trkpt lat="46.25413" lon="5.21547">
        <ele>227.8</ele>
        <time>2022-06-04T07:46:48Z</time>
      </trkpt>
      <trkpt lat="46.25402" lon="5.21554">
        <ele>227.8</ele>
        <time>2022-06-04T07:46:50Z</time>
      </trkpt>
      <trkpt lat="46.25389" lon="5.21564">
        <ele>227.8</ele>
        <time>2022-06-04T07:46:55Z</time>
      </trkpt>
      <trkpt lat="46.25386" lon="5.21572">
        <ele>228</ele>
        <time>2022-06-04T07:46:59Z</time>
      </trkpt>
      <trkpt lat="46.25382" lon="5.21573">
        <ele>228</ele>
        <time>2022-06-04T07:47:00Z</time>
      </trkpt>
      <trkpt lat="46.2537" lon="5.21577">
        <ele>228</ele>
        <time>2022-06-04T07:47:05Z</time>
      </trkpt>
      <trkpt lat="46.25368" lon="5.21578">
        <ele>227.8</ele>
        <time>2022-06-04T07:47:10Z</time>
      </trkpt>
      <trkpt lat="46.25366" lon="5.2158">
        <ele>227.2</ele>
        <time>2022-06-04T07:47:28Z</time>
      </trkpt>
      <trkpt lat="46.25364" lon="5.21582">
        <ele>227.2</ele>
        <time>2022-06-04T07:47:29Z</time>
      </trkpt>
      <trkpt lat="46.25361" lon="5.21584">
        <ele>227.2</ele>
        <time>2022-06-04T07:47:30Z</time>
      </trkpt>
      <trkpt lat="46.25344" lon="5.21595">
        <ele>227.4</ele>
        <time>2022-06-04T07:47:34Z</time>
      </trkpt>
      <trkpt lat="46.25331" lon="5.21606">
        <ele>227.6</ele>
        <time>2022-06-04T07:47:39Z</time>
      </trkpt>
      <trkpt lat="46.2533" lon="5.21608">
        <ele>227.6</ele>
        <time>2022-06-04T07:47:40Z</time>
      </trkpt>
      <trkpt lat="46.2533" lon="5.2161">
        <ele>227.6</ele>
        <time>2022-06-04T07:47:41Z</time>
      </trkpt>
      <trkpt lat="46.25338" lon="5.21634">
        <ele>227.6</ele>
        <time>2022-06-04T07:47:46Z</time>
      </trkpt>
      <trkpt lat="46.25349" lon="5.21675">
        <ele>227.6</ele>
        <time>2022-06-04T07:47:52Z</time>
      </trkpt>
      <trkpt lat="46.25362" lon="5.21722">
        <ele>227.2</ele>
        <time>2022-06-04T07:47:57Z</time>
      </trkpt>
      <trkpt lat="46.25366" lon="5.21733">
        <ele>227.2</ele>
        <time>2022-06-04T07:47:58Z</time>
      </trkpt>
      <trkpt lat="46.25376" lon="5.21751">
        <ele>227</ele>
        <time>2022-06-04T07:48:00Z</time>
      </trkpt>
      <trkpt lat="46.2538" lon="5.21757">
        <ele>227</ele>
        <time>2022-06-04T07:48:01Z</time>
      </trkpt>
      <trkpt lat="46.25387" lon="5.21763">
        <ele>227</ele>
        <time>2022-06-04T07:48:02Z</time>
      </trkpt>
      <trkpt lat="46.25402" lon="5.21774">
        <ele>226.6</ele>
        <time>2022-06-04T07:48:04Z</time>
      </trkpt>
      <trkpt lat="46.25408" lon="5.21778">
        <ele>226.6</ele>
        <time>2022-06-04T07:48:05Z</time>
      </trkpt>
      <trkpt lat="46.25437" lon="5.21797">
        <ele>225.4</ele>
        <time>2022-06-04T07:48:09Z</time>
      </trkpt>
      <trkpt lat="46.25458" lon="5.21812">
        <ele>224.8</ele>
        <time>2022-06-04T07:48:12Z</time>
      </trkpt>
      <trkpt lat="46.25464" lon="5.21817">
        <ele>224.4</ele>
        <time>2022-06-04T07:48:13Z</time>
      </trkpt>
      <trkpt lat="46.25513" lon="5.2185">
        <ele>223.4</ele>
        <time>2022-06-04T07:48:20Z</time>
      </trkpt>
      <trkpt lat="46.2552" lon="5.21856">
        <ele>223.4</ele>
        <time>2022-06-04T07:48:21Z</time>
      </trkpt>
      <trkpt lat="46.25538" lon="5.21876">
        <ele>223</ele>
        <time>2022-06-04T07:48:24Z</time>
      </trkpt>
      <trkpt lat="46.25544" lon="5.21886">
        <ele>222.6</ele>
        <time>2022-06-04T07:48:25Z</time>
      </trkpt>
      <trkpt lat="46.25553" lon="5.21902">
        <ele>222.4</ele>
        <time>2022-06-04T07:48:27Z</time>
      </trkpt>
      <trkpt lat="46.25566" lon="5.21932">
        <ele>222</ele>
        <time>2022-06-04T07:48:30Z</time>
      </trkpt>
      <trkpt lat="46.25579" lon="5.21962">
        <ele>221.8</ele>
        <time>2022-06-04T07:48:33Z</time>
      </trkpt>
      <trkpt lat="46.25586" lon="5.21986">
        <ele>221.6</ele>
        <time>2022-06-04T07:48:35Z</time>
      </trkpt>
      <trkpt lat="46.25589" lon="5.21997">
        <ele>221.4</ele>
        <time>2022-06-04T07:48:36Z</time>
      </trkpt>
      <trkpt lat="46.25599" lon="5.22053">
        <ele>220.4</ele>
        <time>2022-06-04T07:48:41Z</time>
      </trkpt>
      <trkpt lat="46.25601" lon="5.22064">
        <ele>220.2</ele>
        <time>2022-06-04T07:48:42Z</time>
      </trkpt>
      <trkpt lat="46.25612" lon="5.22133">
        <ele>219.2</ele>
        <time>2022-06-04T07:48:48Z</time>
      </trkpt>
      <trkpt lat="46.25616" lon="5.22155">
        <ele>219</ele>
        <time>2022-06-04T07:48:50Z</time>
      </trkpt>
      <trkpt lat="46.25617" lon="5.22164">
        <ele>219</ele>
        <time>2022-06-04T07:48:51Z</time>
      </trkpt>
      <trkpt lat="46.25627" lon="5.22228">
        <ele>219.2</ele>
        <time>2022-06-04T07:48:57Z</time>
      </trkpt>
      <trkpt lat="46.25638" lon="5.22292">
        <ele>220</ele>
        <time>2022-06-04T07:49:03Z</time>
      </trkpt>
      <trkpt lat="46.25654" lon="5.22343">
        <ele>220</ele>
        <time>2022-06-04T07:49:08Z</time>
      </trkpt>
      <trkpt lat="46.25657" lon="5.22352">
        <ele>220</ele>
        <time>2022-06-04T07:49:09Z</time>
      </trkpt>
      <trkpt lat="46.25664" lon="5.2237">
        <ele>220.2</ele>
        <time>2022-06-04T07:49:11Z</time>
      </trkpt>
      <trkpt lat="46.25678" lon="5.22411">
        <ele>220.8</ele>
        <time>2022-06-04T07:49:16Z</time>
      </trkpt>
      <trkpt lat="46.25684" lon="5.22426">
        <ele>221.4</ele>
        <time>2022-06-04T07:49:18Z</time>
      </trkpt>
      <trkpt lat="46.25691" lon="5.2245">
        <ele>222</ele>
        <time>2022-06-04T07:49:21Z</time>
      </trkpt>
      <trkpt lat="46.25694" lon="5.22458">
        <ele>222.6</ele>
        <time>2022-06-04T07:49:22Z</time>
      </trkpt>
      <trkpt lat="46.25697" lon="5.22472">
        <ele>223.4</ele>
        <time>2022-06-04T07:49:24Z</time>
      </trkpt>
      <trkpt lat="46.25699" lon="5.22479">
        <ele>223.6</ele>
        <time>2022-06-04T07:49:25Z</time>
      </trkpt>
      <trkpt lat="46.25701" lon="5.22487">
        <ele>224</ele>
        <time>2022-06-04T07:49:26Z</time>
      </trkpt>
      <trkpt lat="46.25704" lon="5.22509">
        <ele>224.8</ele>
        <time>2022-06-04T07:49:29Z</time>
      </trkpt>
      <trkpt lat="46.25705" lon="5.22527">
        <ele>225.2</ele>
        <time>2022-06-04T07:49:31Z</time>
      </trkpt>
      <trkpt lat="46.25707" lon="5.22551">
        <ele>226</ele>
        <time>2022-06-04T07:49:34Z</time>
      </trkpt>
      <trkpt lat="46.25711" lon="5.22601">
        <ele>226.8</ele>
        <time>2022-06-04T07:49:40Z</time>
      </trkpt>
      <trkpt lat="46.25712" lon="5.22618">
        <ele>227</ele>
        <time>2022-06-04T07:49:42Z</time>
      </trkpt>
      <trkpt lat="46.25712" lon="5.22668">
        <ele>227.6</ele>
        <time>2022-06-04T07:49:48Z</time>
      </trkpt>
      <trkpt lat="46.25711" lon="5.22676">
        <ele>227.6</ele>
        <time>2022-06-04T07:49:49Z</time>
      </trkpt>
      <trkpt lat="46.25707" lon="5.22691">
        <ele>228.2</ele>
        <time>2022-06-04T07:49:51Z</time>
      </trkpt>
      <trkpt lat="46.25705" lon="5.22699">
        <ele>228.6</ele>
        <time>2022-06-04T07:49:52Z</time>
      </trkpt>
      <trkpt lat="46.25693" lon="5.22734">
        <ele>229.2</ele>
        <time>2022-06-04T07:49:57Z</time>
      </trkpt>
      <trkpt lat="46.2569" lon="5.22741">
        <ele>229.4</ele>
        <time>2022-06-04T07:49:58Z</time>
      </trkpt>
      <trkpt lat="46.25676" lon="5.22786">
        <ele>230.4</ele>
        <time>2022-06-04T07:50:04Z</time>
      </trkpt>
      <trkpt lat="46.25671" lon="5.22801">
        <ele>230.4</ele>
        <time>2022-06-04T07:50:06Z</time>
      </trkpt>
      <trkpt lat="46.25654" lon="5.22853">
        <ele>230.8</ele>
        <time>2022-06-04T07:50:13Z</time>
      </trkpt>
      <trkpt lat="46.2564" lon="5.229">
        <ele>230.2</ele>
        <time>2022-06-04T07:50:19Z</time>
      </trkpt>
      <trkpt lat="46.25637" lon="5.22908">
        <ele>230.2</ele>
        <time>2022-06-04T07:50:20Z</time>
      </trkpt>
      <trkpt lat="46.25619" lon="5.2296">
        <ele>229.8</ele>
        <time>2022-06-04T07:50:27Z</time>
      </trkpt>
      <trkpt lat="46.25613" lon="5.22979">
        <ele>230.2</ele>
        <time>2022-06-04T07:50:32Z</time>
      </trkpt>
      <trkpt lat="46.25612" lon="5.2298">
        <ele>231.4</ele>
        <time>2022-06-04T07:50:35Z</time>
      </trkpt>
      <trkpt lat="46.25606" lon="5.22981">
        <ele>232</ele>
        <time>2022-06-04T07:50:45Z</time>
      </trkpt>
      <trkpt lat="46.2559" lon="5.22981">
        <ele>231.8</ele>
        <time>2022-06-04T07:50:49Z</time>
      </trkpt>
      <trkpt lat="46.25584" lon="5.22981">
        <ele>231.8</ele>
        <time>2022-06-04T07:50:50Z</time>
      </trkpt>
      <trkpt lat="46.2556" lon="5.22982">
        <ele>232</ele>
        <time>2022-06-04T07:50:54Z</time>
      </trkpt>
      <trkpt lat="46.25524" lon="5.22986">
        <ele>232.8</ele>
        <time>2022-06-04T07:51:00Z</time>
      </trkpt>
      <trkpt lat="46.25519" lon="5.22987">
        <ele>233</ele>
        <time>2022-06-04T07:51:01Z</time>
      </trkpt>
      <trkpt lat="46.25485" lon="5.22994">
        <ele>234.2</ele>
        <time>2022-06-04T07:51:07Z</time>
      </trkpt>
      <trkpt lat="46.25473" lon="5.22996">
        <ele>235</ele>
        <time>2022-06-04T07:51:09Z</time>
      </trkpt>
      <trkpt lat="46.25469" lon="5.22997">
        <ele>235.4</ele>
        <time>2022-06-04T07:51:10Z</time>
      </trkpt>
      <trkpt lat="46.25431" lon="5.23003">
        <ele>236.2</ele>
        <time>2022-06-04T07:51:16Z</time>
      </trkpt>
      <trkpt lat="46.2541" lon="5.23006">
        <ele>236.6</ele>
        <time>2022-06-04T07:51:19Z</time>
      </trkpt>
      <trkpt lat="46.25383" lon="5.23011">
        <ele>236.6</ele>
        <time>2022-06-04T07:51:23Z</time>
      </trkpt>
      <trkpt lat="46.25328" lon="5.2302">
        <ele>236.4</ele>
        <time>2022-06-04T07:51:31Z</time>
      </trkpt>
      <trkpt lat="46.25299" lon="5.23024">
        <ele>236.4</ele>
        <time>2022-06-04T07:51:35Z</time>
      </trkpt>
      <trkpt lat="46.25247" lon="5.2303">
        <ele>237</ele>
        <time>2022-06-04T07:51:43Z</time>
      </trkpt>
      <trkpt lat="46.25189" lon="5.23041">
        <ele>236.8</ele>
        <time>2022-06-04T07:51:51Z</time>
      </trkpt>
      <trkpt lat="46.25181" lon="5.23042">
        <ele>236.8</ele>
        <time>2022-06-04T07:51:52Z</time>
      </trkpt>
      <trkpt lat="46.25133" lon="5.23049">
        <ele>235.4</ele>
        <time>2022-06-04T07:51:58Z</time>
      </trkpt>
      <trkpt lat="46.25124" lon="5.2305">
        <ele>235.4</ele>
        <time>2022-06-04T07:51:59Z</time>
      </trkpt>
      <trkpt lat="46.25094" lon="5.23048">
        <ele>234.4</ele>
        <time>2022-06-04T07:52:02Z</time>
      </trkpt>
      <trkpt lat="46.25074" lon="5.23046">
        <ele>233.4</ele>
        <time>2022-06-04T07:52:04Z</time>
      </trkpt>
      <trkpt lat="46.25054" lon="5.23044">
        <ele>232.2</ele>
        <time>2022-06-04T07:52:06Z</time>
      </trkpt>
      <trkpt lat="46.25044" lon="5.23043">
        <ele>231.2</ele>
        <time>2022-06-04T07:52:07Z</time>
      </trkpt>
      <trkpt lat="46.25014" lon="5.2304">
        <ele>229.6</ele>
        <time>2022-06-04T07:52:10Z</time>
      </trkpt>
      <trkpt lat="46.24992" lon="5.23037">
        <ele>228.6</ele>
        <time>2022-06-04T07:52:12Z</time>
      </trkpt>
      <trkpt lat="46.24959" lon="5.23034">
        <ele>226.8</ele>
        <time>2022-06-04T07:52:15Z</time>
      </trkpt>
      <trkpt lat="46.24914" lon="5.2303">
        <ele>225.8</ele>
        <time>2022-06-04T07:52:19Z</time>
      </trkpt>
      <trkpt lat="46.24882" lon="5.23026">
        <ele>225</ele>
        <time>2022-06-04T07:52:23Z</time>
      </trkpt>
      <trkpt lat="46.24865" lon="5.23023">
        <ele>225.2</ele>
        <time>2022-06-04T07:52:26Z</time>
      </trkpt>
      <trkpt lat="46.24856" lon="5.23023">
        <ele>225.4</ele>
        <time>2022-06-04T07:52:28Z</time>
      </trkpt>
      <trkpt lat="46.24852" lon="5.23026">
        <ele>225.4</ele>
        <time>2022-06-04T07:52:29Z</time>
      </trkpt>
      <trkpt lat="46.2485" lon="5.23031">
        <ele>225.4</ele>
        <time>2022-06-04T07:52:30Z</time>
      </trkpt>
      <trkpt lat="46.24848" lon="5.23045">
        <ele>225.4</ele>
        <time>2022-06-04T07:52:32Z</time>
      </trkpt>
      <trkpt lat="46.24846" lon="5.23084">
        <ele>225.4</ele>
        <time>2022-06-04T07:52:36Z</time>
      </trkpt>
      <trkpt lat="46.24845" lon="5.23105">
        <ele>225.2</ele>
        <time>2022-06-04T07:52:38Z</time>
      </trkpt>
      <trkpt lat="46.24842" lon="5.23135">
        <ele>224.6</ele>
        <time>2022-06-04T07:52:41Z</time>
      </trkpt>
      <trkpt lat="46.2484" lon="5.2319">
        <ele>224.6</ele>
        <time>2022-06-04T07:52:46Z</time>
      </trkpt>
      <trkpt lat="46.2484" lon="5.2325">
        <ele>225.4</ele>
        <time>2022-06-04T07:52:53Z</time>
      </trkpt>
      <trkpt lat="46.24841" lon="5.23268">
        <ele>226</ele>
        <time>2022-06-04T07:52:55Z</time>
      </trkpt>
      <trkpt lat="46.24843" lon="5.23289">
        <ele>227.2</ele>
        <time>2022-06-04T07:52:58Z</time>
      </trkpt>
      <trkpt lat="46.24849" lon="5.23323">
        <ele>228.2</ele>
        <time>2022-06-04T07:53:03Z</time>
      </trkpt>
      <trkpt lat="46.2485" lon="5.23331">
        <ele>228.4</ele>
        <time>2022-06-04T07:53:04Z</time>
      </trkpt>
      <trkpt lat="46.24853" lon="5.23342">
        <ele>229.2</ele>
        <time>2022-06-04T07:53:06Z</time>
      </trkpt>
      <trkpt lat="46.24858" lon="5.23361">
        <ele>230.2</ele>
        <time>2022-06-04T07:53:09Z</time>
      </trkpt>
      <trkpt lat="46.2486" lon="5.23366">
        <ele>230.6</ele>
        <time>2022-06-04T07:53:10Z</time>
      </trkpt>
      <trkpt lat="46.24862" lon="5.23371">
        <ele>230.8</ele>
        <time>2022-06-04T07:53:11Z</time>
      </trkpt>
      <trkpt lat="46.24869" lon="5.23393">
        <ele>231.8</ele>
        <time>2022-06-04T07:53:15Z</time>
      </trkpt>
      <trkpt lat="46.24876" lon="5.23411">
        <ele>232.6</ele>
        <time>2022-06-04T07:53:18Z</time>
      </trkpt>
      <trkpt lat="46.24878" lon="5.23416">
        <ele>233</ele>
        <time>2022-06-04T07:53:19Z</time>
      </trkpt>
      <trkpt lat="46.24894" lon="5.23451">
        <ele>234</ele>
        <time>2022-06-04T07:53:25Z</time>
      </trkpt>
      <trkpt lat="46.24897" lon="5.23457">
        <ele>234.4</ele>
        <time>2022-06-04T07:53:26Z</time>
      </trkpt>
      <trkpt lat="46.2491" lon="5.23487">
        <ele>235.4</ele>
        <time>2022-06-04T07:53:31Z</time>
      </trkpt>
      <trkpt lat="46.24916" lon="5.23507">
        <ele>235.8</ele>
        <time>2022-06-04T07:53:34Z</time>
      </trkpt>
      <trkpt lat="46.24925" lon="5.23562">
        <ele>236.4</ele>
        <time>2022-06-04T07:53:41Z</time>
      </trkpt>
      <trkpt lat="46.24926" lon="5.23578">
        <ele>236.6</ele>
        <time>2022-06-04T07:53:43Z</time>
      </trkpt>
      <trkpt lat="46.24925" lon="5.23609">
        <ele>236.8</ele>
        <time>2022-06-04T07:53:47Z</time>
      </trkpt>
      <trkpt lat="46.24916" lon="5.23663">
        <ele>237.4</ele>
        <time>2022-06-04T07:53:55Z</time>
      </trkpt>
      <trkpt lat="46.24914" lon="5.2367">
        <ele>237.8</ele>
        <time>2022-06-04T07:53:56Z</time>
      </trkpt>
      <trkpt lat="46.24908" lon="5.23698">
        <ele>239</ele>
        <time>2022-06-04T07:54:00Z</time>
      </trkpt>
      <trkpt lat="46.249" lon="5.23728">
        <ele>239.4</ele>
        <time>2022-06-04T07:54:04Z</time>
      </trkpt>
      <trkpt lat="46.24889" lon="5.23767">
        <ele>239.4</ele>
        <time>2022-06-04T07:54:09Z</time>
      </trkpt>
      <trkpt lat="46.24867" lon="5.23831">
        <ele>239.6</ele>
        <time>2022-06-04T07:54:17Z</time>
      </trkpt>
      <trkpt lat="46.2486" lon="5.23874">
        <ele>240</ele>
        <time>2022-06-04T07:54:22Z</time>
      </trkpt>
      <trkpt lat="46.24859" lon="5.23883">
        <ele>240</ele>
        <time>2022-06-04T07:54:23Z</time>
      </trkpt>
      <trkpt lat="46.24859" lon="5.2396">
        <ele>240.6</ele>
        <time>2022-06-04T07:54:31Z</time>
      </trkpt>
      <trkpt lat="46.24862" lon="5.24029">
        <ele>240.6</ele>
        <time>2022-06-04T07:54:38Z</time>
      </trkpt>
      <trkpt lat="46.24866" lon="5.24103">
        <ele>240.8</ele>
        <time>2022-06-04T07:54:46Z</time>
      </trkpt>
      <trkpt lat="46.24866" lon="5.24114">
        <ele>241.2</ele>
        <time>2022-06-04T07:54:47Z</time>
      </trkpt>
      <trkpt lat="46.24868" lon="5.24159">
        <ele>241.2</ele>
        <time>2022-06-04T07:54:52Z</time>
      </trkpt>
      <trkpt lat="46.24868" lon="5.24187">
        <ele>242.4</ele>
        <time>2022-06-04T07:54:55Z</time>
      </trkpt>
      <trkpt lat="46.24869" lon="5.24217">
        <ele>242.2</ele>
        <time>2022-06-04T07:54:58Z</time>
      </trkpt>
      <trkpt lat="46.24873" lon="5.24289">
        <ele>241.4</ele>
        <time>2022-06-04T07:55:05Z</time>
      </trkpt>
      <trkpt lat="46.24873" lon="5.24297">
        <ele>241.2</ele>
        <time>2022-06-04T07:55:06Z</time>
      </trkpt>
      <trkpt lat="46.24876" lon="5.24362">
        <ele>240.8</ele>
        <time>2022-06-04T07:55:12Z</time>
      </trkpt>
      <trkpt lat="46.24879" lon="5.24431">
        <ele>241</ele>
        <time>2022-06-04T07:55:18Z</time>
      </trkpt>
      <trkpt lat="46.24882" lon="5.2452">
        <ele>241.4</ele>
        <time>2022-06-04T07:55:26Z</time>
      </trkpt>
      <trkpt lat="46.24883" lon="5.24529">
        <ele>241.4</ele>
        <time>2022-06-04T07:55:27Z</time>
      </trkpt>
      <trkpt lat="46.24884" lon="5.24608">
        <ele>240.8</ele>
        <time>2022-06-04T07:55:34Z</time>
      </trkpt>
      <trkpt lat="46.24883" lon="5.2462">
        <ele>240.8</ele>
        <time>2022-06-04T07:55:35Z</time>
      </trkpt>
      <trkpt lat="46.24877" lon="5.24698">
        <ele>240.2</ele>
        <time>2022-06-04T07:55:42Z</time>
      </trkpt>
      <trkpt lat="46.24875" lon="5.24723">
        <ele>240.2</ele>
        <time>2022-06-04T07:55:44Z</time>
      </trkpt>
      <trkpt lat="46.24874" lon="5.24733">
        <ele>240</ele>
        <time>2022-06-04T07:55:45Z</time>
      </trkpt>
      <trkpt lat="46.24862" lon="5.24813">
        <ele>239.8</ele>
        <time>2022-06-04T07:55:52Z</time>
      </trkpt>
      <trkpt lat="46.2485" lon="5.24896">
        <ele>240.2</ele>
        <time>2022-06-04T07:56:00Z</time>
      </trkpt>
      <trkpt lat="46.24847" lon="5.24958">
        <ele>241.2</ele>
        <time>2022-06-04T07:56:06Z</time>
      </trkpt>
      <trkpt lat="46.24852" lon="5.25042">
        <ele>241.2</ele>
        <time>2022-06-04T07:56:14Z</time>
      </trkpt>
      <trkpt lat="46.24854" lon="5.25074">
        <ele>241.4</ele>
        <time>2022-06-04T07:56:17Z</time>
      </trkpt>
      <trkpt lat="46.24859" lon="5.2516">
        <ele>241.6</ele>
        <time>2022-06-04T07:56:25Z</time>
      </trkpt>
      <trkpt lat="46.24859" lon="5.25169">
        <ele>241.8</ele>
        <time>2022-06-04T07:56:26Z</time>
      </trkpt>
      <trkpt lat="46.24865" lon="5.25252">
        <ele>242.2</ele>
        <time>2022-06-04T07:56:34Z</time>
      </trkpt>
      <trkpt lat="46.24867" lon="5.2528">
        <ele>242.6</ele>
        <time>2022-06-04T07:56:37Z</time>
      </trkpt>
      <trkpt lat="46.24869" lon="5.25326">
        <ele>242.8</ele>
        <time>2022-06-04T07:56:42Z</time>
      </trkpt>
      <trkpt lat="46.2487" lon="5.25338">
        <ele>243.2</ele>
        <time>2022-06-04T07:56:43Z</time>
      </trkpt>
      <trkpt lat="46.24868" lon="5.25374">
        <ele>243.4</ele>
        <time>2022-06-04T07:56:47Z</time>
      </trkpt>
      <trkpt lat="46.24861" lon="5.25455">
        <ele>243.6</ele>
        <time>2022-06-04T07:56:55Z</time>
      </trkpt>
      <trkpt lat="46.2486" lon="5.25464">
        <ele>243.6</ele>
        <time>2022-06-04T07:56:56Z</time>
      </trkpt>
      <trkpt lat="46.2486" lon="5.25472">
        <ele>243.4</ele>
        <time>2022-06-04T07:56:57Z</time>
      </trkpt>
      <trkpt lat="46.24847" lon="5.25548">
        <ele>243.6</ele>
        <time>2022-06-04T07:57:05Z</time>
      </trkpt>
      <trkpt lat="46.24823" lon="5.25618">
        <ele>243.8</ele>
        <time>2022-06-04T07:57:13Z</time>
      </trkpt>
      <trkpt lat="46.24802" lon="5.25676">
        <ele>244.2</ele>
        <time>2022-06-04T07:57:20Z</time>
      </trkpt>
      <trkpt lat="46.24782" lon="5.25718">
        <ele>244.4</ele>
        <time>2022-06-04T07:57:25Z</time>
      </trkpt>
      <trkpt lat="46.24762" lon="5.25746">
        <ele>244.6</ele>
        <time>2022-06-04T07:57:29Z</time>
      </trkpt>
      <trkpt lat="46.24752" lon="5.25761">
        <ele>244.4</ele>
        <time>2022-06-04T07:57:31Z</time>
      </trkpt>
      <trkpt lat="46.24717" lon="5.25817">
        <ele>244.8</ele>
        <time>2022-06-04T07:57:39Z</time>
      </trkpt>
      <trkpt lat="46.2468" lon="5.25871">
        <ele>245.2</ele>
        <time>2022-06-04T07:57:47Z</time>
      </trkpt>
      <trkpt lat="46.24671" lon="5.25886">
        <ele>245.6</ele>
        <time>2022-06-04T07:57:49Z</time>
      </trkpt>
      <trkpt lat="46.24649" lon="5.25919">
        <ele>246</ele>
        <time>2022-06-04T07:57:54Z</time>
      </trkpt>
      <trkpt lat="46.24613" lon="5.25978">
        <ele>245.8</ele>
        <time>2022-06-04T07:58:02Z</time>
      </trkpt>
      <trkpt lat="46.246" lon="5.26026">
        <ele>246.2</ele>
        <time>2022-06-04T07:58:08Z</time>
      </trkpt>
      <trkpt lat="46.24589" lon="5.26063">
        <ele>246.8</ele>
        <time>2022-06-04T07:58:12Z</time>
      </trkpt>
      <trkpt lat="46.24586" lon="5.2607">
        <ele>246.8</ele>
        <time>2022-06-04T07:58:13Z</time>
      </trkpt>
      <trkpt lat="46.24571" lon="5.26093">
        <ele>246.8</ele>
        <time>2022-06-04T07:58:16Z</time>
      </trkpt>
      <trkpt lat="46.2456" lon="5.26105">
        <ele>247</ele>
        <time>2022-06-04T07:58:18Z</time>
      </trkpt>
      <trkpt lat="46.2451" lon="5.26152">
        <ele>247.2</ele>
        <time>2022-06-04T07:58:26Z</time>
      </trkpt>
      <trkpt lat="46.24491" lon="5.2617">
        <ele>247.4</ele>
        <time>2022-06-04T07:58:29Z</time>
      </trkpt>
      <trkpt lat="46.24462" lon="5.26195">
        <ele>247</ele>
        <time>2022-06-04T07:58:33Z</time>
      </trkpt>
      <trkpt lat="46.24416" lon="5.26236">
        <ele>246</ele>
        <time>2022-06-04T07:58:40Z</time>
      </trkpt>
      <trkpt lat="46.24394" lon="5.26254">
        <ele>245.6</ele>
        <time>2022-06-04T07:58:43Z</time>
      </trkpt>
      <trkpt lat="46.24345" lon="5.26297">
        <ele>246.2</ele>
        <time>2022-06-04T07:58:51Z</time>
      </trkpt>
      <trkpt lat="46.2432" lon="5.2632">
        <ele>246.6</ele>
        <time>2022-06-04T07:58:55Z</time>
      </trkpt>
      <trkpt lat="46.24304" lon="5.26335">
        <ele>247</ele>
        <time>2022-06-04T07:58:58Z</time>
      </trkpt>
      <trkpt lat="46.24263" lon="5.2637">
        <ele>247.6</ele>
        <time>2022-06-04T07:59:05Z</time>
      </trkpt>
      <trkpt lat="46.24252" lon="5.2638">
        <ele>247.8</ele>
        <time>2022-06-04T07:59:07Z</time>
      </trkpt>
      <trkpt lat="46.24225" lon="5.26405">
        <ele>248.2</ele>
        <time>2022-06-04T07:59:12Z</time>
      </trkpt>
      <trkpt lat="46.24184" lon="5.26441">
        <ele>248.4</ele>
        <time>2022-06-04T07:59:19Z</time>
      </trkpt>
      <trkpt lat="46.24146" lon="5.26475">
        <ele>249</ele>
        <time>2022-06-04T07:59:26Z</time>
      </trkpt>
      <trkpt lat="46.2414" lon="5.2648">
        <ele>249</ele>
        <time>2022-06-04T07:59:27Z</time>
      </trkpt>
      <trkpt lat="46.24095" lon="5.26521">
        <ele>249.2</ele>
        <time>2022-06-04T07:59:35Z</time>
      </trkpt>
      <trkpt lat="46.24053" lon="5.26563">
        <ele>249.2</ele>
        <time>2022-06-04T07:59:43Z</time>
      </trkpt>
      <trkpt lat="46.2404" lon="5.26577">
        <ele>249.2</ele>
        <time>2022-06-04T07:59:47Z</time>
      </trkpt>
      <trkpt lat="46.24025" lon="5.26586">
        <ele>249</ele>
        <time>2022-06-04T07:59:52Z</time>
      </trkpt>
      <trkpt lat="46.24014" lon="5.26596">
        <ele>248.8</ele>
        <time>2022-06-04T07:59:54Z</time>
      </trkpt>
      <trkpt lat="46.2401" lon="5.26604">
        <ele>248.8</ele>
        <time>2022-06-04T07:59:55Z</time>
      </trkpt>
      <trkpt lat="46.24007" lon="5.26614">
        <ele>248.8</ele>
        <time>2022-06-04T07:59:56Z</time>
      </trkpt>
      <trkpt lat="46.24005" lon="5.26635">
        <ele>248.4</ele>
        <time>2022-06-04T07:59:58Z</time>
      </trkpt>
      <trkpt lat="46.24004" lon="5.26646">
        <ele>248.4</ele>
        <time>2022-06-04T07:59:59Z</time>
      </trkpt>
      <trkpt lat="46.24" lon="5.26668">
        <ele>248</ele>
        <time>2022-06-04T08:00:01Z</time>
      </trkpt>
      <trkpt lat="46.23997" lon="5.26679">
        <ele>248</ele>
        <time>2022-06-04T08:00:02Z</time>
      </trkpt>
      <trkpt lat="46.23994" lon="5.2669">
        <ele>247.8</ele>
        <time>2022-06-04T08:00:03Z</time>
      </trkpt>
      <trkpt lat="46.23984" lon="5.26746">
        <ele>247.2</ele>
        <time>2022-06-04T08:00:08Z</time>
      </trkpt>
      <trkpt lat="46.23971" lon="5.26832">
        <ele>247</ele>
        <time>2022-06-04T08:00:16Z</time>
      </trkpt>
      <trkpt lat="46.23961" lon="5.2688">
        <ele>247.6</ele>
        <time>2022-06-04T08:00:21Z</time>
      </trkpt>
      <trkpt lat="46.23956" lon="5.26898">
        <ele>248</ele>
        <time>2022-06-04T08:00:23Z</time>
      </trkpt>
      <trkpt lat="46.23946" lon="5.26928">
        <ele>248.8</ele>
        <time>2022-06-04T08:00:27Z</time>
      </trkpt>
      <trkpt lat="46.23939" lon="5.26945">
        <ele>249.4</ele>
        <time>2022-06-04T08:00:29Z</time>
      </trkpt>
      <trkpt lat="46.2393" lon="5.26966">
        <ele>249.6</ele>
        <time>2022-06-04T08:00:32Z</time>
      </trkpt>
      <trkpt lat="46.23921" lon="5.26985">
        <ele>250.4</ele>
        <time>2022-06-04T08:00:35Z</time>
      </trkpt>
      <trkpt lat="46.23918" lon="5.27002">
        <ele>250.8</ele>
        <time>2022-06-04T08:00:37Z</time>
      </trkpt>
      <trkpt lat="46.2392" lon="5.2701">
        <ele>251</ele>
        <time>2022-06-04T08:00:38Z</time>
      </trkpt>
      <trkpt lat="46.23922" lon="5.27015">
        <ele>251</ele>
        <time>2022-06-04T08:00:39Z</time>
      </trkpt>
      <trkpt lat="46.23934" lon="5.27037">
        <ele>251.6</ele>
        <time>2022-06-04T08:00:42Z</time>
      </trkpt>
      <trkpt lat="46.2394" lon="5.27053">
        <ele>251.8</ele>
        <time>2022-06-04T08:00:44Z</time>
      </trkpt>
      <trkpt lat="46.23945" lon="5.2707">
        <ele>252</ele>
        <time>2022-06-04T08:00:46Z</time>
      </trkpt>
      <trkpt lat="46.23946" lon="5.27078">
        <ele>252</ele>
        <time>2022-06-04T08:00:47Z</time>
      </trkpt>
      <trkpt lat="46.2395" lon="5.27143">
        <ele>252.2</ele>
        <time>2022-06-04T08:00:54Z</time>
      </trkpt>
      <trkpt lat="46.23957" lon="5.27198">
        <ele>252.8</ele>
        <time>2022-06-04T08:01:00Z</time>
      </trkpt>
      <trkpt lat="46.23971" lon="5.27279">
        <ele>253.8</ele>
        <time>2022-06-04T08:01:09Z</time>
      </trkpt>
      <trkpt lat="46.23973" lon="5.27288">
        <ele>254</ele>
        <time>2022-06-04T08:01:10Z</time>
      </trkpt>
      <trkpt lat="46.23984" lon="5.27351">
        <ele>255</ele>
        <time>2022-06-04T08:01:17Z</time>
      </trkpt>
      <trkpt lat="46.23988" lon="5.27378">
        <ele>255</ele>
        <time>2022-06-04T08:01:20Z</time>
      </trkpt>
      <trkpt lat="46.23999" lon="5.27456">
        <ele>255.2</ele>
        <time>2022-06-04T08:01:28Z</time>
      </trkpt>
      <trkpt lat="46.24" lon="5.27476">
        <ele>255.2</ele>
        <time>2022-06-04T08:01:30Z</time>
      </trkpt>
      <trkpt lat="46.23994" lon="5.27525">
        <ele>255</ele>
        <time>2022-06-04T08:01:35Z</time>
      </trkpt>
      <trkpt lat="46.23991" lon="5.27537">
        <ele>255</ele>
        <time>2022-06-04T08:01:36Z</time>
      </trkpt>
      <trkpt lat="46.23985" lon="5.27555">
        <ele>254.8</ele>
        <time>2022-06-04T08:01:38Z</time>
      </trkpt>
      <trkpt lat="46.23981" lon="5.27564">
        <ele>254.8</ele>
        <time>2022-06-04T08:01:39Z</time>
      </trkpt>
      <trkpt lat="46.23971" lon="5.27584">
        <ele>254.4</ele>
        <time>2022-06-04T08:01:41Z</time>
      </trkpt>
      <trkpt lat="46.23953" lon="5.2761">
        <ele>254</ele>
        <time>2022-06-04T08:01:44Z</time>
      </trkpt>
      <trkpt lat="46.23944" lon="5.27618">
        <ele>253.8</ele>
        <time>2022-06-04T08:01:45Z</time>
      </trkpt>
      <trkpt lat="46.23916" lon="5.2765">
        <ele>253.6</ele>
        <time>2022-06-04T08:01:49Z</time>
      </trkpt>
      <trkpt lat="46.23893" lon="5.27685">
        <ele>252.8</ele>
        <time>2022-06-04T08:01:53Z</time>
      </trkpt>
      <trkpt lat="46.23873" lon="5.27711">
        <ele>251.8</ele>
        <time>2022-06-04T08:01:56Z</time>
      </trkpt>
      <trkpt lat="46.23858" lon="5.27743">
        <ele>251.6</ele>
        <time>2022-06-04T08:01:59Z</time>
      </trkpt>
      <trkpt lat="46.23852" lon="5.27761">
        <ele>251.6</ele>
        <time>2022-06-04T08:02:01Z</time>
      </trkpt>
      <trkpt lat="46.2385" lon="5.27771">
        <ele>251.6</ele>
        <time>2022-06-04T08:02:02Z</time>
      </trkpt>
      <trkpt lat="46.23844" lon="5.27803">
        <ele>251.4</ele>
        <time>2022-06-04T08:02:05Z</time>
      </trkpt>
      <trkpt lat="46.2383" lon="5.27867">
        <ele>251.4</ele>
        <time>2022-06-04T08:02:11Z</time>
      </trkpt>
      <trkpt lat="46.2382" lon="5.27941">
        <ele>251.8</ele>
        <time>2022-06-04T08:02:18Z</time>
      </trkpt>
      <trkpt lat="46.23813" lon="5.28014">
        <ele>252.4</ele>
        <time>2022-06-04T08:02:25Z</time>
      </trkpt>
      <trkpt lat="46.23812" lon="5.28034">
        <ele>252.6</ele>
        <time>2022-06-04T08:02:27Z</time>
      </trkpt>
      <trkpt lat="46.23809" lon="5.28055">
        <ele>252.6</ele>
        <time>2022-06-04T08:02:29Z</time>
      </trkpt>
      <trkpt lat="46.238" lon="5.28131">
        <ele>252.2</ele>
        <time>2022-06-04T08:02:36Z</time>
      </trkpt>
      <trkpt lat="46.23792" lon="5.28201">
        <ele>251.6</ele>
        <time>2022-06-04T08:02:42Z</time>
      </trkpt>
      <trkpt lat="46.23791" lon="5.28222">
        <ele>251.4</ele>
        <time>2022-06-04T08:02:44Z</time>
      </trkpt>
      <trkpt lat="46.23786" lon="5.28272">
        <ele>251.2</ele>
        <time>2022-06-04T08:02:48Z</time>
      </trkpt>
      <trkpt lat="46.23779" lon="5.28334">
        <ele>251.2</ele>
        <time>2022-06-04T08:02:54Z</time>
      </trkpt>
      <trkpt lat="46.23777" lon="5.28354">
        <ele>251.2</ele>
        <time>2022-06-04T08:02:56Z</time>
      </trkpt>
      <trkpt lat="46.23774" lon="5.28374">
        <ele>251.2</ele>
        <time>2022-06-04T08:02:58Z</time>
      </trkpt>
      <trkpt lat="46.23762" lon="5.28434">
        <ele>251.6</ele>
        <time>2022-06-04T08:03:04Z</time>
      </trkpt>
      <trkpt lat="46.23757" lon="5.28443">
        <ele>251.6</ele>
        <time>2022-06-04T08:03:05Z</time>
      </trkpt>
      <trkpt lat="46.23749" lon="5.28462">
        <ele>251.8</ele>
        <time>2022-06-04T08:03:07Z</time>
      </trkpt>
      <trkpt lat="46.23745" lon="5.28485">
        <ele>252</ele>
        <time>2022-06-04T08:03:09Z</time>
      </trkpt>
      <trkpt lat="46.23741" lon="5.28527">
        <ele>252</ele>
        <time>2022-06-04T08:03:13Z</time>
      </trkpt>
      <trkpt lat="46.2374" lon="5.28538">
        <ele>252</ele>
        <time>2022-06-04T08:03:14Z</time>
      </trkpt>
      <trkpt lat="46.23735" lon="5.28575">
        <ele>251.6</ele>
        <time>2022-06-04T08:03:17Z</time>
      </trkpt>
      <trkpt lat="46.23732" lon="5.28598">
        <ele>251.6</ele>
        <time>2022-06-04T08:03:19Z</time>
      </trkpt>
      <trkpt lat="46.23729" lon="5.28623">
        <ele>251.2</ele>
        <time>2022-06-04T08:03:21Z</time>
      </trkpt>
      <trkpt lat="46.23727" lon="5.28645">
        <ele>250.8</ele>
        <time>2022-06-04T08:03:23Z</time>
      </trkpt>
      <trkpt lat="46.23724" lon="5.28659">
        <ele>250.6</ele>
        <time>2022-06-04T08:03:24Z</time>
      </trkpt>
      <trkpt lat="46.23721" lon="5.28678">
        <ele>250.2</ele>
        <time>2022-06-04T08:03:26Z</time>
      </trkpt>
      <trkpt lat="46.2372" lon="5.287">
        <ele>250</ele>
        <time>2022-06-04T08:03:28Z</time>
      </trkpt>
      <trkpt lat="46.23722" lon="5.28711">
        <ele>250.2</ele>
        <time>2022-06-04T08:03:29Z</time>
      </trkpt>
      <trkpt lat="46.23737" lon="5.28761">
        <ele>250.2</ele>
        <time>2022-06-04T08:03:34Z</time>
      </trkpt>
      <trkpt lat="46.23744" lon="5.28782">
        <ele>250.4</ele>
        <time>2022-06-04T08:03:36Z</time>
      </trkpt>
      <trkpt lat="46.23748" lon="5.28799">
        <ele>250.6</ele>
        <time>2022-06-04T08:03:38Z</time>
      </trkpt>
      <trkpt lat="46.23757" lon="5.28828">
        <ele>251.4</ele>
        <time>2022-06-04T08:03:41Z</time>
      </trkpt>
      <trkpt lat="46.23764" lon="5.28844">
        <ele>251.6</ele>
        <time>2022-06-04T08:03:43Z</time>
      </trkpt>
      <trkpt lat="46.23773" lon="5.28861">
        <ele>252</ele>
        <time>2022-06-04T08:03:45Z</time>
      </trkpt>
      <trkpt lat="46.23781" lon="5.28879">
        <ele>252.2</ele>
        <time>2022-06-04T08:03:47Z</time>
      </trkpt>
      <trkpt lat="46.23788" lon="5.28899">
        <ele>252.6</ele>
        <time>2022-06-04T08:03:49Z</time>
      </trkpt>
      <trkpt lat="46.23793" lon="5.2891">
        <ele>252.6</ele>
        <time>2022-06-04T08:03:50Z</time>
      </trkpt>
      <trkpt lat="46.23799" lon="5.28929">
        <ele>252.6</ele>
        <time>2022-06-04T08:03:52Z</time>
      </trkpt>
      <trkpt lat="46.23817" lon="5.28989">
        <ele>252.4</ele>
        <time>2022-06-04T08:03:58Z</time>
      </trkpt>
      <trkpt lat="46.23823" lon="5.2901">
        <ele>252.2</ele>
        <time>2022-06-04T08:04:00Z</time>
      </trkpt>
      <trkpt lat="46.23833" lon="5.29036">
        <ele>252</ele>
        <time>2022-06-04T08:04:03Z</time>
      </trkpt>
      <trkpt lat="46.23838" lon="5.29054">
        <ele>251.8</ele>
        <time>2022-06-04T08:04:05Z</time>
      </trkpt>
      <trkpt lat="46.2384" lon="5.29067">
        <ele>251.6</ele>
        <time>2022-06-04T08:04:07Z</time>
      </trkpt>
      <trkpt lat="46.23841" lon="5.29072">
        <ele>251.6</ele>
        <time>2022-06-04T08:04:08Z</time>
      </trkpt>
      <trkpt lat="46.23839" lon="5.29073">
        <ele>251.4</ele>
        <time>2022-06-04T08:04:11Z</time>
      </trkpt>
      <trkpt lat="46.23833" lon="5.29077">
        <ele>251.2</ele>
        <time>2022-06-04T08:04:14Z</time>
      </trkpt>
      <trkpt lat="46.23795" lon="5.29079">
        <ele>251.2</ele>
        <time>2022-06-04T08:04:17Z</time>
      </trkpt>
      <trkpt lat="46.23739" lon="5.29085">
        <ele>251.4</ele>
        <time>2022-06-04T08:04:24Z</time>
      </trkpt>
      <trkpt lat="46.23733" lon="5.29086">
        <ele>251.6</ele>
        <time>2022-06-04T08:04:25Z</time>
      </trkpt>
      <trkpt lat="46.23706" lon="5.29086">
        <ele>252.2</ele>
        <time>2022-06-04T08:04:29Z</time>
      </trkpt>
      <trkpt lat="46.23696" lon="5.29084">
        <ele>252.4</ele>
        <time>2022-06-04T08:04:30Z</time>
      </trkpt>
      <trkpt lat="46.23683" lon="5.29078">
        <ele>252.4</ele>
        <time>2022-06-04T08:04:32Z</time>
      </trkpt>
      <trkpt lat="46.23676" lon="5.29074">
        <ele>252.4</ele>
        <time>2022-06-04T08:04:33Z</time>
      </trkpt>
      <trkpt lat="46.23626" lon="5.29045">
        <ele>252.2</ele>
        <time>2022-06-04T08:04:41Z</time>
      </trkpt>
      <trkpt lat="46.23575" lon="5.29018">
        <ele>252</ele>
        <time>2022-06-04T08:04:49Z</time>
      </trkpt>
      <trkpt lat="46.23557" lon="5.29008">
        <ele>252</ele>
        <time>2022-06-04T08:04:52Z</time>
      </trkpt>
      <trkpt lat="46.23528" lon="5.28993">
        <ele>252.8</ele>
        <time>2022-06-04T08:04:57Z</time>
      </trkpt>
      <trkpt lat="46.23523" lon="5.28994">
        <ele>253.2</ele>
        <time>2022-06-04T08:04:58Z</time>
      </trkpt>
      <trkpt lat="46.23517" lon="5.28996">
        <ele>253.4</ele>
        <time>2022-06-04T08:04:59Z</time>
      </trkpt>
      <trkpt lat="46.23508" lon="5.29011">
        <ele>254</ele>
        <time>2022-06-04T08:05:01Z</time>
      </trkpt>
      <trkpt lat="46.23507" lon="5.29017">
        <ele>254</ele>
        <time>2022-06-04T08:05:02Z</time>
      </trkpt>
      <trkpt lat="46.23504" lon="5.29035">
        <ele>254</ele>
        <time>2022-06-04T08:05:04Z</time>
      </trkpt>
      <trkpt lat="46.23504" lon="5.29042">
        <ele>254.2</ele>
        <time>2022-06-04T08:05:05Z</time>
      </trkpt>
      <trkpt lat="46.23503" lon="5.29053">
        <ele>254.2</ele>
        <time>2022-06-04T08:05:06Z</time>
      </trkpt>
      <trkpt lat="46.23502" lon="5.2906">
        <ele>254.4</ele>
        <time>2022-06-04T08:05:07Z</time>
      </trkpt>
      <trkpt lat="46.23501" lon="5.29069">
        <ele>254.4</ele>
        <time>2022-06-04T08:05:08Z</time>
      </trkpt>
      <trkpt lat="46.23499" lon="5.2909">
        <ele>254.6</ele>
        <time>2022-06-04T08:05:10Z</time>
      </trkpt>
      <trkpt lat="46.23495" lon="5.29126">
        <ele>254.8</ele>
        <time>2022-06-04T08:05:14Z</time>
      </trkpt>
      <trkpt lat="46.23489" lon="5.29166">
        <ele>255</ele>
        <time>2022-06-04T08:05:18Z</time>
      </trkpt>
      <trkpt lat="46.23486" lon="5.29183">
        <ele>255.2</ele>
        <time>2022-06-04T08:05:20Z</time>
      </trkpt>
      <trkpt lat="46.2348" lon="5.2923">
        <ele>255.4</ele>
        <time>2022-06-04T08:05:25Z</time>
      </trkpt>
      <trkpt lat="46.23475" lon="5.29235">
        <ele>255.4</ele>
        <time>2022-06-04T08:05:26Z</time>
      </trkpt>
      <trkpt lat="46.23463" lon="5.29235">
        <ele>255.4</ele>
        <time>2022-06-04T08:05:28Z</time>
      </trkpt>
      <trkpt lat="46.23446" lon="5.29223">
        <ele>255.2</ele>
        <time>2022-06-04T08:05:31Z</time>
      </trkpt>
      <trkpt lat="46.23429" lon="5.29213">
        <ele>255.2</ele>
        <time>2022-06-04T08:05:34Z</time>
      </trkpt>
      <trkpt lat="46.23375" lon="5.29183">
        <ele>255.2</ele>
        <time>2022-06-04T08:05:43Z</time>
      </trkpt>
      <trkpt lat="46.23369" lon="5.29179">
        <ele>255.2</ele>
        <time>2022-06-04T08:05:44Z</time>
      </trkpt>
      <trkpt lat="46.23351" lon="5.29168">
        <ele>255.2</ele>
        <time>2022-06-04T08:05:47Z</time>
      </trkpt>
      <trkpt lat="46.23338" lon="5.29162">
        <ele>255.2</ele>
        <time>2022-06-04T08:05:49Z</time>
      </trkpt>
      <trkpt lat="46.23291" lon="5.29133">
        <ele>255.4</ele>
        <time>2022-06-04T08:05:57Z</time>
      </trkpt>
      <trkpt lat="46.23245" lon="5.29107">
        <ele>255</ele>
        <time>2022-06-04T08:06:04Z</time>
      </trkpt>
      <trkpt lat="46.23193" lon="5.29075">
        <ele>254</ele>
        <time>2022-06-04T08:06:12Z</time>
      </trkpt>
      <trkpt lat="46.23183" lon="5.29069">
        <ele>253.8</ele>
        <time>2022-06-04T08:06:14Z</time>
      </trkpt>
      <trkpt lat="46.23172" lon="5.29068">
        <ele>253.6</ele>
        <time>2022-06-04T08:06:16Z</time>
      </trkpt>
      <trkpt lat="46.23168" lon="5.29071">
        <ele>253.4</ele>
        <time>2022-06-04T08:06:17Z</time>
      </trkpt>
      <trkpt lat="46.23165" lon="5.29075">
        <ele>253.4</ele>
        <time>2022-06-04T08:06:18Z</time>
      </trkpt>
      <trkpt lat="46.23162" lon="5.29081">
        <ele>253.2</ele>
        <time>2022-06-04T08:06:19Z</time>
      </trkpt>
      <trkpt lat="46.23155" lon="5.29097">
        <ele>253.2</ele>
        <time>2022-06-04T08:06:21Z</time>
      </trkpt>
      <trkpt lat="46.2314" lon="5.29124">
        <ele>253.4</ele>
        <time>2022-06-04T08:06:25Z</time>
      </trkpt>
      <trkpt lat="46.23111" lon="5.29178">
        <ele>253.8</ele>
        <time>2022-06-04T08:06:32Z</time>
      </trkpt>
      <trkpt lat="46.23084" lon="5.29231">
        <ele>254.6</ele>
        <time>2022-06-04T08:06:39Z</time>
      </trkpt>
      <trkpt lat="46.23068" lon="5.29261">
        <ele>256</ele>
        <time>2022-06-04T08:06:43Z</time>
      </trkpt>
      <trkpt lat="46.23058" lon="5.29284">
        <ele>256.4</ele>
        <time>2022-06-04T08:06:46Z</time>
      </trkpt>
      <trkpt lat="46.23027" lon="5.29343">
        <ele>256.4</ele>
        <time>2022-06-04T08:06:54Z</time>
      </trkpt>
      <trkpt lat="46.22997" lon="5.29403">
        <ele>256.8</ele>
        <time>2022-06-04T08:07:02Z</time>
      </trkpt>
      <trkpt lat="46.22994" lon="5.29411">
        <ele>257</ele>
        <time>2022-06-04T08:07:03Z</time>
      </trkpt>
      <trkpt lat="46.22987" lon="5.29427">
        <ele>257.2</ele>
        <time>2022-06-04T08:07:05Z</time>
      </trkpt>
      <trkpt lat="46.22977" lon="5.29451">
        <ele>257</ele>
        <time>2022-06-04T08:07:08Z</time>
      </trkpt>
      <trkpt lat="46.22969" lon="5.29467">
        <ele>256.8</ele>
        <time>2022-06-04T08:07:10Z</time>
      </trkpt>
      <trkpt lat="46.22959" lon="5.29489">
        <ele>256.8</ele>
        <time>2022-06-04T08:07:13Z</time>
      </trkpt>
      <trkpt lat="46.22929" lon="5.29549">
        <ele>257.6</ele>
        <time>2022-06-04T08:07:21Z</time>
      </trkpt>
      <trkpt lat="46.22925" lon="5.29557">
        <ele>257.6</ele>
        <time>2022-06-04T08:07:22Z</time>
      </trkpt>
      <trkpt lat="46.22905" lon="5.29596">
        <ele>257.4</ele>
        <time>2022-06-04T08:07:27Z</time>
      </trkpt>
      <trkpt lat="46.22888" lon="5.29627">
        <ele>257.4</ele>
        <time>2022-06-04T08:07:31Z</time>
      </trkpt>
      <trkpt lat="46.22879" lon="5.29638">
        <ele>257.2</ele>
        <time>2022-06-04T08:07:33Z</time>
      </trkpt>
      <trkpt lat="46.22874" lon="5.29643">
        <ele>257.2</ele>
        <time>2022-06-04T08:07:34Z</time>
      </trkpt>
      <trkpt lat="46.22866" lon="5.29644">
        <ele>257.4</ele>
        <time>2022-06-04T08:07:36Z</time>
      </trkpt>
      <trkpt lat="46.22849" lon="5.29633">
        <ele>257.4</ele>
        <time>2022-06-04T08:07:39Z</time>
      </trkpt>
      <trkpt lat="46.22811" lon="5.29611">
        <ele>257.4</ele>
        <time>2022-06-04T08:07:45Z</time>
      </trkpt>
      <trkpt lat="46.22803" lon="5.2961">
        <ele>257.6</ele>
        <time>2022-06-04T08:07:46Z</time>
      </trkpt>
      <trkpt lat="46.22797" lon="5.29611">
        <ele>257.8</ele>
        <time>2022-06-04T08:07:47Z</time>
      </trkpt>
      <trkpt lat="46.22791" lon="5.29615">
        <ele>258</ele>
        <time>2022-06-04T08:07:48Z</time>
      </trkpt>
      <trkpt lat="46.22785" lon="5.2962">
        <ele>258.2</ele>
        <time>2022-06-04T08:07:49Z</time>
      </trkpt>
      <trkpt lat="46.22742" lon="5.29668">
        <ele>258.8</ele>
        <time>2022-06-04T08:07:57Z</time>
      </trkpt>
      <trkpt lat="46.22698" lon="5.29712">
        <ele>258.8</ele>
        <time>2022-06-04T08:08:05Z</time>
      </trkpt>
      <trkpt lat="46.22685" lon="5.29725">
        <ele>259.2</ele>
        <time>2022-06-04T08:08:07Z</time>
      </trkpt>
      <trkpt lat="46.22681" lon="5.29731">
        <ele>259.4</ele>
        <time>2022-06-04T08:08:08Z</time>
      </trkpt>
      <trkpt lat="46.22673" lon="5.29746">
        <ele>259.4</ele>
        <time>2022-06-04T08:08:10Z</time>
      </trkpt>
      <trkpt lat="46.22664" lon="5.29775">
        <ele>259.4</ele>
        <time>2022-06-04T08:08:13Z</time>
      </trkpt>
      <trkpt lat="46.2266" lon="5.29784">
        <ele>259</ele>
        <time>2022-06-04T08:08:14Z</time>
      </trkpt>
      <trkpt lat="46.22645" lon="5.29819">
        <ele>258.6</ele>
        <time>2022-06-04T08:08:18Z</time>
      </trkpt>
      <trkpt lat="46.22639" lon="5.29838">
        <ele>258.4</ele>
        <time>2022-06-04T08:08:20Z</time>
      </trkpt>
      <trkpt lat="46.22636" lon="5.29848">
        <ele>258.2</ele>
        <time>2022-06-04T08:08:21Z</time>
      </trkpt>
      <trkpt lat="46.22624" lon="5.29888">
        <ele>258</ele>
        <time>2022-06-04T08:08:25Z</time>
      </trkpt>
      <trkpt lat="46.22614" lon="5.29904">
        <ele>257.6</ele>
        <time>2022-06-04T08:08:27Z</time>
      </trkpt>
      <trkpt lat="46.22578" lon="5.29948">
        <ele>257.2</ele>
        <time>2022-06-04T08:08:33Z</time>
      </trkpt>
      <trkpt lat="46.2257" lon="5.29956">
        <ele>257</ele>
        <time>2022-06-04T08:08:34Z</time>
      </trkpt>
      <trkpt lat="46.22564" lon="5.2996">
        <ele>256.8</ele>
        <time>2022-06-04T08:08:35Z</time>
      </trkpt>
      <trkpt lat="46.22547" lon="5.29968">
        <ele>256.4</ele>
        <time>2022-06-04T08:08:37Z</time>
      </trkpt>
      <trkpt lat="46.22536" lon="5.29974">
        <ele>256.4</ele>
        <time>2022-06-04T08:08:38Z</time>
      </trkpt>
      <trkpt lat="46.2253" lon="5.29979">
        <ele>256</ele>
        <time>2022-06-04T08:08:39Z</time>
      </trkpt>
      <trkpt lat="46.2252" lon="5.29987">
        <ele>255.6</ele>
        <time>2022-06-04T08:08:40Z</time>
      </trkpt>
      <trkpt lat="46.22503" lon="5.30012">
        <ele>255</ele>
        <time>2022-06-04T08:08:43Z</time>
      </trkpt>
      <trkpt lat="46.22497" lon="5.30021">
        <ele>254.8</ele>
        <time>2022-06-04T08:08:44Z</time>
      </trkpt>
      <trkpt lat="46.22489" lon="5.30038">
        <ele>254.6</ele>
        <time>2022-06-04T08:08:46Z</time>
      </trkpt>
      <trkpt lat="46.22482" lon="5.30057">
        <ele>254.6</ele>
        <time>2022-06-04T08:08:48Z</time>
      </trkpt>
      <trkpt lat="46.22477" lon="5.30085">
        <ele>255</ele>
        <time>2022-06-04T08:08:51Z</time>
      </trkpt>
      <trkpt lat="46.22476" lon="5.30095">
        <ele>255</ele>
        <time>2022-06-04T08:08:52Z</time>
      </trkpt>
      <trkpt lat="46.22474" lon="5.30125">
        <ele>255.4</ele>
        <time>2022-06-04T08:08:55Z</time>
      </trkpt>
      <trkpt lat="46.22473" lon="5.30142">
        <ele>255.8</ele>
        <time>2022-06-04T08:08:57Z</time>
      </trkpt>
      <trkpt lat="46.22472" lon="5.30165">
        <ele>256.2</ele>
        <time>2022-06-04T08:08:59Z</time>
      </trkpt>
      <trkpt lat="46.22471" lon="5.30185">
        <ele>256.4</ele>
        <time>2022-06-04T08:09:01Z</time>
      </trkpt>
      <trkpt lat="46.22469" lon="5.30207">
        <ele>256.6</ele>
        <time>2022-06-04T08:09:03Z</time>
      </trkpt>
      <trkpt lat="46.22467" lon="5.30218">
        <ele>256.6</ele>
        <time>2022-06-04T08:09:04Z</time>
      </trkpt>
      <trkpt lat="46.22466" lon="5.30229">
        <ele>256.8</ele>
        <time>2022-06-04T08:09:05Z</time>
      </trkpt>
      <trkpt lat="46.22461" lon="5.30262">
        <ele>256.8</ele>
        <time>2022-06-04T08:09:08Z</time>
      </trkpt>
      <trkpt lat="46.2246" lon="5.3027">
        <ele>256.8</ele>
        <time>2022-06-04T08:09:09Z</time>
      </trkpt>
      <trkpt lat="46.22451" lon="5.30309">
        <ele>256.6</ele>
        <time>2022-06-04T08:09:13Z</time>
      </trkpt>
      <trkpt lat="46.22446" lon="5.30316">
        <ele>256.4</ele>
        <time>2022-06-04T08:09:14Z</time>
      </trkpt>
      <trkpt lat="46.22442" lon="5.30324">
        <ele>256.4</ele>
        <time>2022-06-04T08:09:15Z</time>
      </trkpt>
      <trkpt lat="46.22429" lon="5.30345">
        <ele>256.2</ele>
        <time>2022-06-04T08:09:18Z</time>
      </trkpt>
      <trkpt lat="46.22396" lon="5.30394">
        <ele>256.4</ele>
        <time>2022-06-04T08:09:25Z</time>
      </trkpt>
      <trkpt lat="46.22389" lon="5.30406">
        <ele>256.8</ele>
        <time>2022-06-04T08:09:27Z</time>
      </trkpt>
      <trkpt lat="46.22364" lon="5.30448">
        <ele>257</ele>
        <time>2022-06-04T08:09:33Z</time>
      </trkpt>
      <trkpt lat="46.22351" lon="5.3048">
        <ele>257</ele>
        <time>2022-06-04T08:09:37Z</time>
      </trkpt>
      <trkpt lat="46.22349" lon="5.30488">
        <ele>257.2</ele>
        <time>2022-06-04T08:09:38Z</time>
      </trkpt>
      <trkpt lat="46.22344" lon="5.30514">
        <ele>257.4</ele>
        <time>2022-06-04T08:09:41Z</time>
      </trkpt>
      <trkpt lat="46.22343" lon="5.30532">
        <ele>257.8</ele>
        <time>2022-06-04T08:09:43Z</time>
      </trkpt>
      <trkpt lat="46.2234" lon="5.30586">
        <ele>258</ele>
        <time>2022-06-04T08:09:49Z</time>
      </trkpt>
      <trkpt lat="46.22338" lon="5.30603">
        <ele>258</ele>
        <time>2022-06-04T08:09:51Z</time>
      </trkpt>
      <trkpt lat="46.22332" lon="5.30628">
        <ele>258.2</ele>
        <time>2022-06-04T08:09:54Z</time>
      </trkpt>
      <trkpt lat="46.22329" lon="5.30636">
        <ele>258.2</ele>
        <time>2022-06-04T08:09:55Z</time>
      </trkpt>
      <trkpt lat="46.22324" lon="5.30653">
        <ele>258.2</ele>
        <time>2022-06-04T08:09:57Z</time>
      </trkpt>
      <trkpt lat="46.22318" lon="5.30684">
        <ele>258.4</ele>
        <time>2022-06-04T08:10:01Z</time>
      </trkpt>
      <trkpt lat="46.22317" lon="5.30691">
        <ele>258.6</ele>
        <time>2022-06-04T08:10:02Z</time>
      </trkpt>
      <trkpt lat="46.22318" lon="5.30708">
        <ele>258.6</ele>
        <time>2022-06-04T08:10:04Z</time>
      </trkpt>
      <trkpt lat="46.2232" lon="5.30717">
        <ele>258.6</ele>
        <time>2022-06-04T08:10:05Z</time>
      </trkpt>
      <trkpt lat="46.22328" lon="5.30761">
        <ele>258.6</ele>
        <time>2022-06-04T08:10:10Z</time>
      </trkpt>
      <trkpt lat="46.22332" lon="5.30778">
        <ele>258.8</ele>
        <time>2022-06-04T08:10:12Z</time>
      </trkpt>
      <trkpt lat="46.22341" lon="5.30814">
        <ele>259</ele>
        <time>2022-06-04T08:10:16Z</time>
      </trkpt>
      <trkpt lat="46.22345" lon="5.3084">
        <ele>260</ele>
        <time>2022-06-04T08:10:19Z</time>
      </trkpt>
      <trkpt lat="46.22351" lon="5.30871">
        <ele>261</ele>
        <time>2022-06-04T08:10:23Z</time>
      </trkpt>
      <trkpt lat="46.22354" lon="5.30887">
        <ele>261.4</ele>
        <time>2022-06-04T08:10:25Z</time>
      </trkpt>
      <trkpt lat="46.22358" lon="5.30916">
        <ele>262.2</ele>
        <time>2022-06-04T08:10:29Z</time>
      </trkpt>
      <trkpt lat="46.22362" lon="5.30933">
        <ele>262.4</ele>
        <time>2022-06-04T08:10:31Z</time>
      </trkpt>
      <trkpt lat="46.22365" lon="5.30948">
        <ele>262.8</ele>
        <time>2022-06-04T08:10:33Z</time>
      </trkpt>
      <trkpt lat="46.22368" lon="5.30962">
        <ele>263.2</ele>
        <time>2022-06-04T08:10:35Z</time>
      </trkpt>
      <trkpt lat="46.22369" lon="5.30969">
        <ele>263.4</ele>
        <time>2022-06-04T08:10:36Z</time>
      </trkpt>
      <trkpt lat="46.22372" lon="5.30983">
        <ele>263.8</ele>
        <time>2022-06-04T08:10:38Z</time>
      </trkpt>
      <trkpt lat="46.22379" lon="5.31014">
        <ele>264.6</ele>
        <time>2022-06-04T08:10:42Z</time>
      </trkpt>
      <trkpt lat="46.22379" lon="5.3102">
        <ele>264.6</ele>
        <time>2022-06-04T08:10:43Z</time>
      </trkpt>
      <trkpt lat="46.22381" lon="5.31028">
        <ele>265</ele>
        <time>2022-06-04T08:10:44Z</time>
      </trkpt>
      <trkpt lat="46.22388" lon="5.31051">
        <ele>265.6</ele>
        <time>2022-06-04T08:10:47Z</time>
      </trkpt>
      <trkpt lat="46.2239" lon="5.31087">
        <ele>266.2</ele>
        <time>2022-06-04T08:10:52Z</time>
      </trkpt>
      <trkpt lat="46.22391" lon="5.31094">
        <ele>266.4</ele>
        <time>2022-06-04T08:10:53Z</time>
      </trkpt>
      <trkpt lat="46.22393" lon="5.31102">
        <ele>266.6</ele>
        <time>2022-06-04T08:10:54Z</time>
      </trkpt>
      <trkpt lat="46.22394" lon="5.31116">
        <ele>266.8</ele>
        <time>2022-06-04T08:10:56Z</time>
      </trkpt>
      <trkpt lat="46.22395" lon="5.31123">
        <ele>266.8</ele>
        <time>2022-06-04T08:10:57Z</time>
      </trkpt>
      <trkpt lat="46.22398" lon="5.31143">
        <ele>267</ele>
        <time>2022-06-04T08:11:00Z</time>
      </trkpt>
      <trkpt lat="46.22399" lon="5.3115">
        <ele>267</ele>
        <time>2022-06-04T08:11:01Z</time>
      </trkpt>
      <trkpt lat="46.224" lon="5.31157">
        <ele>267</ele>
        <time>2022-06-04T08:11:02Z</time>
      </trkpt>
      <trkpt lat="46.22401" lon="5.3117">
        <ele>267.2</ele>
        <time>2022-06-04T08:11:04Z</time>
      </trkpt>
      <trkpt lat="46.22402" lon="5.31176">
        <ele>267.6</ele>
        <time>2022-06-04T08:11:05Z</time>
      </trkpt>
      <trkpt lat="46.22404" lon="5.31183">
        <ele>267.8</ele>
        <time>2022-06-04T08:11:06Z</time>
      </trkpt>
      <trkpt lat="46.2241" lon="5.312">
        <ele>268</ele>
        <time>2022-06-04T08:11:08Z</time>
      </trkpt>
      <trkpt lat="46.22417" lon="5.31223">
        <ele>268.2</ele>
        <time>2022-06-04T08:11:11Z</time>
      </trkpt>
      <trkpt lat="46.22419" lon="5.31232">
        <ele>268.2</ele>
        <time>2022-06-04T08:11:12Z</time>
      </trkpt>
      <trkpt lat="46.22421" lon="5.31249">
        <ele>268.6</ele>
        <time>2022-06-04T08:11:14Z</time>
      </trkpt>
      <trkpt lat="46.22429" lon="5.31279">
        <ele>269</ele>
        <time>2022-06-04T08:11:17Z</time>
      </trkpt>
      <trkpt lat="46.22426" lon="5.31304">
        <ele>269.2</ele>
        <time>2022-06-04T08:11:19Z</time>
      </trkpt>
      <trkpt lat="46.22426" lon="5.31304">
        <ele>269.2</ele>
        <time>2022-06-04T08:11:20Z</time>
      </trkpt>
      <trkpt lat="46.22399" lon="5.3135">
        <ele>269.2</ele>
        <time>2022-06-04T08:11:27Z</time>
      </trkpt>
      <trkpt lat="46.22368" lon="5.31392">
        <ele>269.4</ele>
        <time>2022-06-04T08:11:33Z</time>
      </trkpt>
      <trkpt lat="46.22354" lon="5.3142">
        <ele>269.6</ele>
        <time>2022-06-04T08:11:37Z</time>
      </trkpt>
      <trkpt lat="46.22348" lon="5.31428">
        <ele>269.8</ele>
        <time>2022-06-04T08:11:40Z</time>
      </trkpt>
      <trkpt lat="46.22346" lon="5.31432">
        <ele>270</ele>
        <time>2022-06-04T08:11:43Z</time>
      </trkpt>
      <trkpt lat="46.22346" lon="5.31432">
        <ele>270.2</ele>
        <time>2022-06-04T08:11:45Z</time>
      </trkpt>
      <trkpt lat="46.22343" lon="5.31439">
        <ele>269.8</ele>
        <time>2022-06-04T08:12:26Z</time>
      </trkpt>
      <trkpt lat="46.2234" lon="5.31445">
        <ele>269.8</ele>
        <time>2022-06-04T08:12:27Z</time>
      </trkpt>
      <trkpt lat="46.22328" lon="5.31467">
        <ele>269.6</ele>
        <time>2022-06-04T08:12:31Z</time>
      </trkpt>
      <trkpt lat="46.22323" lon="5.31473">
        <ele>269.6</ele>
        <time>2022-06-04T08:12:32Z</time>
      </trkpt>
      <trkpt lat="46.2231" lon="5.31493">
        <ele>269.6</ele>
        <time>2022-06-04T08:12:35Z</time>
      </trkpt>
      <trkpt lat="46.22302" lon="5.31507">
        <ele>269.4</ele>
        <time>2022-06-04T08:12:37Z</time>
      </trkpt>
      <trkpt lat="46.22286" lon="5.31534">
        <ele>270</ele>
        <time>2022-06-04T08:12:41Z</time>
      </trkpt>
      <trkpt lat="46.22262" lon="5.31569">
        <ele>270.8</ele>
        <time>2022-06-04T08:12:47Z</time>
      </trkpt>
      <trkpt lat="46.22254" lon="5.31581">
        <ele>271.4</ele>
        <time>2022-06-04T08:12:49Z</time>
      </trkpt>
      <trkpt lat="46.22242" lon="5.316">
        <ele>271.4</ele>
        <time>2022-06-04T08:12:52Z</time>
      </trkpt>
      <trkpt lat="46.2223" lon="5.31617">
        <ele>271.4</ele>
        <time>2022-06-04T08:12:55Z</time>
      </trkpt>
      <trkpt lat="46.22222" lon="5.31629">
        <ele>272.2</ele>
        <time>2022-06-04T08:12:57Z</time>
      </trkpt>
      <trkpt lat="46.22218" lon="5.31636">
        <ele>272.6</ele>
        <time>2022-06-04T08:12:58Z</time>
      </trkpt>
      <trkpt lat="46.22214" lon="5.31641">
        <ele>273</ele>
        <time>2022-06-04T08:12:59Z</time>
      </trkpt>
      <trkpt lat="46.2221" lon="5.31646">
        <ele>273.4</ele>
        <time>2022-06-04T08:13:00Z</time>
      </trkpt>
      <trkpt lat="46.22201" lon="5.31655">
        <ele>273.8</ele>
        <time>2022-06-04T08:13:02Z</time>
      </trkpt>
      <trkpt lat="46.22151" lon="5.317">
        <ele>273.8</ele>
        <time>2022-06-04T08:13:12Z</time>
      </trkpt>
      <trkpt lat="46.22151" lon="5.317">
        <ele>273.8</ele>
        <time>2022-06-04T08:13:13Z</time>
      </trkpt>
      <trkpt lat="46.22109" lon="5.31736">
        <ele>274.2</ele>
        <time>2022-06-04T08:13:22Z</time>
      </trkpt>
      <trkpt lat="46.22084" lon="5.31756">
        <ele>274.6</ele>
        <time>2022-06-04T08:13:26Z</time>
      </trkpt>
      <trkpt lat="46.2206" lon="5.31777">
        <ele>275.4</ele>
        <time>2022-06-04T08:13:31Z</time>
      </trkpt>
      <trkpt lat="46.22052" lon="5.31791">
        <ele>275.8</ele>
        <time>2022-06-04T08:13:34Z</time>
      </trkpt>
      <trkpt lat="46.22032" lon="5.31806">
        <ele>276</ele>
        <time>2022-06-04T08:13:38Z</time>
      </trkpt>
      <trkpt lat="46.22027" lon="5.31809">
        <ele>276.2</ele>
        <time>2022-06-04T08:13:39Z</time>
      </trkpt>
      <trkpt lat="46.22006" lon="5.31824">
        <ele>276.6</ele>
        <time>2022-06-04T08:13:43Z</time>
      </trkpt>
      <trkpt lat="46.21995" lon="5.31828">
        <ele>276.6</ele>
        <time>2022-06-04T08:13:45Z</time>
      </trkpt>
      <trkpt lat="46.21984" lon="5.31832">
        <ele>276.6</ele>
        <time>2022-06-04T08:13:47Z</time>
      </trkpt>
      <trkpt lat="46.21966" lon="5.31831">
        <ele>276.8</ele>
        <time>2022-06-04T08:13:50Z</time>
      </trkpt>
      <trkpt lat="46.21961" lon="5.3183">
        <ele>276.8</ele>
        <time>2022-06-04T08:13:51Z</time>
      </trkpt>
      <trkpt lat="46.2195" lon="5.31827">
        <ele>276.8</ele>
        <time>2022-06-04T08:13:53Z</time>
      </trkpt>
      <trkpt lat="46.21943" lon="5.31828">
        <ele>276.8</ele>
        <time>2022-06-04T08:13:54Z</time>
      </trkpt>
      <trkpt lat="46.21932" lon="5.31835">
        <ele>277</ele>
        <time>2022-06-04T08:13:56Z</time>
      </trkpt>
      <trkpt lat="46.21922" lon="5.31845">
        <ele>277.2</ele>
        <time>2022-06-04T08:13:58Z</time>
      </trkpt>
      <trkpt lat="46.21914" lon="5.31856">
        <ele>277.4</ele>
        <time>2022-06-04T08:14:00Z</time>
      </trkpt>
      <trkpt lat="46.21904" lon="5.31877">
        <ele>277.8</ele>
        <time>2022-06-04T08:14:03Z</time>
      </trkpt>
      <trkpt lat="46.21904" lon="5.31877">
        <ele>278</ele>
        <time>2022-06-04T08:14:04Z</time>
      </trkpt>
      <trkpt lat="46.21901" lon="5.31893">
        <ele>278</ele>
        <time>2022-06-04T08:14:05Z</time>
      </trkpt>
      <trkpt lat="46.21892" lon="5.31935">
        <ele>278.2</ele>
        <time>2022-06-04T08:14:10Z</time>
      </trkpt>
      <trkpt lat="46.21883" lon="5.31958">
        <ele>278.4</ele>
        <time>2022-06-04T08:14:13Z</time>
      </trkpt>
      <trkpt lat="46.21875" lon="5.31973">
        <ele>278.8</ele>
        <time>2022-06-04T08:14:16Z</time>
      </trkpt>
      <trkpt lat="46.21856" lon="5.32009">
        <ele>279</ele>
        <time>2022-06-04T08:14:20Z</time>
      </trkpt>
      <trkpt lat="46.21845" lon="5.32027">
        <ele>279.4</ele>
        <time>2022-06-04T08:14:23Z</time>
      </trkpt>
      <trkpt lat="46.21837" lon="5.32039">
        <ele>279.6</ele>
        <time>2022-06-04T08:14:25Z</time>
      </trkpt>
      <trkpt lat="46.21829" lon="5.32052">
        <ele>280</ele>
        <time>2022-06-04T08:14:27Z</time>
      </trkpt>
      <trkpt lat="46.21825" lon="5.32059">
        <ele>280</ele>
        <time>2022-06-04T08:14:28Z</time>
      </trkpt>
      <trkpt lat="46.21812" lon="5.32078">
        <ele>280.6</ele>
        <time>2022-06-04T08:14:31Z</time>
      </trkpt>
      <trkpt lat="46.21799" lon="5.32095">
        <ele>280.8</ele>
        <time>2022-06-04T08:14:34Z</time>
      </trkpt>
      <trkpt lat="46.21789" lon="5.32103">
        <ele>281</ele>
        <time>2022-06-04T08:14:36Z</time>
      </trkpt>
      <trkpt lat="46.21777" lon="5.3211">
        <ele>281</ele>
        <time>2022-06-04T08:14:38Z</time>
      </trkpt>
      <trkpt lat="46.21773" lon="5.32111">
        <ele>281.2</ele>
        <time>2022-06-04T08:14:39Z</time>
      </trkpt>
      <trkpt lat="46.21768" lon="5.32113">
        <ele>281.4</ele>
        <time>2022-06-04T08:14:40Z</time>
      </trkpt>
      <trkpt lat="46.21762" lon="5.32114">
        <ele>281.6</ele>
        <time>2022-06-04T08:14:41Z</time>
      </trkpt>
      <trkpt lat="46.21734" lon="5.32117">
        <ele>282.4</ele>
        <time>2022-06-04T08:14:46Z</time>
      </trkpt>
      <trkpt lat="46.21723" lon="5.32121">
        <ele>282.6</ele>
        <time>2022-06-04T08:14:48Z</time>
      </trkpt>
      <trkpt lat="46.21712" lon="5.32127">
        <ele>282.8</ele>
        <time>2022-06-04T08:14:50Z</time>
      </trkpt>
      <trkpt lat="46.21702" lon="5.32137">
        <ele>283</ele>
        <time>2022-06-04T08:14:52Z</time>
      </trkpt>
      <trkpt lat="46.21698" lon="5.32144">
        <ele>283.2</ele>
        <time>2022-06-04T08:14:53Z</time>
      </trkpt>
      <trkpt lat="46.21698" lon="5.32144">
        <ele>283.4</ele>
        <time>2022-06-04T08:14:54Z</time>
      </trkpt>
      <trkpt lat="46.21692" lon="5.32158">
        <ele>283.6</ele>
        <time>2022-06-04T08:14:55Z</time>
      </trkpt>
      <trkpt lat="46.21686" lon="5.32171">
        <ele>283.8</ele>
        <time>2022-06-04T08:14:57Z</time>
      </trkpt>
      <trkpt lat="46.21682" lon="5.32178">
        <ele>284</ele>
        <time>2022-06-04T08:14:58Z</time>
      </trkpt>
      <trkpt lat="46.21676" lon="5.32192">
        <ele>284.4</ele>
        <time>2022-06-04T08:15:00Z</time>
      </trkpt>
      <trkpt lat="46.21668" lon="5.32206">
        <ele>284.8</ele>
        <time>2022-06-04T08:15:02Z</time>
      </trkpt>
      <trkpt lat="46.21663" lon="5.32221">
        <ele>285.4</ele>
        <time>2022-06-04T08:15:04Z</time>
      </trkpt>
      <trkpt lat="46.21661" lon="5.32229">
        <ele>285.4</ele>
        <time>2022-06-04T08:15:05Z</time>
      </trkpt>
      <trkpt lat="46.21656" lon="5.32242">
        <ele>285.6</ele>
        <time>2022-06-04T08:15:07Z</time>
      </trkpt>
      <trkpt lat="46.21653" lon="5.32248">
        <ele>285.6</ele>
        <time>2022-06-04T08:15:08Z</time>
      </trkpt>
      <trkpt lat="46.21636" lon="5.32288">
        <ele>286.4</ele>
        <time>2022-06-04T08:15:14Z</time>
      </trkpt>
      <trkpt lat="46.21628" lon="5.32303">
        <ele>286.8</ele>
        <time>2022-06-04T08:15:16Z</time>
      </trkpt>
      <trkpt lat="46.21618" lon="5.32326">
        <ele>287.2</ele>
        <time>2022-06-04T08:15:19Z</time>
      </trkpt>
      <trkpt lat="46.2161" lon="5.32347">
        <ele>287.4</ele>
        <time>2022-06-04T08:15:22Z</time>
      </trkpt>
      <trkpt lat="46.21606" lon="5.32355">
        <ele>287.4</ele>
        <time>2022-06-04T08:15:23Z</time>
      </trkpt>
      <trkpt lat="46.21602" lon="5.32361">
        <ele>287.6</ele>
        <time>2022-06-04T08:15:24Z</time>
      </trkpt>
      <trkpt lat="46.21617" lon="5.3241">
        <ele>288</ele>
        <time>2022-06-04T08:15:27Z</time>
      </trkpt>
      <trkpt lat="46.21618" lon="5.32425">
        <ele>288</ele>
        <time>2022-06-04T08:15:29Z</time>
      </trkpt>
      <trkpt lat="46.21585" lon="5.32422">
        <ele>288</ele>
        <time>2022-06-04T08:15:31Z</time>
      </trkpt>
      <trkpt lat="46.21566" lon="5.3242">
        <ele>288.2</ele>
        <time>2022-06-04T08:15:33Z</time>
      </trkpt>
      <trkpt lat="46.21555" lon="5.32425">
        <ele>288.4</ele>
        <time>2022-06-04T08:15:34Z</time>
      </trkpt>
      <trkpt lat="46.21543" lon="5.32438">
        <ele>289.6</ele>
        <time>2022-06-04T08:15:37Z</time>
      </trkpt>
      <trkpt lat="46.21518" lon="5.32464">
        <ele>290.4</ele>
        <time>2022-06-04T08:15:43Z</time>
      </trkpt>
      <trkpt lat="46.21514" lon="5.3247">
        <ele>290.6</ele>
        <time>2022-06-04T08:15:44Z</time>
      </trkpt>
      <trkpt lat="46.21505" lon="5.32489">
        <ele>291.2</ele>
        <time>2022-06-04T08:15:47Z</time>
      </trkpt>
      <trkpt lat="46.21494" lon="5.32518">
        <ele>291.6</ele>
        <time>2022-06-04T08:15:51Z</time>
      </trkpt>
      <trkpt lat="46.21492" lon="5.32525">
        <ele>291.8</ele>
        <time>2022-06-04T08:15:52Z</time>
      </trkpt>
      <trkpt lat="46.21469" lon="5.32583">
        <ele>292.6</ele>
        <time>2022-06-04T08:16:00Z</time>
      </trkpt>
      <trkpt lat="46.21463" lon="5.326">
        <ele>292.6</ele>
        <time>2022-06-04T08:16:02Z</time>
      </trkpt>
      <trkpt lat="46.21457" lon="5.32616">
        <ele>292.6</ele>
        <time>2022-06-04T08:16:04Z</time>
      </trkpt>
      <trkpt lat="46.21455" lon="5.32624">
        <ele>292.4</ele>
        <time>2022-06-04T08:16:05Z</time>
      </trkpt>
      <trkpt lat="46.21448" lon="5.32638">
        <ele>292.6</ele>
        <time>2022-06-04T08:16:07Z</time>
      </trkpt>
      <trkpt lat="46.21434" lon="5.32662">
        <ele>292.6</ele>
        <time>2022-06-04T08:16:11Z</time>
      </trkpt>
      <trkpt lat="46.21431" lon="5.32667">
        <ele>292.6</ele>
        <time>2022-06-04T08:16:12Z</time>
      </trkpt>
      <trkpt lat="46.21427" lon="5.32674">
        <ele>292.6</ele>
        <time>2022-06-04T08:16:14Z</time>
      </trkpt>
      <trkpt lat="46.21425" lon="5.32676">
        <ele>292.6</ele>
        <time>2022-06-04T08:16:16Z</time>
      </trkpt>
      <trkpt lat="46.21425" lon="5.32676">
        <ele>292.6</ele>
        <time>2022-06-04T08:16:17Z</time>
      </trkpt>
      <trkpt lat="46.2142" lon="5.32676">
        <ele>292.6</ele>
        <time>2022-06-04T08:16:18Z</time>
      </trkpt>
      <trkpt lat="46.21407" lon="5.32665">
        <ele>292.6</ele>
        <time>2022-06-04T08:16:21Z</time>
      </trkpt>
      <trkpt lat="46.2138" lon="5.32644">
        <ele>292</ele>
        <time>2022-06-04T08:16:26Z</time>
      </trkpt>
      <trkpt lat="46.21356" lon="5.32625">
        <ele>291.6</ele>
        <time>2022-06-04T08:16:30Z</time>
      </trkpt>
      <trkpt lat="46.21338" lon="5.32615">
        <ele>291.6</ele>
        <time>2022-06-04T08:16:33Z</time>
      </trkpt>
      <trkpt lat="46.21303" lon="5.32595">
        <ele>291.8</ele>
        <time>2022-06-04T08:16:39Z</time>
      </trkpt>
      <trkpt lat="46.21262" lon="5.32568">
        <ele>292.8</ele>
        <time>2022-06-04T08:16:46Z</time>
      </trkpt>
      <trkpt lat="46.21262" lon="5.32568">
        <ele>293</ele>
        <time>2022-06-04T08:16:47Z</time>
      </trkpt>
      <trkpt lat="46.21226" lon="5.32545">
        <ele>293.6</ele>
        <time>2022-06-04T08:16:53Z</time>
      </trkpt>
      <trkpt lat="46.21226" lon="5.32545">
        <ele>293.8</ele>
        <time>2022-06-04T08:16:54Z</time>
      </trkpt>
      <trkpt lat="46.21212" lon="5.32541">
        <ele>293.8</ele>
        <time>2022-06-04T08:16:57Z</time>
      </trkpt>
      <trkpt lat="46.2121" lon="5.32541">
        <ele>294</ele>
        <time>2022-06-04T08:16:59Z</time>
      </trkpt>
      <trkpt lat="46.2121" lon="5.32538">
        <ele>294.4</ele>
        <time>2022-06-04T08:17:01Z</time>
      </trkpt>
      <trkpt lat="46.21211" lon="5.32531">
        <ele>294.4</ele>
        <time>2022-06-04T08:17:03Z</time>
      </trkpt>
      <trkpt lat="46.21209" lon="5.32524">
        <ele>294.4</ele>
        <time>2022-06-04T08:17:05Z</time>
      </trkpt>
      <trkpt lat="46.21205" lon="5.32512">
        <ele>293.8</ele>
        <time>2022-06-04T08:17:10Z</time>
      </trkpt>
      <trkpt lat="46.21205" lon="5.32513">
        <ele>293.8</ele>
        <time>2022-06-04T08:17:11Z</time>
      </trkpt>
      <trkpt lat="46.212" lon="5.32514">
        <ele>293.8</ele>
        <time>2022-06-04T08:17:13Z</time>
      </trkpt>
      <trkpt lat="46.21184" lon="5.3251">
        <ele>293.6</ele>
        <time>2022-06-04T08:17:16Z</time>
      </trkpt>
      <trkpt lat="46.21176" lon="5.32507">
        <ele>293.6</ele>
        <time>2022-06-04T08:17:17Z</time>
      </trkpt>
      <trkpt lat="46.21135" lon="5.32482">
        <ele>292.6</ele>
        <time>2022-06-04T08:17:24Z</time>
      </trkpt>
      <trkpt lat="46.21129" lon="5.32479">
        <ele>292.6</ele>
        <time>2022-06-04T08:17:25Z</time>
      </trkpt>
      <trkpt lat="46.21117" lon="5.32473">
        <ele>292.4</ele>
        <time>2022-06-04T08:17:27Z</time>
      </trkpt>
      <trkpt lat="46.21104" lon="5.3247">
        <ele>292.2</ele>
        <time>2022-06-04T08:17:29Z</time>
      </trkpt>
      <trkpt lat="46.21064" lon="5.32468">
        <ele>292</ele>
        <time>2022-06-04T08:17:35Z</time>
      </trkpt>
      <trkpt lat="46.21021" lon="5.32463">
        <ele>291.8</ele>
        <time>2022-06-04T08:17:41Z</time>
      </trkpt>
      <trkpt lat="46.21015" lon="5.32462">
        <ele>291.4</ele>
        <time>2022-06-04T08:17:42Z</time>
      </trkpt>
      <trkpt lat="46.21006" lon="5.32461">
        <ele>291.4</ele>
        <time>2022-06-04T08:17:43Z</time>
      </trkpt>
      <trkpt lat="46.20984" lon="5.32463">
        <ele>291</ele>
        <time>2022-06-04T08:17:46Z</time>
      </trkpt>
      <trkpt lat="46.20958" lon="5.32466">
        <ele>290.4</ele>
        <time>2022-06-04T08:17:49Z</time>
      </trkpt>
      <trkpt lat="46.2095" lon="5.32467">
        <ele>290.2</ele>
        <time>2022-06-04T08:17:50Z</time>
      </trkpt>
      <trkpt lat="46.20933" lon="5.32469">
        <ele>289.2</ele>
        <time>2022-06-04T08:17:52Z</time>
      </trkpt>
      <trkpt lat="46.20891" lon="5.32476">
        <ele>288.8</ele>
        <time>2022-06-04T08:17:58Z</time>
      </trkpt>
      <trkpt lat="46.20866" lon="5.32483">
        <ele>288.2</ele>
        <time>2022-06-04T08:18:00Z</time>
      </trkpt>
      <trkpt lat="46.20835" lon="5.32492">
        <ele>287.2</ele>
        <time>2022-06-04T08:18:04Z</time>
      </trkpt>
      <trkpt lat="46.20827" lon="5.32494">
        <ele>286.8</ele>
        <time>2022-06-04T08:18:05Z</time>
      </trkpt>
      <trkpt lat="46.20784" lon="5.32501">
        <ele>286.2</ele>
        <time>2022-06-04T08:18:10Z</time>
      </trkpt>
      <trkpt lat="46.20743" lon="5.32506">
        <ele>285.2</ele>
        <time>2022-06-04T08:18:15Z</time>
      </trkpt>
      <trkpt lat="46.20698" lon="5.32509">
        <ele>284.8</ele>
        <time>2022-06-04T08:18:21Z</time>
      </trkpt>
      <trkpt lat="46.20648" lon="5.32508">
        <ele>285.2</ele>
        <time>2022-06-04T08:18:28Z</time>
      </trkpt>
      <trkpt lat="46.20614" lon="5.325">
        <ele>286.2</ele>
        <time>2022-06-04T08:18:33Z</time>
      </trkpt>
      <trkpt lat="46.20596" lon="5.32496">
        <ele>287.2</ele>
        <time>2022-06-04T08:18:36Z</time>
      </trkpt>
      <trkpt lat="46.2059" lon="5.32494">
        <ele>287.4</ele>
        <time>2022-06-04T08:18:37Z</time>
      </trkpt>
      <trkpt lat="46.20563" lon="5.32487">
        <ele>288.2</ele>
        <time>2022-06-04T08:18:42Z</time>
      </trkpt>
      <trkpt lat="46.20551" lon="5.32484">
        <ele>289</ele>
        <time>2022-06-04T08:18:44Z</time>
      </trkpt>
      <trkpt lat="46.20541" lon="5.32482">
        <ele>289.2</ele>
        <time>2022-06-04T08:18:46Z</time>
      </trkpt>
      <trkpt lat="46.2052" lon="5.32477">
        <ele>290.4</ele>
        <time>2022-06-04T08:18:50Z</time>
      </trkpt>
      <trkpt lat="46.20511" lon="5.32474">
        <ele>291</ele>
        <time>2022-06-04T08:18:52Z</time>
      </trkpt>
      <trkpt lat="46.20501" lon="5.32473">
        <ele>291.6</ele>
        <time>2022-06-04T08:18:54Z</time>
      </trkpt>
      <trkpt lat="46.20492" lon="5.3247">
        <ele>292</ele>
        <time>2022-06-04T08:18:57Z</time>
      </trkpt>
      <trkpt lat="46.20468" lon="5.32465">
        <ele>293</ele>
        <time>2022-06-04T08:19:01Z</time>
      </trkpt>
      <trkpt lat="46.20439" lon="5.3246">
        <ele>294</ele>
        <time>2022-06-04T08:19:07Z</time>
      </trkpt>
      <trkpt lat="46.20435" lon="5.32459">
        <ele>294.2</ele>
        <time>2022-06-04T08:19:08Z</time>
      </trkpt>
      <trkpt lat="46.2042" lon="5.32456">
        <ele>295.2</ele>
        <time>2022-06-04T08:19:11Z</time>
      </trkpt>
      <trkpt lat="46.20402" lon="5.32453">
        <ele>296.4</ele>
        <time>2022-06-04T08:19:15Z</time>
      </trkpt>
      <trkpt lat="46.20386" lon="5.3245">
        <ele>297</ele>
        <time>2022-06-04T08:19:18Z</time>
      </trkpt>
      <trkpt lat="46.2037" lon="5.32448">
        <ele>297.6</ele>
        <time>2022-06-04T08:19:22Z</time>
      </trkpt>
      <trkpt lat="46.20335" lon="5.32444">
        <ele>298.6</ele>
        <time>2022-06-04T08:19:28Z</time>
      </trkpt>
      <trkpt lat="46.20319" lon="5.32441">
        <ele>299.4</ele>
        <time>2022-06-04T08:19:31Z</time>
      </trkpt>
      <trkpt lat="46.20314" lon="5.3244">
        <ele>299.8</ele>
        <time>2022-06-04T08:19:32Z</time>
      </trkpt>
      <trkpt lat="46.20277" lon="5.32435">
        <ele>301</ele>
        <time>2022-06-04T08:19:39Z</time>
      </trkpt>
      <trkpt lat="46.20261" lon="5.32433">
        <ele>301</ele>
        <time>2022-06-04T08:19:42Z</time>
      </trkpt>
      <trkpt lat="46.20228" lon="5.32423">
        <ele>302</ele>
        <time>2022-06-04T08:19:48Z</time>
      </trkpt>
      <trkpt lat="46.20218" lon="5.32418">
        <ele>302.2</ele>
        <time>2022-06-04T08:19:50Z</time>
      </trkpt>
      <trkpt lat="46.20193" lon="5.32406">
        <ele>303.2</ele>
        <time>2022-06-04T08:19:55Z</time>
      </trkpt>
      <trkpt lat="46.20177" lon="5.32399">
        <ele>303.6</ele>
        <time>2022-06-04T08:19:58Z</time>
      </trkpt>
      <trkpt lat="46.20154" lon="5.32394">
        <ele>304.2</ele>
        <time>2022-06-04T08:20:02Z</time>
      </trkpt>
      <trkpt lat="46.20131" lon="5.32392">
        <ele>304.4</ele>
        <time>2022-06-04T08:20:06Z</time>
      </trkpt>
      <trkpt lat="46.20079" lon="5.3239">
        <ele>305.2</ele>
        <time>2022-06-04T08:20:15Z</time>
      </trkpt>
      <trkpt lat="46.20073" lon="5.32388">
        <ele>305.4</ele>
        <time>2022-06-04T08:20:17Z</time>
      </trkpt>
      <trkpt lat="46.2006" lon="5.32385">
        <ele>305.6</ele>
        <time>2022-06-04T08:20:18Z</time>
      </trkpt>
      <trkpt lat="46.20042" lon="5.32374">
        <ele>305.8</ele>
        <time>2022-06-04T08:20:21Z</time>
      </trkpt>
      <trkpt lat="46.20011" lon="5.3234">
        <ele>306</ele>
        <time>2022-06-04T08:20:27Z</time>
      </trkpt>
      <trkpt lat="46.19989" lon="5.32316">
        <ele>306.2</ele>
        <time>2022-06-04T08:20:31Z</time>
      </trkpt>
      <trkpt lat="46.19983" lon="5.32311">
        <ele>306.2</ele>
        <time>2022-06-04T08:20:32Z</time>
      </trkpt>
      <trkpt lat="46.19976" lon="5.32306">
        <ele>306.2</ele>
        <time>2022-06-04T08:20:33Z</time>
      </trkpt>
      <trkpt lat="46.19939" lon="5.32293">
        <ele>306.8</ele>
        <time>2022-06-04T08:20:39Z</time>
      </trkpt>
      <trkpt lat="46.19922" lon="5.32294">
        <ele>307.2</ele>
        <time>2022-06-04T08:20:42Z</time>
      </trkpt>
      <trkpt lat="46.19903" lon="5.32298">
        <ele>307.4</ele>
        <time>2022-06-04T08:20:45Z</time>
      </trkpt>
      <trkpt lat="46.1986" lon="5.32308">
        <ele>308.2</ele>
        <time>2022-06-04T08:20:52Z</time>
      </trkpt>
      <trkpt lat="46.1984" lon="5.3231">
        <ele>308.6</ele>
        <time>2022-06-04T08:20:55Z</time>
      </trkpt>
      <trkpt lat="46.19796" lon="5.32311">
        <ele>308.4</ele>
        <time>2022-06-04T08:21:01Z</time>
      </trkpt>
      <trkpt lat="46.19749" lon="5.32303">
        <ele>307.4</ele>
        <time>2022-06-04T08:21:07Z</time>
      </trkpt>
      <trkpt lat="46.19741" lon="5.32301">
        <ele>307.2</ele>
        <time>2022-06-04T08:21:08Z</time>
      </trkpt>
      <trkpt lat="46.19684" lon="5.32282">
        <ele>307.2</ele>
        <time>2022-06-04T08:21:16Z</time>
      </trkpt>
      <trkpt lat="46.19644" lon="5.32267">
        <ele>308.2</ele>
        <time>2022-06-04T08:21:22Z</time>
      </trkpt>
      <trkpt lat="46.19631" lon="5.32262">
        <ele>308.4</ele>
        <time>2022-06-04T08:21:24Z</time>
      </trkpt>
      <trkpt lat="46.19626" lon="5.32261">
        <ele>308.4</ele>
        <time>2022-06-04T08:21:25Z</time>
      </trkpt>
      <trkpt lat="46.19581" lon="5.32248">
        <ele>309.6</ele>
        <time>2022-06-04T08:21:33Z</time>
      </trkpt>
      <trkpt lat="46.19565" lon="5.32243">
        <ele>310.8</ele>
        <time>2022-06-04T08:21:36Z</time>
      </trkpt>
      <trkpt lat="46.19538" lon="5.32236">
        <ele>311.8</ele>
        <time>2022-06-04T08:21:41Z</time>
      </trkpt>
      <trkpt lat="46.19525" lon="5.32232">
        <ele>312</ele>
        <time>2022-06-04T08:21:43Z</time>
      </trkpt>
      <trkpt lat="46.19498" lon="5.32223">
        <ele>312.8</ele>
        <time>2022-06-04T08:21:47Z</time>
      </trkpt>
      <trkpt lat="46.19484" lon="5.3222">
        <ele>313</ele>
        <time>2022-06-04T08:21:49Z</time>
      </trkpt>
      <trkpt lat="46.19424" lon="5.32214">
        <ele>312.6</ele>
        <time>2022-06-04T08:21:57Z</time>
      </trkpt>
      <trkpt lat="46.19382" lon="5.32207">
        <ele>311.8</ele>
        <time>2022-06-04T08:22:03Z</time>
      </trkpt>
      <trkpt lat="46.19369" lon="5.32205">
        <ele>311.6</ele>
        <time>2022-06-04T08:22:05Z</time>
      </trkpt>
      <trkpt lat="46.19326" lon="5.32187">
        <ele>311.8</ele>
        <time>2022-06-04T08:22:12Z</time>
      </trkpt>
      <trkpt lat="46.19283" lon="5.32168">
        <ele>312.2</ele>
        <time>2022-06-04T08:22:19Z</time>
      </trkpt>
      <trkpt lat="46.1923" lon="5.32145">
        <ele>311.8</ele>
        <time>2022-06-04T08:22:27Z</time>
      </trkpt>
      <trkpt lat="46.19223" lon="5.32142">
        <ele>311.8</ele>
        <time>2022-06-04T08:22:28Z</time>
      </trkpt>
      <trkpt lat="46.19169" lon="5.32124">
        <ele>311.6</ele>
        <time>2022-06-04T08:22:36Z</time>
      </trkpt>
      <trkpt lat="46.19129" lon="5.32123">
        <ele>311.6</ele>
        <time>2022-06-04T08:22:42Z</time>
      </trkpt>
      <trkpt lat="46.19068" lon="5.32139">
        <ele>311.2</ele>
        <time>2022-06-04T08:22:50Z</time>
      </trkpt>
      <trkpt lat="46.19034" lon="5.32149">
        <ele>310.4</ele>
        <time>2022-06-04T08:22:54Z</time>
      </trkpt>
      <trkpt lat="46.19005" lon="5.32156">
        <ele>309.2</ele>
        <time>2022-06-04T08:22:57Z</time>
      </trkpt>
      <trkpt lat="46.18986" lon="5.32156">
        <ele>308.2</ele>
        <time>2022-06-04T08:22:59Z</time>
      </trkpt>
      <trkpt lat="46.1897" lon="5.32153">
        <ele>307</ele>
        <time>2022-06-04T08:23:01Z</time>
      </trkpt>
      <trkpt lat="46.1896" lon="5.32151">
        <ele>306.6</ele>
        <time>2022-06-04T08:23:02Z</time>
      </trkpt>
      <trkpt lat="46.18945" lon="5.32148">
        <ele>305.6</ele>
        <time>2022-06-04T08:23:04Z</time>
      </trkpt>
      <trkpt lat="46.18937" lon="5.32148">
        <ele>305.2</ele>
        <time>2022-06-04T08:23:05Z</time>
      </trkpt>
      <trkpt lat="46.18916" lon="5.3215">
        <ele>304.4</ele>
        <time>2022-06-04T08:23:07Z</time>
      </trkpt>
      <trkpt lat="46.18877" lon="5.32167">
        <ele>303.2</ele>
        <time>2022-06-04T08:23:11Z</time>
      </trkpt>
      <trkpt lat="46.18855" lon="5.32183">
        <ele>301.4</ele>
        <time>2022-06-04T08:23:13Z</time>
      </trkpt>
      <trkpt lat="46.18837" lon="5.32197">
        <ele>299.4</ele>
        <time>2022-06-04T08:23:15Z</time>
      </trkpt>
      <trkpt lat="46.18825" lon="5.32205">
        <ele>298.6</ele>
        <time>2022-06-04T08:23:16Z</time>
      </trkpt>
      <trkpt lat="46.18814" lon="5.32211">
        <ele>297.6</ele>
        <time>2022-06-04T08:23:17Z</time>
      </trkpt>
      <trkpt lat="46.18803" lon="5.32216">
        <ele>297.4</ele>
        <time>2022-06-04T08:23:18Z</time>
      </trkpt>
      <trkpt lat="46.18784" lon="5.3222">
        <ele>295.8</ele>
        <time>2022-06-04T08:23:20Z</time>
      </trkpt>
      <trkpt lat="46.18761" lon="5.32223">
        <ele>294.2</ele>
        <time>2022-06-04T08:23:22Z</time>
      </trkpt>
      <trkpt lat="46.18735" lon="5.32226">
        <ele>293.4</ele>
        <time>2022-06-04T08:23:25Z</time>
      </trkpt>
      <trkpt lat="46.18684" lon="5.32237">
        <ele>293.6</ele>
        <time>2022-06-04T08:23:31Z</time>
      </trkpt>
      <trkpt lat="46.18643" lon="5.3225">
        <ele>294.8</ele>
        <time>2022-06-04T08:23:37Z</time>
      </trkpt>
      <trkpt lat="46.18638" lon="5.32252">
        <ele>295.2</ele>
        <time>2022-06-04T08:23:38Z</time>
      </trkpt>
      <trkpt lat="46.18625" lon="5.32256">
        <ele>296.4</ele>
        <time>2022-06-04T08:23:40Z</time>
      </trkpt>
      <trkpt lat="46.18605" lon="5.32264">
        <ele>297.6</ele>
        <time>2022-06-04T08:23:44Z</time>
      </trkpt>
      <trkpt lat="46.1859" lon="5.3227">
        <ele>298.8</ele>
        <time>2022-06-04T08:23:47Z</time>
      </trkpt>
      <trkpt lat="46.18574" lon="5.32276">
        <ele>299.6</ele>
        <time>2022-06-04T08:23:50Z</time>
      </trkpt>
      <trkpt lat="46.18566" lon="5.32279">
        <ele>300.2</ele>
        <time>2022-06-04T08:23:52Z</time>
      </trkpt>
      <trkpt lat="46.18547" lon="5.32285">
        <ele>301.2</ele>
        <time>2022-06-04T08:23:56Z</time>
      </trkpt>
      <trkpt lat="46.18537" lon="5.32286">
        <ele>302</ele>
        <time>2022-06-04T08:23:58Z</time>
      </trkpt>
      <trkpt lat="46.18531" lon="5.32288">
        <ele>302.4</ele>
        <time>2022-06-04T08:23:59Z</time>
      </trkpt>
      <trkpt lat="46.18505" lon="5.32291">
        <ele>303.8</ele>
        <time>2022-06-04T08:24:04Z</time>
      </trkpt>
      <trkpt lat="46.18495" lon="5.32293">
        <ele>304.2</ele>
        <time>2022-06-04T08:24:06Z</time>
      </trkpt>
      <trkpt lat="46.18477" lon="5.32296">
        <ele>304.6</ele>
        <time>2022-06-04T08:24:09Z</time>
      </trkpt>
      <trkpt lat="46.18457" lon="5.32298">
        <ele>305</ele>
        <time>2022-06-04T08:24:13Z</time>
      </trkpt>
      <trkpt lat="46.18437" lon="5.32302">
        <ele>306.2</ele>
        <time>2022-06-04T08:24:17Z</time>
      </trkpt>
      <trkpt lat="46.18418" lon="5.32305">
        <ele>307.2</ele>
        <time>2022-06-04T08:24:21Z</time>
      </trkpt>
      <trkpt lat="46.18392" lon="5.32313">
        <ele>308.4</ele>
        <time>2022-06-04T08:24:27Z</time>
      </trkpt>
      <trkpt lat="46.1836" lon="5.32325">
        <ele>309.6</ele>
        <time>2022-06-04T08:24:34Z</time>
      </trkpt>
      <trkpt lat="46.18356" lon="5.32328">
        <ele>309.6</ele>
        <time>2022-06-04T08:24:35Z</time>
      </trkpt>
      <trkpt lat="46.18332" lon="5.32338">
        <ele>310.8</ele>
        <time>2022-06-04T08:24:41Z</time>
      </trkpt>
      <trkpt lat="46.18314" lon="5.32349">
        <ele>311.2</ele>
        <time>2022-06-04T08:24:44Z</time>
      </trkpt>
      <trkpt lat="46.18304" lon="5.32353">
        <ele>311.6</ele>
        <time>2022-06-04T08:24:47Z</time>
      </trkpt>
      <trkpt lat="46.1828" lon="5.32367">
        <ele>312.2</ele>
        <time>2022-06-04T08:24:51Z</time>
      </trkpt>
      <trkpt lat="46.18246" lon="5.32391">
        <ele>312</ele>
        <time>2022-06-04T08:24:57Z</time>
      </trkpt>
      <trkpt lat="46.18209" lon="5.32422">
        <ele>311.4</ele>
        <time>2022-06-04T08:25:03Z</time>
      </trkpt>
      <trkpt lat="46.1819" lon="5.3244">
        <ele>310.4</ele>
        <time>2022-06-04T08:25:06Z</time>
      </trkpt>
      <trkpt lat="46.18161" lon="5.32469">
        <ele>309.8</ele>
        <time>2022-06-04T08:25:11Z</time>
      </trkpt>
      <trkpt lat="46.18126" lon="5.32498">
        <ele>309.8</ele>
        <time>2022-06-04T08:25:17Z</time>
      </trkpt>
      <trkpt lat="46.18087" lon="5.32513">
        <ele>310.4</ele>
        <time>2022-06-04T08:25:23Z</time>
      </trkpt>
      <trkpt lat="46.1803" lon="5.32529">
        <ele>310.8</ele>
        <time>2022-06-04T08:25:32Z</time>
      </trkpt>
      <trkpt lat="46.17984" lon="5.32533">
        <ele>311</ele>
        <time>2022-06-04T08:25:39Z</time>
      </trkpt>
      <trkpt lat="46.17961" lon="5.32533">
        <ele>311.6</ele>
        <time>2022-06-04T08:25:43Z</time>
      </trkpt>
      <trkpt lat="46.17956" lon="5.32532">
        <ele>311.8</ele>
        <time>2022-06-04T08:25:44Z</time>
      </trkpt>
      <trkpt lat="46.1795" lon="5.32531">
        <ele>311.8</ele>
        <time>2022-06-04T08:25:45Z</time>
      </trkpt>
      <trkpt lat="46.1794" lon="5.3253">
        <ele>312.2</ele>
        <time>2022-06-04T08:25:47Z</time>
      </trkpt>
      <trkpt lat="46.17931" lon="5.32527">
        <ele>312.8</ele>
        <time>2022-06-04T08:25:49Z</time>
      </trkpt>
      <trkpt lat="46.1792" lon="5.32524">
        <ele>313.8</ele>
        <time>2022-06-04T08:25:52Z</time>
      </trkpt>
      <trkpt lat="46.17915" lon="5.32524">
        <ele>314.8</ele>
        <time>2022-06-04T08:25:54Z</time>
      </trkpt>
      <trkpt lat="46.17914" lon="5.32524">
        <ele>315.4</ele>
        <time>2022-06-04T08:25:55Z</time>
      </trkpt>
      <trkpt lat="46.17914" lon="5.32524">
        <ele>316.2</ele>
        <time>2022-06-04T08:25:57Z</time>
      </trkpt>
      <trkpt lat="46.17912" lon="5.32525">
        <ele>316.6</ele>
        <time>2022-06-04T08:26:12Z</time>
      </trkpt>
      <trkpt lat="46.1791" lon="5.32527">
        <ele>316.6</ele>
        <time>2022-06-04T08:26:16Z</time>
      </trkpt>
      <trkpt lat="46.17908" lon="5.32528">
        <ele>316.6</ele>
        <time>2022-06-04T08:26:20Z</time>
      </trkpt>
      <trkpt lat="46.17901" lon="5.3255">
        <ele>316.4</ele>
        <time>2022-06-04T08:26:25Z</time>
      </trkpt>
      <trkpt lat="46.17897" lon="5.32564">
        <ele>316.4</ele>
        <time>2022-06-04T08:26:27Z</time>
      </trkpt>
      <trkpt lat="46.17892" lon="5.32579">
        <ele>316.4</ele>
        <time>2022-06-04T08:26:29Z</time>
      </trkpt>
      <trkpt lat="46.17885" lon="5.32593">
        <ele>316.4</ele>
        <time>2022-06-04T08:26:31Z</time>
      </trkpt>
      <trkpt lat="46.17873" lon="5.32612">
        <ele>316.6</ele>
        <time>2022-06-04T08:26:34Z</time>
      </trkpt>
      <trkpt lat="46.17846" lon="5.32658">
        <ele>317.4</ele>
        <time>2022-06-04T08:26:41Z</time>
      </trkpt>
      <trkpt lat="46.17842" lon="5.32665">
        <ele>317.8</ele>
        <time>2022-06-04T08:26:42Z</time>
      </trkpt>
      <trkpt lat="46.17807" lon="5.32728">
        <ele>318.4</ele>
        <time>2022-06-04T08:26:51Z</time>
      </trkpt>
      <trkpt lat="46.17783" lon="5.32772">
        <ele>318</ele>
        <time>2022-06-04T08:26:56Z</time>
      </trkpt>
      <trkpt lat="46.17756" lon="5.32819">
        <ele>316.2</ele>
        <time>2022-06-04T08:27:01Z</time>
      </trkpt>
      <trkpt lat="46.17746" lon="5.32827">
        <ele>315.2</ele>
        <time>2022-06-04T08:27:03Z</time>
      </trkpt>
      <trkpt lat="46.17731" lon="5.32834">
        <ele>314.6</ele>
        <time>2022-06-04T08:27:05Z</time>
      </trkpt>
      <trkpt lat="46.17715" lon="5.32821">
        <ele>313.8</ele>
        <time>2022-06-04T08:27:07Z</time>
      </trkpt>
      <trkpt lat="46.17709" lon="5.32809">
        <ele>312.8</ele>
        <time>2022-06-04T08:27:08Z</time>
      </trkpt>
      <trkpt lat="46.17696" lon="5.32781">
        <ele>310.8</ele>
        <time>2022-06-04T08:27:10Z</time>
      </trkpt>
      <trkpt lat="46.17683" lon="5.32743">
        <ele>309.6</ele>
        <time>2022-06-04T08:27:13Z</time>
      </trkpt>
      <trkpt lat="46.17675" lon="5.32717">
        <ele>308.2</ele>
        <time>2022-06-04T08:27:15Z</time>
      </trkpt>
      <trkpt lat="46.17673" lon="5.32704">
        <ele>308</ele>
        <time>2022-06-04T08:27:16Z</time>
      </trkpt>
      <trkpt lat="46.17671" lon="5.32677">
        <ele>307.6</ele>
        <time>2022-06-04T08:27:18Z</time>
      </trkpt>
      <trkpt lat="46.17671" lon="5.32651">
        <ele>307.2</ele>
        <time>2022-06-04T08:27:20Z</time>
      </trkpt>
      <trkpt lat="46.17672" lon="5.32624">
        <ele>306.2</ele>
        <time>2022-06-04T08:27:22Z</time>
      </trkpt>
      <trkpt lat="46.17672" lon="5.32611">
        <ele>306</ele>
        <time>2022-06-04T08:27:23Z</time>
      </trkpt>
      <trkpt lat="46.17674" lon="5.32586">
        <ele>305.6</ele>
        <time>2022-06-04T08:27:25Z</time>
      </trkpt>
      <trkpt lat="46.17673" lon="5.32556">
        <ele>304.8</ele>
        <time>2022-06-04T08:27:28Z</time>
      </trkpt>
      <trkpt lat="46.17668" lon="5.32546">
        <ele>304.6</ele>
        <time>2022-06-04T08:27:30Z</time>
      </trkpt>
      <trkpt lat="46.17656" lon="5.32542">
        <ele>304.4</ele>
        <time>2022-06-04T08:27:32Z</time>
      </trkpt>
      <trkpt lat="46.17628" lon="5.32545">
        <ele>304</ele>
        <time>2022-06-04T08:27:35Z</time>
      </trkpt>
      <trkpt lat="46.1762" lon="5.32548">
        <ele>303.8</ele>
        <time>2022-06-04T08:27:36Z</time>
      </trkpt>
      <trkpt lat="46.17604" lon="5.32558">
        <ele>303.8</ele>
        <time>2022-06-04T08:27:38Z</time>
      </trkpt>
      <trkpt lat="46.17581" lon="5.32584">
        <ele>303.8</ele>
        <time>2022-06-04T08:27:42Z</time>
      </trkpt>
      <trkpt lat="46.17575" lon="5.3259">
        <ele>304</ele>
        <time>2022-06-04T08:27:43Z</time>
      </trkpt>
      <trkpt lat="46.17555" lon="5.32609">
        <ele>305.2</ele>
        <time>2022-06-04T08:27:47Z</time>
      </trkpt>
      <trkpt lat="46.17537" lon="5.32619">
        <ele>306.2</ele>
        <time>2022-06-04T08:27:50Z</time>
      </trkpt>
      <trkpt lat="46.17522" lon="5.32627">
        <ele>307</ele>
        <time>2022-06-04T08:27:53Z</time>
      </trkpt>
      <trkpt lat="46.17516" lon="5.32629">
        <ele>307.2</ele>
        <time>2022-06-04T08:27:54Z</time>
      </trkpt>
      <trkpt lat="46.17511" lon="5.32629">
        <ele>307.4</ele>
        <time>2022-06-04T08:27:55Z</time>
      </trkpt>
      <trkpt lat="46.17502" lon="5.32625">
        <ele>308</ele>
        <time>2022-06-04T08:27:57Z</time>
      </trkpt>
      <trkpt lat="46.17492" lon="5.32618">
        <ele>308.6</ele>
        <time>2022-06-04T08:27:59Z</time>
      </trkpt>
      <trkpt lat="46.17488" lon="5.32614">
        <ele>308.6</ele>
        <time>2022-06-04T08:28:00Z</time>
      </trkpt>
      <trkpt lat="46.17484" lon="5.32609">
        <ele>308.8</ele>
        <time>2022-06-04T08:28:01Z</time>
      </trkpt>
      <trkpt lat="46.17473" lon="5.32595">
        <ele>310</ele>
        <time>2022-06-04T08:28:04Z</time>
      </trkpt>
      <trkpt lat="46.17459" lon="5.32576">
        <ele>311</ele>
        <time>2022-06-04T08:28:08Z</time>
      </trkpt>
      <trkpt lat="46.17455" lon="5.32573">
        <ele>311</ele>
        <time>2022-06-04T08:28:09Z</time>
      </trkpt>
      <trkpt lat="46.17448" lon="5.32568">
        <ele>311.2</ele>
        <time>2022-06-04T08:28:11Z</time>
      </trkpt>
      <trkpt lat="46.17444" lon="5.32567">
        <ele>311.4</ele>
        <time>2022-06-04T08:28:12Z</time>
      </trkpt>
      <trkpt lat="46.1744" lon="5.32566">
        <ele>312.2</ele>
        <time>2022-06-04T08:28:13Z</time>
      </trkpt>
      <trkpt lat="46.17437" lon="5.32565">
        <ele>312.6</ele>
        <time>2022-06-04T08:28:14Z</time>
      </trkpt>
      <trkpt lat="46.17429" lon="5.32567">
        <ele>313.2</ele>
        <time>2022-06-04T08:28:16Z</time>
      </trkpt>
      <trkpt lat="46.17421" lon="5.32569">
        <ele>314.4</ele>
        <time>2022-06-04T08:28:18Z</time>
      </trkpt>
      <trkpt lat="46.17409" lon="5.32573">
        <ele>315.4</ele>
        <time>2022-06-04T08:28:21Z</time>
      </trkpt>
      <trkpt lat="46.1739" lon="5.32582">
        <ele>316.6</ele>
        <time>2022-06-04T08:28:26Z</time>
      </trkpt>
      <trkpt lat="46.17376" lon="5.3259">
        <ele>317.6</ele>
        <time>2022-06-04T08:28:30Z</time>
      </trkpt>
      <trkpt lat="46.17366" lon="5.32595">
        <ele>318.6</ele>
        <time>2022-06-04T08:28:33Z</time>
      </trkpt>
      <trkpt lat="46.17363" lon="5.32597">
        <ele>318.8</ele>
        <time>2022-06-04T08:28:34Z</time>
      </trkpt>
      <trkpt lat="46.17349" lon="5.32605">
        <ele>319.8</ele>
        <time>2022-06-04T08:28:38Z</time>
      </trkpt>
      <trkpt lat="46.17339" lon="5.32611">
        <ele>320.6</ele>
        <time>2022-06-04T08:28:41Z</time>
      </trkpt>
      <trkpt lat="46.17332" lon="5.32615">
        <ele>321</ele>
        <time>2022-06-04T08:28:43Z</time>
      </trkpt>
      <trkpt lat="46.17314" lon="5.32624">
        <ele>322</ele>
        <time>2022-06-04T08:28:48Z</time>
      </trkpt>
      <trkpt lat="46.17301" lon="5.3263">
        <ele>322.6</ele>
        <time>2022-06-04T08:28:52Z</time>
      </trkpt>
      <trkpt lat="46.1729" lon="5.32634">
        <ele>323.2</ele>
        <time>2022-06-04T08:28:55Z</time>
      </trkpt>
      <trkpt lat="46.17268" lon="5.32641">
        <ele>324</ele>
        <time>2022-06-04T08:29:01Z</time>
      </trkpt>
      <trkpt lat="46.17264" lon="5.32643">
        <ele>324.4</ele>
        <time>2022-06-04T08:29:02Z</time>
      </trkpt>
      <trkpt lat="46.17237" lon="5.3265">
        <ele>325.4</ele>
        <time>2022-06-04T08:29:08Z</time>
      </trkpt>
      <trkpt lat="46.17228" lon="5.32652">
        <ele>325.6</ele>
        <time>2022-06-04T08:29:10Z</time>
      </trkpt>
      <trkpt lat="46.17195" lon="5.32659">
        <ele>326.4</ele>
        <time>2022-06-04T08:29:17Z</time>
      </trkpt>
      <trkpt lat="46.17191" lon="5.3266">
        <ele>326.6</ele>
        <time>2022-06-04T08:29:18Z</time>
      </trkpt>
      <trkpt lat="46.17157" lon="5.32665">
        <ele>328</ele>
        <time>2022-06-04T08:29:25Z</time>
      </trkpt>
      <trkpt lat="46.17142" lon="5.32666">
        <ele>328.6</ele>
        <time>2022-06-04T08:29:28Z</time>
      </trkpt>
      <trkpt lat="46.17121" lon="5.32666">
        <ele>329</ele>
        <time>2022-06-04T08:29:32Z</time>
      </trkpt>
      <trkpt lat="46.17092" lon="5.32668">
        <ele>329.4</ele>
        <time>2022-06-04T08:29:37Z</time>
      </trkpt>
      <trkpt lat="46.17053" lon="5.32672">
        <ele>330.2</ele>
        <time>2022-06-04T08:29:44Z</time>
      </trkpt>
      <trkpt lat="46.17032" lon="5.32674">
        <ele>331.2</ele>
        <time>2022-06-04T08:29:48Z</time>
      </trkpt>
      <trkpt lat="46.17" lon="5.32677">
        <ele>331.8</ele>
        <time>2022-06-04T08:29:54Z</time>
      </trkpt>
      <trkpt lat="46.16989" lon="5.32678">
        <ele>332</ele>
        <time>2022-06-04T08:29:56Z</time>
      </trkpt>
      <trkpt lat="46.16984" lon="5.3268">
        <ele>332.2</ele>
        <time>2022-06-04T08:29:57Z</time>
      </trkpt>
      <trkpt lat="46.16961" lon="5.32683">
        <ele>332.8</ele>
        <time>2022-06-04T08:30:01Z</time>
      </trkpt>
      <trkpt lat="46.16936" lon="5.32687">
        <ele>333.4</ele>
        <time>2022-06-04T08:30:05Z</time>
      </trkpt>
      <trkpt lat="46.16907" lon="5.32693">
        <ele>333.8</ele>
        <time>2022-06-04T08:30:10Z</time>
      </trkpt>
      <trkpt lat="46.16866" lon="5.327">
        <ele>334.4</ele>
        <time>2022-06-04T08:30:17Z</time>
      </trkpt>
      <trkpt lat="46.1686" lon="5.32701">
        <ele>334.4</ele>
        <time>2022-06-04T08:30:18Z</time>
      </trkpt>
      <trkpt lat="46.16806" lon="5.32712">
        <ele>335.2</ele>
        <time>2022-06-04T08:30:27Z</time>
      </trkpt>
      <trkpt lat="46.16787" lon="5.32716">
        <ele>335.6</ele>
        <time>2022-06-04T08:30:30Z</time>
      </trkpt>
      <trkpt lat="46.16777" lon="5.32718">
        <ele>336</ele>
        <time>2022-06-04T08:30:32Z</time>
      </trkpt>
      <trkpt lat="46.16757" lon="5.3272">
        <ele>336.4</ele>
        <time>2022-06-04T08:30:35Z</time>
      </trkpt>
      <trkpt lat="46.16746" lon="5.32722">
        <ele>336.6</ele>
        <time>2022-06-04T08:30:37Z</time>
      </trkpt>
      <trkpt lat="46.16696" lon="5.3273">
        <ele>336.8</ele>
        <time>2022-06-04T08:30:45Z</time>
      </trkpt>
      <trkpt lat="46.16645" lon="5.32741">
        <ele>336.4</ele>
        <time>2022-06-04T08:30:52Z</time>
      </trkpt>
      <trkpt lat="46.16612" lon="5.32749">
        <ele>335.4</ele>
        <time>2022-06-04T08:30:56Z</time>
      </trkpt>
      <trkpt lat="46.16588" lon="5.32755">
        <ele>334.8</ele>
        <time>2022-06-04T08:30:59Z</time>
      </trkpt>
      <trkpt lat="46.16556" lon="5.32764">
        <ele>334.2</ele>
        <time>2022-06-04T08:31:03Z</time>
      </trkpt>
      <trkpt lat="46.16542" lon="5.32767">
        <ele>334</ele>
        <time>2022-06-04T08:31:05Z</time>
      </trkpt>
      <trkpt lat="46.1651" lon="5.32777">
        <ele>333</ele>
        <time>2022-06-04T08:31:09Z</time>
      </trkpt>
      <trkpt lat="46.16468" lon="5.32788">
        <ele>331.8</ele>
        <time>2022-06-04T08:31:14Z</time>
      </trkpt>
      <trkpt lat="46.16443" lon="5.32796">
        <ele>331</ele>
        <time>2022-06-04T08:31:17Z</time>
      </trkpt>
      <trkpt lat="46.16435" lon="5.32801">
        <ele>330.6</ele>
        <time>2022-06-04T08:31:18Z</time>
      </trkpt>
      <trkpt lat="46.16421" lon="5.32815">
        <ele>329.8</ele>
        <time>2022-06-04T08:31:20Z</time>
      </trkpt>
      <trkpt lat="46.16414" lon="5.32824">
        <ele>329.4</ele>
        <time>2022-06-04T08:31:21Z</time>
      </trkpt>
      <trkpt lat="46.16409" lon="5.32833">
        <ele>329</ele>
        <time>2022-06-04T08:31:22Z</time>
      </trkpt>
      <trkpt lat="46.16394" lon="5.32874">
        <ele>328.6</ele>
        <time>2022-06-04T08:31:26Z</time>
      </trkpt>
      <trkpt lat="46.16374" lon="5.32919">
        <ele>329.4</ele>
        <time>2022-06-04T08:31:31Z</time>
      </trkpt>
      <trkpt lat="46.16359" lon="5.3296">
        <ele>329.8</ele>
        <time>2022-06-04T08:31:36Z</time>
      </trkpt>
      <trkpt lat="46.1635" lon="5.32967">
        <ele>330.4</ele>
        <time>2022-06-04T08:31:38Z</time>
      </trkpt>
      <trkpt lat="46.16344" lon="5.32968">
        <ele>330.6</ele>
        <time>2022-06-04T08:31:39Z</time>
      </trkpt>
      <trkpt lat="46.16332" lon="5.32972">
        <ele>331.2</ele>
        <time>2022-06-04T08:31:41Z</time>
      </trkpt>
      <trkpt lat="46.16328" lon="5.32974">
        <ele>331.8</ele>
        <time>2022-06-04T08:31:42Z</time>
      </trkpt>
      <trkpt lat="46.16321" lon="5.32976">
        <ele>331.8</ele>
        <time>2022-06-04T08:31:43Z</time>
      </trkpt>
      <trkpt lat="46.16314" lon="5.32976">
        <ele>332</ele>
        <time>2022-06-04T08:31:44Z</time>
      </trkpt>
      <trkpt lat="46.16286" lon="5.3297">
        <ele>332</ele>
        <time>2022-06-04T08:31:49Z</time>
      </trkpt>
      <trkpt lat="46.16277" lon="5.32968">
        <ele>331.4</ele>
        <time>2022-06-04T08:31:52Z</time>
      </trkpt>
      <trkpt lat="46.16271" lon="5.3298">
        <ele>331</ele>
        <time>2022-06-04T08:31:55Z</time>
      </trkpt>
      <trkpt lat="46.16266" lon="5.33001">
        <ele>330.6</ele>
        <time>2022-06-04T08:31:58Z</time>
      </trkpt>
      <trkpt lat="46.16262" lon="5.33011">
        <ele>330.4</ele>
        <time>2022-06-04T08:31:59Z</time>
      </trkpt>
      <trkpt lat="46.16259" lon="5.33021">
        <ele>330.4</ele>
        <time>2022-06-04T08:32:00Z</time>
      </trkpt>
      <trkpt lat="46.16258" lon="5.33043">
        <ele>329.6</ele>
        <time>2022-06-04T08:32:02Z</time>
      </trkpt>
      <trkpt lat="46.16258" lon="5.33079">
        <ele>328.2</ele>
        <time>2022-06-04T08:32:05Z</time>
      </trkpt>
      <trkpt lat="46.16258" lon="5.33101">
        <ele>326.8</ele>
        <time>2022-06-04T08:32:07Z</time>
      </trkpt>
      <trkpt lat="46.16257" lon="5.33125">
        <ele>326.2</ele>
        <time>2022-06-04T08:32:09Z</time>
      </trkpt>
      <trkpt lat="46.16253" lon="5.33145">
        <ele>326</ele>
        <time>2022-06-04T08:32:11Z</time>
      </trkpt>
      <trkpt lat="46.16244" lon="5.3316">
        <ele>326</ele>
        <time>2022-06-04T08:32:13Z</time>
      </trkpt>
      <trkpt lat="46.16239" lon="5.33166">
        <ele>326</ele>
        <time>2022-06-04T08:32:14Z</time>
      </trkpt>
      <trkpt lat="46.16234" lon="5.33171">
        <ele>325.8</ele>
        <time>2022-06-04T08:32:15Z</time>
      </trkpt>
      <trkpt lat="46.16229" lon="5.33177">
        <ele>325.8</ele>
        <time>2022-06-04T08:32:16Z</time>
      </trkpt>
      <trkpt lat="46.16221" lon="5.33191">
        <ele>326</ele>
        <time>2022-06-04T08:32:18Z</time>
      </trkpt>
      <trkpt lat="46.16216" lon="5.33212">
        <ele>327</ele>
        <time>2022-06-04T08:32:21Z</time>
      </trkpt>
      <trkpt lat="46.16212" lon="5.33227">
        <ele>327.8</ele>
        <time>2022-06-04T08:32:23Z</time>
      </trkpt>
      <trkpt lat="46.16209" lon="5.33232">
        <ele>328.4</ele>
        <time>2022-06-04T08:32:24Z</time>
      </trkpt>
      <trkpt lat="46.16203" lon="5.33257">
        <ele>329.4</ele>
        <time>2022-06-04T08:32:28Z</time>
      </trkpt>
      <trkpt lat="46.16202" lon="5.33262">
        <ele>329.8</ele>
        <time>2022-06-04T08:32:29Z</time>
      </trkpt>
      <trkpt lat="46.162" lon="5.33275">
        <ele>330.2</ele>
        <time>2022-06-04T08:32:31Z</time>
      </trkpt>
      <trkpt lat="46.16198" lon="5.33288">
        <ele>330.6</ele>
        <time>2022-06-04T08:32:33Z</time>
      </trkpt>
      <trkpt lat="46.16198" lon="5.33294">
        <ele>331.2</ele>
        <time>2022-06-04T08:32:34Z</time>
      </trkpt>
      <trkpt lat="46.16193" lon="5.33305">
        <ele>331.6</ele>
        <time>2022-06-04T08:32:36Z</time>
      </trkpt>
      <trkpt lat="46.16191" lon="5.33334">
        <ele>333.4</ele>
        <time>2022-06-04T08:32:41Z</time>
      </trkpt>
      <trkpt lat="46.1619" lon="5.33359">
        <ele>334.4</ele>
        <time>2022-06-04T08:32:45Z</time>
      </trkpt>
      <trkpt lat="46.16189" lon="5.33365">
        <ele>334.8</ele>
        <time>2022-06-04T08:32:46Z</time>
      </trkpt>
      <trkpt lat="46.16187" lon="5.33389">
        <ele>335.6</ele>
        <time>2022-06-04T08:32:50Z</time>
      </trkpt>
      <trkpt lat="46.16185" lon="5.33399">
        <ele>336</ele>
        <time>2022-06-04T08:32:52Z</time>
      </trkpt>
      <trkpt lat="46.16184" lon="5.33408">
        <ele>336.6</ele>
        <time>2022-06-04T08:32:54Z</time>
      </trkpt>
      <trkpt lat="46.16182" lon="5.33433">
        <ele>338</ele>
        <time>2022-06-04T08:32:59Z</time>
      </trkpt>
      <trkpt lat="46.1618" lon="5.33457">
        <ele>339.4</ele>
        <time>2022-06-04T08:33:04Z</time>
      </trkpt>
      <trkpt lat="46.16179" lon="5.33466">
        <ele>340</ele>
        <time>2022-06-04T08:33:06Z</time>
      </trkpt>
      <trkpt lat="46.16178" lon="5.33481">
        <ele>340.6</ele>
        <time>2022-06-04T08:33:09Z</time>
      </trkpt>
      <trkpt lat="46.16175" lon="5.33509">
        <ele>342</ele>
        <time>2022-06-04T08:33:15Z</time>
      </trkpt>
      <trkpt lat="46.1617" lon="5.3353">
        <ele>343</ele>
        <time>2022-06-04T08:33:20Z</time>
      </trkpt>
      <trkpt lat="46.16168" lon="5.33538">
        <ele>343.4</ele>
        <time>2022-06-04T08:33:22Z</time>
      </trkpt>
      <trkpt lat="46.16165" lon="5.33546">
        <ele>343.8</ele>
        <time>2022-06-04T08:33:24Z</time>
      </trkpt>
      <trkpt lat="46.16162" lon="5.33564">
        <ele>345</ele>
        <time>2022-06-04T08:33:28Z</time>
      </trkpt>
      <trkpt lat="46.1616" lon="5.33578">
        <ele>345.6</ele>
        <time>2022-06-04T08:33:31Z</time>
      </trkpt>
      <trkpt lat="46.16158" lon="5.33591">
        <ele>346.4</ele>
        <time>2022-06-04T08:33:34Z</time>
      </trkpt>
      <trkpt lat="46.16157" lon="5.33603">
        <ele>347.4</ele>
        <time>2022-06-04T08:33:37Z</time>
      </trkpt>
      <trkpt lat="46.16157" lon="5.33608">
        <ele>347.6</ele>
        <time>2022-06-04T08:33:38Z</time>
      </trkpt>
      <trkpt lat="46.16156" lon="5.33626">
        <ele>348.6</ele>
        <time>2022-06-04T08:33:42Z</time>
      </trkpt>
      <trkpt lat="46.16157" lon="5.33639">
        <ele>349.6</ele>
        <time>2022-06-04T08:33:45Z</time>
      </trkpt>
      <trkpt lat="46.16157" lon="5.33644">
        <ele>350</ele>
        <time>2022-06-04T08:33:46Z</time>
      </trkpt>
      <trkpt lat="46.1616" lon="5.33667">
        <ele>351</ele>
        <time>2022-06-04T08:33:51Z</time>
      </trkpt>
      <trkpt lat="46.1616" lon="5.33679">
        <ele>352</ele>
        <time>2022-06-04T08:33:54Z</time>
      </trkpt>
      <trkpt lat="46.16161" lon="5.33684">
        <ele>352.4</ele>
        <time>2022-06-04T08:33:55Z</time>
      </trkpt>
      <trkpt lat="46.16163" lon="5.33706">
        <ele>353.4</ele>
        <time>2022-06-04T08:34:00Z</time>
      </trkpt>
      <trkpt lat="46.16164" lon="5.3371">
        <ele>353.6</ele>
        <time>2022-06-04T08:34:01Z</time>
      </trkpt>
      <trkpt lat="46.16165" lon="5.33724">
        <ele>354.6</ele>
        <time>2022-06-04T08:34:05Z</time>
      </trkpt>
      <trkpt lat="46.16166" lon="5.33743">
        <ele>355.6</ele>
        <time>2022-06-04T08:34:09Z</time>
      </trkpt>
      <trkpt lat="46.16168" lon="5.33756">
        <ele>356.6</ele>
        <time>2022-06-04T08:34:12Z</time>
      </trkpt>
      <trkpt lat="46.16168" lon="5.33761">
        <ele>356.8</ele>
        <time>2022-06-04T08:34:13Z</time>
      </trkpt>
      <trkpt lat="46.1617" lon="5.33775">
        <ele>357.6</ele>
        <time>2022-06-04T08:34:16Z</time>
      </trkpt>
      <trkpt lat="46.16171" lon="5.3378">
        <ele>357.6</ele>
        <time>2022-06-04T08:34:17Z</time>
      </trkpt>
      <trkpt lat="46.16172" lon="5.33789">
        <ele>358</ele>
        <time>2022-06-04T08:34:19Z</time>
      </trkpt>
      <trkpt lat="46.16177" lon="5.3381">
        <ele>359.2</ele>
        <time>2022-06-04T08:34:23Z</time>
      </trkpt>
      <trkpt lat="46.1618" lon="5.33834">
        <ele>360.4</ele>
        <time>2022-06-04T08:34:28Z</time>
      </trkpt>
      <trkpt lat="46.16177" lon="5.33853">
        <ele>361.4</ele>
        <time>2022-06-04T08:34:32Z</time>
      </trkpt>
      <trkpt lat="46.16177" lon="5.33873">
        <ele>362.4</ele>
        <time>2022-06-04T08:34:36Z</time>
      </trkpt>
      <trkpt lat="46.16176" lon="5.33877">
        <ele>362.6</ele>
        <time>2022-06-04T08:34:37Z</time>
      </trkpt>
      <trkpt lat="46.16175" lon="5.339">
        <ele>363.8</ele>
        <time>2022-06-04T08:34:42Z</time>
      </trkpt>
      <trkpt lat="46.16174" lon="5.33914">
        <ele>364.4</ele>
        <time>2022-06-04T08:34:45Z</time>
      </trkpt>
      <trkpt lat="46.16173" lon="5.33919">
        <ele>364.8</ele>
        <time>2022-06-04T08:34:46Z</time>
      </trkpt>
      <trkpt lat="46.16169" lon="5.33941">
        <ele>365.8</ele>
        <time>2022-06-04T08:34:51Z</time>
      </trkpt>
      <trkpt lat="46.16168" lon="5.33945">
        <ele>366</ele>
        <time>2022-06-04T08:34:52Z</time>
      </trkpt>
      <trkpt lat="46.16162" lon="5.33966">
        <ele>367</ele>
        <time>2022-06-04T08:34:57Z</time>
      </trkpt>
      <trkpt lat="46.16161" lon="5.3397">
        <ele>367.4</ele>
        <time>2022-06-04T08:34:58Z</time>
      </trkpt>
      <trkpt lat="46.16158" lon="5.33977">
        <ele>368</ele>
        <time>2022-06-04T08:35:00Z</time>
      </trkpt>
      <trkpt lat="46.16152" lon="5.33996">
        <ele>369.4</ele>
        <time>2022-06-04T08:35:05Z</time>
      </trkpt>
      <trkpt lat="46.16151" lon="5.34001">
        <ele>369.6</ele>
        <time>2022-06-04T08:35:06Z</time>
      </trkpt>
      <trkpt lat="46.16147" lon="5.34013">
        <ele>370.6</ele>
        <time>2022-06-04T08:35:09Z</time>
      </trkpt>
      <trkpt lat="46.16141" lon="5.34032">
        <ele>371.6</ele>
        <time>2022-06-04T08:35:14Z</time>
      </trkpt>
      <trkpt lat="46.16135" lon="5.34053">
        <ele>372.8</ele>
        <time>2022-06-04T08:35:19Z</time>
      </trkpt>
      <trkpt lat="46.16131" lon="5.34065">
        <ele>373.4</ele>
        <time>2022-06-04T08:35:22Z</time>
      </trkpt>
      <trkpt lat="46.1613" lon="5.34069">
        <ele>373.8</ele>
        <time>2022-06-04T08:35:23Z</time>
      </trkpt>
      <trkpt lat="46.16124" lon="5.3409">
        <ele>375</ele>
        <time>2022-06-04T08:35:28Z</time>
      </trkpt>
      <trkpt lat="46.16123" lon="5.34094">
        <ele>375.2</ele>
        <time>2022-06-04T08:35:29Z</time>
      </trkpt>
      <trkpt lat="46.16121" lon="5.34101">
        <ele>376</ele>
        <time>2022-06-04T08:35:31Z</time>
      </trkpt>
      <trkpt lat="46.16118" lon="5.34113">
        <ele>376.6</ele>
        <time>2022-06-04T08:35:34Z</time>
      </trkpt>
      <trkpt lat="46.16117" lon="5.34118">
        <ele>377</ele>
        <time>2022-06-04T08:35:35Z</time>
      </trkpt>
      <trkpt lat="46.16115" lon="5.3414">
        <ele>378.4</ele>
        <time>2022-06-04T08:35:40Z</time>
      </trkpt>
      <trkpt lat="46.16115" lon="5.34145">
        <ele>378.6</ele>
        <time>2022-06-04T08:35:41Z</time>
      </trkpt>
      <trkpt lat="46.16115" lon="5.34155">
        <ele>379.2</ele>
        <time>2022-06-04T08:35:43Z</time>
      </trkpt>
      <trkpt lat="46.16115" lon="5.34159">
        <ele>379.4</ele>
        <time>2022-06-04T08:35:44Z</time>
      </trkpt>
      <trkpt lat="46.16115" lon="5.34183">
        <ele>380.6</ele>
        <time>2022-06-04T08:35:49Z</time>
      </trkpt>
      <trkpt lat="46.16115" lon="5.34188">
        <ele>380.8</ele>
        <time>2022-06-04T08:35:50Z</time>
      </trkpt>
      <trkpt lat="46.16116" lon="5.34202">
        <ele>381.4</ele>
        <time>2022-06-04T08:35:53Z</time>
      </trkpt>
      <trkpt lat="46.16115" lon="5.34216">
        <ele>382.2</ele>
        <time>2022-06-04T08:35:56Z</time>
      </trkpt>
      <trkpt lat="46.16115" lon="5.34226">
        <ele>382.6</ele>
        <time>2022-06-04T08:35:58Z</time>
      </trkpt>
      <trkpt lat="46.16112" lon="5.34265">
        <ele>383.8</ele>
        <time>2022-06-04T08:36:05Z</time>
      </trkpt>
      <trkpt lat="46.16111" lon="5.34295">
        <ele>385.2</ele>
        <time>2022-06-04T08:36:10Z</time>
      </trkpt>
      <trkpt lat="46.1611" lon="5.34307">
        <ele>385.8</ele>
        <time>2022-06-04T08:36:12Z</time>
      </trkpt>
      <trkpt lat="46.16109" lon="5.34313">
        <ele>386.2</ele>
        <time>2022-06-04T08:36:13Z</time>
      </trkpt>
      <trkpt lat="46.16104" lon="5.34364">
        <ele>387</ele>
        <time>2022-06-04T08:36:21Z</time>
      </trkpt>
      <trkpt lat="46.16103" lon="5.34378">
        <ele>387.2</ele>
        <time>2022-06-04T08:36:23Z</time>
      </trkpt>
      <trkpt lat="46.16099" lon="5.34411">
        <ele>387.6</ele>
        <time>2022-06-04T08:36:27Z</time>
      </trkpt>
      <trkpt lat="46.16094" lon="5.34472">
        <ele>386.6</ele>
        <time>2022-06-04T08:36:33Z</time>
      </trkpt>
      <trkpt lat="46.16093" lon="5.34502">
        <ele>385.6</ele>
        <time>2022-06-04T08:36:36Z</time>
      </trkpt>
      <trkpt lat="46.16094" lon="5.34533">
        <ele>384.8</ele>
        <time>2022-06-04T08:36:39Z</time>
      </trkpt>
      <trkpt lat="46.16093" lon="5.34543">
        <ele>384.6</ele>
        <time>2022-06-04T08:36:40Z</time>
      </trkpt>
      <trkpt lat="46.16091" lon="5.34562">
        <ele>384.6</ele>
        <time>2022-06-04T08:36:42Z</time>
      </trkpt>
      <trkpt lat="46.16088" lon="5.34581">
        <ele>384.4</ele>
        <time>2022-06-04T08:36:44Z</time>
      </trkpt>
      <trkpt lat="46.16083" lon="5.34599">
        <ele>384.4</ele>
        <time>2022-06-04T08:36:46Z</time>
      </trkpt>
      <trkpt lat="46.16074" lon="5.34623">
        <ele>385</ele>
        <time>2022-06-04T08:36:49Z</time>
      </trkpt>
      <trkpt lat="46.16044" lon="5.34688">
        <ele>385</ele>
        <time>2022-06-04T08:36:57Z</time>
      </trkpt>
      <trkpt lat="46.16025" lon="5.34723">
        <ele>385.6</ele>
        <time>2022-06-04T08:37:02Z</time>
      </trkpt>
      <trkpt lat="46.16021" lon="5.3473">
        <ele>385.8</ele>
        <time>2022-06-04T08:37:03Z</time>
      </trkpt>
      <trkpt lat="46.16001" lon="5.34772">
        <ele>386.6</ele>
        <time>2022-06-04T08:37:09Z</time>
      </trkpt>
      <trkpt lat="46.15996" lon="5.34786">
        <ele>387.2</ele>
        <time>2022-06-04T08:37:11Z</time>
      </trkpt>
      <trkpt lat="46.15991" lon="5.34801">
        <ele>387.8</ele>
        <time>2022-06-04T08:37:13Z</time>
      </trkpt>
      <trkpt lat="46.15979" lon="5.3484">
        <ele>388.6</ele>
        <time>2022-06-04T08:37:18Z</time>
      </trkpt>
      <trkpt lat="46.15963" lon="5.349">
        <ele>388.6</ele>
        <time>2022-06-04T08:37:24Z</time>
      </trkpt>
      <trkpt lat="46.15945" lon="5.34979">
        <ele>386.8</ele>
        <time>2022-06-04T08:37:31Z</time>
      </trkpt>
      <trkpt lat="46.15942" lon="5.3499">
        <ele>386.6</ele>
        <time>2022-06-04T08:37:32Z</time>
      </trkpt>
      <trkpt lat="46.15924" lon="5.35067">
        <ele>385.6</ele>
        <time>2022-06-04T08:37:39Z</time>
      </trkpt>
      <trkpt lat="46.15918" lon="5.35089">
        <ele>385.4</ele>
        <time>2022-06-04T08:37:41Z</time>
      </trkpt>
      <trkpt lat="46.15911" lon="5.35114">
        <ele>385</ele>
        <time>2022-06-04T08:37:43Z</time>
      </trkpt>
      <trkpt lat="46.15902" lon="5.35132">
        <ele>385</ele>
        <time>2022-06-04T08:37:45Z</time>
      </trkpt>
      <trkpt lat="46.15896" lon="5.35142">
        <ele>384.8</ele>
        <time>2022-06-04T08:37:46Z</time>
      </trkpt>
      <trkpt lat="46.15885" lon="5.35156">
        <ele>384.4</ele>
        <time>2022-06-04T08:37:48Z</time>
      </trkpt>
      <trkpt lat="46.15872" lon="5.35169">
        <ele>384</ele>
        <time>2022-06-04T08:37:50Z</time>
      </trkpt>
      <trkpt lat="46.15865" lon="5.35174">
        <ele>383.8</ele>
        <time>2022-06-04T08:37:51Z</time>
      </trkpt>
      <trkpt lat="46.15836" lon="5.35188">
        <ele>383.6</ele>
        <time>2022-06-04T08:37:55Z</time>
      </trkpt>
      <trkpt lat="46.15804" lon="5.35204">
        <ele>384</ele>
        <time>2022-06-04T08:38:00Z</time>
      </trkpt>
      <trkpt lat="46.15793" lon="5.35208">
        <ele>384.8</ele>
        <time>2022-06-04T08:38:02Z</time>
      </trkpt>
      <trkpt lat="46.15782" lon="5.35214">
        <ele>385.4</ele>
        <time>2022-06-04T08:38:04Z</time>
      </trkpt>
      <trkpt lat="46.15772" lon="5.35221">
        <ele>385.8</ele>
        <time>2022-06-04T08:38:06Z</time>
      </trkpt>
      <trkpt lat="46.15757" lon="5.35231">
        <ele>386.6</ele>
        <time>2022-06-04T08:38:09Z</time>
      </trkpt>
      <trkpt lat="46.1574" lon="5.35248">
        <ele>387.4</ele>
        <time>2022-06-04T08:38:13Z</time>
      </trkpt>
      <trkpt lat="46.15737" lon="5.35252">
        <ele>387.6</ele>
        <time>2022-06-04T08:38:14Z</time>
      </trkpt>
      <trkpt lat="46.15726" lon="5.35265">
        <ele>388.6</ele>
        <time>2022-06-04T08:38:17Z</time>
      </trkpt>
      <trkpt lat="46.15722" lon="5.3527">
        <ele>389.2</ele>
        <time>2022-06-04T08:38:18Z</time>
      </trkpt>
      <trkpt lat="46.15716" lon="5.35281">
        <ele>389.6</ele>
        <time>2022-06-04T08:38:20Z</time>
      </trkpt>
      <trkpt lat="46.15714" lon="5.35286">
        <ele>390.2</ele>
        <time>2022-06-04T08:38:21Z</time>
      </trkpt>
      <trkpt lat="46.15704" lon="5.35306">
        <ele>391.4</ele>
        <time>2022-06-04T08:38:25Z</time>
      </trkpt>
      <trkpt lat="46.15699" lon="5.35314">
        <ele>391.8</ele>
        <time>2022-06-04T08:38:27Z</time>
      </trkpt>
      <trkpt lat="46.15691" lon="5.35331">
        <ele>392.6</ele>
        <time>2022-06-04T08:38:31Z</time>
      </trkpt>
      <trkpt lat="46.15685" lon="5.35341">
        <ele>393.6</ele>
        <time>2022-06-04T08:38:34Z</time>
      </trkpt>
      <trkpt lat="46.15683" lon="5.35344">
        <ele>394.2</ele>
        <time>2022-06-04T08:38:35Z</time>
      </trkpt>
      <trkpt lat="46.15679" lon="5.35351">
        <ele>394.6</ele>
        <time>2022-06-04T08:38:37Z</time>
      </trkpt>
      <trkpt lat="46.15671" lon="5.35364">
        <ele>395.8</ele>
        <time>2022-06-04T08:38:41Z</time>
      </trkpt>
      <trkpt lat="46.15663" lon="5.35379">
        <ele>396.8</ele>
        <time>2022-06-04T08:38:45Z</time>
      </trkpt>
      <trkpt lat="46.15653" lon="5.35397">
        <ele>397.8</ele>
        <time>2022-06-04T08:38:50Z</time>
      </trkpt>
      <trkpt lat="46.15649" lon="5.35404">
        <ele>398</ele>
        <time>2022-06-04T08:38:52Z</time>
      </trkpt>
      <trkpt lat="46.1564" lon="5.35418">
        <ele>399.2</ele>
        <time>2022-06-04T08:38:56Z</time>
      </trkpt>
      <trkpt lat="46.15633" lon="5.35428">
        <ele>399.6</ele>
        <time>2022-06-04T08:38:59Z</time>
      </trkpt>
      <trkpt lat="46.15631" lon="5.35431">
        <ele>400.2</ele>
        <time>2022-06-04T08:39:00Z</time>
      </trkpt>
      <trkpt lat="46.15618" lon="5.35446">
        <ele>401.2</ele>
        <time>2022-06-04T08:39:05Z</time>
      </trkpt>
      <trkpt lat="46.15616" lon="5.35448">
        <ele>401.4</ele>
        <time>2022-06-04T08:39:06Z</time>
      </trkpt>
      <trkpt lat="46.15606" lon="5.35458">
        <ele>402.6</ele>
        <time>2022-06-04T08:39:10Z</time>
      </trkpt>
      <trkpt lat="46.15602" lon="5.35464">
        <ele>403</ele>
        <time>2022-06-04T08:39:12Z</time>
      </trkpt>
      <trkpt lat="46.15595" lon="5.35474">
        <ele>403.8</ele>
        <time>2022-06-04T08:39:15Z</time>
      </trkpt>
      <trkpt lat="46.15588" lon="5.35483">
        <ele>404.4</ele>
        <time>2022-06-04T08:39:18Z</time>
      </trkpt>
      <trkpt lat="46.15586" lon="5.35486">
        <ele>404.8</ele>
        <time>2022-06-04T08:39:19Z</time>
      </trkpt>
      <trkpt lat="46.15577" lon="5.355">
        <ele>405.8</ele>
        <time>2022-06-04T08:39:23Z</time>
      </trkpt>
      <trkpt lat="46.15574" lon="5.35503">
        <ele>406</ele>
        <time>2022-06-04T08:39:24Z</time>
      </trkpt>
      <trkpt lat="46.15565" lon="5.3552">
        <ele>407</ele>
        <time>2022-06-04T08:39:28Z</time>
      </trkpt>
      <trkpt lat="46.1556" lon="5.35529">
        <ele>407.4</ele>
        <time>2022-06-04T08:39:30Z</time>
      </trkpt>
      <trkpt lat="46.15553" lon="5.35547">
        <ele>408</ele>
        <time>2022-06-04T08:39:33Z</time>
      </trkpt>
      <trkpt lat="46.1555" lon="5.35559">
        <ele>408.2</ele>
        <time>2022-06-04T08:39:35Z</time>
      </trkpt>
      <trkpt lat="46.15548" lon="5.35574">
        <ele>408.4</ele>
        <time>2022-06-04T08:39:37Z</time>
      </trkpt>
      <trkpt lat="46.15545" lon="5.35598">
        <ele>408.6</ele>
        <time>2022-06-04T08:39:40Z</time>
      </trkpt>
      <trkpt lat="46.15547" lon="5.35613">
        <ele>408.8</ele>
        <time>2022-06-04T08:39:42Z</time>
      </trkpt>
      <trkpt lat="46.1555" lon="5.35627">
        <ele>409</ele>
        <time>2022-06-04T08:39:44Z</time>
      </trkpt>
      <trkpt lat="46.15551" lon="5.35635">
        <ele>409.2</ele>
        <time>2022-06-04T08:39:45Z</time>
      </trkpt>
      <trkpt lat="46.15552" lon="5.35643">
        <ele>409.4</ele>
        <time>2022-06-04T08:39:46Z</time>
      </trkpt>
      <trkpt lat="46.15557" lon="5.35673">
        <ele>409.8</ele>
        <time>2022-06-04T08:39:50Z</time>
      </trkpt>
      <trkpt lat="46.15557" lon="5.3568">
        <ele>409.8</ele>
        <time>2022-06-04T08:39:51Z</time>
      </trkpt>
      <trkpt lat="46.15555" lon="5.35688">
        <ele>409.8</ele>
        <time>2022-06-04T08:39:52Z</time>
      </trkpt>
      <trkpt lat="46.15552" lon="5.35703">
        <ele>410</ele>
        <time>2022-06-04T08:39:54Z</time>
      </trkpt>
      <trkpt lat="46.15549" lon="5.35719">
        <ele>410</ele>
        <time>2022-06-04T08:39:56Z</time>
      </trkpt>
      <trkpt lat="46.15535" lon="5.35774">
        <ele>410.6</ele>
        <time>2022-06-04T08:40:02Z</time>
      </trkpt>
      <trkpt lat="46.15519" lon="5.35837">
        <ele>410</ele>
        <time>2022-06-04T08:40:08Z</time>
      </trkpt>
      <trkpt lat="46.15514" lon="5.35858">
        <ele>409.6</ele>
        <time>2022-06-04T08:40:10Z</time>
      </trkpt>
      <trkpt lat="46.15505" lon="5.35876">
        <ele>409.4</ele>
        <time>2022-06-04T08:40:12Z</time>
      </trkpt>
      <trkpt lat="46.15491" lon="5.35888">
        <ele>409</ele>
        <time>2022-06-04T08:40:14Z</time>
      </trkpt>
      <trkpt lat="46.15483" lon="5.35892">
        <ele>408.8</ele>
        <time>2022-06-04T08:40:15Z</time>
      </trkpt>
      <trkpt lat="46.15448" lon="5.3591">
        <ele>407.2</ele>
        <time>2022-06-04T08:40:19Z</time>
      </trkpt>
      <trkpt lat="46.15438" lon="5.35916">
        <ele>406.6</ele>
        <time>2022-06-04T08:40:20Z</time>
      </trkpt>
      <trkpt lat="46.15418" lon="5.35925">
        <ele>405.8</ele>
        <time>2022-06-04T08:40:22Z</time>
      </trkpt>
      <trkpt lat="46.15378" lon="5.35941">
        <ele>404.8</ele>
        <time>2022-06-04T08:40:26Z</time>
      </trkpt>
      <trkpt lat="46.15354" lon="5.35944">
        <ele>403.6</ele>
        <time>2022-06-04T08:40:28Z</time>
      </trkpt>
      <trkpt lat="46.15331" lon="5.35942">
        <ele>402.2</ele>
        <time>2022-06-04T08:40:30Z</time>
      </trkpt>
      <trkpt lat="46.1532" lon="5.3594">
        <ele>401</ele>
        <time>2022-06-04T08:40:31Z</time>
      </trkpt>
      <trkpt lat="46.1531" lon="5.35938">
        <ele>399.6</ele>
        <time>2022-06-04T08:40:32Z</time>
      </trkpt>
      <trkpt lat="46.15287" lon="5.35933">
        <ele>398.2</ele>
        <time>2022-06-04T08:40:34Z</time>
      </trkpt>
      <trkpt lat="46.15275" lon="5.3593">
        <ele>397.6</ele>
        <time>2022-06-04T08:40:35Z</time>
      </trkpt>
      <trkpt lat="46.1526" lon="5.35927">
        <ele>396.2</ele>
        <time>2022-06-04T08:40:36Z</time>
      </trkpt>
      <trkpt lat="46.15237" lon="5.35921">
        <ele>395.2</ele>
        <time>2022-06-04T08:40:38Z</time>
      </trkpt>
      <trkpt lat="46.15213" lon="5.35916">
        <ele>393</ele>
        <time>2022-06-04T08:40:40Z</time>
      </trkpt>
      <trkpt lat="46.15201" lon="5.35914">
        <ele>392</ele>
        <time>2022-06-04T08:40:41Z</time>
      </trkpt>
      <trkpt lat="46.15167" lon="5.35905">
        <ele>390.6</ele>
        <time>2022-06-04T08:40:44Z</time>
      </trkpt>
      <trkpt lat="46.1514" lon="5.35899">
        <ele>389.4</ele>
        <time>2022-06-04T08:40:46Z</time>
      </trkpt>
      <trkpt lat="46.15128" lon="5.35895">
        <ele>388.2</ele>
        <time>2022-06-04T08:40:47Z</time>
      </trkpt>
      <trkpt lat="46.15118" lon="5.35893">
        <ele>387</ele>
        <time>2022-06-04T08:40:48Z</time>
      </trkpt>
      <trkpt lat="46.15104" lon="5.3589">
        <ele>386.6</ele>
        <time>2022-06-04T08:40:49Z</time>
      </trkpt>
      <trkpt lat="46.15091" lon="5.35887">
        <ele>385.8</ele>
        <time>2022-06-04T08:40:50Z</time>
      </trkpt>
      <trkpt lat="46.15067" lon="5.35883">
        <ele>384.2</ele>
        <time>2022-06-04T08:40:52Z</time>
      </trkpt>
      <trkpt lat="46.15043" lon="5.35882">
        <ele>382.6</ele>
        <time>2022-06-04T08:40:54Z</time>
      </trkpt>
      <trkpt lat="46.15031" lon="5.35882">
        <ele>381.8</ele>
        <time>2022-06-04T08:40:55Z</time>
      </trkpt>
      <trkpt lat="46.15019" lon="5.35883">
        <ele>381.6</ele>
        <time>2022-06-04T08:40:56Z</time>
      </trkpt>
      <trkpt lat="46.14998" lon="5.35885">
        <ele>380.6</ele>
        <time>2022-06-04T08:40:58Z</time>
      </trkpt>
      <trkpt lat="46.14962" lon="5.35887">
        <ele>379.4</ele>
        <time>2022-06-04T08:41:01Z</time>
      </trkpt>
      <trkpt lat="46.14909" lon="5.35892">
        <ele>378.2</ele>
        <time>2022-06-04T08:41:06Z</time>
      </trkpt>
      <trkpt lat="46.14879" lon="5.35894">
        <ele>377.6</ele>
        <time>2022-06-04T08:41:09Z</time>
      </trkpt>
      <trkpt lat="46.14838" lon="5.35898">
        <ele>377.2</ele>
        <time>2022-06-04T08:41:13Z</time>
      </trkpt>
      <trkpt lat="46.14807" lon="5.359">
        <ele>376.8</ele>
        <time>2022-06-04T08:41:16Z</time>
      </trkpt>
      <trkpt lat="46.14769" lon="5.35901">
        <ele>375.8</ele>
        <time>2022-06-04T08:41:20Z</time>
      </trkpt>
      <trkpt lat="46.14759" lon="5.359">
        <ele>375.6</ele>
        <time>2022-06-04T08:41:21Z</time>
      </trkpt>
      <trkpt lat="46.14747" lon="5.35897">
        <ele>375</ele>
        <time>2022-06-04T08:41:22Z</time>
      </trkpt>
      <trkpt lat="46.14738" lon="5.35894">
        <ele>374.6</ele>
        <time>2022-06-04T08:41:23Z</time>
      </trkpt>
      <trkpt lat="46.14721" lon="5.35887">
        <ele>373</ele>
        <time>2022-06-04T08:41:25Z</time>
      </trkpt>
      <trkpt lat="46.14703" lon="5.3588">
        <ele>371.8</ele>
        <time>2022-06-04T08:41:27Z</time>
      </trkpt>
      <trkpt lat="46.14685" lon="5.35871">
        <ele>370.8</ele>
        <time>2022-06-04T08:41:29Z</time>
      </trkpt>
      <trkpt lat="46.14667" lon="5.35863">
        <ele>369.6</ele>
        <time>2022-06-04T08:41:31Z</time>
      </trkpt>
      <trkpt lat="46.14658" lon="5.35859">
        <ele>369</ele>
        <time>2022-06-04T08:41:32Z</time>
      </trkpt>
      <trkpt lat="46.14638" lon="5.3585">
        <ele>368.4</ele>
        <time>2022-06-04T08:41:34Z</time>
      </trkpt>
      <trkpt lat="46.14608" lon="5.35832">
        <ele>367.2</ele>
        <time>2022-06-04T08:41:37Z</time>
      </trkpt>
      <trkpt lat="46.14569" lon="5.35804">
        <ele>364.8</ele>
        <time>2022-06-04T08:41:41Z</time>
      </trkpt>
      <trkpt lat="46.14558" lon="5.35796">
        <ele>363.6</ele>
        <time>2022-06-04T08:41:42Z</time>
      </trkpt>
      <trkpt lat="46.14548" lon="5.35789">
        <ele>362.2</ele>
        <time>2022-06-04T08:41:43Z</time>
      </trkpt>
      <trkpt lat="46.14538" lon="5.35782">
        <ele>360.8</ele>
        <time>2022-06-04T08:41:44Z</time>
      </trkpt>
      <trkpt lat="46.14505" lon="5.35766">
        <ele>359.6</ele>
        <time>2022-06-04T08:41:47Z</time>
      </trkpt>
      <trkpt lat="46.14493" lon="5.35763">
        <ele>359.2</ele>
        <time>2022-06-04T08:41:48Z</time>
      </trkpt>
      <trkpt lat="46.14482" lon="5.3576">
        <ele>358.6</ele>
        <time>2022-06-04T08:41:49Z</time>
      </trkpt>
      <trkpt lat="46.1447" lon="5.35758">
        <ele>357.4</ele>
        <time>2022-06-04T08:41:50Z</time>
      </trkpt>
      <trkpt lat="46.14458" lon="5.35757">
        <ele>356.2</ele>
        <time>2022-06-04T08:41:51Z</time>
      </trkpt>
      <trkpt lat="46.14433" lon="5.35759">
        <ele>354.6</ele>
        <time>2022-06-04T08:41:53Z</time>
      </trkpt>
      <trkpt lat="46.14409" lon="5.35768">
        <ele>353.4</ele>
        <time>2022-06-04T08:41:55Z</time>
      </trkpt>
      <trkpt lat="46.14385" lon="5.35777">
        <ele>351.6</ele>
        <time>2022-06-04T08:41:57Z</time>
      </trkpt>
      <trkpt lat="46.14372" lon="5.35782">
        <ele>350.2</ele>
        <time>2022-06-04T08:41:58Z</time>
      </trkpt>
      <trkpt lat="46.14348" lon="5.3579">
        <ele>348.8</ele>
        <time>2022-06-04T08:42:00Z</time>
      </trkpt>
      <trkpt lat="46.14326" lon="5.35798">
        <ele>347.2</ele>
        <time>2022-06-04T08:42:02Z</time>
      </trkpt>
      <trkpt lat="46.14306" lon="5.35805">
        <ele>346.2</ele>
        <time>2022-06-04T08:42:04Z</time>
      </trkpt>
      <trkpt lat="46.14297" lon="5.35805">
        <ele>345.2</ele>
        <time>2022-06-04T08:42:05Z</time>
      </trkpt>
      <trkpt lat="46.1428" lon="5.35802">
        <ele>343</ele>
        <time>2022-06-04T08:42:07Z</time>
      </trkpt>
      <trkpt lat="46.14266" lon="5.35801">
        <ele>341.8</ele>
        <time>2022-06-04T08:42:09Z</time>
      </trkpt>
      <trkpt lat="46.14261" lon="5.35802">
        <ele>341.4</ele>
        <time>2022-06-04T08:42:10Z</time>
      </trkpt>
      <trkpt lat="46.14257" lon="5.35807">
        <ele>341</ele>
        <time>2022-06-04T08:42:11Z</time>
      </trkpt>
      <trkpt lat="46.14255" lon="5.35814">
        <ele>340.8</ele>
        <time>2022-06-04T08:42:12Z</time>
      </trkpt>
      <trkpt lat="46.14255" lon="5.35826">
        <ele>340.8</ele>
        <time>2022-06-04T08:42:13Z</time>
      </trkpt>
      <trkpt lat="46.14256" lon="5.35835">
        <ele>340.4</ele>
        <time>2022-06-04T08:42:14Z</time>
      </trkpt>
      <trkpt lat="46.14257" lon="5.35847">
        <ele>340.2</ele>
        <time>2022-06-04T08:42:15Z</time>
      </trkpt>
      <trkpt lat="46.14256" lon="5.35875">
        <ele>339.6</ele>
        <time>2022-06-04T08:42:17Z</time>
      </trkpt>
      <trkpt lat="46.14253" lon="5.3589">
        <ele>339</ele>
        <time>2022-06-04T08:42:18Z</time>
      </trkpt>
      <trkpt lat="46.1425" lon="5.35906">
        <ele>337.6</ele>
        <time>2022-06-04T08:42:19Z</time>
      </trkpt>
      <trkpt lat="46.14244" lon="5.35938">
        <ele>336.2</ele>
        <time>2022-06-04T08:42:21Z</time>
      </trkpt>
      <trkpt lat="46.1424" lon="5.35972">
        <ele>334.8</ele>
        <time>2022-06-04T08:42:23Z</time>
      </trkpt>
      <trkpt lat="46.14239" lon="5.36006">
        <ele>333.6</ele>
        <time>2022-06-04T08:42:25Z</time>
      </trkpt>
      <trkpt lat="46.1424" lon="5.3604">
        <ele>332.4</ele>
        <time>2022-06-04T08:42:27Z</time>
      </trkpt>
      <trkpt lat="46.14241" lon="5.36058">
        <ele>331.4</ele>
        <time>2022-06-04T08:42:28Z</time>
      </trkpt>
      <trkpt lat="46.14241" lon="5.36091">
        <ele>330.4</ele>
        <time>2022-06-04T08:42:30Z</time>
      </trkpt>
      <trkpt lat="46.14239" lon="5.36108">
        <ele>330</ele>
        <time>2022-06-04T08:42:31Z</time>
      </trkpt>
      <trkpt lat="46.14233" lon="5.36142">
        <ele>328.6</ele>
        <time>2022-06-04T08:42:33Z</time>
      </trkpt>
      <trkpt lat="46.14225" lon="5.36176">
        <ele>328.2</ele>
        <time>2022-06-04T08:42:35Z</time>
      </trkpt>
      <trkpt lat="46.14221" lon="5.36194">
        <ele>327.6</ele>
        <time>2022-06-04T08:42:36Z</time>
      </trkpt>
      <trkpt lat="46.14215" lon="5.36229">
        <ele>326.6</ele>
        <time>2022-06-04T08:42:38Z</time>
      </trkpt>
      <trkpt lat="46.1421" lon="5.36264">
        <ele>326</ele>
        <time>2022-06-04T08:42:40Z</time>
      </trkpt>
      <trkpt lat="46.14206" lon="5.36299">
        <ele>324.4</ele>
        <time>2022-06-04T08:42:42Z</time>
      </trkpt>
      <trkpt lat="46.14202" lon="5.36351">
        <ele>323.2</ele>
        <time>2022-06-04T08:42:45Z</time>
      </trkpt>
      <trkpt lat="46.14201" lon="5.36369">
        <ele>322.8</ele>
        <time>2022-06-04T08:42:46Z</time>
      </trkpt>
      <trkpt lat="46.142" lon="5.36421">
        <ele>322</ele>
        <time>2022-06-04T08:42:49Z</time>
      </trkpt>
      <trkpt lat="46.14202" lon="5.36438">
        <ele>321.8</ele>
        <time>2022-06-04T08:42:50Z</time>
      </trkpt>
      <trkpt lat="46.14207" lon="5.36489">
        <ele>320.8</ele>
        <time>2022-06-04T08:42:53Z</time>
      </trkpt>
      <trkpt lat="46.14211" lon="5.36524">
        <ele>319.8</ele>
        <time>2022-06-04T08:42:55Z</time>
      </trkpt>
      <trkpt lat="46.14213" lon="5.36541">
        <ele>318.6</ele>
        <time>2022-06-04T08:42:56Z</time>
      </trkpt>
      <trkpt lat="46.14215" lon="5.36575">
        <ele>318</ele>
        <time>2022-06-04T08:42:58Z</time>
      </trkpt>
      <trkpt lat="46.14213" lon="5.36613">
        <ele>317.6</ele>
        <time>2022-06-04T08:43:00Z</time>
      </trkpt>
      <trkpt lat="46.14208" lon="5.36647">
        <ele>317.2</ele>
        <time>2022-06-04T08:43:02Z</time>
      </trkpt>
      <trkpt lat="46.14203" lon="5.36676">
        <ele>316.4</ele>
        <time>2022-06-04T08:43:04Z</time>
      </trkpt>
      <trkpt lat="46.14193" lon="5.36724">
        <ele>315.2</ele>
        <time>2022-06-04T08:43:07Z</time>
      </trkpt>
      <trkpt lat="46.14183" lon="5.36772">
        <ele>314.6</ele>
        <time>2022-06-04T08:43:10Z</time>
      </trkpt>
      <trkpt lat="46.14168" lon="5.36834">
        <ele>314</ele>
        <time>2022-06-04T08:43:14Z</time>
      </trkpt>
      <trkpt lat="46.14161" lon="5.36881">
        <ele>313</ele>
        <time>2022-06-04T08:43:17Z</time>
      </trkpt>
      <trkpt lat="46.14161" lon="5.36896">
        <ele>313</ele>
        <time>2022-06-04T08:43:18Z</time>
      </trkpt>
      <trkpt lat="46.14163" lon="5.36928">
        <ele>312.6</ele>
        <time>2022-06-04T08:43:20Z</time>
      </trkpt>
      <trkpt lat="46.14169" lon="5.36957">
        <ele>312</ele>
        <time>2022-06-04T08:43:22Z</time>
      </trkpt>
      <trkpt lat="46.14173" lon="5.36972">
        <ele>311.8</ele>
        <time>2022-06-04T08:43:23Z</time>
      </trkpt>
      <trkpt lat="46.14176" lon="5.36987">
        <ele>311.6</ele>
        <time>2022-06-04T08:43:24Z</time>
      </trkpt>
      <trkpt lat="46.14179" lon="5.37003">
        <ele>311.4</ele>
        <time>2022-06-04T08:43:25Z</time>
      </trkpt>
      <trkpt lat="46.14181" lon="5.37035">
        <ele>311</ele>
        <time>2022-06-04T08:43:27Z</time>
      </trkpt>
      <trkpt lat="46.1418" lon="5.37066">
        <ele>310.6</ele>
        <time>2022-06-04T08:43:29Z</time>
      </trkpt>
      <trkpt lat="46.1418" lon="5.37111">
        <ele>310</ele>
        <time>2022-06-04T08:43:32Z</time>
      </trkpt>
      <trkpt lat="46.14182" lon="5.3714">
        <ele>309.6</ele>
        <time>2022-06-04T08:43:34Z</time>
      </trkpt>
      <trkpt lat="46.14187" lon="5.37185">
        <ele>308.8</ele>
        <time>2022-06-04T08:43:37Z</time>
      </trkpt>
      <trkpt lat="46.14188" lon="5.37214">
        <ele>308.8</ele>
        <time>2022-06-04T08:43:39Z</time>
      </trkpt>
      <trkpt lat="46.14187" lon="5.37228">
        <ele>308.6</ele>
        <time>2022-06-04T08:43:40Z</time>
      </trkpt>
      <trkpt lat="46.14184" lon="5.37241">
        <ele>308.6</ele>
        <time>2022-06-04T08:43:41Z</time>
      </trkpt>
      <trkpt lat="46.14176" lon="5.37264">
        <ele>308.4</ele>
        <time>2022-06-04T08:43:43Z</time>
      </trkpt>
      <trkpt lat="46.14167" lon="5.37285">
        <ele>309</ele>
        <time>2022-06-04T08:43:45Z</time>
      </trkpt>
      <trkpt lat="46.14162" lon="5.37306">
        <ele>309.4</ele>
        <time>2022-06-04T08:43:47Z</time>
      </trkpt>
      <trkpt lat="46.14158" lon="5.37339">
        <ele>310</ele>
        <time>2022-06-04T08:43:50Z</time>
      </trkpt>
      <trkpt lat="46.14157" lon="5.3736">
        <ele>310.4</ele>
        <time>2022-06-04T08:43:52Z</time>
      </trkpt>
      <trkpt lat="46.14159" lon="5.37411">
        <ele>311.2</ele>
        <time>2022-06-04T08:43:57Z</time>
      </trkpt>
      <trkpt lat="46.1416" lon="5.37421">
        <ele>311.4</ele>
        <time>2022-06-04T08:43:58Z</time>
      </trkpt>
      <trkpt lat="46.14163" lon="5.3744">
        <ele>311.8</ele>
        <time>2022-06-04T08:44:00Z</time>
      </trkpt>
      <trkpt lat="46.14173" lon="5.37469">
        <ele>312</ele>
        <time>2022-06-04T08:44:03Z</time>
      </trkpt>
      <trkpt lat="46.1418" lon="5.3749">
        <ele>312.2</ele>
        <time>2022-06-04T08:44:05Z</time>
      </trkpt>
      <trkpt lat="46.14181" lon="5.37516">
        <ele>312.2</ele>
        <time>2022-06-04T08:44:07Z</time>
      </trkpt>
      <trkpt lat="46.1418" lon="5.37604">
        <ele>309.8</ele>
        <time>2022-06-04T08:44:13Z</time>
      </trkpt>
      <trkpt lat="46.14179" lon="5.37619">
        <ele>309.6</ele>
        <time>2022-06-04T08:44:14Z</time>
      </trkpt>
      <trkpt lat="46.14177" lon="5.37635">
        <ele>308.6</ele>
        <time>2022-06-04T08:44:15Z</time>
      </trkpt>
      <trkpt lat="46.14174" lon="5.3765">
        <ele>308.2</ele>
        <time>2022-06-04T08:44:16Z</time>
      </trkpt>
      <trkpt lat="46.14169" lon="5.37663">
        <ele>307.6</ele>
        <time>2022-06-04T08:44:17Z</time>
      </trkpt>
      <trkpt lat="46.14163" lon="5.37675">
        <ele>307</ele>
        <time>2022-06-04T08:44:18Z</time>
      </trkpt>
      <trkpt lat="46.14156" lon="5.37687">
        <ele>306.8</ele>
        <time>2022-06-04T08:44:19Z</time>
      </trkpt>
      <trkpt lat="46.14149" lon="5.37697">
        <ele>306.4</ele>
        <time>2022-06-04T08:44:20Z</time>
      </trkpt>
      <trkpt lat="46.14119" lon="5.37753">
        <ele>305.2</ele>
        <time>2022-06-04T08:44:25Z</time>
      </trkpt>
      <trkpt lat="46.14092" lon="5.37815">
        <ele>304</ele>
        <time>2022-06-04T08:44:30Z</time>
      </trkpt>
      <trkpt lat="46.14087" lon="5.37824">
        <ele>303.4</ele>
        <time>2022-06-04T08:44:31Z</time>
      </trkpt>
      <trkpt lat="46.1408" lon="5.37835">
        <ele>302.8</ele>
        <time>2022-06-04T08:44:32Z</time>
      </trkpt>
      <trkpt lat="46.1405" lon="5.37881">
        <ele>301.2</ele>
        <time>2022-06-04T08:44:36Z</time>
      </trkpt>
      <trkpt lat="46.14021" lon="5.37924">
        <ele>300.2</ele>
        <time>2022-06-04T08:44:40Z</time>
      </trkpt>
      <trkpt lat="46.14001" lon="5.37952">
        <ele>300</ele>
        <time>2022-06-04T08:44:43Z</time>
      </trkpt>
      <trkpt lat="46.13992" lon="5.37972">
        <ele>300</ele>
        <time>2022-06-04T08:44:45Z</time>
      </trkpt>
      <trkpt lat="46.13985" lon="5.37993">
        <ele>300</ele>
        <time>2022-06-04T08:44:47Z</time>
      </trkpt>
      <trkpt lat="46.13974" lon="5.38039">
        <ele>300.2</ele>
        <time>2022-06-04T08:44:51Z</time>
      </trkpt>
      <trkpt lat="46.13968" lon="5.38049">
        <ele>300.2</ele>
        <time>2022-06-04T08:44:52Z</time>
      </trkpt>
      <trkpt lat="46.13937" lon="5.38103">
        <ele>300</ele>
        <time>2022-06-04T08:44:57Z</time>
      </trkpt>
      <trkpt lat="46.13931" lon="5.38114">
        <ele>299.6</ele>
        <time>2022-06-04T08:44:58Z</time>
      </trkpt>
      <trkpt lat="46.13926" lon="5.38125">
        <ele>298.4</ele>
        <time>2022-06-04T08:44:59Z</time>
      </trkpt>
      <trkpt lat="46.13914" lon="5.38144">
        <ele>297.4</ele>
        <time>2022-06-04T08:45:01Z</time>
      </trkpt>
      <trkpt lat="46.13902" lon="5.38163">
        <ele>297.2</ele>
        <time>2022-06-04T08:45:03Z</time>
      </trkpt>
      <trkpt lat="46.13885" lon="5.38209">
        <ele>296.4</ele>
        <time>2022-06-04T08:45:07Z</time>
      </trkpt>
      <trkpt lat="46.13878" lon="5.38235">
        <ele>296.4</ele>
        <time>2022-06-04T08:45:09Z</time>
      </trkpt>
      <trkpt lat="46.13869" lon="5.38282">
        <ele>296</ele>
        <time>2022-06-04T08:45:12Z</time>
      </trkpt>
      <trkpt lat="46.13863" lon="5.38314">
        <ele>294.4</ele>
        <time>2022-06-04T08:45:14Z</time>
      </trkpt>
      <trkpt lat="46.13858" lon="5.38344">
        <ele>293</ele>
        <time>2022-06-04T08:45:16Z</time>
      </trkpt>
      <trkpt lat="46.13855" lon="5.3836">
        <ele>292.2</ele>
        <time>2022-06-04T08:45:17Z</time>
      </trkpt>
      <trkpt lat="46.13851" lon="5.38376">
        <ele>291.4</ele>
        <time>2022-06-04T08:45:18Z</time>
      </trkpt>
      <trkpt lat="46.13845" lon="5.38407">
        <ele>289</ele>
        <time>2022-06-04T08:45:20Z</time>
      </trkpt>
      <trkpt lat="46.13843" lon="5.38423">
        <ele>287.8</ele>
        <time>2022-06-04T08:45:21Z</time>
      </trkpt>
      <trkpt lat="46.1384" lon="5.3844">
        <ele>287</ele>
        <time>2022-06-04T08:45:22Z</time>
      </trkpt>
      <trkpt lat="46.13838" lon="5.38457">
        <ele>285.8</ele>
        <time>2022-06-04T08:45:23Z</time>
      </trkpt>
      <trkpt lat="46.13834" lon="5.38495">
        <ele>283.8</ele>
        <time>2022-06-04T08:45:25Z</time>
      </trkpt>
      <trkpt lat="46.13832" lon="5.38514">
        <ele>283</ele>
        <time>2022-06-04T08:45:26Z</time>
      </trkpt>
      <trkpt lat="46.1383" lon="5.38532">
        <ele>281.8</ele>
        <time>2022-06-04T08:45:27Z</time>
      </trkpt>
      <trkpt lat="46.13828" lon="5.38548">
        <ele>280.2</ele>
        <time>2022-06-04T08:45:28Z</time>
      </trkpt>
      <trkpt lat="46.13826" lon="5.38567">
        <ele>279.4</ele>
        <time>2022-06-04T08:45:29Z</time>
      </trkpt>
      <trkpt lat="46.13824" lon="5.38581">
        <ele>277.8</ele>
        <time>2022-06-04T08:45:30Z</time>
      </trkpt>
      <trkpt lat="46.13822" lon="5.38609">
        <ele>276.6</ele>
        <time>2022-06-04T08:45:32Z</time>
      </trkpt>
      <trkpt lat="46.13824" lon="5.38622">
        <ele>276.4</ele>
        <time>2022-06-04T08:45:33Z</time>
      </trkpt>
      <trkpt lat="46.13826" lon="5.38632">
        <ele>275.2</ele>
        <time>2022-06-04T08:45:34Z</time>
      </trkpt>
      <trkpt lat="46.13828" lon="5.38646">
        <ele>274.2</ele>
        <time>2022-06-04T08:45:35Z</time>
      </trkpt>
      <trkpt lat="46.13832" lon="5.38666">
        <ele>273.4</ele>
        <time>2022-06-04T08:45:37Z</time>
      </trkpt>
      <trkpt lat="46.13834" lon="5.38677">
        <ele>273.4</ele>
        <time>2022-06-04T08:45:38Z</time>
      </trkpt>
      <trkpt lat="46.13844" lon="5.38695">
        <ele>273.2</ele>
        <time>2022-06-04T08:45:40Z</time>
      </trkpt>
      <trkpt lat="46.13858" lon="5.38705">
        <ele>273.4</ele>
        <time>2022-06-04T08:45:42Z</time>
      </trkpt>
      <trkpt lat="46.13864" lon="5.38706">
        <ele>273.4</ele>
        <time>2022-06-04T08:45:43Z</time>
      </trkpt>
      <trkpt lat="46.13871" lon="5.38705">
        <ele>273.6</ele>
        <time>2022-06-04T08:45:44Z</time>
      </trkpt>
      <trkpt lat="46.13885" lon="5.38702">
        <ele>274.4</ele>
        <time>2022-06-04T08:45:46Z</time>
      </trkpt>
      <trkpt lat="46.13892" lon="5.38699">
        <ele>274.8</ele>
        <time>2022-06-04T08:45:47Z</time>
      </trkpt>
      <trkpt lat="46.13898" lon="5.38697">
        <ele>275.4</ele>
        <time>2022-06-04T08:45:48Z</time>
      </trkpt>
      <trkpt lat="46.13915" lon="5.38691">
        <ele>276.4</ele>
        <time>2022-06-04T08:45:51Z</time>
      </trkpt>
      <trkpt lat="46.13921" lon="5.38689">
        <ele>276.6</ele>
        <time>2022-06-04T08:45:52Z</time>
      </trkpt>
      <trkpt lat="46.13928" lon="5.38689">
        <ele>277</ele>
        <time>2022-06-04T08:45:53Z</time>
      </trkpt>
      <trkpt lat="46.13937" lon="5.38694">
        <ele>277.6</ele>
        <time>2022-06-04T08:45:55Z</time>
      </trkpt>
      <trkpt lat="46.13939" lon="5.38704">
        <ele>278.2</ele>
        <time>2022-06-04T08:45:57Z</time>
      </trkpt>
      <trkpt lat="46.13937" lon="5.38707">
        <ele>279</ele>
        <time>2022-06-04T08:45:58Z</time>
      </trkpt>
      <trkpt lat="46.13925" lon="5.3872">
        <ele>280.2</ele>
        <time>2022-06-04T08:46:02Z</time>
      </trkpt>
      <trkpt lat="46.13923" lon="5.38724">
        <ele>280.6</ele>
        <time>2022-06-04T08:46:03Z</time>
      </trkpt>
      <trkpt lat="46.13917" lon="5.38731">
        <ele>281.2</ele>
        <time>2022-06-04T08:46:05Z</time>
      </trkpt>
      <trkpt lat="46.13914" lon="5.38734">
        <ele>281.6</ele>
        <time>2022-06-04T08:46:06Z</time>
      </trkpt>
      <trkpt lat="46.13904" lon="5.38738">
        <ele>282.4</ele>
        <time>2022-06-04T08:46:08Z</time>
      </trkpt>
      <trkpt lat="46.13883" lon="5.38747">
        <ele>283.4</ele>
        <time>2022-06-04T08:46:13Z</time>
      </trkpt>
      <trkpt lat="46.13874" lon="5.38751">
        <ele>284</ele>
        <time>2022-06-04T08:46:15Z</time>
      </trkpt>
      <trkpt lat="46.13865" lon="5.38756">
        <ele>284.4</ele>
        <time>2022-06-04T08:46:17Z</time>
      </trkpt>
      <trkpt lat="46.13861" lon="5.38759">
        <ele>284.6</ele>
        <time>2022-06-04T08:46:18Z</time>
      </trkpt>
      <trkpt lat="46.13856" lon="5.38764">
        <ele>284.8</ele>
        <time>2022-06-04T08:46:19Z</time>
      </trkpt>
      <trkpt lat="46.13853" lon="5.38769">
        <ele>285</ele>
        <time>2022-06-04T08:46:20Z</time>
      </trkpt>
      <trkpt lat="46.13847" lon="5.3878">
        <ele>285.4</ele>
        <time>2022-06-04T08:46:22Z</time>
      </trkpt>
      <trkpt lat="46.13844" lon="5.38795">
        <ele>285.6</ele>
        <time>2022-06-04T08:46:24Z</time>
      </trkpt>
      <trkpt lat="46.13843" lon="5.38802">
        <ele>285.8</ele>
        <time>2022-06-04T08:46:25Z</time>
      </trkpt>
      <trkpt lat="46.13836" lon="5.38849">
        <ele>286.4</ele>
        <time>2022-06-04T08:46:32Z</time>
      </trkpt>
      <trkpt lat="46.13831" lon="5.38867">
        <ele>287</ele>
        <time>2022-06-04T08:46:35Z</time>
      </trkpt>
      <trkpt lat="46.13822" lon="5.3889">
        <ele>287.4</ele>
        <time>2022-06-04T08:46:39Z</time>
      </trkpt>
      <trkpt lat="46.13816" lon="5.38907">
        <ele>288</ele>
        <time>2022-06-04T08:46:42Z</time>
      </trkpt>
      <trkpt lat="46.13808" lon="5.38938">
        <ele>288.6</ele>
        <time>2022-06-04T08:46:47Z</time>
      </trkpt>
      <trkpt lat="46.13805" lon="5.38951">
        <ele>289</ele>
        <time>2022-06-04T08:46:49Z</time>
      </trkpt>
      <trkpt lat="46.13796" lon="5.38989">
        <ele>290</ele>
        <time>2022-06-04T08:46:55Z</time>
      </trkpt>
      <trkpt lat="46.13794" lon="5.38995">
        <ele>290.2</ele>
        <time>2022-06-04T08:46:56Z</time>
      </trkpt>
      <trkpt lat="46.13789" lon="5.3901">
        <ele>291.2</ele>
        <time>2022-06-04T08:47:00Z</time>
      </trkpt>
      <trkpt lat="46.13789" lon="5.39011">
        <ele>291.2</ele>
        <time>2022-06-04T08:47:01Z</time>
      </trkpt>
      <trkpt lat="46.13789" lon="5.39011">
        <ele>291.6</ele>
        <time>2022-06-04T08:47:03Z</time>
      </trkpt>
      <trkpt lat="46.13791" lon="5.39018">
        <ele>292</ele>
        <time>2022-06-04T08:47:12Z</time>
      </trkpt>
      <trkpt lat="46.13793" lon="5.3902">
        <ele>292</ele>
        <time>2022-06-04T08:47:13Z</time>
      </trkpt>
      <trkpt lat="46.13797" lon="5.39021">
        <ele>292</ele>
        <time>2022-06-04T08:47:14Z</time>
      </trkpt>
      <trkpt lat="46.13822" lon="5.39027">
        <ele>292</ele>
        <time>2022-06-04T08:47:18Z</time>
      </trkpt>
      <trkpt lat="46.13859" lon="5.39044">
        <ele>291</ele>
        <time>2022-06-04T08:47:23Z</time>
      </trkpt>
      <trkpt lat="46.13883" lon="5.39057">
        <ele>290.4</ele>
        <time>2022-06-04T08:47:26Z</time>
      </trkpt>
      <trkpt lat="46.13907" lon="5.39074">
        <ele>290.2</ele>
        <time>2022-06-04T08:47:29Z</time>
      </trkpt>
      <trkpt lat="46.13949" lon="5.39115">
        <ele>290</ele>
        <time>2022-06-04T08:47:35Z</time>
      </trkpt>
      <trkpt lat="46.13994" lon="5.39164">
        <ele>290.6</ele>
        <time>2022-06-04T08:47:42Z</time>
      </trkpt>
      <trkpt lat="46.14007" lon="5.39178">
        <ele>290.8</ele>
        <time>2022-06-04T08:47:44Z</time>
      </trkpt>
      <trkpt lat="46.14055" lon="5.39226">
        <ele>291.2</ele>
        <time>2022-06-04T08:47:51Z</time>
      </trkpt>
      <trkpt lat="46.14076" lon="5.39245">
        <ele>291.2</ele>
        <time>2022-06-04T08:47:54Z</time>
      </trkpt>
      <trkpt lat="46.14098" lon="5.39262">
        <ele>291.2</ele>
        <time>2022-06-04T08:47:57Z</time>
      </trkpt>
      <trkpt lat="46.14152" lon="5.39305">
        <ele>291</ele>
        <time>2022-06-04T08:48:04Z</time>
      </trkpt>
      <trkpt lat="46.1416" lon="5.39311">
        <ele>290.8</ele>
        <time>2022-06-04T08:48:05Z</time>
      </trkpt>
      <trkpt lat="46.14216" lon="5.39348">
        <ele>290.6</ele>
        <time>2022-06-04T08:48:12Z</time>
      </trkpt>
      <trkpt lat="46.14273" lon="5.39373">
        <ele>290.8</ele>
        <time>2022-06-04T08:48:19Z</time>
      </trkpt>
      <trkpt lat="46.14329" lon="5.39394">
        <ele>291</ele>
        <time>2022-06-04T08:48:26Z</time>
      </trkpt>
      <trkpt lat="46.14343" lon="5.39399">
        <ele>291.2</ele>
        <time>2022-06-04T08:48:28Z</time>
      </trkpt>
      <trkpt lat="46.14352" lon="5.39402">
        <ele>291.4</ele>
        <time>2022-06-04T08:48:29Z</time>
      </trkpt>
      <trkpt lat="46.14406" lon="5.39417">
        <ele>292.2</ele>
        <time>2022-06-04T08:48:36Z</time>
      </trkpt>
      <trkpt lat="46.14422" lon="5.39421">
        <ele>292.6</ele>
        <time>2022-06-04T08:48:38Z</time>
      </trkpt>
      <trkpt lat="46.14481" lon="5.39434">
        <ele>293.2</ele>
        <time>2022-06-04T08:48:45Z</time>
      </trkpt>
      <trkpt lat="46.14506" lon="5.3944">
        <ele>293.2</ele>
        <time>2022-06-04T08:48:48Z</time>
      </trkpt>
      <trkpt lat="46.14568" lon="5.3945">
        <ele>292.8</ele>
        <time>2022-06-04T08:48:55Z</time>
      </trkpt>
      <trkpt lat="46.14595" lon="5.39455">
        <ele>292.6</ele>
        <time>2022-06-04T08:48:58Z</time>
      </trkpt>
      <trkpt lat="46.14635" lon="5.39473">
        <ele>292.6</ele>
        <time>2022-06-04T08:49:03Z</time>
      </trkpt>
      <trkpt lat="46.14682" lon="5.39494">
        <ele>293</ele>
        <time>2022-06-04T08:49:09Z</time>
      </trkpt>
      <trkpt lat="46.14689" lon="5.39495">
        <ele>293</ele>
        <time>2022-06-04T08:49:10Z</time>
      </trkpt>
      <trkpt lat="46.14714" lon="5.3949">
        <ele>293.4</ele>
        <time>2022-06-04T08:49:13Z</time>
      </trkpt>
      <trkpt lat="46.14722" lon="5.39487">
        <ele>293.6</ele>
        <time>2022-06-04T08:49:14Z</time>
      </trkpt>
      <trkpt lat="46.14763" lon="5.39468">
        <ele>293.8</ele>
        <time>2022-06-04T08:49:19Z</time>
      </trkpt>
      <trkpt lat="46.14817" lon="5.39448">
        <ele>293.4</ele>
        <time>2022-06-04T08:49:25Z</time>
      </trkpt>
      <trkpt lat="46.14826" lon="5.39444">
        <ele>293.4</ele>
        <time>2022-06-04T08:49:26Z</time>
      </trkpt>
      <trkpt lat="46.14883" lon="5.39429">
        <ele>292.8</ele>
        <time>2022-06-04T08:49:32Z</time>
      </trkpt>
      <trkpt lat="46.14892" lon="5.39427">
        <ele>292.8</ele>
        <time>2022-06-04T08:49:33Z</time>
      </trkpt>
      <trkpt lat="46.14902" lon="5.39426">
        <ele>292.4</ele>
        <time>2022-06-04T08:49:34Z</time>
      </trkpt>
      <trkpt lat="46.14911" lon="5.39424">
        <ele>292.4</ele>
        <time>2022-06-04T08:49:35Z</time>
      </trkpt>
      <trkpt lat="46.14968" lon="5.39414">
        <ele>291.8</ele>
        <time>2022-06-04T08:49:41Z</time>
      </trkpt>
      <trkpt lat="46.14977" lon="5.39413">
        <ele>291.6</ele>
        <time>2022-06-04T08:49:42Z</time>
      </trkpt>
      <trkpt lat="46.15031" lon="5.39402">
        <ele>291.4</ele>
        <time>2022-06-04T08:49:48Z</time>
      </trkpt>
      <trkpt lat="46.15057" lon="5.39396">
        <ele>291.6</ele>
        <time>2022-06-04T08:49:51Z</time>
      </trkpt>
      <trkpt lat="46.15098" lon="5.39386">
        <ele>292.4</ele>
        <time>2022-06-04T08:49:56Z</time>
      </trkpt>
      <trkpt lat="46.15106" lon="5.39383">
        <ele>292.4</ele>
        <time>2022-06-04T08:49:57Z</time>
      </trkpt>
      <trkpt lat="46.15139" lon="5.39375">
        <ele>292.8</ele>
        <time>2022-06-04T08:50:01Z</time>
      </trkpt>
      <trkpt lat="46.15155" lon="5.3937">
        <ele>292.8</ele>
        <time>2022-06-04T08:50:03Z</time>
      </trkpt>
      <trkpt lat="46.15212" lon="5.39356">
        <ele>293.4</ele>
        <time>2022-06-04T08:50:10Z</time>
      </trkpt>
      <trkpt lat="46.15242" lon="5.39349">
        <ele>293.8</ele>
        <time>2022-06-04T08:50:14Z</time>
      </trkpt>
      <trkpt lat="46.15277" lon="5.39338">
        <ele>295</ele>
        <time>2022-06-04T08:50:19Z</time>
      </trkpt>
      <trkpt lat="46.15291" lon="5.39334">
        <ele>295.8</ele>
        <time>2022-06-04T08:50:21Z</time>
      </trkpt>
      <trkpt lat="46.15298" lon="5.39333">
        <ele>296</ele>
        <time>2022-06-04T08:50:22Z</time>
      </trkpt>
      <trkpt lat="46.15326" lon="5.3933">
        <ele>297.2</ele>
        <time>2022-06-04T08:50:26Z</time>
      </trkpt>
      <trkpt lat="46.15341" lon="5.3933">
        <ele>298</ele>
        <time>2022-06-04T08:50:28Z</time>
      </trkpt>
      <trkpt lat="46.15383" lon="5.39339">
        <ele>298.2</ele>
        <time>2022-06-04T08:50:33Z</time>
      </trkpt>
      <trkpt lat="46.15444" lon="5.39359">
        <ele>297.4</ele>
        <time>2022-06-04T08:50:40Z</time>
      </trkpt>
      <trkpt lat="46.15501" lon="5.39379">
        <ele>296.2</ele>
        <time>2022-06-04T08:50:46Z</time>
      </trkpt>
      <trkpt lat="46.15511" lon="5.39382">
        <ele>296</ele>
        <time>2022-06-04T08:50:47Z</time>
      </trkpt>
      <trkpt lat="46.15539" lon="5.39392">
        <ele>295.2</ele>
        <time>2022-06-04T08:50:50Z</time>
      </trkpt>
      <trkpt lat="46.15595" lon="5.39411">
        <ele>294</ele>
        <time>2022-06-04T08:50:56Z</time>
      </trkpt>
      <trkpt lat="46.15648" lon="5.39428">
        <ele>293.6</ele>
        <time>2022-06-04T08:51:02Z</time>
      </trkpt>
      <trkpt lat="46.15665" lon="5.39434">
        <ele>293.6</ele>
        <time>2022-06-04T08:51:04Z</time>
      </trkpt>
      <trkpt lat="46.15722" lon="5.39452">
        <ele>294.2</ele>
        <time>2022-06-04T08:51:11Z</time>
      </trkpt>
      <trkpt lat="46.15748" lon="5.39461">
        <ele>294.4</ele>
        <time>2022-06-04T08:51:14Z</time>
      </trkpt>
      <trkpt lat="46.15808" lon="5.39473">
        <ele>294.6</ele>
        <time>2022-06-04T08:51:21Z</time>
      </trkpt>
      <trkpt lat="46.15817" lon="5.39473">
        <ele>294.6</ele>
        <time>2022-06-04T08:51:22Z</time>
      </trkpt>
      <trkpt lat="46.1587" lon="5.39465">
        <ele>294.4</ele>
        <time>2022-06-04T08:51:28Z</time>
      </trkpt>
      <trkpt lat="46.15924" lon="5.39451">
        <ele>294</ele>
        <time>2022-06-04T08:51:34Z</time>
      </trkpt>
      <trkpt lat="46.15978" lon="5.39438">
        <ele>293</ele>
        <time>2022-06-04T08:51:40Z</time>
      </trkpt>
      <trkpt lat="46.15987" lon="5.39435">
        <ele>293</ele>
        <time>2022-06-04T08:51:41Z</time>
      </trkpt>
      <trkpt lat="46.16023" lon="5.39429">
        <ele>292.6</ele>
        <time>2022-06-04T08:51:45Z</time>
      </trkpt>
      <trkpt lat="46.16047" lon="5.39426">
        <ele>292.6</ele>
        <time>2022-06-04T08:51:48Z</time>
      </trkpt>
      <trkpt lat="46.16054" lon="5.39423">
        <ele>292.6</ele>
        <time>2022-06-04T08:51:49Z</time>
      </trkpt>
      <trkpt lat="46.16068" lon="5.39416">
        <ele>293.2</ele>
        <time>2022-06-04T08:51:52Z</time>
      </trkpt>
      <trkpt lat="46.1607" lon="5.39413">
        <ele>294.2</ele>
        <time>2022-06-04T08:51:54Z</time>
      </trkpt>
      <trkpt lat="46.16072" lon="5.39411">
        <ele>294.6</ele>
        <time>2022-06-04T08:51:55Z</time>
      </trkpt>
      <trkpt lat="46.16084" lon="5.39401">
        <ele>295.2</ele>
        <time>2022-06-04T08:51:59Z</time>
      </trkpt>
      <trkpt lat="46.16089" lon="5.39398">
        <ele>295.2</ele>
        <time>2022-06-04T08:52:00Z</time>
      </trkpt>
      <trkpt lat="46.16094" lon="5.39395">
        <ele>295.4</ele>
        <time>2022-06-04T08:52:01Z</time>
      </trkpt>
      <trkpt lat="46.16106" lon="5.39391">
        <ele>295.6</ele>
        <time>2022-06-04T08:52:03Z</time>
      </trkpt>
      <trkpt lat="46.16135" lon="5.39393">
        <ele>295.8</ele>
        <time>2022-06-04T08:52:07Z</time>
      </trkpt>
      <trkpt lat="46.16165" lon="5.39392">
        <ele>296.4</ele>
        <time>2022-06-04T08:52:11Z</time>
      </trkpt>
      <trkpt lat="46.16173" lon="5.39392">
        <ele>296.4</ele>
        <time>2022-06-04T08:52:12Z</time>
      </trkpt>
      <trkpt lat="46.16231" lon="5.39393">
        <ele>297.4</ele>
        <time>2022-06-04T08:52:20Z</time>
      </trkpt>
      <trkpt lat="46.16238" lon="5.39393">
        <ele>297.6</ele>
        <time>2022-06-04T08:52:21Z</time>
      </trkpt>
      <trkpt lat="46.16282" lon="5.39399">
        <ele>298.4</ele>
        <time>2022-06-04T08:52:27Z</time>
      </trkpt>
      <trkpt lat="46.16296" lon="5.39402">
        <ele>298.6</ele>
        <time>2022-06-04T08:52:29Z</time>
      </trkpt>
      <trkpt lat="46.16352" lon="5.39421">
        <ele>299.2</ele>
        <time>2022-06-04T08:52:37Z</time>
      </trkpt>
      <trkpt lat="46.16359" lon="5.39424">
        <ele>299.2</ele>
        <time>2022-06-04T08:52:38Z</time>
      </trkpt>
      <trkpt lat="46.1641" lon="5.3945">
        <ele>299</ele>
        <time>2022-06-04T08:52:45Z</time>
      </trkpt>
      <trkpt lat="46.16462" lon="5.39476">
        <ele>298.8</ele>
        <time>2022-06-04T08:52:52Z</time>
      </trkpt>
      <trkpt lat="46.16491" lon="5.39491">
        <ele>299</ele>
        <time>2022-06-04T08:52:56Z</time>
      </trkpt>
      <trkpt lat="46.16543" lon="5.3951">
        <ele>299</ele>
        <time>2022-06-04T08:53:03Z</time>
      </trkpt>
      <trkpt lat="46.16603" lon="5.39517">
        <ele>299</ele>
        <time>2022-06-04T08:53:11Z</time>
      </trkpt>
      <trkpt lat="46.16658" lon="5.39514">
        <ele>299.2</ele>
        <time>2022-06-04T08:53:18Z</time>
      </trkpt>
      <trkpt lat="46.16674" lon="5.39515">
        <ele>299.2</ele>
        <time>2022-06-04T08:53:20Z</time>
      </trkpt>
      <trkpt lat="46.16732" lon="5.39523">
        <ele>298.8</ele>
        <time>2022-06-04T08:53:27Z</time>
      </trkpt>
      <trkpt lat="46.16748" lon="5.39525">
        <ele>298.8</ele>
        <time>2022-06-04T08:53:29Z</time>
      </trkpt>
      <trkpt lat="46.16798" lon="5.39533">
        <ele>298.6</ele>
        <time>2022-06-04T08:53:35Z</time>
      </trkpt>
      <trkpt lat="46.16841" lon="5.39539">
        <ele>298.2</ele>
        <time>2022-06-04T08:53:40Z</time>
      </trkpt>
      <trkpt lat="46.16875" lon="5.39543">
        <ele>297.2</ele>
        <time>2022-06-04T08:53:44Z</time>
      </trkpt>
      <trkpt lat="46.16936" lon="5.39552">
        <ele>296.8</ele>
        <time>2022-06-04T08:53:51Z</time>
      </trkpt>
      <trkpt lat="46.16945" lon="5.39553">
        <ele>296.8</ele>
        <time>2022-06-04T08:53:52Z</time>
      </trkpt>
      <trkpt lat="46.16989" lon="5.39558">
        <ele>297</ele>
        <time>2022-06-04T08:53:57Z</time>
      </trkpt>
      <trkpt lat="46.17044" lon="5.39563">
        <ele>296.8</ele>
        <time>2022-06-04T08:54:03Z</time>
      </trkpt>
      <trkpt lat="46.17053" lon="5.39564">
        <ele>296.8</ele>
        <time>2022-06-04T08:54:04Z</time>
      </trkpt>
      <trkpt lat="46.17072" lon="5.39567">
        <ele>296.4</ele>
        <time>2022-06-04T08:54:06Z</time>
      </trkpt>
      <trkpt lat="46.1711" lon="5.39571">
        <ele>295</ele>
        <time>2022-06-04T08:54:10Z</time>
      </trkpt>
      <trkpt lat="46.1712" lon="5.39572">
        <ele>295</ele>
        <time>2022-06-04T08:54:11Z</time>
      </trkpt>
      <trkpt lat="46.17177" lon="5.39577">
        <ele>294.2</ele>
        <time>2022-06-04T08:54:17Z</time>
      </trkpt>
      <trkpt lat="46.17204" lon="5.39579">
        <ele>294.2</ele>
        <time>2022-06-04T08:54:20Z</time>
      </trkpt>
      <trkpt lat="46.17267" lon="5.39585">
        <ele>294.4</ele>
        <time>2022-06-04T08:54:27Z</time>
      </trkpt>
      <trkpt lat="46.17285" lon="5.39587">
        <ele>294.6</ele>
        <time>2022-06-04T08:54:29Z</time>
      </trkpt>
      <trkpt lat="46.1733" lon="5.3959">
        <ele>294</ele>
        <time>2022-06-04T08:54:34Z</time>
      </trkpt>
      <trkpt lat="46.17366" lon="5.39592">
        <ele>294</ele>
        <time>2022-06-04T08:54:38Z</time>
      </trkpt>
      <trkpt lat="46.17421" lon="5.39596">
        <ele>294</ele>
        <time>2022-06-04T08:54:44Z</time>
      </trkpt>
      <trkpt lat="46.1743" lon="5.39596">
        <ele>294</ele>
        <time>2022-06-04T08:54:45Z</time>
      </trkpt>
      <trkpt lat="46.17487" lon="5.396">
        <ele>293.6</ele>
        <time>2022-06-04T08:54:51Z</time>
      </trkpt>
      <trkpt lat="46.17515" lon="5.396">
        <ele>293.4</ele>
        <time>2022-06-04T08:54:54Z</time>
      </trkpt>
      <trkpt lat="46.17561" lon="5.39599">
        <ele>293</ele>
        <time>2022-06-04T08:54:59Z</time>
      </trkpt>
      <trkpt lat="46.17588" lon="5.39599">
        <ele>292.8</ele>
        <time>2022-06-04T08:55:02Z</time>
      </trkpt>
      <trkpt lat="46.17649" lon="5.39603">
        <ele>292.6</ele>
        <time>2022-06-04T08:55:09Z</time>
      </trkpt>
      <trkpt lat="46.17657" lon="5.39604">
        <ele>292.6</ele>
        <time>2022-06-04T08:55:10Z</time>
      </trkpt>
      <trkpt lat="46.17714" lon="5.39613">
        <ele>293.6</ele>
        <time>2022-06-04T08:55:17Z</time>
      </trkpt>
      <trkpt lat="46.1773" lon="5.39615">
        <ele>293.8</ele>
        <time>2022-06-04T08:55:19Z</time>
      </trkpt>
      <trkpt lat="46.17787" lon="5.39621">
        <ele>293.8</ele>
        <time>2022-06-04T08:55:26Z</time>
      </trkpt>
      <trkpt lat="46.17811" lon="5.39623">
        <ele>293.8</ele>
        <time>2022-06-04T08:55:29Z</time>
      </trkpt>
      <trkpt lat="46.17851" lon="5.39621">
        <ele>294</ele>
        <time>2022-06-04T08:55:34Z</time>
      </trkpt>
      <trkpt lat="46.17867" lon="5.39619">
        <ele>294</ele>
        <time>2022-06-04T08:55:36Z</time>
      </trkpt>
      <trkpt lat="46.17923" lon="5.39613">
        <ele>293.4</ele>
        <time>2022-06-04T08:55:43Z</time>
      </trkpt>
      <trkpt lat="46.17931" lon="5.39613">
        <ele>293.4</ele>
        <time>2022-06-04T08:55:44Z</time>
      </trkpt>
      <trkpt lat="46.17988" lon="5.39613">
        <ele>293.4</ele>
        <time>2022-06-04T08:55:51Z</time>
      </trkpt>
      <trkpt lat="46.17996" lon="5.39613">
        <ele>293.4</ele>
        <time>2022-06-04T08:55:52Z</time>
      </trkpt>
      <trkpt lat="46.18051" lon="5.39616">
        <ele>293.6</ele>
        <time>2022-06-04T08:55:59Z</time>
      </trkpt>
      <trkpt lat="46.18074" lon="5.39619">
        <ele>293.8</ele>
        <time>2022-06-04T08:56:02Z</time>
      </trkpt>
      <trkpt lat="46.18128" lon="5.39629">
        <ele>294.2</ele>
        <time>2022-06-04T08:56:09Z</time>
      </trkpt>
      <trkpt lat="46.18158" lon="5.39634">
        <ele>294.2</ele>
        <time>2022-06-04T08:56:13Z</time>
      </trkpt>
      <trkpt lat="46.18213" lon="5.39643">
        <ele>294.4</ele>
        <time>2022-06-04T08:56:20Z</time>
      </trkpt>
      <trkpt lat="46.18245" lon="5.39649">
        <ele>294</ele>
        <time>2022-06-04T08:56:24Z</time>
      </trkpt>
      <trkpt lat="46.18302" lon="5.39659">
        <ele>293.8</ele>
        <time>2022-06-04T08:56:31Z</time>
      </trkpt>
      <trkpt lat="46.1831" lon="5.3966">
        <ele>294</ele>
        <time>2022-06-04T08:56:32Z</time>
      </trkpt>
      <trkpt lat="46.18365" lon="5.39664">
        <ele>294</ele>
        <time>2022-06-04T08:56:39Z</time>
      </trkpt>
      <trkpt lat="46.18412" lon="5.39655">
        <ele>294</ele>
        <time>2022-06-04T08:56:45Z</time>
      </trkpt>
      <trkpt lat="46.18428" lon="5.39652">
        <ele>294</ele>
        <time>2022-06-04T08:56:47Z</time>
      </trkpt>
      <trkpt lat="46.18483" lon="5.39642">
        <ele>294</ele>
        <time>2022-06-04T08:56:54Z</time>
      </trkpt>
      <trkpt lat="46.18498" lon="5.3964">
        <ele>293.8</ele>
        <time>2022-06-04T08:56:56Z</time>
      </trkpt>
      <trkpt lat="46.18557" lon="5.39643">
        <ele>294.2</ele>
        <time>2022-06-04T08:57:04Z</time>
      </trkpt>
      <trkpt lat="46.18606" lon="5.39658">
        <ele>294.8</ele>
        <time>2022-06-04T08:57:11Z</time>
      </trkpt>
      <trkpt lat="46.18635" lon="5.39669">
        <ele>295.4</ele>
        <time>2022-06-04T08:57:15Z</time>
      </trkpt>
      <trkpt lat="46.18656" lon="5.39677">
        <ele>295.6</ele>
        <time>2022-06-04T08:57:18Z</time>
      </trkpt>
      <trkpt lat="46.18706" lon="5.39704">
        <ele>295.8</ele>
        <time>2022-06-04T08:57:25Z</time>
      </trkpt>
      <trkpt lat="46.1875" lon="5.39719">
        <ele>295.4</ele>
        <time>2022-06-04T08:57:31Z</time>
      </trkpt>
      <trkpt lat="46.18758" lon="5.3972">
        <ele>295.4</ele>
        <time>2022-06-04T08:57:32Z</time>
      </trkpt>
      <trkpt lat="46.18813" lon="5.39719">
        <ele>295.2</ele>
        <time>2022-06-04T08:57:39Z</time>
      </trkpt>
      <trkpt lat="46.18875" lon="5.3972">
        <ele>295.8</ele>
        <time>2022-06-04T08:57:47Z</time>
      </trkpt>
      <trkpt lat="46.18882" lon="5.3972">
        <ele>295.8</ele>
        <time>2022-06-04T08:57:48Z</time>
      </trkpt>
      <trkpt lat="46.18934" lon="5.39721">
        <ele>296</ele>
        <time>2022-06-04T08:57:55Z</time>
      </trkpt>
      <trkpt lat="46.1899" lon="5.39724">
        <ele>296</ele>
        <time>2022-06-04T08:58:03Z</time>
      </trkpt>
      <trkpt lat="46.18998" lon="5.39725">
        <ele>296</ele>
        <time>2022-06-04T08:58:04Z</time>
      </trkpt>
      <trkpt lat="46.19049" lon="5.39729">
        <ele>296.2</ele>
        <time>2022-06-04T08:58:11Z</time>
      </trkpt>
      <trkpt lat="46.19094" lon="5.39733">
        <ele>296.4</ele>
        <time>2022-06-04T08:58:17Z</time>
      </trkpt>
      <trkpt lat="46.1911" lon="5.39735">
        <ele>296.6</ele>
        <time>2022-06-04T08:58:19Z</time>
      </trkpt>
      <trkpt lat="46.19168" lon="5.39745">
        <ele>296.6</ele>
        <time>2022-06-04T08:58:27Z</time>
      </trkpt>
      <trkpt lat="46.19175" lon="5.39747">
        <ele>296.6</ele>
        <time>2022-06-04T08:58:28Z</time>
      </trkpt>
      <trkpt lat="46.19231" lon="5.39757">
        <ele>296.6</ele>
        <time>2022-06-04T08:58:36Z</time>
      </trkpt>
      <trkpt lat="46.1925" lon="5.39766">
        <ele>296.8</ele>
        <time>2022-06-04T08:58:39Z</time>
      </trkpt>
      <trkpt lat="46.19263" lon="5.39776">
        <ele>296.8</ele>
        <time>2022-06-04T08:58:41Z</time>
      </trkpt>
      <trkpt lat="46.19308" lon="5.39818">
        <ele>296.6</ele>
        <time>2022-06-04T08:58:48Z</time>
      </trkpt>
      <trkpt lat="46.19358" lon="5.39852">
        <ele>296.6</ele>
        <time>2022-06-04T08:58:55Z</time>
      </trkpt>
      <trkpt lat="46.19408" lon="5.3988">
        <ele>296.8</ele>
        <time>2022-06-04T08:59:02Z</time>
      </trkpt>
      <trkpt lat="46.19415" lon="5.39883">
        <ele>296.8</ele>
        <time>2022-06-04T08:59:03Z</time>
      </trkpt>
      <trkpt lat="46.19429" lon="5.39883">
        <ele>296.8</ele>
        <time>2022-06-04T08:59:05Z</time>
      </trkpt>
      <trkpt lat="46.19436" lon="5.39881">
        <ele>296.8</ele>
        <time>2022-06-04T08:59:06Z</time>
      </trkpt>
      <trkpt lat="46.19487" lon="5.3987">
        <ele>297</ele>
        <time>2022-06-04T08:59:13Z</time>
      </trkpt>
      <trkpt lat="46.19494" lon="5.39868">
        <ele>297</ele>
        <time>2022-06-04T08:59:14Z</time>
      </trkpt>
      <trkpt lat="46.19514" lon="5.39857">
        <ele>297</ele>
        <time>2022-06-04T08:59:17Z</time>
      </trkpt>
      <trkpt lat="46.19567" lon="5.39829">
        <ele>297.2</ele>
        <time>2022-06-04T08:59:24Z</time>
      </trkpt>
      <trkpt lat="46.19617" lon="5.39816">
        <ele>297</ele>
        <time>2022-06-04T08:59:30Z</time>
      </trkpt>
      <trkpt lat="46.19675" lon="5.39803">
        <ele>296</ele>
        <time>2022-06-04T08:59:36Z</time>
      </trkpt>
      <trkpt lat="46.19705" lon="5.39797">
        <ele>295.2</ele>
        <time>2022-06-04T08:59:39Z</time>
      </trkpt>
      <trkpt lat="46.19733" lon="5.39793">
        <ele>293.8</ele>
        <time>2022-06-04T08:59:42Z</time>
      </trkpt>
      <trkpt lat="46.19777" lon="5.39793">
        <ele>293.4</ele>
        <time>2022-06-04T08:59:47Z</time>
      </trkpt>
      <trkpt lat="46.19834" lon="5.39794">
        <ele>293.8</ele>
        <time>2022-06-04T08:59:54Z</time>
      </trkpt>
      <trkpt lat="46.1989" lon="5.39805">
        <ele>293.6</ele>
        <time>2022-06-04T09:00:01Z</time>
      </trkpt>
      <trkpt lat="46.19944" lon="5.39825">
        <ele>293.8</ele>
        <time>2022-06-04T09:00:08Z</time>
      </trkpt>
      <trkpt lat="46.19951" lon="5.39828">
        <ele>293.8</ele>
        <time>2022-06-04T09:00:09Z</time>
      </trkpt>
      <trkpt lat="46.20009" lon="5.39851">
        <ele>294.4</ele>
        <time>2022-06-04T09:00:17Z</time>
      </trkpt>
      <trkpt lat="46.20031" lon="5.39859">
        <ele>294.8</ele>
        <time>2022-06-04T09:00:20Z</time>
      </trkpt>
      <trkpt lat="46.20059" lon="5.39871">
        <ele>294.8</ele>
        <time>2022-06-04T09:00:24Z</time>
      </trkpt>
      <trkpt lat="46.20103" lon="5.39888">
        <ele>295</ele>
        <time>2022-06-04T09:00:30Z</time>
      </trkpt>
      <trkpt lat="46.20148" lon="5.39906">
        <ele>294.4</ele>
        <time>2022-06-04T09:00:36Z</time>
      </trkpt>
      <trkpt lat="46.20193" lon="5.39924">
        <ele>294.2</ele>
        <time>2022-06-04T09:00:42Z</time>
      </trkpt>
      <trkpt lat="46.20245" lon="5.39946">
        <ele>294.4</ele>
        <time>2022-06-04T09:00:49Z</time>
      </trkpt>
      <trkpt lat="46.20259" lon="5.39951">
        <ele>294.4</ele>
        <time>2022-06-04T09:00:51Z</time>
      </trkpt>
      <trkpt lat="46.20304" lon="5.39969">
        <ele>294.6</ele>
        <time>2022-06-04T09:00:58Z</time>
      </trkpt>
      <trkpt lat="46.20358" lon="5.39991">
        <ele>296</ele>
        <time>2022-06-04T09:01:07Z</time>
      </trkpt>
      <trkpt lat="46.20364" lon="5.39994">
        <ele>296.2</ele>
        <time>2022-06-04T09:01:08Z</time>
      </trkpt>
      <trkpt lat="46.20417" lon="5.40015">
        <ele>297.2</ele>
        <time>2022-06-04T09:01:17Z</time>
      </trkpt>
      <trkpt lat="46.20423" lon="5.40017">
        <ele>297.2</ele>
        <time>2022-06-04T09:01:18Z</time>
      </trkpt>
      <trkpt lat="46.20456" lon="5.4003">
        <ele>298.4</ele>
        <time>2022-06-04T09:01:24Z</time>
      </trkpt>
      <trkpt lat="46.20479" lon="5.40042">
        <ele>299</ele>
        <time>2022-06-04T09:01:28Z</time>
      </trkpt>
      <trkpt lat="46.20507" lon="5.40061">
        <ele>299.4</ele>
        <time>2022-06-04T09:01:33Z</time>
      </trkpt>
      <trkpt lat="46.2053" lon="5.40078">
        <ele>299.6</ele>
        <time>2022-06-04T09:01:37Z</time>
      </trkpt>
      <trkpt lat="46.20584" lon="5.40118">
        <ele>299.8</ele>
        <time>2022-06-04T09:01:46Z</time>
      </trkpt>
      <trkpt lat="46.2059" lon="5.40122">
        <ele>299.8</ele>
        <time>2022-06-04T09:01:47Z</time>
      </trkpt>
      <trkpt lat="46.20632" lon="5.40166">
        <ele>300.2</ele>
        <time>2022-06-04T09:01:55Z</time>
      </trkpt>
      <trkpt lat="46.20637" lon="5.40172">
        <ele>300.4</ele>
        <time>2022-06-04T09:01:56Z</time>
      </trkpt>
      <trkpt lat="46.20667" lon="5.40219">
        <ele>301</ele>
        <time>2022-06-04T09:02:03Z</time>
      </trkpt>
      <trkpt lat="46.20675" lon="5.40235">
        <ele>301.4</ele>
        <time>2022-06-04T09:02:05Z</time>
      </trkpt>
      <trkpt lat="46.20691" lon="5.40276">
        <ele>301.6</ele>
        <time>2022-06-04T09:02:10Z</time>
      </trkpt>
      <trkpt lat="46.20703" lon="5.40334">
        <ele>301.8</ele>
        <time>2022-06-04T09:02:16Z</time>
      </trkpt>
      <trkpt lat="46.20716" lon="5.40398">
        <ele>302.2</ele>
        <time>2022-06-04T09:02:23Z</time>
      </trkpt>
      <trkpt lat="46.20718" lon="5.40407">
        <ele>302.4</ele>
        <time>2022-06-04T09:02:24Z</time>
      </trkpt>
      <trkpt lat="46.2073" lon="5.4045">
        <ele>303.4</ele>
        <time>2022-06-04T09:02:29Z</time>
      </trkpt>
      <trkpt lat="46.20737" lon="5.40476">
        <ele>303.8</ele>
        <time>2022-06-04T09:02:32Z</time>
      </trkpt>
      <trkpt lat="46.2075" lon="5.40552">
        <ele>303.6</ele>
        <time>2022-06-04T09:02:40Z</time>
      </trkpt>
      <trkpt lat="46.20756" lon="5.40609">
        <ele>303.6</ele>
        <time>2022-06-04T09:02:46Z</time>
      </trkpt>
      <trkpt lat="46.2077" lon="5.40692">
        <ele>304.2</ele>
        <time>2022-06-04T09:02:55Z</time>
      </trkpt>
      <trkpt lat="46.20788" lon="5.40734">
        <ele>304.4</ele>
        <time>2022-06-04T09:03:00Z</time>
      </trkpt>
      <trkpt lat="46.2082" lon="5.40778">
        <ele>304.4</ele>
        <time>2022-06-04T09:03:06Z</time>
      </trkpt>
      <trkpt lat="46.2087" lon="5.40825">
        <ele>304.2</ele>
        <time>2022-06-04T09:03:14Z</time>
      </trkpt>
      <trkpt lat="46.20918" lon="5.40866">
        <ele>304.2</ele>
        <time>2022-06-04T09:03:22Z</time>
      </trkpt>
      <trkpt lat="46.20951" lon="5.40893">
        <ele>305.4</ele>
        <time>2022-06-04T09:03:28Z</time>
      </trkpt>
      <trkpt lat="46.20968" lon="5.40908">
        <ele>305.6</ele>
        <time>2022-06-04T09:03:31Z</time>
      </trkpt>
      <trkpt lat="46.2102" lon="5.40946">
        <ele>305.6</ele>
        <time>2022-06-04T09:03:39Z</time>
      </trkpt>
      <trkpt lat="46.21077" lon="5.40975">
        <ele>305.4</ele>
        <time>2022-06-04T09:03:47Z</time>
      </trkpt>
      <trkpt lat="46.2113" lon="5.40992">
        <ele>305.4</ele>
        <time>2022-06-04T09:03:54Z</time>
      </trkpt>
      <trkpt lat="46.21183" lon="5.41003">
        <ele>305.6</ele>
        <time>2022-06-04T09:04:01Z</time>
      </trkpt>
      <trkpt lat="46.21238" lon="5.41011">
        <ele>305.8</ele>
        <time>2022-06-04T09:04:08Z</time>
      </trkpt>
      <trkpt lat="46.21246" lon="5.41012">
        <ele>305.6</ele>
        <time>2022-06-04T09:04:09Z</time>
      </trkpt>
      <trkpt lat="46.21293" lon="5.41019">
        <ele>305.4</ele>
        <time>2022-06-04T09:04:14Z</time>
      </trkpt>
      <trkpt lat="46.21333" lon="5.41026">
        <ele>303.8</ele>
        <time>2022-06-04T09:04:18Z</time>
      </trkpt>
      <trkpt lat="46.21353" lon="5.4103">
        <ele>302.4</ele>
        <time>2022-06-04T09:04:20Z</time>
      </trkpt>
      <trkpt lat="46.21363" lon="5.41032">
        <ele>301.8</ele>
        <time>2022-06-04T09:04:21Z</time>
      </trkpt>
      <trkpt lat="46.21372" lon="5.41035">
        <ele>301.4</ele>
        <time>2022-06-04T09:04:22Z</time>
      </trkpt>
      <trkpt lat="46.21405" lon="5.41044">
        <ele>301</ele>
        <time>2022-06-04T09:04:26Z</time>
      </trkpt>
      <trkpt lat="46.21453" lon="5.41068">
        <ele>302.4</ele>
        <time>2022-06-04T09:04:33Z</time>
      </trkpt>
      <trkpt lat="46.21478" lon="5.4109">
        <ele>303.6</ele>
        <time>2022-06-04T09:04:37Z</time>
      </trkpt>
      <trkpt lat="46.21508" lon="5.41118">
        <ele>304.6</ele>
        <time>2022-06-04T09:04:42Z</time>
      </trkpt>
      <trkpt lat="46.21548" lon="5.41149">
        <ele>306.4</ele>
        <time>2022-06-04T09:04:49Z</time>
      </trkpt>
      <trkpt lat="46.21554" lon="5.41153">
        <ele>306.6</ele>
        <time>2022-06-04T09:04:50Z</time>
      </trkpt>
      <trkpt lat="46.21599" lon="5.41184">
        <ele>307.4</ele>
        <time>2022-06-04T09:04:58Z</time>
      </trkpt>
      <trkpt lat="46.2161" lon="5.41191">
        <ele>307.6</ele>
        <time>2022-06-04T09:05:00Z</time>
      </trkpt>
      <trkpt lat="46.21645" lon="5.41211">
        <ele>308.4</ele>
        <time>2022-06-04T09:05:06Z</time>
      </trkpt>
      <trkpt lat="46.21676" lon="5.41225">
        <ele>308.8</ele>
        <time>2022-06-04T09:05:11Z</time>
      </trkpt>
      <trkpt lat="46.21711" lon="5.41242">
        <ele>308.8</ele>
        <time>2022-06-04T09:05:16Z</time>
      </trkpt>
      <trkpt lat="46.2175" lon="5.41263">
        <ele>307.4</ele>
        <time>2022-06-04T09:05:21Z</time>
      </trkpt>
      <trkpt lat="46.21767" lon="5.41273">
        <ele>306.6</ele>
        <time>2022-06-04T09:05:23Z</time>
      </trkpt>
      <trkpt lat="46.21775" lon="5.41278">
        <ele>306.2</ele>
        <time>2022-06-04T09:05:24Z</time>
      </trkpt>
      <trkpt lat="46.21819" lon="5.41302">
        <ele>305</ele>
        <time>2022-06-04T09:05:29Z</time>
      </trkpt>
      <trkpt lat="46.21828" lon="5.41307">
        <ele>304.8</ele>
        <time>2022-06-04T09:05:30Z</time>
      </trkpt>
      <trkpt lat="46.21854" lon="5.41321">
        <ele>303.8</ele>
        <time>2022-06-04T09:05:33Z</time>
      </trkpt>
      <trkpt lat="46.21911" lon="5.41347">
        <ele>302.8</ele>
        <time>2022-06-04T09:05:40Z</time>
      </trkpt>
      <trkpt lat="46.21965" lon="5.41365">
        <ele>303.4</ele>
        <time>2022-06-04T09:05:47Z</time>
      </trkpt>
      <trkpt lat="46.21973" lon="5.41366">
        <ele>303.6</ele>
        <time>2022-06-04T09:05:48Z</time>
      </trkpt>
      <trkpt lat="46.21988" lon="5.41369">
        <ele>304</ele>
        <time>2022-06-04T09:05:50Z</time>
      </trkpt>
      <trkpt lat="46.22017" lon="5.41369">
        <ele>304.6</ele>
        <time>2022-06-04T09:05:54Z</time>
      </trkpt>
      <trkpt lat="46.22031" lon="5.41368">
        <ele>305.2</ele>
        <time>2022-06-04T09:05:56Z</time>
      </trkpt>
      <trkpt lat="46.22052" lon="5.41369">
        <ele>306.6</ele>
        <time>2022-06-04T09:05:59Z</time>
      </trkpt>
      <trkpt lat="46.22066" lon="5.41372">
        <ele>307.2</ele>
        <time>2022-06-04T09:06:01Z</time>
      </trkpt>
      <trkpt lat="46.22095" lon="5.41384">
        <ele>307.6</ele>
        <time>2022-06-04T09:06:05Z</time>
      </trkpt>
      <trkpt lat="46.2211" lon="5.41393">
        <ele>307.6</ele>
        <time>2022-06-04T09:06:07Z</time>
      </trkpt>
      <trkpt lat="46.22161" lon="5.41433">
        <ele>306.8</ele>
        <time>2022-06-04T09:06:14Z</time>
      </trkpt>
      <trkpt lat="46.22168" lon="5.41439">
        <ele>306.6</ele>
        <time>2022-06-04T09:06:15Z</time>
      </trkpt>
      <trkpt lat="46.22215" lon="5.41474">
        <ele>305.6</ele>
        <time>2022-06-04T09:06:21Z</time>
      </trkpt>
      <trkpt lat="46.22223" lon="5.41481">
        <ele>305.4</ele>
        <time>2022-06-04T09:06:22Z</time>
      </trkpt>
      <trkpt lat="46.22255" lon="5.41507">
        <ele>304.4</ele>
        <time>2022-06-04T09:06:26Z</time>
      </trkpt>
      <trkpt lat="46.22279" lon="5.41526">
        <ele>303.6</ele>
        <time>2022-06-04T09:06:29Z</time>
      </trkpt>
      <trkpt lat="46.22287" lon="5.41533">
        <ele>303.4</ele>
        <time>2022-06-04T09:06:30Z</time>
      </trkpt>
      <trkpt lat="46.22338" lon="5.41576">
        <ele>303</ele>
        <time>2022-06-04T09:06:37Z</time>
      </trkpt>
      <trkpt lat="46.22359" lon="5.41594">
        <ele>303</ele>
        <time>2022-06-04T09:06:40Z</time>
      </trkpt>
      <trkpt lat="46.22373" lon="5.41601">
        <ele>303.2</ele>
        <time>2022-06-04T09:06:42Z</time>
      </trkpt>
      <trkpt lat="46.22424" lon="5.41617">
        <ele>303.8</ele>
        <time>2022-06-04T09:06:49Z</time>
      </trkpt>
      <trkpt lat="46.22478" lon="5.41635">
        <ele>304.4</ele>
        <time>2022-06-04T09:06:57Z</time>
      </trkpt>
      <trkpt lat="46.2249" lon="5.4164">
        <ele>304.4</ele>
        <time>2022-06-04T09:06:59Z</time>
      </trkpt>
      <trkpt lat="46.22502" lon="5.41643">
        <ele>304.4</ele>
        <time>2022-06-04T09:07:01Z</time>
      </trkpt>
      <trkpt lat="46.22509" lon="5.41647">
        <ele>304.4</ele>
        <time>2022-06-04T09:07:02Z</time>
      </trkpt>
      <trkpt lat="46.22515" lon="5.41652">
        <ele>304.4</ele>
        <time>2022-06-04T09:07:03Z</time>
      </trkpt>
      <trkpt lat="46.22533" lon="5.41674">
        <ele>304.2</ele>
        <time>2022-06-04T09:07:06Z</time>
      </trkpt>
      <trkpt lat="46.22563" lon="5.41721">
        <ele>303.8</ele>
        <time>2022-06-04T09:07:12Z</time>
      </trkpt>
      <trkpt lat="46.22569" lon="5.41727">
        <ele>303.8</ele>
        <time>2022-06-04T09:07:13Z</time>
      </trkpt>
      <trkpt lat="46.22575" lon="5.41731">
        <ele>303.8</ele>
        <time>2022-06-04T09:07:14Z</time>
      </trkpt>
      <trkpt lat="46.22588" lon="5.41736">
        <ele>304</ele>
        <time>2022-06-04T09:07:16Z</time>
      </trkpt>
      <trkpt lat="46.22595" lon="5.41737">
        <ele>304</ele>
        <time>2022-06-04T09:07:17Z</time>
      </trkpt>
      <trkpt lat="46.22601" lon="5.41737">
        <ele>304.4</ele>
        <time>2022-06-04T09:07:18Z</time>
      </trkpt>
      <trkpt lat="46.22607" lon="5.41738">
        <ele>304.8</ele>
        <time>2022-06-04T09:07:19Z</time>
      </trkpt>
      <trkpt lat="46.22626" lon="5.4174">
        <ele>305.2</ele>
        <time>2022-06-04T09:07:22Z</time>
      </trkpt>
      <trkpt lat="46.22631" lon="5.41741">
        <ele>305.4</ele>
        <time>2022-06-04T09:07:23Z</time>
      </trkpt>
      <trkpt lat="46.22654" lon="5.41745">
        <ele>306.4</ele>
        <time>2022-06-04T09:07:27Z</time>
      </trkpt>
      <trkpt lat="46.22692" lon="5.41748">
        <ele>307.6</ele>
        <time>2022-06-04T09:07:33Z</time>
      </trkpt>
      <trkpt lat="46.22712" lon="5.41749">
        <ele>308.2</ele>
        <time>2022-06-04T09:07:36Z</time>
      </trkpt>
      <trkpt lat="46.22739" lon="5.41749">
        <ele>308.6</ele>
        <time>2022-06-04T09:07:40Z</time>
      </trkpt>
      <trkpt lat="46.22773" lon="5.41752">
        <ele>309</ele>
        <time>2022-06-04T09:07:45Z</time>
      </trkpt>
      <trkpt lat="46.22821" lon="5.41761">
        <ele>309.2</ele>
        <time>2022-06-04T09:07:52Z</time>
      </trkpt>
      <trkpt lat="46.22865" lon="5.41769">
        <ele>308.8</ele>
        <time>2022-06-04T09:07:58Z</time>
      </trkpt>
      <trkpt lat="46.22872" lon="5.41772">
        <ele>308.8</ele>
        <time>2022-06-04T09:07:59Z</time>
      </trkpt>
      <trkpt lat="46.22919" lon="5.418">
        <ele>308.8</ele>
        <time>2022-06-04T09:08:06Z</time>
      </trkpt>
      <trkpt lat="46.22967" lon="5.41843">
        <ele>309.4</ele>
        <time>2022-06-04T09:08:14Z</time>
      </trkpt>
      <trkpt lat="46.22973" lon="5.41848">
        <ele>309.6</ele>
        <time>2022-06-04T09:08:15Z</time>
      </trkpt>
      <trkpt lat="46.23014" lon="5.41881">
        <ele>309.8</ele>
        <time>2022-06-04T09:08:21Z</time>
      </trkpt>
      <trkpt lat="46.23066" lon="5.41917">
        <ele>309.8</ele>
        <time>2022-06-04T09:08:28Z</time>
      </trkpt>
      <trkpt lat="46.23073" lon="5.41922">
        <ele>309.8</ele>
        <time>2022-06-04T09:08:29Z</time>
      </trkpt>
      <trkpt lat="46.23129" lon="5.41957">
        <ele>310</ele>
        <time>2022-06-04T09:08:37Z</time>
      </trkpt>
      <trkpt lat="46.23135" lon="5.41962">
        <ele>310.2</ele>
        <time>2022-06-04T09:08:38Z</time>
      </trkpt>
      <trkpt lat="46.23163" lon="5.41977">
        <ele>310.8</ele>
        <time>2022-06-04T09:08:42Z</time>
      </trkpt>
      <trkpt lat="46.23197" lon="5.41997">
        <ele>311.2</ele>
        <time>2022-06-04T09:08:47Z</time>
      </trkpt>
      <trkpt lat="46.23249" lon="5.4203">
        <ele>311.6</ele>
        <time>2022-06-04T09:08:55Z</time>
      </trkpt>
      <trkpt lat="46.23255" lon="5.42035">
        <ele>312</ele>
        <time>2022-06-04T09:08:56Z</time>
      </trkpt>
      <trkpt lat="46.23288" lon="5.42067">
        <ele>312.6</ele>
        <time>2022-06-04T09:09:02Z</time>
      </trkpt>
      <trkpt lat="46.23308" lon="5.42091">
        <ele>313</ele>
        <time>2022-06-04T09:09:06Z</time>
      </trkpt>
      <trkpt lat="46.23342" lon="5.42129">
        <ele>313.6</ele>
        <time>2022-06-04T09:09:12Z</time>
      </trkpt>
      <trkpt lat="46.23383" lon="5.42167">
        <ele>313.4</ele>
        <time>2022-06-04T09:09:18Z</time>
      </trkpt>
      <trkpt lat="46.23429" lon="5.42207">
        <ele>312</ele>
        <time>2022-06-04T09:09:24Z</time>
      </trkpt>
      <trkpt lat="46.23437" lon="5.42214">
        <ele>312</ele>
        <time>2022-06-04T09:09:25Z</time>
      </trkpt>
      <trkpt lat="46.23469" lon="5.42239">
        <ele>310.8</ele>
        <time>2022-06-04T09:09:29Z</time>
      </trkpt>
      <trkpt lat="46.23496" lon="5.42253">
        <ele>310</ele>
        <time>2022-06-04T09:09:32Z</time>
      </trkpt>
      <trkpt lat="46.23538" lon="5.42267">
        <ele>309.8</ele>
        <time>2022-06-04T09:09:38Z</time>
      </trkpt>
      <trkpt lat="46.23547" lon="5.42269">
        <ele>309.6</ele>
        <time>2022-06-04T09:09:39Z</time>
      </trkpt>
      <trkpt lat="46.23605" lon="5.42292">
        <ele>310</ele>
        <time>2022-06-04T09:09:46Z</time>
      </trkpt>
      <trkpt lat="46.23613" lon="5.42295">
        <ele>310</ele>
        <time>2022-06-04T09:09:47Z</time>
      </trkpt>
      <trkpt lat="46.23672" lon="5.42321">
        <ele>309.8</ele>
        <time>2022-06-04T09:09:54Z</time>
      </trkpt>
      <trkpt lat="46.23689" lon="5.42328">
        <ele>309.8</ele>
        <time>2022-06-04T09:09:56Z</time>
      </trkpt>
      <trkpt lat="46.2375" lon="5.4235">
        <ele>308.6</ele>
        <time>2022-06-04T09:10:03Z</time>
      </trkpt>
      <trkpt lat="46.23759" lon="5.42351">
        <ele>308.6</ele>
        <time>2022-06-04T09:10:04Z</time>
      </trkpt>
      <trkpt lat="46.23814" lon="5.42357">
        <ele>308.2</ele>
        <time>2022-06-04T09:10:10Z</time>
      </trkpt>
      <trkpt lat="46.23823" lon="5.42357">
        <ele>308</ele>
        <time>2022-06-04T09:10:11Z</time>
      </trkpt>
      <trkpt lat="46.23841" lon="5.42357">
        <ele>307.4</ele>
        <time>2022-06-04T09:10:13Z</time>
      </trkpt>
      <trkpt lat="46.23867" lon="5.42351">
        <ele>306.8</ele>
        <time>2022-06-04T09:10:16Z</time>
      </trkpt>
      <trkpt lat="46.23925" lon="5.42331">
        <ele>306.8</ele>
        <time>2022-06-04T09:10:23Z</time>
      </trkpt>
      <trkpt lat="46.23983" lon="5.42325">
        <ele>307.8</ele>
        <time>2022-06-04T09:10:30Z</time>
      </trkpt>
      <trkpt lat="46.24044" lon="5.42327">
        <ele>308.6</ele>
        <time>2022-06-04T09:10:38Z</time>
      </trkpt>
      <trkpt lat="46.24087" lon="5.42321">
        <ele>309.2</ele>
        <time>2022-06-04T09:10:44Z</time>
      </trkpt>
      <trkpt lat="46.24106" lon="5.42313">
        <ele>309.8</ele>
        <time>2022-06-04T09:10:47Z</time>
      </trkpt>
      <trkpt lat="46.24126" lon="5.42306">
        <ele>310.6</ele>
        <time>2022-06-04T09:10:50Z</time>
      </trkpt>
      <trkpt lat="46.24132" lon="5.42304">
        <ele>311</ele>
        <time>2022-06-04T09:10:51Z</time>
      </trkpt>
      <trkpt lat="46.24173" lon="5.42301">
        <ele>312</ele>
        <time>2022-06-04T09:10:57Z</time>
      </trkpt>
      <trkpt lat="46.24179" lon="5.42301">
        <ele>312</ele>
        <time>2022-06-04T09:10:58Z</time>
      </trkpt>
      <trkpt lat="46.24222" lon="5.42303">
        <ele>312.8</ele>
        <time>2022-06-04T09:11:04Z</time>
      </trkpt>
      <trkpt lat="46.24237" lon="5.42302">
        <ele>313.2</ele>
        <time>2022-06-04T09:11:06Z</time>
      </trkpt>
      <trkpt lat="46.24268" lon="5.423">
        <ele>313.8</ele>
        <time>2022-06-04T09:11:10Z</time>
      </trkpt>
      <trkpt lat="46.24316" lon="5.42293">
        <ele>314.2</ele>
        <time>2022-06-04T09:11:17Z</time>
      </trkpt>
      <trkpt lat="46.24336" lon="5.42291">
        <ele>314.4</ele>
        <time>2022-06-04T09:11:20Z</time>
      </trkpt>
      <trkpt lat="46.24364" lon="5.4229">
        <ele>314.6</ele>
        <time>2022-06-04T09:11:24Z</time>
      </trkpt>
      <trkpt lat="46.24423" lon="5.42291">
        <ele>314.4</ele>
        <time>2022-06-04T09:11:32Z</time>
      </trkpt>
      <trkpt lat="46.24437" lon="5.42291">
        <ele>314.2</ele>
        <time>2022-06-04T09:11:34Z</time>
      </trkpt>
      <trkpt lat="46.24495" lon="5.42295">
        <ele>313</ele>
        <time>2022-06-04T09:11:42Z</time>
      </trkpt>
      <trkpt lat="46.24509" lon="5.42298">
        <ele>312.8</ele>
        <time>2022-06-04T09:11:44Z</time>
      </trkpt>
      <trkpt lat="46.24553" lon="5.42307">
        <ele>312.8</ele>
        <time>2022-06-04T09:11:50Z</time>
      </trkpt>
      <trkpt lat="46.2461" lon="5.42324">
        <ele>312.4</ele>
        <time>2022-06-04T09:11:58Z</time>
      </trkpt>
      <trkpt lat="46.24633" lon="5.42331">
        <ele>312.2</ele>
        <time>2022-06-04T09:12:02Z</time>
      </trkpt>
      <trkpt lat="46.24641" lon="5.42336">
        <ele>312.2</ele>
        <time>2022-06-04T09:12:04Z</time>
      </trkpt>
      <trkpt lat="46.24652" lon="5.42339">
        <ele>312</ele>
        <time>2022-06-04T09:12:06Z</time>
      </trkpt>
      <trkpt lat="46.24657" lon="5.42339">
        <ele>312</ele>
        <time>2022-06-04T09:12:07Z</time>
      </trkpt>
      <trkpt lat="46.24688" lon="5.42344">
        <ele>312.2</ele>
        <time>2022-06-04T09:12:12Z</time>
      </trkpt>
      <trkpt lat="46.24716" lon="5.42348">
        <ele>312.4</ele>
        <time>2022-06-04T09:12:17Z</time>
      </trkpt>
      <trkpt lat="46.24719" lon="5.42349">
        <ele>312.4</ele>
        <time>2022-06-04T09:12:18Z</time>
      </trkpt>
      <trkpt lat="46.2472" lon="5.42348">
        <ele>312.6</ele>
        <time>2022-06-04T09:12:21Z</time>
      </trkpt>
      <trkpt lat="46.24725" lon="5.42347">
        <ele>312.6</ele>
        <time>2022-06-04T09:14:05Z</time>
      </trkpt>
      <trkpt lat="46.24731" lon="5.42347">
        <ele>312.6</ele>
        <time>2022-06-04T09:14:07Z</time>
      </trkpt>
      <trkpt lat="46.24736" lon="5.42348">
        <ele>312.4</ele>
        <time>2022-06-04T09:14:08Z</time>
      </trkpt>
      <trkpt lat="46.24753" lon="5.42349">
        <ele>312.4</ele>
        <time>2022-06-04T09:14:11Z</time>
      </trkpt>
      <trkpt lat="46.24786" lon="5.42354">
        <ele>312.2</ele>
        <time>2022-06-04T09:14:16Z</time>
      </trkpt>
      <trkpt lat="46.24842" lon="5.42363">
        <ele>312</ele>
        <time>2022-06-04T09:14:24Z</time>
      </trkpt>
      <trkpt lat="46.24891" lon="5.42369">
        <ele>312</ele>
        <time>2022-06-04T09:14:31Z</time>
      </trkpt>
      <trkpt lat="46.2494" lon="5.42375">
        <ele>311.6</ele>
        <time>2022-06-04T09:14:38Z</time>
      </trkpt>
      <trkpt lat="46.24995" lon="5.42383">
        <ele>311.6</ele>
        <time>2022-06-04T09:14:46Z</time>
      </trkpt>
      <trkpt lat="46.25009" lon="5.42384">
        <ele>311.8</ele>
        <time>2022-06-04T09:14:48Z</time>
      </trkpt>
      <trkpt lat="46.2505" lon="5.4239">
        <ele>312.2</ele>
        <time>2022-06-04T09:14:54Z</time>
      </trkpt>
      <trkpt lat="46.25064" lon="5.4239">
        <ele>312</ele>
        <time>2022-06-04T09:14:56Z</time>
      </trkpt>
      <trkpt lat="46.25123" lon="5.42397">
        <ele>311.2</ele>
        <time>2022-06-04T09:15:04Z</time>
      </trkpt>
      <trkpt lat="46.25131" lon="5.42398">
        <ele>311.2</ele>
        <time>2022-06-04T09:15:05Z</time>
      </trkpt>
      <trkpt lat="46.25186" lon="5.42406">
        <ele>311.6</ele>
        <time>2022-06-04T09:15:12Z</time>
      </trkpt>
      <trkpt lat="46.25209" lon="5.42409">
        <ele>312</ele>
        <time>2022-06-04T09:15:15Z</time>
      </trkpt>
      <trkpt lat="46.25265" lon="5.42418">
        <ele>312</ele>
        <time>2022-06-04T09:15:22Z</time>
      </trkpt>
      <trkpt lat="46.25289" lon="5.42421">
        <ele>312.2</ele>
        <time>2022-06-04T09:15:25Z</time>
      </trkpt>
      <trkpt lat="46.25346" lon="5.42431">
        <ele>311.8</ele>
        <time>2022-06-04T09:15:32Z</time>
      </trkpt>
      <trkpt lat="46.25401" lon="5.4244">
        <ele>311.4</ele>
        <time>2022-06-04T09:15:39Z</time>
      </trkpt>
      <trkpt lat="46.25433" lon="5.42446">
        <ele>311.4</ele>
        <time>2022-06-04T09:15:43Z</time>
      </trkpt>
      <trkpt lat="46.25494" lon="5.42455">
        <ele>311.6</ele>
        <time>2022-06-04T09:15:51Z</time>
      </trkpt>
      <trkpt lat="46.25501" lon="5.42456">
        <ele>311.6</ele>
        <time>2022-06-04T09:15:52Z</time>
      </trkpt>
      <trkpt lat="46.2556" lon="5.42466">
        <ele>311.6</ele>
        <time>2022-06-04T09:16:00Z</time>
      </trkpt>
      <trkpt lat="46.25621" lon="5.42475">
        <ele>311.6</ele>
        <time>2022-06-04T09:16:08Z</time>
      </trkpt>
      <trkpt lat="46.25636" lon="5.42477">
        <ele>311.4</ele>
        <time>2022-06-04T09:16:10Z</time>
      </trkpt>
      <trkpt lat="46.25689" lon="5.42486">
        <ele>312</ele>
        <time>2022-06-04T09:16:17Z</time>
      </trkpt>
      <trkpt lat="46.2575" lon="5.42496">
        <ele>312.2</ele>
        <time>2022-06-04T09:16:25Z</time>
      </trkpt>
      <trkpt lat="46.25804" lon="5.42503">
        <ele>312.2</ele>
        <time>2022-06-04T09:16:32Z</time>
      </trkpt>
      <trkpt lat="46.25812" lon="5.42505">
        <ele>312.2</ele>
        <time>2022-06-04T09:16:33Z</time>
      </trkpt>
      <trkpt lat="46.25872" lon="5.42515">
        <ele>312.4</ele>
        <time>2022-06-04T09:16:41Z</time>
      </trkpt>
      <trkpt lat="46.25887" lon="5.42518">
        <ele>312.6</ele>
        <time>2022-06-04T09:16:43Z</time>
      </trkpt>
      <trkpt lat="46.25947" lon="5.42527">
        <ele>312.8</ele>
        <time>2022-06-04T09:16:51Z</time>
      </trkpt>
      <trkpt lat="46.2597" lon="5.42531">
        <ele>312.8</ele>
        <time>2022-06-04T09:16:54Z</time>
      </trkpt>
      <trkpt lat="46.26024" lon="5.4254">
        <ele>313</ele>
        <time>2022-06-04T09:17:01Z</time>
      </trkpt>
      <trkpt lat="46.2604" lon="5.42542">
        <ele>313</ele>
        <time>2022-06-04T09:17:03Z</time>
      </trkpt>
      <trkpt lat="46.26094" lon="5.42551">
        <ele>313</ele>
        <time>2022-06-04T09:17:10Z</time>
      </trkpt>
      <trkpt lat="46.26117" lon="5.42554">
        <ele>313.2</ele>
        <time>2022-06-04T09:17:13Z</time>
      </trkpt>
      <trkpt lat="46.26172" lon="5.42561">
        <ele>313.4</ele>
        <time>2022-06-04T09:17:20Z</time>
      </trkpt>
      <trkpt lat="46.26218" lon="5.42567">
        <ele>313.6</ele>
        <time>2022-06-04T09:17:26Z</time>
      </trkpt>
      <trkpt lat="46.26264" lon="5.42573">
        <ele>313.8</ele>
        <time>2022-06-04T09:17:32Z</time>
      </trkpt>
      <trkpt lat="46.26317" lon="5.42581">
        <ele>313.8</ele>
        <time>2022-06-04T09:17:39Z</time>
      </trkpt>
      <trkpt lat="46.26369" lon="5.42588">
        <ele>314.2</ele>
        <time>2022-06-04T09:17:46Z</time>
      </trkpt>
      <trkpt lat="46.26392" lon="5.42591">
        <ele>314.6</ele>
        <time>2022-06-04T09:17:49Z</time>
      </trkpt>
      <trkpt lat="46.26438" lon="5.426">
        <ele>314.8</ele>
        <time>2022-06-04T09:17:55Z</time>
      </trkpt>
      <trkpt lat="46.26484" lon="5.42609">
        <ele>314.6</ele>
        <time>2022-06-04T09:18:01Z</time>
      </trkpt>
      <trkpt lat="46.26521" lon="5.42619">
        <ele>315.4</ele>
        <time>2022-06-04T09:18:06Z</time>
      </trkpt>
      <trkpt lat="46.26538" lon="5.42621">
        <ele>315.8</ele>
        <time>2022-06-04T09:18:08Z</time>
      </trkpt>
      <trkpt lat="46.26595" lon="5.42631">
        <ele>315.8</ele>
        <time>2022-06-04T09:18:15Z</time>
      </trkpt>
      <trkpt lat="46.26611" lon="5.42636">
        <ele>315.8</ele>
        <time>2022-06-04T09:18:17Z</time>
      </trkpt>
      <trkpt lat="46.26668" lon="5.4265">
        <ele>315.6</ele>
        <time>2022-06-04T09:18:24Z</time>
      </trkpt>
      <trkpt lat="46.26676" lon="5.42652">
        <ele>315.6</ele>
        <time>2022-06-04T09:18:25Z</time>
      </trkpt>
      <trkpt lat="46.2673" lon="5.42667">
        <ele>315.8</ele>
        <time>2022-06-04T09:18:32Z</time>
      </trkpt>
      <trkpt lat="46.26755" lon="5.42673">
        <ele>316</ele>
        <time>2022-06-04T09:18:35Z</time>
      </trkpt>
      <trkpt lat="46.2681" lon="5.42687">
        <ele>315.8</ele>
        <time>2022-06-04T09:18:42Z</time>
      </trkpt>
      <trkpt lat="46.26826" lon="5.42693">
        <ele>315.8</ele>
        <time>2022-06-04T09:18:44Z</time>
      </trkpt>
      <trkpt lat="46.26872" lon="5.42709">
        <ele>316</ele>
        <time>2022-06-04T09:18:50Z</time>
      </trkpt>
      <trkpt lat="46.26899" lon="5.42721">
        <ele>316.6</ele>
        <time>2022-06-04T09:18:54Z</time>
      </trkpt>
      <trkpt lat="46.26913" lon="5.42728">
        <ele>317</ele>
        <time>2022-06-04T09:18:56Z</time>
      </trkpt>
      <trkpt lat="46.26934" lon="5.42736">
        <ele>317.8</ele>
        <time>2022-06-04T09:18:59Z</time>
      </trkpt>
      <trkpt lat="46.26972" lon="5.42747">
        <ele>318</ele>
        <time>2022-06-04T09:19:04Z</time>
      </trkpt>
      <trkpt lat="46.27026" lon="5.4276">
        <ele>318.2</ele>
        <time>2022-06-04T09:19:11Z</time>
      </trkpt>
      <trkpt lat="46.27047" lon="5.42764">
        <ele>318.4</ele>
        <time>2022-06-04T09:19:14Z</time>
      </trkpt>
      <trkpt lat="46.27074" lon="5.42767">
        <ele>318.8</ele>
        <time>2022-06-04T09:19:18Z</time>
      </trkpt>
      <trkpt lat="46.27081" lon="5.42768">
        <ele>318.8</ele>
        <time>2022-06-04T09:19:19Z</time>
      </trkpt>
      <trkpt lat="46.27112" lon="5.42769">
        <ele>320</ele>
        <time>2022-06-04T09:19:24Z</time>
      </trkpt>
      <trkpt lat="46.2713" lon="5.42772">
        <ele>321</ele>
        <time>2022-06-04T09:19:27Z</time>
      </trkpt>
      <trkpt lat="46.27136" lon="5.42774">
        <ele>321.2</ele>
        <time>2022-06-04T09:19:28Z</time>
      </trkpt>
      <trkpt lat="46.27173" lon="5.42787">
        <ele>322.2</ele>
        <time>2022-06-04T09:19:34Z</time>
      </trkpt>
      <trkpt lat="46.27179" lon="5.4279">
        <ele>322.2</ele>
        <time>2022-06-04T09:19:35Z</time>
      </trkpt>
      <trkpt lat="46.27232" lon="5.42821">
        <ele>322.2</ele>
        <time>2022-06-04T09:19:43Z</time>
      </trkpt>
      <trkpt lat="46.27254" lon="5.42835">
        <ele>322</ele>
        <time>2022-06-04T09:19:46Z</time>
      </trkpt>
      <trkpt lat="46.27284" lon="5.42856">
        <ele>321.8</ele>
        <time>2022-06-04T09:19:50Z</time>
      </trkpt>
      <trkpt lat="46.27318" lon="5.42877">
        <ele>321</ele>
        <time>2022-06-04T09:19:54Z</time>
      </trkpt>
      <trkpt lat="46.27336" lon="5.42886">
        <ele>320.6</ele>
        <time>2022-06-04T09:19:56Z</time>
      </trkpt>
      <trkpt lat="46.27374" lon="5.42901">
        <ele>319.8</ele>
        <time>2022-06-04T09:20:00Z</time>
      </trkpt>
      <trkpt lat="46.27403" lon="5.42911">
        <ele>319.4</ele>
        <time>2022-06-04T09:20:03Z</time>
      </trkpt>
      <trkpt lat="46.27432" lon="5.4292">
        <ele>318.6</ele>
        <time>2022-06-04T09:20:06Z</time>
      </trkpt>
      <trkpt lat="46.27476" lon="5.42934">
        <ele>318.4</ele>
        <time>2022-06-04T09:20:11Z</time>
      </trkpt>
      <trkpt lat="46.27537" lon="5.42953">
        <ele>318.2</ele>
        <time>2022-06-04T09:20:18Z</time>
      </trkpt>
      <trkpt lat="46.27598" lon="5.42974">
        <ele>318.6</ele>
        <time>2022-06-04T09:20:25Z</time>
      </trkpt>
      <trkpt lat="46.27606" lon="5.42977">
        <ele>318.6</ele>
        <time>2022-06-04T09:20:26Z</time>
      </trkpt>
      <trkpt lat="46.27666" lon="5.42996">
        <ele>318.6</ele>
        <time>2022-06-04T09:20:33Z</time>
      </trkpt>
      <trkpt lat="46.27708" lon="5.43011">
        <ele>318.8</ele>
        <time>2022-06-04T09:20:38Z</time>
      </trkpt>
      <trkpt lat="46.27766" lon="5.43035">
        <ele>318.6</ele>
        <time>2022-06-04T09:20:45Z</time>
      </trkpt>
      <trkpt lat="46.27795" lon="5.43046">
        <ele>318.4</ele>
        <time>2022-06-04T09:20:48Z</time>
      </trkpt>
      <trkpt lat="46.27842" lon="5.43048">
        <ele>318</ele>
        <time>2022-06-04T09:20:53Z</time>
      </trkpt>
      <trkpt lat="46.27879" lon="5.43048">
        <ele>317.6</ele>
        <time>2022-06-04T09:20:57Z</time>
      </trkpt>
      <trkpt lat="46.27897" lon="5.43051">
        <ele>317.6</ele>
        <time>2022-06-04T09:20:59Z</time>
      </trkpt>
      <trkpt lat="46.27951" lon="5.43062">
        <ele>317.4</ele>
        <time>2022-06-04T09:21:05Z</time>
      </trkpt>
      <trkpt lat="46.27976" lon="5.43067">
        <ele>317.2</ele>
        <time>2022-06-04T09:21:08Z</time>
      </trkpt>
      <trkpt lat="46.28037" lon="5.4308">
        <ele>317.4</ele>
        <time>2022-06-04T09:21:15Z</time>
      </trkpt>
      <trkpt lat="46.28094" lon="5.43092">
        <ele>317.6</ele>
        <time>2022-06-04T09:21:22Z</time>
      </trkpt>
      <trkpt lat="46.2813" lon="5.431">
        <ele>317.8</ele>
        <time>2022-06-04T09:21:26Z</time>
      </trkpt>
      <trkpt lat="46.2819" lon="5.43111">
        <ele>317.6</ele>
        <time>2022-06-04T09:21:33Z</time>
      </trkpt>
      <trkpt lat="46.28199" lon="5.43113">
        <ele>317.6</ele>
        <time>2022-06-04T09:21:34Z</time>
      </trkpt>
      <trkpt lat="46.28207" lon="5.43114">
        <ele>317.6</ele>
        <time>2022-06-04T09:21:35Z</time>
      </trkpt>
      <trkpt lat="46.28266" lon="5.43125">
        <ele>317.8</ele>
        <time>2022-06-04T09:21:42Z</time>
      </trkpt>
      <trkpt lat="46.28283" lon="5.43128">
        <ele>318</ele>
        <time>2022-06-04T09:21:44Z</time>
      </trkpt>
      <trkpt lat="46.28342" lon="5.4313">
        <ele>318</ele>
        <time>2022-06-04T09:21:51Z</time>
      </trkpt>
      <trkpt lat="46.28401" lon="5.43123">
        <ele>318.4</ele>
        <time>2022-06-04T09:21:58Z</time>
      </trkpt>
      <trkpt lat="46.2842" lon="5.4312">
        <ele>318.4</ele>
        <time>2022-06-04T09:22:00Z</time>
      </trkpt>
      <trkpt lat="46.28476" lon="5.43113">
        <ele>318.4</ele>
        <time>2022-06-04T09:22:07Z</time>
      </trkpt>
      <trkpt lat="46.28486" lon="5.43112">
        <ele>318.6</ele>
        <time>2022-06-04T09:22:08Z</time>
      </trkpt>
      <trkpt lat="46.28495" lon="5.43111">
        <ele>319</ele>
        <time>2022-06-04T09:22:09Z</time>
      </trkpt>
      <trkpt lat="46.2855" lon="5.43108">
        <ele>319.6</ele>
        <time>2022-06-04T09:22:16Z</time>
      </trkpt>
      <trkpt lat="46.28577" lon="5.43108">
        <ele>319.8</ele>
        <time>2022-06-04T09:22:19Z</time>
      </trkpt>
      <trkpt lat="46.28635" lon="5.43111">
        <ele>319.6</ele>
        <time>2022-06-04T09:22:26Z</time>
      </trkpt>
      <trkpt lat="46.28652" lon="5.43112">
        <ele>319.6</ele>
        <time>2022-06-04T09:22:28Z</time>
      </trkpt>
      <trkpt lat="46.28693" lon="5.43117">
        <ele>319.8</ele>
        <time>2022-06-04T09:22:33Z</time>
      </trkpt>
      <trkpt lat="46.28728" lon="5.4312">
        <ele>320</ele>
        <time>2022-06-04T09:22:37Z</time>
      </trkpt>
      <trkpt lat="46.28788" lon="5.43133">
        <ele>320</ele>
        <time>2022-06-04T09:22:44Z</time>
      </trkpt>
      <trkpt lat="46.28796" lon="5.43136">
        <ele>320</ele>
        <time>2022-06-04T09:22:45Z</time>
      </trkpt>
      <trkpt lat="46.28854" lon="5.43159">
        <ele>320.2</ele>
        <time>2022-06-04T09:22:52Z</time>
      </trkpt>
      <trkpt lat="46.2891" lon="5.43182">
        <ele>320.4</ele>
        <time>2022-06-04T09:22:59Z</time>
      </trkpt>
      <trkpt lat="46.28926" lon="5.43188">
        <ele>320.4</ele>
        <time>2022-06-04T09:23:01Z</time>
      </trkpt>
      <trkpt lat="46.28981" lon="5.43216">
        <ele>320.8</ele>
        <time>2022-06-04T09:23:08Z</time>
      </trkpt>
      <trkpt lat="46.28989" lon="5.43221">
        <ele>320.8</ele>
        <time>2022-06-04T09:23:09Z</time>
      </trkpt>
      <trkpt lat="46.29033" lon="5.43258">
        <ele>320.6</ele>
        <time>2022-06-04T09:23:15Z</time>
      </trkpt>
      <trkpt lat="46.29081" lon="5.43304">
        <ele>320.6</ele>
        <time>2022-06-04T09:23:22Z</time>
      </trkpt>
      <trkpt lat="46.29102" lon="5.43322">
        <ele>320.8</ele>
        <time>2022-06-04T09:23:25Z</time>
      </trkpt>
      <trkpt lat="46.29151" lon="5.43362">
        <ele>321</ele>
        <time>2022-06-04T09:23:32Z</time>
      </trkpt>
      <trkpt lat="46.29158" lon="5.43367">
        <ele>321</ele>
        <time>2022-06-04T09:23:33Z</time>
      </trkpt>
      <trkpt lat="46.29209" lon="5.43399">
        <ele>321.2</ele>
        <time>2022-06-04T09:23:40Z</time>
      </trkpt>
      <trkpt lat="46.29263" lon="5.43419">
        <ele>321.4</ele>
        <time>2022-06-04T09:23:47Z</time>
      </trkpt>
      <trkpt lat="46.29319" lon="5.43443">
        <ele>321.4</ele>
        <time>2022-06-04T09:23:54Z</time>
      </trkpt>
      <trkpt lat="46.29335" lon="5.43452">
        <ele>321.6</ele>
        <time>2022-06-04T09:23:56Z</time>
      </trkpt>
      <trkpt lat="46.29365" lon="5.4347">
        <ele>322</ele>
        <time>2022-06-04T09:24:00Z</time>
      </trkpt>
      <trkpt lat="46.29386" lon="5.43484">
        <ele>322.4</ele>
        <time>2022-06-04T09:24:03Z</time>
      </trkpt>
      <trkpt lat="46.29435" lon="5.43516">
        <ele>323</ele>
        <time>2022-06-04T09:24:10Z</time>
      </trkpt>
      <trkpt lat="46.29443" lon="5.4352">
        <ele>323.2</ele>
        <time>2022-06-04T09:24:11Z</time>
      </trkpt>
      <trkpt lat="46.29495" lon="5.43549">
        <ele>324.2</ele>
        <time>2022-06-04T09:24:18Z</time>
      </trkpt>
      <trkpt lat="46.29502" lon="5.43553">
        <ele>324.2</ele>
        <time>2022-06-04T09:24:19Z</time>
      </trkpt>
      <trkpt lat="46.29555" lon="5.43581">
        <ele>324.6</ele>
        <time>2022-06-04T09:24:26Z</time>
      </trkpt>
      <trkpt lat="46.2957" lon="5.43589">
        <ele>324.6</ele>
        <time>2022-06-04T09:24:28Z</time>
      </trkpt>
      <trkpt lat="46.29624" lon="5.43617">
        <ele>325.2</ele>
        <time>2022-06-04T09:24:35Z</time>
      </trkpt>
      <trkpt lat="46.29654" lon="5.43633">
        <ele>325.2</ele>
        <time>2022-06-04T09:24:39Z</time>
      </trkpt>
      <trkpt lat="46.29677" lon="5.43645">
        <ele>325.2</ele>
        <time>2022-06-04T09:24:42Z</time>
      </trkpt>
      <trkpt lat="46.29715" lon="5.43666">
        <ele>325.2</ele>
        <time>2022-06-04T09:24:47Z</time>
      </trkpt>
      <trkpt lat="46.2977" lon="5.43694">
        <ele>325.4</ele>
        <time>2022-06-04T09:24:54Z</time>
      </trkpt>
      <trkpt lat="46.29793" lon="5.43706">
        <ele>325.4</ele>
        <time>2022-06-04T09:24:57Z</time>
      </trkpt>
      <trkpt lat="46.29846" lon="5.43731">
        <ele>325.2</ele>
        <time>2022-06-04T09:25:04Z</time>
      </trkpt>
      <trkpt lat="46.29854" lon="5.43734">
        <ele>325.2</ele>
        <time>2022-06-04T09:25:05Z</time>
      </trkpt>
      <trkpt lat="46.29909" lon="5.43757">
        <ele>325.6</ele>
        <time>2022-06-04T09:25:12Z</time>
      </trkpt>
      <trkpt lat="46.29916" lon="5.4376">
        <ele>325.6</ele>
        <time>2022-06-04T09:25:13Z</time>
      </trkpt>
      <trkpt lat="46.2997" lon="5.43783">
        <ele>325.8</ele>
        <time>2022-06-04T09:25:20Z</time>
      </trkpt>
      <trkpt lat="46.29994" lon="5.43794">
        <ele>326</ele>
        <time>2022-06-04T09:25:23Z</time>
      </trkpt>
      <trkpt lat="46.30048" lon="5.4382">
        <ele>326.2</ele>
        <time>2022-06-04T09:25:30Z</time>
      </trkpt>
      <trkpt lat="46.30056" lon="5.43824">
        <ele>326.2</ele>
        <time>2022-06-04T09:25:31Z</time>
      </trkpt>
      <trkpt lat="46.3008" lon="5.43837">
        <ele>326.4</ele>
        <time>2022-06-04T09:25:34Z</time>
      </trkpt>
      <trkpt lat="46.30134" lon="5.43865">
        <ele>326.8</ele>
        <time>2022-06-04T09:25:41Z</time>
      </trkpt>
      <trkpt lat="46.30149" lon="5.43874">
        <ele>326.8</ele>
        <time>2022-06-04T09:25:43Z</time>
      </trkpt>
      <trkpt lat="46.30157" lon="5.43878">
        <ele>326.8</ele>
        <time>2022-06-04T09:25:44Z</time>
      </trkpt>
      <trkpt lat="46.3021" lon="5.43905">
        <ele>327</ele>
        <time>2022-06-04T09:25:51Z</time>
      </trkpt>
      <trkpt lat="46.30226" lon="5.43913">
        <ele>327.2</ele>
        <time>2022-06-04T09:25:53Z</time>
      </trkpt>
      <trkpt lat="46.30234" lon="5.43916">
        <ele>327.4</ele>
        <time>2022-06-04T09:25:54Z</time>
      </trkpt>
      <trkpt lat="46.30288" lon="5.43944">
        <ele>327.6</ele>
        <time>2022-06-04T09:26:01Z</time>
      </trkpt>
      <trkpt lat="46.30305" lon="5.43952">
        <ele>327.6</ele>
        <time>2022-06-04T09:26:03Z</time>
      </trkpt>
      <trkpt lat="46.30361" lon="5.4398">
        <ele>327.2</ele>
        <time>2022-06-04T09:26:10Z</time>
      </trkpt>
      <trkpt lat="46.30369" lon="5.43984">
        <ele>327.2</ele>
        <time>2022-06-04T09:26:11Z</time>
      </trkpt>
      <trkpt lat="46.30426" lon="5.44006">
        <ele>327.4</ele>
        <time>2022-06-04T09:26:18Z</time>
      </trkpt>
      <trkpt lat="46.30435" lon="5.44009">
        <ele>327.4</ele>
        <time>2022-06-04T09:26:19Z</time>
      </trkpt>
      <trkpt lat="46.30492" lon="5.44024">
        <ele>327.4</ele>
        <time>2022-06-04T09:26:26Z</time>
      </trkpt>
      <trkpt lat="46.30499" lon="5.44025">
        <ele>327.4</ele>
        <time>2022-06-04T09:26:27Z</time>
      </trkpt>
      <trkpt lat="46.30551" lon="5.44038">
        <ele>328.4</ele>
        <time>2022-06-04T09:26:34Z</time>
      </trkpt>
      <trkpt lat="46.30573" lon="5.44039">
        <ele>329.4</ele>
        <time>2022-06-04T09:26:37Z</time>
      </trkpt>
      <trkpt lat="46.30595" lon="5.4404">
        <ele>330.4</ele>
        <time>2022-06-04T09:26:40Z</time>
      </trkpt>
      <trkpt lat="46.30602" lon="5.44041">
        <ele>330.6</ele>
        <time>2022-06-04T09:26:41Z</time>
      </trkpt>
      <trkpt lat="46.30645" lon="5.44049">
        <ele>331.8</ele>
        <time>2022-06-04T09:26:47Z</time>
      </trkpt>
      <trkpt lat="46.30693" lon="5.44053">
        <ele>332.6</ele>
        <time>2022-06-04T09:26:54Z</time>
      </trkpt>
      <trkpt lat="46.30728" lon="5.44042">
        <ele>332.6</ele>
        <time>2022-06-04T09:26:59Z</time>
      </trkpt>
      <trkpt lat="46.30759" lon="5.4403">
        <ele>331.8</ele>
        <time>2022-06-04T09:27:03Z</time>
      </trkpt>
      <trkpt lat="46.30796" lon="5.44022">
        <ele>330.2</ele>
        <time>2022-06-04T09:27:07Z</time>
      </trkpt>
      <trkpt lat="46.30826" lon="5.44027">
        <ele>329.2</ele>
        <time>2022-06-04T09:27:10Z</time>
      </trkpt>
      <trkpt lat="46.30835" lon="5.44029">
        <ele>328.8</ele>
        <time>2022-06-04T09:27:11Z</time>
      </trkpt>
      <trkpt lat="46.30855" lon="5.44034">
        <ele>328</ele>
        <time>2022-06-04T09:27:13Z</time>
      </trkpt>
      <trkpt lat="46.30893" lon="5.44047">
        <ele>327.2</ele>
        <time>2022-06-04T09:27:17Z</time>
      </trkpt>
      <trkpt lat="46.3091" lon="5.44057">
        <ele>327</ele>
        <time>2022-06-04T09:27:19Z</time>
      </trkpt>
      <trkpt lat="46.30943" lon="5.44078">
        <ele>326.6</ele>
        <time>2022-06-04T09:27:23Z</time>
      </trkpt>
      <trkpt lat="46.30997" lon="5.44112">
        <ele>327.4</ele>
        <time>2022-06-04T09:27:30Z</time>
      </trkpt>
      <trkpt lat="46.3101" lon="5.44124">
        <ele>328</ele>
        <time>2022-06-04T09:27:32Z</time>
      </trkpt>
      <trkpt lat="46.31045" lon="5.44147">
        <ele>328.6</ele>
        <time>2022-06-04T09:27:37Z</time>
      </trkpt>
      <trkpt lat="46.31057" lon="5.44158">
        <ele>328.8</ele>
        <time>2022-06-04T09:27:39Z</time>
      </trkpt>
      <trkpt lat="46.31087" lon="5.44185">
        <ele>330.2</ele>
        <time>2022-06-04T09:27:44Z</time>
      </trkpt>
      <trkpt lat="46.31098" lon="5.44196">
        <ele>330.4</ele>
        <time>2022-06-04T09:27:46Z</time>
      </trkpt>
      <trkpt lat="46.31128" lon="5.44222">
        <ele>331.2</ele>
        <time>2022-06-04T09:27:51Z</time>
      </trkpt>
      <trkpt lat="46.31161" lon="5.4425">
        <ele>331.8</ele>
        <time>2022-06-04T09:27:56Z</time>
      </trkpt>
      <trkpt lat="46.31181" lon="5.44266">
        <ele>331.8</ele>
        <time>2022-06-04T09:27:59Z</time>
      </trkpt>
      <trkpt lat="46.31202" lon="5.44279">
        <ele>331.8</ele>
        <time>2022-06-04T09:28:02Z</time>
      </trkpt>
      <trkpt lat="46.3123" lon="5.4429">
        <ele>332</ele>
        <time>2022-06-04T09:28:06Z</time>
      </trkpt>
      <trkpt lat="46.31237" lon="5.44294">
        <ele>332.2</ele>
        <time>2022-06-04T09:28:07Z</time>
      </trkpt>
      <trkpt lat="46.31244" lon="5.44296">
        <ele>332.4</ele>
        <time>2022-06-04T09:28:08Z</time>
      </trkpt>
      <trkpt lat="46.31288" lon="5.44313">
        <ele>333</ele>
        <time>2022-06-04T09:28:14Z</time>
      </trkpt>
      <trkpt lat="46.31341" lon="5.44335">
        <ele>333</ele>
        <time>2022-06-04T09:28:21Z</time>
      </trkpt>
      <trkpt lat="46.31348" lon="5.44338">
        <ele>333</ele>
        <time>2022-06-04T09:28:22Z</time>
      </trkpt>
      <trkpt lat="46.31405" lon="5.44361">
        <ele>332.8</ele>
        <time>2022-06-04T09:28:29Z</time>
      </trkpt>
      <trkpt lat="46.31413" lon="5.44364">
        <ele>332.8</ele>
        <time>2022-06-04T09:28:30Z</time>
      </trkpt>
      <trkpt lat="46.31473" lon="5.44388">
        <ele>332.4</ele>
        <time>2022-06-04T09:28:37Z</time>
      </trkpt>
      <trkpt lat="46.31482" lon="5.44392">
        <ele>332.2</ele>
        <time>2022-06-04T09:28:38Z</time>
      </trkpt>
      <trkpt lat="46.31535" lon="5.44411">
        <ele>331.8</ele>
        <time>2022-06-04T09:28:44Z</time>
      </trkpt>
      <trkpt lat="46.31561" lon="5.44417">
        <ele>331.4</ele>
        <time>2022-06-04T09:28:47Z</time>
      </trkpt>
      <trkpt lat="46.31587" lon="5.44421">
        <ele>331.2</ele>
        <time>2022-06-04T09:28:50Z</time>
      </trkpt>
      <trkpt lat="46.31632" lon="5.44426">
        <ele>331</ele>
        <time>2022-06-04T09:28:55Z</time>
      </trkpt>
      <trkpt lat="46.31692" lon="5.44431">
        <ele>330.8</ele>
        <time>2022-06-04T09:29:02Z</time>
      </trkpt>
      <trkpt lat="46.31718" lon="5.4443">
        <ele>330.8</ele>
        <time>2022-06-04T09:29:05Z</time>
      </trkpt>
      <trkpt lat="46.31759" lon="5.44416">
        <ele>331</ele>
        <time>2022-06-04T09:29:10Z</time>
      </trkpt>
      <trkpt lat="46.31814" lon="5.44394">
        <ele>331.4</ele>
        <time>2022-06-04T09:29:17Z</time>
      </trkpt>
      <trkpt lat="46.31844" lon="5.44381">
        <ele>331.8</ele>
        <time>2022-06-04T09:29:21Z</time>
      </trkpt>
      <trkpt lat="46.31888" lon="5.44363">
        <ele>332.4</ele>
        <time>2022-06-04T09:29:27Z</time>
      </trkpt>
      <trkpt lat="46.31923" lon="5.44348">
        <ele>333.4</ele>
        <time>2022-06-04T09:29:32Z</time>
      </trkpt>
      <trkpt lat="46.31949" lon="5.44336">
        <ele>334.4</ele>
        <time>2022-06-04T09:29:36Z</time>
      </trkpt>
      <trkpt lat="46.31989" lon="5.44319">
        <ele>335.2</ele>
        <time>2022-06-04T09:29:42Z</time>
      </trkpt>
      <trkpt lat="46.32008" lon="5.4431">
        <ele>335.4</ele>
        <time>2022-06-04T09:29:45Z</time>
      </trkpt>
      <trkpt lat="46.32061" lon="5.44287">
        <ele>336</ele>
        <time>2022-06-04T09:29:53Z</time>
      </trkpt>
      <trkpt lat="46.32068" lon="5.44284">
        <ele>336</ele>
        <time>2022-06-04T09:29:54Z</time>
      </trkpt>
      <trkpt lat="46.32094" lon="5.44272">
        <ele>336.6</ele>
        <time>2022-06-04T09:29:58Z</time>
      </trkpt>
      <trkpt lat="46.32145" lon="5.44244">
        <ele>336.8</ele>
        <time>2022-06-04T09:30:06Z</time>
      </trkpt>
      <trkpt lat="46.32168" lon="5.44225">
        <ele>337.6</ele>
        <time>2022-06-04T09:30:10Z</time>
      </trkpt>
      <trkpt lat="46.32179" lon="5.44216">
        <ele>338</ele>
        <time>2022-06-04T09:30:12Z</time>
      </trkpt>
      <trkpt lat="46.32198" lon="5.44195">
        <ele>338.6</ele>
        <time>2022-06-04T09:30:16Z</time>
      </trkpt>
      <trkpt lat="46.32204" lon="5.4419">
        <ele>338.6</ele>
        <time>2022-06-04T09:30:17Z</time>
      </trkpt>
      <trkpt lat="46.32238" lon="5.44161">
        <ele>339.6</ele>
        <time>2022-06-04T09:30:23Z</time>
      </trkpt>
      <trkpt lat="46.32253" lon="5.44147">
        <ele>340</ele>
        <time>2022-06-04T09:30:26Z</time>
      </trkpt>
      <trkpt lat="46.32274" lon="5.44128">
        <ele>340.8</ele>
        <time>2022-06-04T09:30:30Z</time>
      </trkpt>
      <trkpt lat="46.323" lon="5.44105">
        <ele>341.8</ele>
        <time>2022-06-04T09:30:35Z</time>
      </trkpt>
      <trkpt lat="46.32338" lon="5.44068">
        <ele>343</ele>
        <time>2022-06-04T09:30:43Z</time>
      </trkpt>
      <trkpt lat="46.32347" lon="5.44059">
        <ele>343.4</ele>
        <time>2022-06-04T09:30:45Z</time>
      </trkpt>
      <trkpt lat="46.32358" lon="5.4405">
        <ele>344.4</ele>
        <time>2022-06-04T09:30:47Z</time>
      </trkpt>
      <trkpt lat="46.32383" lon="5.44029">
        <ele>345.4</ele>
        <time>2022-06-04T09:30:52Z</time>
      </trkpt>
      <trkpt lat="46.32387" lon="5.44025">
        <ele>345.6</ele>
        <time>2022-06-04T09:30:53Z</time>
      </trkpt>
      <trkpt lat="46.3242" lon="5.43997">
        <ele>346.8</ele>
        <time>2022-06-04T09:31:00Z</time>
      </trkpt>
      <trkpt lat="46.32425" lon="5.43992">
        <ele>347.2</ele>
        <time>2022-06-04T09:31:01Z</time>
      </trkpt>
      <trkpt lat="46.32444" lon="5.43975">
        <ele>348</ele>
        <time>2022-06-04T09:31:05Z</time>
      </trkpt>
      <trkpt lat="46.32457" lon="5.43962">
        <ele>349.2</ele>
        <time>2022-06-04T09:31:08Z</time>
      </trkpt>
      <trkpt lat="46.32471" lon="5.43949">
        <ele>349.8</ele>
        <time>2022-06-04T09:31:11Z</time>
      </trkpt>
      <trkpt lat="46.32485" lon="5.43936">
        <ele>350.4</ele>
        <time>2022-06-04T09:31:14Z</time>
      </trkpt>
      <trkpt lat="46.32514" lon="5.4391">
        <ele>351.6</ele>
        <time>2022-06-04T09:31:20Z</time>
      </trkpt>
      <trkpt lat="46.32518" lon="5.43906">
        <ele>351.6</ele>
        <time>2022-06-04T09:31:21Z</time>
      </trkpt>
      <trkpt lat="46.32562" lon="5.43871">
        <ele>352.6</ele>
        <time>2022-06-04T09:31:30Z</time>
      </trkpt>
      <trkpt lat="46.32568" lon="5.43868">
        <ele>352.8</ele>
        <time>2022-06-04T09:31:31Z</time>
      </trkpt>
      <trkpt lat="46.32614" lon="5.4384">
        <ele>353.6</ele>
        <time>2022-06-04T09:31:39Z</time>
      </trkpt>
      <trkpt lat="46.32666" lon="5.43822">
        <ele>353.6</ele>
        <time>2022-06-04T09:31:46Z</time>
      </trkpt>
      <trkpt lat="46.32721" lon="5.43808">
        <ele>352.6</ele>
        <time>2022-06-04T09:31:53Z</time>
      </trkpt>
      <trkpt lat="46.32775" lon="5.43795">
        <ele>352</ele>
        <time>2022-06-04T09:32:00Z</time>
      </trkpt>
      <trkpt lat="46.32827" lon="5.43782">
        <ele>352.4</ele>
        <time>2022-06-04T09:32:07Z</time>
      </trkpt>
      <trkpt lat="46.32842" lon="5.43779">
        <ele>352.4</ele>
        <time>2022-06-04T09:32:09Z</time>
      </trkpt>
      <trkpt lat="46.32857" lon="5.43776">
        <ele>352.4</ele>
        <time>2022-06-04T09:32:11Z</time>
      </trkpt>
      <trkpt lat="46.32864" lon="5.43774">
        <ele>352.4</ele>
        <time>2022-06-04T09:32:12Z</time>
      </trkpt>
      <trkpt lat="46.32885" lon="5.43767">
        <ele>352.6</ele>
        <time>2022-06-04T09:32:15Z</time>
      </trkpt>
      <trkpt lat="46.329" lon="5.43765">
        <ele>352.8</ele>
        <time>2022-06-04T09:32:17Z</time>
      </trkpt>
      <trkpt lat="46.32907" lon="5.43763">
        <ele>353</ele>
        <time>2022-06-04T09:32:18Z</time>
      </trkpt>
      <trkpt lat="46.32935" lon="5.43755">
        <ele>353.8</ele>
        <time>2022-06-04T09:32:22Z</time>
      </trkpt>
      <trkpt lat="46.32991" lon="5.43743">
        <ele>354.4</ele>
        <time>2022-06-04T09:32:30Z</time>
      </trkpt>
      <trkpt lat="46.33005" lon="5.43741">
        <ele>354.4</ele>
        <time>2022-06-04T09:32:32Z</time>
      </trkpt>
      <trkpt lat="46.33043" lon="5.43736">
        <ele>354</ele>
        <time>2022-06-04T09:32:37Z</time>
      </trkpt>
      <trkpt lat="46.33077" lon="5.43733">
        <ele>352.6</ele>
        <time>2022-06-04T09:32:41Z</time>
      </trkpt>
      <trkpt lat="46.33086" lon="5.43733">
        <ele>352.4</ele>
        <time>2022-06-04T09:32:42Z</time>
      </trkpt>
      <trkpt lat="46.33139" lon="5.43732">
        <ele>351.4</ele>
        <time>2022-06-04T09:32:48Z</time>
      </trkpt>
      <trkpt lat="46.33197" lon="5.4373">
        <ele>350.4</ele>
        <time>2022-06-04T09:32:54Z</time>
      </trkpt>
      <trkpt lat="46.33207" lon="5.4373">
        <ele>350.2</ele>
        <time>2022-06-04T09:32:55Z</time>
      </trkpt>
      <trkpt lat="46.33217" lon="5.43729">
        <ele>350</ele>
        <time>2022-06-04T09:32:56Z</time>
      </trkpt>
      <trkpt lat="46.33238" lon="5.43726">
        <ele>349.2</ele>
        <time>2022-06-04T09:32:58Z</time>
      </trkpt>
      <trkpt lat="46.33258" lon="5.43724">
        <ele>348</ele>
        <time>2022-06-04T09:33:00Z</time>
      </trkpt>
      <trkpt lat="46.33278" lon="5.43722">
        <ele>346.2</ele>
        <time>2022-06-04T09:33:02Z</time>
      </trkpt>
      <trkpt lat="46.33308" lon="5.43719">
        <ele>345.2</ele>
        <time>2022-06-04T09:33:05Z</time>
      </trkpt>
      <trkpt lat="46.33328" lon="5.43717">
        <ele>344.2</ele>
        <time>2022-06-04T09:33:07Z</time>
      </trkpt>
      <trkpt lat="46.33368" lon="5.43711">
        <ele>342.6</ele>
        <time>2022-06-04T09:33:11Z</time>
      </trkpt>
      <trkpt lat="46.33378" lon="5.43709">
        <ele>342.4</ele>
        <time>2022-06-04T09:33:12Z</time>
      </trkpt>
      <trkpt lat="46.33399" lon="5.43705">
        <ele>341.6</ele>
        <time>2022-06-04T09:33:14Z</time>
      </trkpt>
      <trkpt lat="46.33428" lon="5.43698">
        <ele>340.4</ele>
        <time>2022-06-04T09:33:17Z</time>
      </trkpt>
      <trkpt lat="46.33469" lon="5.43689">
        <ele>339.2</ele>
        <time>2022-06-04T09:33:21Z</time>
      </trkpt>
      <trkpt lat="46.33499" lon="5.43684">
        <ele>338.2</ele>
        <time>2022-06-04T09:33:24Z</time>
      </trkpt>
      <trkpt lat="46.33508" lon="5.43684">
        <ele>336.8</ele>
        <time>2022-06-04T09:33:25Z</time>
      </trkpt>
      <trkpt lat="46.33529" lon="5.43683">
        <ele>335.6</ele>
        <time>2022-06-04T09:33:27Z</time>
      </trkpt>
      <trkpt lat="46.33571" lon="5.4368">
        <ele>334.4</ele>
        <time>2022-06-04T09:33:31Z</time>
      </trkpt>
      <trkpt lat="46.33602" lon="5.4368">
        <ele>332.8</ele>
        <time>2022-06-04T09:33:34Z</time>
      </trkpt>
      <trkpt lat="46.33632" lon="5.43686">
        <ele>331.8</ele>
        <time>2022-06-04T09:33:37Z</time>
      </trkpt>
      <trkpt lat="46.33668" lon="5.43699">
        <ele>330.8</ele>
        <time>2022-06-04T09:33:41Z</time>
      </trkpt>
      <trkpt lat="46.33677" lon="5.43703">
        <ele>330.6</ele>
        <time>2022-06-04T09:33:42Z</time>
      </trkpt>
      <trkpt lat="46.33724" lon="5.43732">
        <ele>330.6</ele>
        <time>2022-06-04T09:33:48Z</time>
      </trkpt>
      <trkpt lat="46.33772" lon="5.43774">
        <ele>331.4</ele>
        <time>2022-06-04T09:33:55Z</time>
      </trkpt>
      <trkpt lat="46.33804" lon="5.43806">
        <ele>331.8</ele>
        <time>2022-06-04T09:34:00Z</time>
      </trkpt>
      <trkpt lat="46.33816" lon="5.43819">
        <ele>331.8</ele>
        <time>2022-06-04T09:34:02Z</time>
      </trkpt>
      <trkpt lat="46.33822" lon="5.43825">
        <ele>332</ele>
        <time>2022-06-04T09:34:03Z</time>
      </trkpt>
      <trkpt lat="46.33866" lon="5.43869">
        <ele>332.2</ele>
        <time>2022-06-04T09:34:10Z</time>
      </trkpt>
      <trkpt lat="46.33911" lon="5.43913">
        <ele>332.2</ele>
        <time>2022-06-04T09:34:17Z</time>
      </trkpt>
      <trkpt lat="46.33925" lon="5.43922">
        <ele>332</ele>
        <time>2022-06-04T09:34:19Z</time>
      </trkpt>
      <trkpt lat="46.3396" lon="5.43934">
        <ele>331.8</ele>
        <time>2022-06-04T09:34:24Z</time>
      </trkpt>
      <trkpt lat="46.34003" lon="5.43933">
        <ele>332</ele>
        <time>2022-06-04T09:34:30Z</time>
      </trkpt>
      <trkpt lat="46.34024" lon="5.43931">
        <ele>332.8</ele>
        <time>2022-06-04T09:34:33Z</time>
      </trkpt>
      <trkpt lat="46.34083" lon="5.43924">
        <ele>333.2</ele>
        <time>2022-06-04T09:34:41Z</time>
      </trkpt>
      <trkpt lat="46.34139" lon="5.43918">
        <ele>333.2</ele>
        <time>2022-06-04T09:34:49Z</time>
      </trkpt>
      <trkpt lat="46.34152" lon="5.43917">
        <ele>333.2</ele>
        <time>2022-06-04T09:34:51Z</time>
      </trkpt>
      <trkpt lat="46.34201" lon="5.43911">
        <ele>333.8</ele>
        <time>2022-06-04T09:34:58Z</time>
      </trkpt>
      <trkpt lat="46.34208" lon="5.4391">
        <ele>333.8</ele>
        <time>2022-06-04T09:34:59Z</time>
      </trkpt>
      <trkpt lat="46.34262" lon="5.439">
        <ele>334.4</ele>
        <time>2022-06-04T09:35:07Z</time>
      </trkpt>
      <trkpt lat="46.34269" lon="5.43899">
        <ele>334.6</ele>
        <time>2022-06-04T09:35:08Z</time>
      </trkpt>
      <trkpt lat="46.3432" lon="5.43884">
        <ele>334.6</ele>
        <time>2022-06-04T09:35:16Z</time>
      </trkpt>
      <trkpt lat="46.34346" lon="5.43874">
        <ele>335</ele>
        <time>2022-06-04T09:35:20Z</time>
      </trkpt>
      <trkpt lat="46.34372" lon="5.43861">
        <ele>335.2</ele>
        <time>2022-06-04T09:35:24Z</time>
      </trkpt>
      <trkpt lat="46.34422" lon="5.43833">
        <ele>335.4</ele>
        <time>2022-06-04T09:35:32Z</time>
      </trkpt>
      <trkpt lat="46.34463" lon="5.43805">
        <ele>336</ele>
        <time>2022-06-04T09:35:39Z</time>
      </trkpt>
      <trkpt lat="46.34514" lon="5.43782">
        <ele>336.2</ele>
        <time>2022-06-04T09:35:47Z</time>
      </trkpt>
      <trkpt lat="46.34565" lon="5.43762">
        <ele>336.8</ele>
        <time>2022-06-04T09:35:55Z</time>
      </trkpt>
      <trkpt lat="46.34578" lon="5.43756">
        <ele>336.8</ele>
        <time>2022-06-04T09:35:57Z</time>
      </trkpt>
      <trkpt lat="46.34631" lon="5.43736">
        <ele>336.8</ele>
        <time>2022-06-04T09:36:05Z</time>
      </trkpt>
      <trkpt lat="46.34683" lon="5.43729">
        <ele>336.8</ele>
        <time>2022-06-04T09:36:13Z</time>
      </trkpt>
      <trkpt lat="46.34709" lon="5.43733">
        <ele>337</ele>
        <time>2022-06-04T09:36:17Z</time>
      </trkpt>
      <trkpt lat="46.34729" lon="5.43739">
        <ele>337.4</ele>
        <time>2022-06-04T09:36:20Z</time>
      </trkpt>
      <trkpt lat="46.34782" lon="5.43761">
        <ele>337.2</ele>
        <time>2022-06-04T09:36:28Z</time>
      </trkpt>
      <trkpt lat="46.34795" lon="5.43768">
        <ele>337.2</ele>
        <time>2022-06-04T09:36:30Z</time>
      </trkpt>
      <trkpt lat="46.34835" lon="5.43795">
        <ele>336.6</ele>
        <time>2022-06-04T09:36:36Z</time>
      </trkpt>
      <trkpt lat="46.34873" lon="5.43817">
        <ele>336</ele>
        <time>2022-06-04T09:36:41Z</time>
      </trkpt>
      <trkpt lat="46.34906" lon="5.43828">
        <ele>335</ele>
        <time>2022-06-04T09:36:45Z</time>
      </trkpt>
      <trkpt lat="46.34923" lon="5.4383">
        <ele>334.8</ele>
        <time>2022-06-04T09:36:47Z</time>
      </trkpt>
      <trkpt lat="46.34956" lon="5.43837">
        <ele>334.4</ele>
        <time>2022-06-04T09:36:51Z</time>
      </trkpt>
      <trkpt lat="46.34971" lon="5.43838">
        <ele>334.4</ele>
        <time>2022-06-04T09:36:53Z</time>
      </trkpt>
      <trkpt lat="46.35006" lon="5.43842">
        <ele>335</ele>
        <time>2022-06-04T09:36:58Z</time>
      </trkpt>
      <trkpt lat="46.35013" lon="5.43843">
        <ele>335</ele>
        <time>2022-06-04T09:36:59Z</time>
      </trkpt>
      <trkpt lat="46.35027" lon="5.43843">
        <ele>335.2</ele>
        <time>2022-06-04T09:37:01Z</time>
      </trkpt>
      <trkpt lat="46.35047" lon="5.43844">
        <ele>335.8</ele>
        <time>2022-06-04T09:37:04Z</time>
      </trkpt>
      <trkpt lat="46.35054" lon="5.43843">
        <ele>335.8</ele>
        <time>2022-06-04T09:37:05Z</time>
      </trkpt>
      <trkpt lat="46.35088" lon="5.43837">
        <ele>336.2</ele>
        <time>2022-06-04T09:37:10Z</time>
      </trkpt>
      <trkpt lat="46.351" lon="5.43832">
        <ele>336.2</ele>
        <time>2022-06-04T09:37:12Z</time>
      </trkpt>
      <trkpt lat="46.35117" lon="5.43818">
        <ele>336.2</ele>
        <time>2022-06-04T09:37:15Z</time>
      </trkpt>
      <trkpt lat="46.35147" lon="5.43786">
        <ele>336.8</ele>
        <time>2022-06-04T09:37:21Z</time>
      </trkpt>
      <trkpt lat="46.35163" lon="5.43767">
        <ele>337.2</ele>
        <time>2022-06-04T09:37:25Z</time>
      </trkpt>
      <trkpt lat="46.35167" lon="5.43763">
        <ele>337.4</ele>
        <time>2022-06-04T09:37:26Z</time>
      </trkpt>
      <trkpt lat="46.35174" lon="5.43753">
        <ele>337.8</ele>
        <time>2022-06-04T09:37:28Z</time>
      </trkpt>
      <trkpt lat="46.35182" lon="5.43744">
        <ele>338.6</ele>
        <time>2022-06-04T09:37:30Z</time>
      </trkpt>
      <trkpt lat="46.35186" lon="5.4374">
        <ele>339.2</ele>
        <time>2022-06-04T09:37:31Z</time>
      </trkpt>
      <trkpt lat="46.35207" lon="5.43719">
        <ele>340.2</ele>
        <time>2022-06-04T09:37:36Z</time>
      </trkpt>
      <trkpt lat="46.35219" lon="5.43707">
        <ele>341.2</ele>
        <time>2022-06-04T09:37:39Z</time>
      </trkpt>
      <trkpt lat="46.35241" lon="5.43691">
        <ele>342.2</ele>
        <time>2022-06-04T09:37:44Z</time>
      </trkpt>
      <trkpt lat="46.3525" lon="5.43685">
        <ele>342.6</ele>
        <time>2022-06-04T09:37:46Z</time>
      </trkpt>
      <trkpt lat="46.35274" lon="5.43676">
        <ele>343.4</ele>
        <time>2022-06-04T09:37:51Z</time>
      </trkpt>
      <trkpt lat="46.35287" lon="5.43672">
        <ele>344</ele>
        <time>2022-06-04T09:37:54Z</time>
      </trkpt>
      <trkpt lat="46.35296" lon="5.43671">
        <ele>344.4</ele>
        <time>2022-06-04T09:37:56Z</time>
      </trkpt>
      <trkpt lat="46.35312" lon="5.43668">
        <ele>345.4</ele>
        <time>2022-06-04T09:38:00Z</time>
      </trkpt>
      <trkpt lat="46.3532" lon="5.43668">
        <ele>346</ele>
        <time>2022-06-04T09:38:02Z</time>
      </trkpt>
      <trkpt lat="46.35332" lon="5.43665">
        <ele>346.8</ele>
        <time>2022-06-04T09:38:05Z</time>
      </trkpt>
      <trkpt lat="46.35354" lon="5.43662">
        <ele>347.8</ele>
        <time>2022-06-04T09:38:10Z</time>
      </trkpt>
      <trkpt lat="46.35363" lon="5.43661">
        <ele>348.2</ele>
        <time>2022-06-04T09:38:12Z</time>
      </trkpt>
      <trkpt lat="46.3538" lon="5.43659">
        <ele>348.8</ele>
        <time>2022-06-04T09:38:16Z</time>
      </trkpt>
      <trkpt lat="46.35396" lon="5.43657">
        <ele>349.6</ele>
        <time>2022-06-04T09:38:20Z</time>
      </trkpt>
      <trkpt lat="46.354" lon="5.43657">
        <ele>349.8</ele>
        <time>2022-06-04T09:38:21Z</time>
      </trkpt>
      <trkpt lat="46.35413" lon="5.43655">
        <ele>350.8</ele>
        <time>2022-06-04T09:38:24Z</time>
      </trkpt>
      <trkpt lat="46.35438" lon="5.43652">
        <ele>352</ele>
        <time>2022-06-04T09:38:30Z</time>
      </trkpt>
      <trkpt lat="46.35464" lon="5.43649">
        <ele>353.4</ele>
        <time>2022-06-04T09:38:36Z</time>
      </trkpt>
      <trkpt lat="46.35481" lon="5.43646">
        <ele>354</ele>
        <time>2022-06-04T09:38:40Z</time>
      </trkpt>
      <trkpt lat="46.35504" lon="5.43643">
        <ele>354.6</ele>
        <time>2022-06-04T09:38:45Z</time>
      </trkpt>
      <trkpt lat="46.35522" lon="5.43641">
        <ele>355.6</ele>
        <time>2022-06-04T09:38:49Z</time>
      </trkpt>
      <trkpt lat="46.35527" lon="5.43641">
        <ele>356.2</ele>
        <time>2022-06-04T09:38:50Z</time>
      </trkpt>
      <trkpt lat="46.3554" lon="5.43639">
        <ele>356.6</ele>
        <time>2022-06-04T09:38:53Z</time>
      </trkpt>
      <trkpt lat="46.35569" lon="5.43636">
        <ele>357.6</ele>
        <time>2022-06-04T09:38:59Z</time>
      </trkpt>
      <trkpt lat="46.35574" lon="5.43635">
        <ele>357.6</ele>
        <time>2022-06-04T09:39:00Z</time>
      </trkpt>
      <trkpt lat="46.35616" lon="5.4363">
        <ele>358.6</ele>
        <time>2022-06-04T09:39:08Z</time>
      </trkpt>
      <trkpt lat="46.35626" lon="5.43628">
        <ele>358.6</ele>
        <time>2022-06-04T09:39:10Z</time>
      </trkpt>
      <trkpt lat="46.3565" lon="5.43624">
        <ele>359.2</ele>
        <time>2022-06-04T09:39:14Z</time>
      </trkpt>
      <trkpt lat="46.35681" lon="5.4362">
        <ele>359.4</ele>
        <time>2022-06-04T09:39:19Z</time>
      </trkpt>
      <trkpt lat="46.35731" lon="5.43613">
        <ele>359.4</ele>
        <time>2022-06-04T09:39:26Z</time>
      </trkpt>
      <trkpt lat="46.35779" lon="5.43603">
        <ele>358.8</ele>
        <time>2022-06-04T09:39:32Z</time>
      </trkpt>
      <trkpt lat="46.35839" lon="5.43589">
        <ele>357.8</ele>
        <time>2022-06-04T09:39:39Z</time>
      </trkpt>
      <trkpt lat="46.35847" lon="5.43587">
        <ele>357.6</ele>
        <time>2022-06-04T09:39:40Z</time>
      </trkpt>
      <trkpt lat="46.35856" lon="5.43585">
        <ele>357.6</ele>
        <time>2022-06-04T09:39:41Z</time>
      </trkpt>
      <trkpt lat="46.35915" lon="5.43573">
        <ele>356.8</ele>
        <time>2022-06-04T09:39:48Z</time>
      </trkpt>
      <trkpt lat="46.35932" lon="5.4357">
        <ele>356.6</ele>
        <time>2022-06-04T09:39:50Z</time>
      </trkpt>
      <trkpt lat="46.3594" lon="5.43569">
        <ele>356.4</ele>
        <time>2022-06-04T09:39:51Z</time>
      </trkpt>
      <trkpt lat="46.35994" lon="5.43566">
        <ele>355.2</ele>
        <time>2022-06-04T09:39:57Z</time>
      </trkpt>
      <trkpt lat="46.36021" lon="5.43566">
        <ele>354.8</ele>
        <time>2022-06-04T09:40:00Z</time>
      </trkpt>
      <trkpt lat="46.3605" lon="5.43568">
        <ele>354.2</ele>
        <time>2022-06-04T09:40:03Z</time>
      </trkpt>
      <trkpt lat="46.36091" lon="5.4357">
        <ele>352.4</ele>
        <time>2022-06-04T09:40:07Z</time>
      </trkpt>
      <trkpt lat="46.36101" lon="5.43571">
        <ele>351.8</ele>
        <time>2022-06-04T09:40:08Z</time>
      </trkpt>
      <trkpt lat="46.36111" lon="5.43571">
        <ele>351</ele>
        <time>2022-06-04T09:40:09Z</time>
      </trkpt>
      <trkpt lat="46.3615" lon="5.43575">
        <ele>350</ele>
        <time>2022-06-04T09:40:13Z</time>
      </trkpt>
      <trkpt lat="46.36179" lon="5.43577">
        <ele>349.4</ele>
        <time>2022-06-04T09:40:16Z</time>
      </trkpt>
      <trkpt lat="46.36207" lon="5.43579">
        <ele>348.8</ele>
        <time>2022-06-04T09:40:19Z</time>
      </trkpt>
      <trkpt lat="46.36264" lon="5.43587">
        <ele>348</ele>
        <time>2022-06-04T09:40:25Z</time>
      </trkpt>
      <trkpt lat="46.36283" lon="5.43592">
        <ele>347.8</ele>
        <time>2022-06-04T09:40:27Z</time>
      </trkpt>
      <trkpt lat="46.36313" lon="5.436">
        <ele>346.6</ele>
        <time>2022-06-04T09:40:30Z</time>
      </trkpt>
      <trkpt lat="46.36344" lon="5.43606">
        <ele>345.4</ele>
        <time>2022-06-04T09:40:33Z</time>
      </trkpt>
      <trkpt lat="46.36354" lon="5.43608">
        <ele>345.2</ele>
        <time>2022-06-04T09:40:34Z</time>
      </trkpt>
      <trkpt lat="46.36384" lon="5.43612">
        <ele>344.2</ele>
        <time>2022-06-04T09:40:37Z</time>
      </trkpt>
      <trkpt lat="46.36413" lon="5.43614">
        <ele>343.2</ele>
        <time>2022-06-04T09:40:40Z</time>
      </trkpt>
      <trkpt lat="46.36432" lon="5.43615">
        <ele>342.8</ele>
        <time>2022-06-04T09:40:42Z</time>
      </trkpt>
      <trkpt lat="46.36485" lon="5.43612">
        <ele>342.6</ele>
        <time>2022-06-04T09:40:48Z</time>
      </trkpt>
      <trkpt lat="46.36544" lon="5.43603">
        <ele>343</ele>
        <time>2022-06-04T09:40:55Z</time>
      </trkpt>
      <trkpt lat="46.36552" lon="5.43602">
        <ele>343</ele>
        <time>2022-06-04T09:40:56Z</time>
      </trkpt>
      <trkpt lat="46.36606" lon="5.43594">
        <ele>342.6</ele>
        <time>2022-06-04T09:41:03Z</time>
      </trkpt>
      <trkpt lat="46.36667" lon="5.43584">
        <ele>343.2</ele>
        <time>2022-06-04T09:41:11Z</time>
      </trkpt>
      <trkpt lat="46.36715" lon="5.43579">
        <ele>344</ele>
        <time>2022-06-04T09:41:18Z</time>
      </trkpt>
      <trkpt lat="46.36721" lon="5.43577">
        <ele>344.4</ele>
        <time>2022-06-04T09:41:19Z</time>
      </trkpt>
      <trkpt lat="46.36752" lon="5.43574">
        <ele>345.2</ele>
        <time>2022-06-04T09:41:24Z</time>
      </trkpt>
      <trkpt lat="46.36765" lon="5.43573">
        <ele>345.2</ele>
        <time>2022-06-04T09:41:26Z</time>
      </trkpt>
      <trkpt lat="46.36802" lon="5.43571">
        <ele>345.8</ele>
        <time>2022-06-04T09:41:32Z</time>
      </trkpt>
      <trkpt lat="46.3684" lon="5.43571">
        <ele>346.2</ele>
        <time>2022-06-04T09:41:38Z</time>
      </trkpt>
      <trkpt lat="46.36872" lon="5.43572">
        <ele>346.6</ele>
        <time>2022-06-04T09:41:43Z</time>
      </trkpt>
      <trkpt lat="46.36921" lon="5.43575">
        <ele>347.2</ele>
        <time>2022-06-04T09:41:51Z</time>
      </trkpt>
      <trkpt lat="46.36927" lon="5.43576">
        <ele>347.6</ele>
        <time>2022-06-04T09:41:52Z</time>
      </trkpt>
      <trkpt lat="46.36951" lon="5.43577">
        <ele>348.4</ele>
        <time>2022-06-04T09:41:56Z</time>
      </trkpt>
      <trkpt lat="46.3698" lon="5.43578">
        <ele>349.4</ele>
        <time>2022-06-04T09:42:01Z</time>
      </trkpt>
      <trkpt lat="46.36985" lon="5.43579">
        <ele>349.4</ele>
        <time>2022-06-04T09:42:02Z</time>
      </trkpt>
      <trkpt lat="46.37002" lon="5.43582">
        <ele>350.4</ele>
        <time>2022-06-04T09:42:05Z</time>
      </trkpt>
      <trkpt lat="46.37029" lon="5.4359">
        <ele>351.6</ele>
        <time>2022-06-04T09:42:10Z</time>
      </trkpt>
      <trkpt lat="46.3704" lon="5.43594">
        <ele>352</ele>
        <time>2022-06-04T09:42:12Z</time>
      </trkpt>
      <trkpt lat="46.37056" lon="5.436">
        <ele>352.6</ele>
        <time>2022-06-04T09:42:15Z</time>
      </trkpt>
      <trkpt lat="46.37096" lon="5.43619">
        <ele>353.4</ele>
        <time>2022-06-04T09:42:22Z</time>
      </trkpt>
      <trkpt lat="46.37107" lon="5.43624">
        <ele>353.8</ele>
        <time>2022-06-04T09:42:24Z</time>
      </trkpt>
      <trkpt lat="46.3714" lon="5.43639">
        <ele>354.8</ele>
        <time>2022-06-04T09:42:30Z</time>
      </trkpt>
      <trkpt lat="46.37174" lon="5.43655">
        <ele>355.4</ele>
        <time>2022-06-04T09:42:37Z</time>
      </trkpt>
      <trkpt lat="46.37184" lon="5.4366">
        <ele>356</ele>
        <time>2022-06-04T09:42:39Z</time>
      </trkpt>
      <trkpt lat="46.37217" lon="5.43675">
        <ele>356.8</ele>
        <time>2022-06-04T09:42:45Z</time>
      </trkpt>
      <trkpt lat="46.37222" lon="5.43678">
        <ele>357</ele>
        <time>2022-06-04T09:42:46Z</time>
      </trkpt>
      <trkpt lat="46.37255" lon="5.43697">
        <ele>357.6</ele>
        <time>2022-06-04T09:42:52Z</time>
      </trkpt>
      <trkpt lat="46.37283" lon="5.43717">
        <ele>358</ele>
        <time>2022-06-04T09:42:57Z</time>
      </trkpt>
      <trkpt lat="46.37305" lon="5.43734">
        <ele>358.2</ele>
        <time>2022-06-04T09:43:01Z</time>
      </trkpt>
      <trkpt lat="46.37348" lon="5.43765">
        <ele>358</ele>
        <time>2022-06-04T09:43:08Z</time>
      </trkpt>
      <trkpt lat="46.3739" lon="5.43799">
        <ele>357.2</ele>
        <time>2022-06-04T09:43:14Z</time>
      </trkpt>
      <trkpt lat="46.37397" lon="5.43806">
        <ele>356.8</ele>
        <time>2022-06-04T09:43:15Z</time>
      </trkpt>
      <trkpt lat="46.37421" lon="5.43829">
        <ele>355.8</ele>
        <time>2022-06-04T09:43:18Z</time>
      </trkpt>
      <trkpt lat="46.37429" lon="5.43837">
        <ele>355.8</ele>
        <time>2022-06-04T09:43:19Z</time>
      </trkpt>
      <trkpt lat="46.37454" lon="5.43859">
        <ele>354.4</ele>
        <time>2022-06-04T09:43:22Z</time>
      </trkpt>
      <trkpt lat="46.37463" lon="5.43865">
        <ele>353.4</ele>
        <time>2022-06-04T09:43:23Z</time>
      </trkpt>
      <trkpt lat="46.37472" lon="5.43871">
        <ele>353.2</ele>
        <time>2022-06-04T09:43:24Z</time>
      </trkpt>
      <trkpt lat="46.375" lon="5.43886">
        <ele>352</ele>
        <time>2022-06-04T09:43:27Z</time>
      </trkpt>
      <trkpt lat="46.37519" lon="5.43894">
        <ele>351.4</ele>
        <time>2022-06-04T09:43:29Z</time>
      </trkpt>
      <trkpt lat="46.37528" lon="5.43898">
        <ele>351</ele>
        <time>2022-06-04T09:43:30Z</time>
      </trkpt>
      <trkpt lat="46.37567" lon="5.43914">
        <ele>349.8</ele>
        <time>2022-06-04T09:43:34Z</time>
      </trkpt>
      <trkpt lat="46.37595" lon="5.43928">
        <ele>349</ele>
        <time>2022-06-04T09:43:37Z</time>
      </trkpt>
      <trkpt lat="46.37625" lon="5.43943">
        <ele>348.8</ele>
        <time>2022-06-04T09:43:40Z</time>
      </trkpt>
      <trkpt lat="46.37673" lon="5.43969">
        <ele>348</ele>
        <time>2022-06-04T09:43:45Z</time>
      </trkpt>
      <trkpt lat="46.37683" lon="5.43974">
        <ele>347.6</ele>
        <time>2022-06-04T09:43:46Z</time>
      </trkpt>
      <trkpt lat="46.37711" lon="5.43989">
        <ele>346.6</ele>
        <time>2022-06-04T09:43:49Z</time>
      </trkpt>
      <trkpt lat="46.37765" lon="5.44021">
        <ele>346.2</ele>
        <time>2022-06-04T09:43:55Z</time>
      </trkpt>
      <trkpt lat="46.37816" lon="5.44056">
        <ele>346.2</ele>
        <time>2022-06-04T09:44:01Z</time>
      </trkpt>
      <trkpt lat="46.37847" lon="5.44081">
        <ele>346.6</ele>
        <time>2022-06-04T09:44:05Z</time>
      </trkpt>
      <trkpt lat="46.37895" lon="5.44121">
        <ele>346.6</ele>
        <time>2022-06-04T09:44:11Z</time>
      </trkpt>
      <trkpt lat="46.37919" lon="5.44141">
        <ele>346.6</ele>
        <time>2022-06-04T09:44:14Z</time>
      </trkpt>
      <trkpt lat="46.37971" lon="5.44187">
        <ele>346</ele>
        <time>2022-06-04T09:44:21Z</time>
      </trkpt>
      <trkpt lat="46.37979" lon="5.44194">
        <ele>346</ele>
        <time>2022-06-04T09:44:22Z</time>
      </trkpt>
      <trkpt lat="46.38031" lon="5.44242">
        <ele>346</ele>
        <time>2022-06-04T09:44:29Z</time>
      </trkpt>
      <trkpt lat="46.38062" lon="5.44269">
        <ele>345.6</ele>
        <time>2022-06-04T09:44:33Z</time>
      </trkpt>
      <trkpt lat="46.38108" lon="5.44312">
        <ele>345.6</ele>
        <time>2022-06-04T09:44:39Z</time>
      </trkpt>
      <trkpt lat="46.38153" lon="5.44353">
        <ele>345.8</ele>
        <time>2022-06-04T09:44:45Z</time>
      </trkpt>
      <trkpt lat="46.38175" lon="5.44373">
        <ele>346</ele>
        <time>2022-06-04T09:44:48Z</time>
      </trkpt>
      <trkpt lat="46.38224" lon="5.44417">
        <ele>346.6</ele>
        <time>2022-06-04T09:44:55Z</time>
      </trkpt>
      <trkpt lat="46.38231" lon="5.44423">
        <ele>346.6</ele>
        <time>2022-06-04T09:44:56Z</time>
      </trkpt>
      <trkpt lat="46.38278" lon="5.44466">
        <ele>346.8</ele>
        <time>2022-06-04T09:45:03Z</time>
      </trkpt>
      <trkpt lat="46.38297" lon="5.44485">
        <ele>347.2</ele>
        <time>2022-06-04T09:45:06Z</time>
      </trkpt>
      <trkpt lat="46.38317" lon="5.44503">
        <ele>347.4</ele>
        <time>2022-06-04T09:45:09Z</time>
      </trkpt>
      <trkpt lat="46.38356" lon="5.44539">
        <ele>348.4</ele>
        <time>2022-06-04T09:45:15Z</time>
      </trkpt>
      <trkpt lat="46.38369" lon="5.44552">
        <ele>348.6</ele>
        <time>2022-06-04T09:45:17Z</time>
      </trkpt>
      <trkpt lat="46.38408" lon="5.44589">
        <ele>348.8</ele>
        <time>2022-06-04T09:45:23Z</time>
      </trkpt>
      <trkpt lat="46.38457" lon="5.44635">
        <ele>349.4</ele>
        <time>2022-06-04T09:45:31Z</time>
      </trkpt>
      <trkpt lat="46.38475" lon="5.44651">
        <ele>350</ele>
        <time>2022-06-04T09:45:34Z</time>
      </trkpt>
      <trkpt lat="46.38511" lon="5.44684">
        <ele>351</ele>
        <time>2022-06-04T09:45:40Z</time>
      </trkpt>
      <trkpt lat="46.38527" lon="5.44703">
        <ele>351.2</ele>
        <time>2022-06-04T09:45:43Z</time>
      </trkpt>
      <trkpt lat="46.38567" lon="5.44754">
        <ele>352</ele>
        <time>2022-06-04T09:45:50Z</time>
      </trkpt>
      <trkpt lat="46.38578" lon="5.44769">
        <ele>352.2</ele>
        <time>2022-06-04T09:45:52Z</time>
      </trkpt>
      <trkpt lat="46.38618" lon="5.44822">
        <ele>352.4</ele>
        <time>2022-06-04T09:45:59Z</time>
      </trkpt>
      <trkpt lat="46.38635" lon="5.44845">
        <ele>352.4</ele>
        <time>2022-06-04T09:46:02Z</time>
      </trkpt>
      <trkpt lat="46.38678" lon="5.449">
        <ele>353</ele>
        <time>2022-06-04T09:46:10Z</time>
      </trkpt>
      <trkpt lat="46.38684" lon="5.44908">
        <ele>353.2</ele>
        <time>2022-06-04T09:46:11Z</time>
      </trkpt>
      <trkpt lat="46.38729" lon="5.44967">
        <ele>352.8</ele>
        <time>2022-06-04T09:46:19Z</time>
      </trkpt>
      <trkpt lat="46.38772" lon="5.45023">
        <ele>352.6</ele>
        <time>2022-06-04T09:46:27Z</time>
      </trkpt>
      <trkpt lat="46.38811" lon="5.45073">
        <ele>354.2</ele>
        <time>2022-06-04T09:46:35Z</time>
      </trkpt>
      <trkpt lat="46.38837" lon="5.45106">
        <ele>355.2</ele>
        <time>2022-06-04T09:46:41Z</time>
      </trkpt>
      <trkpt lat="46.38841" lon="5.45111">
        <ele>355.4</ele>
        <time>2022-06-04T09:46:42Z</time>
      </trkpt>
      <trkpt lat="46.38849" lon="5.45121">
        <ele>355.8</ele>
        <time>2022-06-04T09:46:44Z</time>
      </trkpt>
      <trkpt lat="46.38857" lon="5.4513">
        <ele>356.4</ele>
        <time>2022-06-04T09:46:46Z</time>
      </trkpt>
      <trkpt lat="46.38861" lon="5.45135">
        <ele>356.4</ele>
        <time>2022-06-04T09:46:47Z</time>
      </trkpt>
      <trkpt lat="46.38869" lon="5.45144">
        <ele>357.2</ele>
        <time>2022-06-04T09:46:49Z</time>
      </trkpt>
      <trkpt lat="46.38877" lon="5.45152">
        <ele>357.6</ele>
        <time>2022-06-04T09:46:51Z</time>
      </trkpt>
      <trkpt lat="46.38882" lon="5.45156">
        <ele>357.8</ele>
        <time>2022-06-04T09:46:52Z</time>
      </trkpt>
      <trkpt lat="46.389" lon="5.4517">
        <ele>358.8</ele>
        <time>2022-06-04T09:46:56Z</time>
      </trkpt>
      <trkpt lat="46.38912" lon="5.45179">
        <ele>359.4</ele>
        <time>2022-06-04T09:46:59Z</time>
      </trkpt>
      <trkpt lat="46.38916" lon="5.45181">
        <ele>360</ele>
        <time>2022-06-04T09:47:00Z</time>
      </trkpt>
      <trkpt lat="46.38926" lon="5.45186">
        <ele>360.6</ele>
        <time>2022-06-04T09:47:02Z</time>
      </trkpt>
      <trkpt lat="46.38931" lon="5.45188">
        <ele>361</ele>
        <time>2022-06-04T09:47:03Z</time>
      </trkpt>
      <trkpt lat="46.38939" lon="5.45192">
        <ele>361.6</ele>
        <time>2022-06-04T09:47:05Z</time>
      </trkpt>
      <trkpt lat="46.38957" lon="5.452">
        <ele>362.2</ele>
        <time>2022-06-04T09:47:09Z</time>
      </trkpt>
      <trkpt lat="46.38962" lon="5.45202">
        <ele>362.4</ele>
        <time>2022-06-04T09:47:10Z</time>
      </trkpt>
      <trkpt lat="46.38982" lon="5.45211">
        <ele>363.4</ele>
        <time>2022-06-04T09:47:14Z</time>
      </trkpt>
      <trkpt lat="46.38996" lon="5.45217">
        <ele>364.6</ele>
        <time>2022-06-04T09:47:17Z</time>
      </trkpt>
      <trkpt lat="46.39013" lon="5.45223">
        <ele>365.6</ele>
        <time>2022-06-04T09:47:21Z</time>
      </trkpt>
      <trkpt lat="46.39016" lon="5.45225">
        <ele>365.6</ele>
        <time>2022-06-04T09:47:22Z</time>
      </trkpt>
      <trkpt lat="46.39029" lon="5.45233">
        <ele>366.8</ele>
        <time>2022-06-04T09:47:26Z</time>
      </trkpt>
      <trkpt lat="46.39034" lon="5.45235">
        <ele>366.8</ele>
        <time>2022-06-04T09:47:27Z</time>
      </trkpt>
      <trkpt lat="46.39048" lon="5.45241">
        <ele>367.8</ele>
        <time>2022-06-04T09:47:31Z</time>
      </trkpt>
      <trkpt lat="46.39056" lon="5.45244">
        <ele>368.2</ele>
        <time>2022-06-04T09:47:33Z</time>
      </trkpt>
      <trkpt lat="46.39073" lon="5.4525">
        <ele>369</ele>
        <time>2022-06-04T09:47:37Z</time>
      </trkpt>
      <trkpt lat="46.39092" lon="5.45258">
        <ele>369.6</ele>
        <time>2022-06-04T09:47:41Z</time>
      </trkpt>
      <trkpt lat="46.3911" lon="5.45263">
        <ele>370</ele>
        <time>2022-06-04T09:47:45Z</time>
      </trkpt>
      <trkpt lat="46.39123" lon="5.45266">
        <ele>370.6</ele>
        <time>2022-06-04T09:47:48Z</time>
      </trkpt>
      <trkpt lat="46.39137" lon="5.4527">
        <ele>371.2</ele>
        <time>2022-06-04T09:47:51Z</time>
      </trkpt>
      <trkpt lat="46.39169" lon="5.45277">
        <ele>372.4</ele>
        <time>2022-06-04T09:47:58Z</time>
      </trkpt>
      <trkpt lat="46.39194" lon="5.45281">
        <ele>373.2</ele>
        <time>2022-06-04T09:48:04Z</time>
      </trkpt>
      <trkpt lat="46.39198" lon="5.45282">
        <ele>373.4</ele>
        <time>2022-06-04T09:48:05Z</time>
      </trkpt>
      <trkpt lat="46.39206" lon="5.45284">
        <ele>374</ele>
        <time>2022-06-04T09:48:07Z</time>
      </trkpt>
      <trkpt lat="46.39211" lon="5.45285">
        <ele>374.4</ele>
        <time>2022-06-04T09:48:08Z</time>
      </trkpt>
      <trkpt lat="46.39225" lon="5.45286">
        <ele>375.6</ele>
        <time>2022-06-04T09:48:12Z</time>
      </trkpt>
      <trkpt lat="46.39238" lon="5.45288">
        <ele>376.4</ele>
        <time>2022-06-04T09:48:16Z</time>
      </trkpt>
      <trkpt lat="46.39241" lon="5.45289">
        <ele>376.6</ele>
        <time>2022-06-04T09:48:17Z</time>
      </trkpt>
      <trkpt lat="46.39255" lon="5.45292">
        <ele>377.2</ele>
        <time>2022-06-04T09:48:20Z</time>
      </trkpt>
      <trkpt lat="46.39271" lon="5.45296">
        <ele>377.8</ele>
        <time>2022-06-04T09:48:24Z</time>
      </trkpt>
      <trkpt lat="46.39275" lon="5.45296">
        <ele>377.8</ele>
        <time>2022-06-04T09:48:25Z</time>
      </trkpt>
      <trkpt lat="46.39293" lon="5.45306">
        <ele>378.8</ele>
        <time>2022-06-04T09:48:29Z</time>
      </trkpt>
      <trkpt lat="46.39298" lon="5.4531">
        <ele>379</ele>
        <time>2022-06-04T09:48:30Z</time>
      </trkpt>
      <trkpt lat="46.39315" lon="5.45329">
        <ele>380.2</ele>
        <time>2022-06-04T09:48:34Z</time>
      </trkpt>
      <trkpt lat="46.39319" lon="5.45333">
        <ele>380.4</ele>
        <time>2022-06-04T09:48:36Z</time>
      </trkpt>
      <trkpt lat="46.39329" lon="5.45339">
        <ele>381.2</ele>
        <time>2022-06-04T09:48:39Z</time>
      </trkpt>
      <trkpt lat="46.39337" lon="5.45343">
        <ele>381.8</ele>
        <time>2022-06-04T09:48:41Z</time>
      </trkpt>
      <trkpt lat="46.39345" lon="5.45347">
        <ele>382.4</ele>
        <time>2022-06-04T09:48:43Z</time>
      </trkpt>
      <trkpt lat="46.39354" lon="5.45352">
        <ele>382.8</ele>
        <time>2022-06-04T09:48:45Z</time>
      </trkpt>
      <trkpt lat="46.39366" lon="5.45358">
        <ele>383.8</ele>
        <time>2022-06-04T09:48:48Z</time>
      </trkpt>
      <trkpt lat="46.39376" lon="5.45364">
        <ele>384</ele>
        <time>2022-06-04T09:48:49Z</time>
      </trkpt>
      <trkpt lat="46.39383" lon="5.45372">
        <ele>384.2</ele>
        <time>2022-06-04T09:48:50Z</time>
      </trkpt>
      <trkpt lat="46.39387" lon="5.45388">
        <ele>384.2</ele>
        <time>2022-06-04T09:48:53Z</time>
      </trkpt>
      <trkpt lat="46.39384" lon="5.45397">
        <ele>384.8</ele>
        <time>2022-06-04T09:48:55Z</time>
      </trkpt>
      <trkpt lat="46.39387" lon="5.4541">
        <ele>385</ele>
        <time>2022-06-04T09:48:59Z</time>
      </trkpt>
      <trkpt lat="46.39396" lon="5.45411">
        <ele>385</ele>
        <time>2022-06-04T09:49:03Z</time>
      </trkpt>
      <trkpt lat="46.39397" lon="5.45405">
        <ele>385.2</ele>
        <time>2022-06-04T09:49:06Z</time>
      </trkpt>
      <trkpt lat="46.39397" lon="5.45405">
        <ele>385.2</ele>
        <time>2022-06-04T09:49:07Z</time>
      </trkpt>
      <trkpt lat="46.39399" lon="5.45406">
        <ele>385</ele>
        <time>2022-06-04T09:50:38Z</time>
      </trkpt>
      <trkpt lat="46.39404" lon="5.45406">
        <ele>385</ele>
        <time>2022-06-04T09:50:40Z</time>
      </trkpt>
      <trkpt lat="46.39413" lon="5.45402">
        <ele>385</ele>
        <time>2022-06-04T09:50:45Z</time>
      </trkpt>
      <trkpt lat="46.39413" lon="5.45403">
        <ele>385</ele>
        <time>2022-06-04T09:50:49Z</time>
      </trkpt>
      <trkpt lat="46.3941" lon="5.45403">
        <ele>385.6</ele>
        <time>2022-06-04T09:51:03Z</time>
      </trkpt>
      <trkpt lat="46.39409" lon="5.45405">
        <ele>385.4</ele>
        <time>2022-06-04T09:51:05Z</time>
      </trkpt>
      <trkpt lat="46.39408" lon="5.45405">
        <ele>385.2</ele>
        <time>2022-06-04T09:51:08Z</time>
      </trkpt>
      <trkpt lat="46.39404" lon="5.45407">
        <ele>385.2</ele>
        <time>2022-06-04T09:51:26Z</time>
      </trkpt>
      <trkpt lat="46.39394" lon="5.45406">
        <ele>385</ele>
        <time>2022-06-04T09:51:29Z</time>
      </trkpt>
      <trkpt lat="46.39391" lon="5.45401">
        <ele>385</ele>
        <time>2022-06-04T09:51:30Z</time>
      </trkpt>
      <trkpt lat="46.39384" lon="5.45378">
        <ele>385</ele>
        <time>2022-06-04T09:51:34Z</time>
      </trkpt>
      <trkpt lat="46.39371" lon="5.45361">
        <ele>385</ele>
        <time>2022-06-04T09:51:37Z</time>
      </trkpt>
      <trkpt lat="46.39366" lon="5.45356">
        <ele>384.8</ele>
        <time>2022-06-04T09:51:38Z</time>
      </trkpt>
      <trkpt lat="46.3935" lon="5.45343">
        <ele>384.6</ele>
        <time>2022-06-04T09:51:41Z</time>
      </trkpt>
      <trkpt lat="46.39343" lon="5.45338">
        <ele>384.6</ele>
        <time>2022-06-04T09:51:42Z</time>
      </trkpt>
      <trkpt lat="46.39337" lon="5.45333">
        <ele>384.2</ele>
        <time>2022-06-04T09:51:43Z</time>
      </trkpt>
      <trkpt lat="46.39309" lon="5.4532">
        <ele>383.6</ele>
        <time>2022-06-04T09:51:46Z</time>
      </trkpt>
      <trkpt lat="46.39297" lon="5.4531">
        <ele>382.2</ele>
        <time>2022-06-04T09:51:48Z</time>
      </trkpt>
      <trkpt lat="46.39295" lon="5.45304">
        <ele>381.8</ele>
        <time>2022-06-04T09:51:49Z</time>
      </trkpt>
      <trkpt lat="46.39296" lon="5.45298">
        <ele>381.4</ele>
        <time>2022-06-04T09:51:50Z</time>
      </trkpt>
      <trkpt lat="46.39303" lon="5.45292">
        <ele>381.2</ele>
        <time>2022-06-04T09:51:51Z</time>
      </trkpt>
      <trkpt lat="46.39324" lon="5.45288">
        <ele>380.8</ele>
        <time>2022-06-04T09:51:53Z</time>
      </trkpt>
      <trkpt lat="46.39334" lon="5.45286">
        <ele>380</ele>
        <time>2022-06-04T09:51:54Z</time>
      </trkpt>
      <trkpt lat="46.39362" lon="5.45274">
        <ele>378.8</ele>
        <time>2022-06-04T09:51:57Z</time>
      </trkpt>
      <trkpt lat="46.3939" lon="5.4526">
        <ele>377.6</ele>
        <time>2022-06-04T09:52:00Z</time>
      </trkpt>
      <trkpt lat="46.39409" lon="5.4525">
        <ele>376.2</ele>
        <time>2022-06-04T09:52:02Z</time>
      </trkpt>
      <trkpt lat="46.39429" lon="5.45242">
        <ele>375.2</ele>
        <time>2022-06-04T09:52:04Z</time>
      </trkpt>
      <trkpt lat="46.3945" lon="5.45232">
        <ele>374</ele>
        <time>2022-06-04T09:52:06Z</time>
      </trkpt>
      <trkpt lat="46.39461" lon="5.45227">
        <ele>372.8</ele>
        <time>2022-06-04T09:52:07Z</time>
      </trkpt>
      <trkpt lat="46.39471" lon="5.45222">
        <ele>372.2</ele>
        <time>2022-06-04T09:52:08Z</time>
      </trkpt>
      <trkpt lat="46.39482" lon="5.45217">
        <ele>371.2</ele>
        <time>2022-06-04T09:52:09Z</time>
      </trkpt>
      <trkpt lat="46.39515" lon="5.45203">
        <ele>369.8</ele>
        <time>2022-06-04T09:52:12Z</time>
      </trkpt>
      <trkpt lat="46.39539" lon="5.45195">
        <ele>368.2</ele>
        <time>2022-06-04T09:52:14Z</time>
      </trkpt>
      <trkpt lat="46.39551" lon="5.45193">
        <ele>367.6</ele>
        <time>2022-06-04T09:52:15Z</time>
      </trkpt>
      <trkpt lat="46.39562" lon="5.45193">
        <ele>367</ele>
        <time>2022-06-04T09:52:16Z</time>
      </trkpt>
      <trkpt lat="46.39574" lon="5.45194">
        <ele>366.4</ele>
        <time>2022-06-04T09:52:17Z</time>
      </trkpt>
      <trkpt lat="46.39586" lon="5.45197">
        <ele>365.6</ele>
        <time>2022-06-04T09:52:18Z</time>
      </trkpt>
      <trkpt lat="46.3962" lon="5.45209">
        <ele>363.6</ele>
        <time>2022-06-04T09:52:21Z</time>
      </trkpt>
      <trkpt lat="46.39643" lon="5.45219">
        <ele>362.2</ele>
        <time>2022-06-04T09:52:23Z</time>
      </trkpt>
      <trkpt lat="46.39666" lon="5.45229">
        <ele>360.8</ele>
        <time>2022-06-04T09:52:25Z</time>
      </trkpt>
      <trkpt lat="46.39701" lon="5.45246">
        <ele>359.6</ele>
        <time>2022-06-04T09:52:28Z</time>
      </trkpt>
      <trkpt lat="46.39747" lon="5.4527">
        <ele>357.8</ele>
        <time>2022-06-04T09:52:32Z</time>
      </trkpt>
      <trkpt lat="46.39784" lon="5.45289">
        <ele>356.2</ele>
        <time>2022-06-04T09:52:35Z</time>
      </trkpt>
      <trkpt lat="46.39809" lon="5.45294">
        <ele>354.8</ele>
        <time>2022-06-04T09:52:37Z</time>
      </trkpt>
      <trkpt lat="46.39835" lon="5.45295">
        <ele>353.8</ele>
        <time>2022-06-04T09:52:39Z</time>
      </trkpt>
      <trkpt lat="46.39847" lon="5.45294">
        <ele>353.6</ele>
        <time>2022-06-04T09:52:40Z</time>
      </trkpt>
      <trkpt lat="46.39882" lon="5.4529">
        <ele>352.4</ele>
        <time>2022-06-04T09:52:43Z</time>
      </trkpt>
      <trkpt lat="46.39904" lon="5.45286">
        <ele>352</ele>
        <time>2022-06-04T09:52:45Z</time>
      </trkpt>
      <trkpt lat="46.39926" lon="5.45284">
        <ele>351.4</ele>
        <time>2022-06-04T09:52:47Z</time>
      </trkpt>
      <trkpt lat="46.39966" lon="5.45279">
        <ele>350.8</ele>
        <time>2022-06-04T09:52:51Z</time>
      </trkpt>
      <trkpt lat="46.40005" lon="5.45277">
        <ele>350.8</ele>
        <time>2022-06-04T09:52:55Z</time>
      </trkpt>
      <trkpt lat="46.40014" lon="5.45275">
        <ele>350.8</ele>
        <time>2022-06-04T09:52:56Z</time>
      </trkpt>
      <trkpt lat="46.40033" lon="5.45272">
        <ele>350.8</ele>
        <time>2022-06-04T09:52:59Z</time>
      </trkpt>
      <trkpt lat="46.40037" lon="5.45271">
        <ele>350.8</ele>
        <time>2022-06-04T09:53:00Z</time>
      </trkpt>
      <trkpt lat="46.40046" lon="5.45268">
        <ele>351.2</ele>
        <time>2022-06-04T09:53:02Z</time>
      </trkpt>
      <trkpt lat="46.40054" lon="5.45267">
        <ele>351.4</ele>
        <time>2022-06-04T09:53:04Z</time>
      </trkpt>
      <trkpt lat="46.40071" lon="5.45267">
        <ele>351.4</ele>
        <time>2022-06-04T09:53:07Z</time>
      </trkpt>
      <trkpt lat="46.40077" lon="5.45265">
        <ele>351.4</ele>
        <time>2022-06-04T09:53:08Z</time>
      </trkpt>
      <trkpt lat="46.40121" lon="5.45258">
        <ele>351.4</ele>
        <time>2022-06-04T09:53:14Z</time>
      </trkpt>
      <trkpt lat="46.40127" lon="5.45256">
        <ele>351.4</ele>
        <time>2022-06-04T09:53:15Z</time>
      </trkpt>
      <trkpt lat="46.40142" lon="5.4525">
        <ele>351.4</ele>
        <time>2022-06-04T09:53:17Z</time>
      </trkpt>
      <trkpt lat="46.40154" lon="5.45241">
        <ele>351.6</ele>
        <time>2022-06-04T09:53:19Z</time>
      </trkpt>
      <trkpt lat="46.4016" lon="5.45238">
        <ele>351.6</ele>
        <time>2022-06-04T09:53:20Z</time>
      </trkpt>
      <trkpt lat="46.40175" lon="5.45235">
        <ele>351.6</ele>
        <time>2022-06-04T09:53:22Z</time>
      </trkpt>
      <trkpt lat="46.4019" lon="5.45234">
        <ele>351.6</ele>
        <time>2022-06-04T09:53:24Z</time>
      </trkpt>
      <trkpt lat="46.40213" lon="5.45231">
        <ele>351.6</ele>
        <time>2022-06-04T09:53:27Z</time>
      </trkpt>
      <trkpt lat="46.40247" lon="5.45215">
        <ele>351.8</ele>
        <time>2022-06-04T09:53:32Z</time>
      </trkpt>
      <trkpt lat="46.40266" lon="5.45204">
        <ele>352.2</ele>
        <time>2022-06-04T09:53:35Z</time>
      </trkpt>
      <trkpt lat="46.40279" lon="5.45198">
        <ele>352.2</ele>
        <time>2022-06-04T09:53:37Z</time>
      </trkpt>
      <trkpt lat="46.40312" lon="5.4518">
        <ele>352.4</ele>
        <time>2022-06-04T09:53:42Z</time>
      </trkpt>
      <trkpt lat="46.40333" lon="5.4517">
        <ele>352.4</ele>
        <time>2022-06-04T09:53:45Z</time>
      </trkpt>
      <trkpt lat="46.40387" lon="5.45138">
        <ele>352.4</ele>
        <time>2022-06-04T09:53:53Z</time>
      </trkpt>
      <trkpt lat="46.40425" lon="5.45117">
        <ele>353</ele>
        <time>2022-06-04T09:53:59Z</time>
      </trkpt>
      <trkpt lat="46.40439" lon="5.45115">
        <ele>353.4</ele>
        <time>2022-06-04T09:54:01Z</time>
      </trkpt>
      <trkpt lat="46.40445" lon="5.45112">
        <ele>353.4</ele>
        <time>2022-06-04T09:54:02Z</time>
      </trkpt>
      <trkpt lat="46.40458" lon="5.45105">
        <ele>354</ele>
        <time>2022-06-04T09:54:04Z</time>
      </trkpt>
      <trkpt lat="46.40471" lon="5.45099">
        <ele>354.2</ele>
        <time>2022-06-04T09:54:06Z</time>
      </trkpt>
      <trkpt lat="46.40497" lon="5.45085">
        <ele>354.6</ele>
        <time>2022-06-04T09:54:10Z</time>
      </trkpt>
      <trkpt lat="46.40523" lon="5.45071">
        <ele>355.4</ele>
        <time>2022-06-04T09:54:14Z</time>
      </trkpt>
      <trkpt lat="46.40556" lon="5.45053">
        <ele>355.6</ele>
        <time>2022-06-04T09:54:19Z</time>
      </trkpt>
      <trkpt lat="46.40577" lon="5.45042">
        <ele>355.8</ele>
        <time>2022-06-04T09:54:22Z</time>
      </trkpt>
      <trkpt lat="46.40628" lon="5.45015">
        <ele>355.2</ele>
        <time>2022-06-04T09:54:29Z</time>
      </trkpt>
      <trkpt lat="46.40635" lon="5.45011">
        <ele>355</ele>
        <time>2022-06-04T09:54:30Z</time>
      </trkpt>
      <trkpt lat="46.40689" lon="5.44996">
        <ele>355</ele>
        <time>2022-06-04T09:54:37Z</time>
      </trkpt>
      <trkpt lat="46.40733" lon="5.45003">
        <ele>355.2</ele>
        <time>2022-06-04T09:54:43Z</time>
      </trkpt>
      <trkpt lat="46.40791" lon="5.45025">
        <ele>355.2</ele>
        <time>2022-06-04T09:54:51Z</time>
      </trkpt>
      <trkpt lat="46.40819" lon="5.45038">
        <ele>355.4</ele>
        <time>2022-06-04T09:54:55Z</time>
      </trkpt>
      <trkpt lat="46.40857" lon="5.45064">
        <ele>356.4</ele>
        <time>2022-06-04T09:55:01Z</time>
      </trkpt>
      <trkpt lat="46.40887" lon="5.45087">
        <ele>356.8</ele>
        <time>2022-06-04T09:55:06Z</time>
      </trkpt>
      <trkpt lat="46.40898" lon="5.45097">
        <ele>357.4</ele>
        <time>2022-06-04T09:55:08Z</time>
      </trkpt>
      <trkpt lat="46.40909" lon="5.45106">
        <ele>358</ele>
        <time>2022-06-04T09:55:10Z</time>
      </trkpt>
      <trkpt lat="46.40924" lon="5.4512">
        <ele>359.4</ele>
        <time>2022-06-04T09:55:13Z</time>
      </trkpt>
      <trkpt lat="46.40956" lon="5.45143">
        <ele>360.2</ele>
        <time>2022-06-04T09:55:18Z</time>
      </trkpt>
      <trkpt lat="46.40977" lon="5.45155">
        <ele>360.4</ele>
        <time>2022-06-04T09:55:21Z</time>
      </trkpt>
      <trkpt lat="46.41006" lon="5.45169">
        <ele>360.8</ele>
        <time>2022-06-04T09:55:25Z</time>
      </trkpt>
      <trkpt lat="46.41054" lon="5.45186">
        <ele>361.4</ele>
        <time>2022-06-04T09:55:32Z</time>
      </trkpt>
      <trkpt lat="46.41061" lon="5.45188">
        <ele>361.8</ele>
        <time>2022-06-04T09:55:33Z</time>
      </trkpt>
      <trkpt lat="46.41086" lon="5.45195">
        <ele>362.6</ele>
        <time>2022-06-04T09:55:37Z</time>
      </trkpt>
      <trkpt lat="46.41113" lon="5.452">
        <ele>363.2</ele>
        <time>2022-06-04T09:55:41Z</time>
      </trkpt>
      <trkpt lat="46.41127" lon="5.45203">
        <ele>363.6</ele>
        <time>2022-06-04T09:55:43Z</time>
      </trkpt>
      <trkpt lat="46.41167" lon="5.45211">
        <ele>364</ele>
        <time>2022-06-04T09:55:49Z</time>
      </trkpt>
      <trkpt lat="46.41216" lon="5.4522">
        <ele>364.2</ele>
        <time>2022-06-04T09:55:56Z</time>
      </trkpt>
      <trkpt lat="46.41277" lon="5.45233">
        <ele>364.4</ele>
        <time>2022-06-04T09:56:04Z</time>
      </trkpt>
      <trkpt lat="46.41332" lon="5.45247">
        <ele>364.4</ele>
        <time>2022-06-04T09:56:11Z</time>
      </trkpt>
      <trkpt lat="46.41361" lon="5.45254">
        <ele>364.4</ele>
        <time>2022-06-04T09:56:15Z</time>
      </trkpt>
      <trkpt lat="46.41375" lon="5.45257">
        <ele>364.4</ele>
        <time>2022-06-04T09:56:17Z</time>
      </trkpt>
      <trkpt lat="46.41404" lon="5.45264">
        <ele>364.6</ele>
        <time>2022-06-04T09:56:21Z</time>
      </trkpt>
      <trkpt lat="46.41435" lon="5.45271">
        <ele>365</ele>
        <time>2022-06-04T09:56:25Z</time>
      </trkpt>
      <trkpt lat="46.41492" lon="5.45284">
        <ele>364.8</ele>
        <time>2022-06-04T09:56:32Z</time>
      </trkpt>
      <trkpt lat="46.41547" lon="5.45298">
        <ele>364.8</ele>
        <time>2022-06-04T09:56:39Z</time>
      </trkpt>
      <trkpt lat="46.41555" lon="5.453">
        <ele>364.8</ele>
        <time>2022-06-04T09:56:40Z</time>
      </trkpt>
      <trkpt lat="46.41613" lon="5.45314">
        <ele>365.6</ele>
        <time>2022-06-04T09:56:48Z</time>
      </trkpt>
      <trkpt lat="46.41621" lon="5.45315">
        <ele>366</ele>
        <time>2022-06-04T09:56:49Z</time>
      </trkpt>
      <trkpt lat="46.41676" lon="5.4533">
        <ele>366.8</ele>
        <time>2022-06-04T09:56:57Z</time>
      </trkpt>
      <trkpt lat="46.41683" lon="5.45331">
        <ele>367</ele>
        <time>2022-06-04T09:56:58Z</time>
      </trkpt>
      <trkpt lat="46.41717" lon="5.45339">
        <ele>368.2</ele>
        <time>2022-06-04T09:57:03Z</time>
      </trkpt>
      <trkpt lat="46.4173" lon="5.45342">
        <ele>368.6</ele>
        <time>2022-06-04T09:57:05Z</time>
      </trkpt>
      <trkpt lat="46.41765" lon="5.45349">
        <ele>369.4</ele>
        <time>2022-06-04T09:57:10Z</time>
      </trkpt>
      <trkpt lat="46.41801" lon="5.45357">
        <ele>369.6</ele>
        <time>2022-06-04T09:57:15Z</time>
      </trkpt>
      <trkpt lat="46.41862" lon="5.45371">
        <ele>369.4</ele>
        <time>2022-06-04T09:57:23Z</time>
      </trkpt>
      <trkpt lat="46.41869" lon="5.45373">
        <ele>369.4</ele>
        <time>2022-06-04T09:57:24Z</time>
      </trkpt>
      <trkpt lat="46.4193" lon="5.4539">
        <ele>369.6</ele>
        <time>2022-06-04T09:57:32Z</time>
      </trkpt>
      <trkpt lat="46.41945" lon="5.45394">
        <ele>369.6</ele>
        <time>2022-06-04T09:57:34Z</time>
      </trkpt>
      <trkpt lat="46.42001" lon="5.45417">
        <ele>370.4</ele>
        <time>2022-06-04T09:57:42Z</time>
      </trkpt>
      <trkpt lat="46.42051" lon="5.45438">
        <ele>371</ele>
        <time>2022-06-04T09:57:49Z</time>
      </trkpt>
      <trkpt lat="46.42107" lon="5.4546">
        <ele>371.2</ele>
        <time>2022-06-04T09:57:56Z</time>
      </trkpt>
      <trkpt lat="46.42115" lon="5.45464">
        <ele>371.2</ele>
        <time>2022-06-04T09:57:57Z</time>
      </trkpt>
      <trkpt lat="46.42171" lon="5.45486">
        <ele>371</ele>
        <time>2022-06-04T09:58:04Z</time>
      </trkpt>
      <trkpt lat="46.42196" lon="5.45495">
        <ele>371</ele>
        <time>2022-06-04T09:58:07Z</time>
      </trkpt>
      <trkpt lat="46.42254" lon="5.45515">
        <ele>370.6</ele>
        <time>2022-06-04T09:58:14Z</time>
      </trkpt>
      <trkpt lat="46.42278" lon="5.45522">
        <ele>370.6</ele>
        <time>2022-06-04T09:58:17Z</time>
      </trkpt>
      <trkpt lat="46.42334" lon="5.4554">
        <ele>370.4</ele>
        <time>2022-06-04T09:58:24Z</time>
      </trkpt>
      <trkpt lat="46.4235" lon="5.45545">
        <ele>370.4</ele>
        <time>2022-06-04T09:58:26Z</time>
      </trkpt>
      <trkpt lat="46.42404" lon="5.45562">
        <ele>370</ele>
        <time>2022-06-04T09:58:32Z</time>
      </trkpt>
      <trkpt lat="46.42413" lon="5.45564">
        <ele>369.8</ele>
        <time>2022-06-04T09:58:33Z</time>
      </trkpt>
      <trkpt lat="46.42433" lon="5.4557">
        <ele>369.2</ele>
        <time>2022-06-04T09:58:35Z</time>
      </trkpt>
      <trkpt lat="46.42464" lon="5.4558">
        <ele>367.8</ele>
        <time>2022-06-04T09:58:38Z</time>
      </trkpt>
      <trkpt lat="46.42494" lon="5.45589">
        <ele>366.8</ele>
        <time>2022-06-04T09:58:41Z</time>
      </trkpt>
      <trkpt lat="46.42515" lon="5.45596">
        <ele>366.6</ele>
        <time>2022-06-04T09:58:43Z</time>
      </trkpt>
      <trkpt lat="46.42565" lon="5.45612">
        <ele>365.4</ele>
        <time>2022-06-04T09:58:48Z</time>
      </trkpt>
      <trkpt lat="46.42584" lon="5.45619">
        <ele>365.4</ele>
        <time>2022-06-04T09:58:50Z</time>
      </trkpt>
      <trkpt lat="46.42639" lon="5.45637">
        <ele>365.4</ele>
        <time>2022-06-04T09:58:56Z</time>
      </trkpt>
      <trkpt lat="46.42647" lon="5.4564">
        <ele>365.4</ele>
        <time>2022-06-04T09:58:57Z</time>
      </trkpt>
      <trkpt lat="46.42706" lon="5.45658">
        <ele>366.4</ele>
        <time>2022-06-04T09:59:04Z</time>
      </trkpt>
      <trkpt lat="46.42714" lon="5.4566">
        <ele>366.6</ele>
        <time>2022-06-04T09:59:05Z</time>
      </trkpt>
      <trkpt lat="46.42722" lon="5.45662">
        <ele>366.6</ele>
        <time>2022-06-04T09:59:06Z</time>
      </trkpt>
      <trkpt lat="46.42779" lon="5.45675">
        <ele>367.4</ele>
        <time>2022-06-04T09:59:13Z</time>
      </trkpt>
      <trkpt lat="46.42804" lon="5.45679">
        <ele>367.6</ele>
        <time>2022-06-04T09:59:16Z</time>
      </trkpt>
      <trkpt lat="46.42848" lon="5.45681">
        <ele>367.4</ele>
        <time>2022-06-04T09:59:21Z</time>
      </trkpt>
      <trkpt lat="46.42904" lon="5.45682">
        <ele>366.8</ele>
        <time>2022-06-04T09:59:27Z</time>
      </trkpt>
      <trkpt lat="46.42924" lon="5.45682">
        <ele>366.6</ele>
        <time>2022-06-04T09:59:29Z</time>
      </trkpt>
      <trkpt lat="46.42934" lon="5.45683">
        <ele>366.4</ele>
        <time>2022-06-04T09:59:30Z</time>
      </trkpt>
      <trkpt lat="46.42974" lon="5.45683">
        <ele>365.2</ele>
        <time>2022-06-04T09:59:34Z</time>
      </trkpt>
      <trkpt lat="46.42994" lon="5.45684">
        <ele>364.2</ele>
        <time>2022-06-04T09:59:36Z</time>
      </trkpt>
      <trkpt lat="46.43004" lon="5.45684">
        <ele>363.6</ele>
        <time>2022-06-04T09:59:37Z</time>
      </trkpt>
      <trkpt lat="46.43024" lon="5.45684">
        <ele>363.2</ele>
        <time>2022-06-04T09:59:39Z</time>
      </trkpt>
      <trkpt lat="46.43075" lon="5.45685">
        <ele>362</ele>
        <time>2022-06-04T09:59:44Z</time>
      </trkpt>
      <trkpt lat="46.43116" lon="5.45686">
        <ele>361.4</ele>
        <time>2022-06-04T09:59:48Z</time>
      </trkpt>
      <trkpt lat="46.43137" lon="5.45686">
        <ele>360.8</ele>
        <time>2022-06-04T09:59:50Z</time>
      </trkpt>
      <trkpt lat="46.43179" lon="5.45688">
        <ele>359.8</ele>
        <time>2022-06-04T09:59:54Z</time>
      </trkpt>
      <trkpt lat="46.4322" lon="5.45688">
        <ele>358.8</ele>
        <time>2022-06-04T09:59:58Z</time>
      </trkpt>
      <trkpt lat="46.4323" lon="5.45688">
        <ele>358.6</ele>
        <time>2022-06-04T09:59:59Z</time>
      </trkpt>
      <trkpt lat="46.43288" lon="5.4569">
        <ele>358.2</ele>
        <time>2022-06-04T10:00:05Z</time>
      </trkpt>
      <trkpt lat="46.43315" lon="5.4569">
        <ele>358.2</ele>
        <time>2022-06-04T10:00:08Z</time>
      </trkpt>
      <trkpt lat="46.4337" lon="5.45692">
        <ele>358.2</ele>
        <time>2022-06-04T10:00:14Z</time>
      </trkpt>
      <trkpt lat="46.43396" lon="5.45692">
        <ele>358.2</ele>
        <time>2022-06-04T10:00:17Z</time>
      </trkpt>
      <trkpt lat="46.43456" lon="5.45694">
        <ele>358.4</ele>
        <time>2022-06-04T10:00:24Z</time>
      </trkpt>
      <trkpt lat="46.43474" lon="5.45694">
        <ele>358.4</ele>
        <time>2022-06-04T10:00:26Z</time>
      </trkpt>
      <trkpt lat="46.43535" lon="5.45696">
        <ele>358.6</ele>
        <time>2022-06-04T10:00:33Z</time>
      </trkpt>
      <trkpt lat="46.43569" lon="5.45697">
        <ele>358.6</ele>
        <time>2022-06-04T10:00:37Z</time>
      </trkpt>
      <trkpt lat="46.43629" lon="5.45698">
        <ele>358.8</ele>
        <time>2022-06-04T10:00:44Z</time>
      </trkpt>
      <trkpt lat="46.43646" lon="5.45698">
        <ele>358.8</ele>
        <time>2022-06-04T10:00:46Z</time>
      </trkpt>
      <trkpt lat="46.43705" lon="5.457">
        <ele>358.8</ele>
        <time>2022-06-04T10:00:53Z</time>
      </trkpt>
      <trkpt lat="46.43738" lon="5.457">
        <ele>359</ele>
        <time>2022-06-04T10:00:57Z</time>
      </trkpt>
      <trkpt lat="46.43796" lon="5.45702">
        <ele>359.4</ele>
        <time>2022-06-04T10:01:04Z</time>
      </trkpt>
      <trkpt lat="46.43805" lon="5.45702">
        <ele>359.6</ele>
        <time>2022-06-04T10:01:05Z</time>
      </trkpt>
      <trkpt lat="46.43822" lon="5.45702">
        <ele>359.8</ele>
        <time>2022-06-04T10:01:07Z</time>
      </trkpt>
      <trkpt lat="46.43881" lon="5.45697">
        <ele>360</ele>
        <time>2022-06-04T10:01:14Z</time>
      </trkpt>
      <trkpt lat="46.43942" lon="5.45688">
        <ele>359.6</ele>
        <time>2022-06-04T10:01:21Z</time>
      </trkpt>
      <trkpt lat="46.43977" lon="5.45682">
        <ele>359.4</ele>
        <time>2022-06-04T10:01:25Z</time>
      </trkpt>
      <trkpt lat="46.44035" lon="5.45671">
        <ele>359.4</ele>
        <time>2022-06-04T10:01:32Z</time>
      </trkpt>
      <trkpt lat="46.4406" lon="5.45666">
        <ele>359.8</ele>
        <time>2022-06-04T10:01:35Z</time>
      </trkpt>
      <trkpt lat="46.44114" lon="5.45656">
        <ele>360.6</ele>
        <time>2022-06-04T10:01:42Z</time>
      </trkpt>
      <trkpt lat="46.44129" lon="5.45653">
        <ele>360.8</ele>
        <time>2022-06-04T10:01:44Z</time>
      </trkpt>
      <trkpt lat="46.44185" lon="5.45642">
        <ele>361.4</ele>
        <time>2022-06-04T10:01:51Z</time>
      </trkpt>
      <trkpt lat="46.44215" lon="5.45636">
        <ele>361.6</ele>
        <time>2022-06-04T10:01:55Z</time>
      </trkpt>
      <trkpt lat="46.4423" lon="5.45633">
        <ele>361.8</ele>
        <time>2022-06-04T10:01:57Z</time>
      </trkpt>
      <trkpt lat="46.4426" lon="5.4563">
        <ele>362.2</ele>
        <time>2022-06-04T10:02:01Z</time>
      </trkpt>
      <trkpt lat="46.44297" lon="5.45632">
        <ele>363</ele>
        <time>2022-06-04T10:02:06Z</time>
      </trkpt>
      <trkpt lat="46.44326" lon="5.45635">
        <ele>363.2</ele>
        <time>2022-06-04T10:02:10Z</time>
      </trkpt>
      <trkpt lat="46.44348" lon="5.45638">
        <ele>363.8</ele>
        <time>2022-06-04T10:02:13Z</time>
      </trkpt>
      <trkpt lat="46.44355" lon="5.45638">
        <ele>364</ele>
        <time>2022-06-04T10:02:14Z</time>
      </trkpt>
      <trkpt lat="46.44376" lon="5.4564">
        <ele>364.2</ele>
        <time>2022-06-04T10:02:17Z</time>
      </trkpt>
      <trkpt lat="46.4441" lon="5.45645">
        <ele>365</ele>
        <time>2022-06-04T10:02:22Z</time>
      </trkpt>
      <trkpt lat="46.44431" lon="5.45647">
        <ele>365.4</ele>
        <time>2022-06-04T10:02:25Z</time>
      </trkpt>
      <trkpt lat="46.44457" lon="5.45649">
        <ele>366.4</ele>
        <time>2022-06-04T10:02:29Z</time>
      </trkpt>
      <trkpt lat="46.44491" lon="5.45653">
        <ele>367.4</ele>
        <time>2022-06-04T10:02:34Z</time>
      </trkpt>
      <trkpt lat="46.44505" lon="5.45656">
        <ele>367.6</ele>
        <time>2022-06-04T10:02:36Z</time>
      </trkpt>
      <trkpt lat="46.4455" lon="5.45669">
        <ele>368.4</ele>
        <time>2022-06-04T10:02:42Z</time>
      </trkpt>
      <trkpt lat="46.44606" lon="5.45687">
        <ele>367.8</ele>
        <time>2022-06-04T10:02:49Z</time>
      </trkpt>
      <trkpt lat="46.44661" lon="5.45706">
        <ele>367</ele>
        <time>2022-06-04T10:02:56Z</time>
      </trkpt>
      <trkpt lat="46.44689" lon="5.45717">
        <ele>366.8</ele>
        <time>2022-06-04T10:03:00Z</time>
      </trkpt>
      <trkpt lat="46.44733" lon="5.45736">
        <ele>367</ele>
        <time>2022-06-04T10:03:06Z</time>
      </trkpt>
      <trkpt lat="46.44769" lon="5.45755">
        <ele>367.4</ele>
        <time>2022-06-04T10:03:11Z</time>
      </trkpt>
      <trkpt lat="46.44817" lon="5.45782">
        <ele>368</ele>
        <time>2022-06-04T10:03:18Z</time>
      </trkpt>
      <trkpt lat="46.44873" lon="5.45814">
        <ele>368.6</ele>
        <time>2022-06-04T10:03:26Z</time>
      </trkpt>
      <trkpt lat="46.4488" lon="5.45818">
        <ele>368.6</ele>
        <time>2022-06-04T10:03:27Z</time>
      </trkpt>
      <trkpt lat="46.44933" lon="5.45848">
        <ele>368.6</ele>
        <time>2022-06-04T10:03:34Z</time>
      </trkpt>
      <trkpt lat="46.44948" lon="5.45857">
        <ele>368.6</ele>
        <time>2022-06-04T10:03:36Z</time>
      </trkpt>
      <trkpt lat="46.44999" lon="5.45887">
        <ele>367.4</ele>
        <time>2022-06-04T10:03:42Z</time>
      </trkpt>
      <trkpt lat="46.45016" lon="5.45898">
        <ele>366.8</ele>
        <time>2022-06-04T10:03:44Z</time>
      </trkpt>
      <trkpt lat="46.45025" lon="5.45903">
        <ele>366.6</ele>
        <time>2022-06-04T10:03:45Z</time>
      </trkpt>
      <trkpt lat="46.45051" lon="5.45919">
        <ele>365.6</ele>
        <time>2022-06-04T10:03:48Z</time>
      </trkpt>
      <trkpt lat="46.45086" lon="5.45938">
        <ele>364.8</ele>
        <time>2022-06-04T10:03:52Z</time>
      </trkpt>
      <trkpt lat="46.45103" lon="5.45946">
        <ele>364.4</ele>
        <time>2022-06-04T10:03:54Z</time>
      </trkpt>
      <trkpt lat="46.45135" lon="5.45966">
        <ele>364.4</ele>
        <time>2022-06-04T10:03:58Z</time>
      </trkpt>
      <trkpt lat="46.45169" lon="5.45993">
        <ele>364.6</ele>
        <time>2022-06-04T10:04:03Z</time>
      </trkpt>
      <trkpt lat="46.45189" lon="5.46006">
        <ele>365.4</ele>
        <time>2022-06-04T10:04:06Z</time>
      </trkpt>
      <trkpt lat="46.45195" lon="5.46011">
        <ele>366</ele>
        <time>2022-06-04T10:04:07Z</time>
      </trkpt>
      <trkpt lat="46.45201" lon="5.46016">
        <ele>366.2</ele>
        <time>2022-06-04T10:04:08Z</time>
      </trkpt>
      <trkpt lat="46.45208" lon="5.46022">
        <ele>366.8</ele>
        <time>2022-06-04T10:04:09Z</time>
      </trkpt>
      <trkpt lat="46.45231" lon="5.46043">
        <ele>367.8</ele>
        <time>2022-06-04T10:04:13Z</time>
      </trkpt>
      <trkpt lat="46.45237" lon="5.46047">
        <ele>368.2</ele>
        <time>2022-06-04T10:04:14Z</time>
      </trkpt>
      <trkpt lat="46.45243" lon="5.46049">
        <ele>368.4</ele>
        <time>2022-06-04T10:04:15Z</time>
      </trkpt>
      <trkpt lat="46.4526" lon="5.46054">
        <ele>369</ele>
        <time>2022-06-04T10:04:18Z</time>
      </trkpt>
      <trkpt lat="46.45267" lon="5.46055">
        <ele>369.8</ele>
        <time>2022-06-04T10:04:19Z</time>
      </trkpt>
      <trkpt lat="46.45303" lon="5.46061">
        <ele>370.8</ele>
        <time>2022-06-04T10:04:24Z</time>
      </trkpt>
      <trkpt lat="46.45311" lon="5.46062">
        <ele>370.6</ele>
        <time>2022-06-04T10:04:25Z</time>
      </trkpt>
      <trkpt lat="46.45357" lon="5.4607">
        <ele>370.8</ele>
        <time>2022-06-04T10:04:31Z</time>
      </trkpt>
      <trkpt lat="46.45413" lon="5.46078">
        <ele>370</ele>
        <time>2022-06-04T10:04:38Z</time>
      </trkpt>
      <trkpt lat="46.45421" lon="5.4608">
        <ele>370</ele>
        <time>2022-06-04T10:04:39Z</time>
      </trkpt>
      <trkpt lat="46.45473" lon="5.46089">
        <ele>369.6</ele>
        <time>2022-06-04T10:04:45Z</time>
      </trkpt>
      <trkpt lat="46.455" lon="5.46094">
        <ele>368.8</ele>
        <time>2022-06-04T10:04:48Z</time>
      </trkpt>
      <trkpt lat="46.4551" lon="5.46096">
        <ele>368.4</ele>
        <time>2022-06-04T10:04:49Z</time>
      </trkpt>
      <trkpt lat="46.45557" lon="5.46104">
        <ele>367.4</ele>
        <time>2022-06-04T10:04:54Z</time>
      </trkpt>
      <trkpt lat="46.45577" lon="5.46107">
        <ele>367</ele>
        <time>2022-06-04T10:04:56Z</time>
      </trkpt>
      <trkpt lat="46.45597" lon="5.46111">
        <ele>366.4</ele>
        <time>2022-06-04T10:04:58Z</time>
      </trkpt>
      <trkpt lat="46.45626" lon="5.46116">
        <ele>365.2</ele>
        <time>2022-06-04T10:05:01Z</time>
      </trkpt>
      <trkpt lat="46.45685" lon="5.46126">
        <ele>364.2</ele>
        <time>2022-06-04T10:05:07Z</time>
      </trkpt>
      <trkpt lat="46.45694" lon="5.46128">
        <ele>364</ele>
        <time>2022-06-04T10:05:08Z</time>
      </trkpt>
      <trkpt lat="46.45752" lon="5.46138">
        <ele>363</ele>
        <time>2022-06-04T10:05:14Z</time>
      </trkpt>
      <trkpt lat="46.45771" lon="5.46141">
        <ele>362.8</ele>
        <time>2022-06-04T10:05:16Z</time>
      </trkpt>
      <trkpt lat="46.458" lon="5.46146">
        <ele>362.8</ele>
        <time>2022-06-04T10:05:19Z</time>
      </trkpt>
      <trkpt lat="46.45856" lon="5.46157">
        <ele>362.8</ele>
        <time>2022-06-04T10:05:25Z</time>
      </trkpt>
      <trkpt lat="46.45884" lon="5.46162">
        <ele>362.8</ele>
        <time>2022-06-04T10:05:28Z</time>
      </trkpt>
      <trkpt lat="46.45939" lon="5.46171">
        <ele>362.6</ele>
        <time>2022-06-04T10:05:34Z</time>
      </trkpt>
      <trkpt lat="46.45984" lon="5.46179">
        <ele>362.4</ele>
        <time>2022-06-04T10:05:39Z</time>
      </trkpt>
      <trkpt lat="46.46038" lon="5.46189">
        <ele>362.8</ele>
        <time>2022-06-04T10:05:45Z</time>
      </trkpt>
      <trkpt lat="46.46074" lon="5.46195">
        <ele>362.8</ele>
        <time>2022-06-04T10:05:49Z</time>
      </trkpt>
      <trkpt lat="46.46137" lon="5.46206">
        <ele>362.8</ele>
        <time>2022-06-04T10:05:56Z</time>
      </trkpt>
      <trkpt lat="46.4618" lon="5.46214">
        <ele>362.8</ele>
        <time>2022-06-04T10:06:01Z</time>
      </trkpt>
      <trkpt lat="46.46241" lon="5.46225">
        <ele>362</ele>
        <time>2022-06-04T10:06:08Z</time>
      </trkpt>
      <trkpt lat="46.46266" lon="5.46229">
        <ele>362.2</ele>
        <time>2022-06-04T10:06:11Z</time>
      </trkpt>
      <trkpt lat="46.463" lon="5.46235">
        <ele>362.4</ele>
        <time>2022-06-04T10:06:15Z</time>
      </trkpt>
      <trkpt lat="46.46359" lon="5.46246">
        <ele>363.2</ele>
        <time>2022-06-04T10:06:22Z</time>
      </trkpt>
      <trkpt lat="46.46417" lon="5.46256">
        <ele>362.8</ele>
        <time>2022-06-04T10:06:29Z</time>
      </trkpt>
      <trkpt lat="46.46442" lon="5.46261">
        <ele>362.6</ele>
        <time>2022-06-04T10:06:32Z</time>
      </trkpt>
      <trkpt lat="46.46502" lon="5.46271">
        <ele>363</ele>
        <time>2022-06-04T10:06:39Z</time>
      </trkpt>
      <trkpt lat="46.46519" lon="5.46274">
        <ele>362.8</ele>
        <time>2022-06-04T10:06:41Z</time>
      </trkpt>
      <trkpt lat="46.46535" lon="5.46278">
        <ele>363</ele>
        <time>2022-06-04T10:06:43Z</time>
      </trkpt>
      <trkpt lat="46.46586" lon="5.46287">
        <ele>362.8</ele>
        <time>2022-06-04T10:06:49Z</time>
      </trkpt>
      <trkpt lat="46.46646" lon="5.46297">
        <ele>363.6</ele>
        <time>2022-06-04T10:06:56Z</time>
      </trkpt>
      <trkpt lat="46.46663" lon="5.463">
        <ele>363.8</ele>
        <time>2022-06-04T10:06:58Z</time>
      </trkpt>
      <trkpt lat="46.4668" lon="5.46304">
        <ele>364.2</ele>
        <time>2022-06-04T10:07:00Z</time>
      </trkpt>
      <trkpt lat="46.46739" lon="5.46314">
        <ele>364.4</ele>
        <time>2022-06-04T10:07:07Z</time>
      </trkpt>
      <trkpt lat="46.46756" lon="5.46317">
        <ele>364.4</ele>
        <time>2022-06-04T10:07:09Z</time>
      </trkpt>
      <trkpt lat="46.46781" lon="5.46322">
        <ele>364.4</ele>
        <time>2022-06-04T10:07:12Z</time>
      </trkpt>
      <trkpt lat="46.46839" lon="5.46332">
        <ele>364.4</ele>
        <time>2022-06-04T10:07:19Z</time>
      </trkpt>
      <trkpt lat="46.46897" lon="5.46343">
        <ele>364.6</ele>
        <time>2022-06-04T10:07:26Z</time>
      </trkpt>
      <trkpt lat="46.46931" lon="5.46348">
        <ele>365</ele>
        <time>2022-06-04T10:07:30Z</time>
      </trkpt>
      <trkpt lat="46.46988" lon="5.46358">
        <ele>365</ele>
        <time>2022-06-04T10:07:37Z</time>
      </trkpt>
      <trkpt lat="46.47013" lon="5.46363">
        <ele>364.8</ele>
        <time>2022-06-04T10:07:40Z</time>
      </trkpt>
      <trkpt lat="46.47062" lon="5.46372">
        <ele>365</ele>
        <time>2022-06-04T10:07:46Z</time>
      </trkpt>
      <trkpt lat="46.47104" lon="5.46379">
        <ele>365</ele>
        <time>2022-06-04T10:07:51Z</time>
      </trkpt>
      <trkpt lat="46.47153" lon="5.46388">
        <ele>365.2</ele>
        <time>2022-06-04T10:07:57Z</time>
      </trkpt>
      <trkpt lat="46.47201" lon="5.46397">
        <ele>365.4</ele>
        <time>2022-06-04T10:08:03Z</time>
      </trkpt>
      <trkpt lat="46.47257" lon="5.46407">
        <ele>366</ele>
        <time>2022-06-04T10:08:10Z</time>
      </trkpt>
      <trkpt lat="46.47265" lon="5.46408">
        <ele>366</ele>
        <time>2022-06-04T10:08:11Z</time>
      </trkpt>
      <trkpt lat="46.47271" lon="5.46409">
        <ele>366.2</ele>
        <time>2022-06-04T10:08:12Z</time>
      </trkpt>
      <trkpt lat="46.47327" lon="5.4642">
        <ele>366.8</ele>
        <time>2022-06-04T10:08:19Z</time>
      </trkpt>
      <trkpt lat="46.47335" lon="5.46421">
        <ele>366.8</ele>
        <time>2022-06-04T10:08:20Z</time>
      </trkpt>
      <trkpt lat="46.47365" lon="5.46427">
        <ele>367.2</ele>
        <time>2022-06-04T10:08:24Z</time>
      </trkpt>
      <trkpt lat="46.47394" lon="5.46432">
        <ele>368.4</ele>
        <time>2022-06-04T10:08:28Z</time>
      </trkpt>
      <trkpt lat="46.47436" lon="5.4644">
        <ele>369.4</ele>
        <time>2022-06-04T10:08:34Z</time>
      </trkpt>
      <trkpt lat="46.47452" lon="5.46443">
        <ele>369.6</ele>
        <time>2022-06-04T10:08:36Z</time>
      </trkpt>
      <trkpt lat="46.4751" lon="5.46453">
        <ele>370.6</ele>
        <time>2022-06-04T10:08:44Z</time>
      </trkpt>
      <trkpt lat="46.47567" lon="5.46463">
        <ele>371.6</ele>
        <time>2022-06-04T10:08:52Z</time>
      </trkpt>
      <trkpt lat="46.47621" lon="5.46472">
        <ele>372.2</ele>
        <time>2022-06-04T10:09:00Z</time>
      </trkpt>
      <trkpt lat="46.4763" lon="5.46474">
        <ele>372.2</ele>
        <time>2022-06-04T10:09:01Z</time>
      </trkpt>
      <trkpt lat="46.47658" lon="5.46479">
        <ele>372.8</ele>
        <time>2022-06-04T10:09:05Z</time>
      </trkpt>
      <trkpt lat="46.47679" lon="5.46482">
        <ele>372.8</ele>
        <time>2022-06-04T10:09:08Z</time>
      </trkpt>
      <trkpt lat="46.47693" lon="5.46485">
        <ele>373.2</ele>
        <time>2022-06-04T10:09:10Z</time>
      </trkpt>
      <trkpt lat="46.47751" lon="5.46496">
        <ele>373.6</ele>
        <time>2022-06-04T10:09:18Z</time>
      </trkpt>
      <trkpt lat="46.47767" lon="5.46499">
        <ele>373.4</ele>
        <time>2022-06-04T10:09:20Z</time>
      </trkpt>
      <trkpt lat="46.47828" lon="5.4651">
        <ele>373.4</ele>
        <time>2022-06-04T10:09:28Z</time>
      </trkpt>
      <trkpt lat="46.47843" lon="5.46512">
        <ele>373.2</ele>
        <time>2022-06-04T10:09:30Z</time>
      </trkpt>
      <trkpt lat="46.47902" lon="5.46523">
        <ele>373.6</ele>
        <time>2022-06-04T10:09:38Z</time>
      </trkpt>
      <trkpt lat="46.47925" lon="5.46527">
        <ele>373.6</ele>
        <time>2022-06-04T10:09:41Z</time>
      </trkpt>
      <trkpt lat="46.47985" lon="5.46538">
        <ele>373.6</ele>
        <time>2022-06-04T10:09:49Z</time>
      </trkpt>
      <trkpt lat="46.48" lon="5.46541">
        <ele>373.8</ele>
        <time>2022-06-04T10:09:51Z</time>
      </trkpt>
      <trkpt lat="46.48008" lon="5.46542">
        <ele>373.8</ele>
        <time>2022-06-04T10:09:52Z</time>
      </trkpt>
      <trkpt lat="46.48062" lon="5.46552">
        <ele>374</ele>
        <time>2022-06-04T10:09:59Z</time>
      </trkpt>
      <trkpt lat="46.4807" lon="5.46552">
        <ele>374</ele>
        <time>2022-06-04T10:10:00Z</time>
      </trkpt>
      <trkpt lat="46.48078" lon="5.46554">
        <ele>374</ele>
        <time>2022-06-04T10:10:01Z</time>
      </trkpt>
      <trkpt lat="46.48135" lon="5.46565">
        <ele>373.6</ele>
        <time>2022-06-04T10:10:08Z</time>
      </trkpt>
      <trkpt lat="46.48151" lon="5.46568">
        <ele>373.6</ele>
        <time>2022-06-04T10:10:10Z</time>
      </trkpt>
      <trkpt lat="46.48208" lon="5.46578">
        <ele>373.2</ele>
        <time>2022-06-04T10:10:17Z</time>
      </trkpt>
      <trkpt lat="46.48241" lon="5.46584">
        <ele>373</ele>
        <time>2022-06-04T10:10:21Z</time>
      </trkpt>
      <trkpt lat="46.48299" lon="5.46594">
        <ele>372.8</ele>
        <time>2022-06-04T10:10:28Z</time>
      </trkpt>
      <trkpt lat="46.48308" lon="5.46595">
        <ele>372.6</ele>
        <time>2022-06-04T10:10:29Z</time>
      </trkpt>
      <trkpt lat="46.4834" lon="5.46603">
        <ele>372.6</ele>
        <time>2022-06-04T10:10:33Z</time>
      </trkpt>
      <trkpt lat="46.48354" lon="5.46597">
        <ele>372.6</ele>
        <time>2022-06-04T10:10:35Z</time>
      </trkpt>
      <trkpt lat="46.48363" lon="5.46581">
        <ele>372.6</ele>
        <time>2022-06-04T10:10:37Z</time>
      </trkpt>
      <trkpt lat="46.48366" lon="5.4657">
        <ele>372.6</ele>
        <time>2022-06-04T10:10:38Z</time>
      </trkpt>
      <trkpt lat="46.48383" lon="5.46519">
        <ele>372.6</ele>
        <time>2022-06-04T10:10:43Z</time>
      </trkpt>
      <trkpt lat="46.4839" lon="5.46498">
        <ele>372.8</ele>
        <time>2022-06-04T10:10:45Z</time>
      </trkpt>
      <trkpt lat="46.48392" lon="5.46475">
        <ele>372.8</ele>
        <time>2022-06-04T10:10:47Z</time>
      </trkpt>
      <trkpt lat="46.48393" lon="5.46426">
        <ele>372.8</ele>
        <time>2022-06-04T10:10:51Z</time>
      </trkpt>
      <trkpt lat="46.48395" lon="5.46414">
        <ele>372.8</ele>
        <time>2022-06-04T10:10:52Z</time>
      </trkpt>
      <trkpt lat="46.48412" lon="5.4636">
        <ele>372.8</ele>
        <time>2022-06-04T10:10:57Z</time>
      </trkpt>
      <trkpt lat="46.48433" lon="5.46315">
        <ele>373</ele>
        <time>2022-06-04T10:11:02Z</time>
      </trkpt>
      <trkpt lat="46.48448" lon="5.46274">
        <ele>373.8</ele>
        <time>2022-06-04T10:11:07Z</time>
      </trkpt>
      <trkpt lat="46.48444" lon="5.46234">
        <ele>374.8</ele>
        <time>2022-06-04T10:11:12Z</time>
      </trkpt>
      <trkpt lat="46.48428" lon="5.46181">
        <ele>376.2</ele>
        <time>2022-06-04T10:11:18Z</time>
      </trkpt>
      <trkpt lat="46.48425" lon="5.46173">
        <ele>376.6</ele>
        <time>2022-06-04T10:11:19Z</time>
      </trkpt>
      <trkpt lat="46.48418" lon="5.4616">
        <ele>377</ele>
        <time>2022-06-04T10:11:21Z</time>
      </trkpt>
      <trkpt lat="46.48414" lon="5.46152">
        <ele>377.2</ele>
        <time>2022-06-04T10:11:22Z</time>
      </trkpt>
      <trkpt lat="46.4841" lon="5.46146">
        <ele>377.4</ele>
        <time>2022-06-04T10:11:23Z</time>
      </trkpt>
      <trkpt lat="46.48396" lon="5.46121">
        <ele>378.2</ele>
        <time>2022-06-04T10:11:27Z</time>
      </trkpt>
      <trkpt lat="46.48378" lon="5.46084">
        <ele>379.2</ele>
        <time>2022-06-04T10:11:32Z</time>
      </trkpt>
      <trkpt lat="46.48374" lon="5.46077">
        <ele>379.2</ele>
        <time>2022-06-04T10:11:33Z</time>
      </trkpt>
      <trkpt lat="46.48351" lon="5.46033">
        <ele>379.2</ele>
        <time>2022-06-04T10:11:39Z</time>
      </trkpt>
      <trkpt lat="46.48333" lon="5.46002">
        <ele>379</ele>
        <time>2022-06-04T10:11:43Z</time>
      </trkpt>
      <trkpt lat="46.4832" lon="5.4598">
        <ele>379</ele>
        <time>2022-06-04T10:11:46Z</time>
      </trkpt>
      <trkpt lat="46.4829" lon="5.45934">
        <ele>378.8</ele>
        <time>2022-06-04T10:11:52Z</time>
      </trkpt>
      <trkpt lat="46.48256" lon="5.45885">
        <ele>377.8</ele>
        <time>2022-06-04T10:11:58Z</time>
      </trkpt>
      <trkpt lat="46.4825" lon="5.45877">
        <ele>377.6</ele>
        <time>2022-06-04T10:11:59Z</time>
      </trkpt>
      <trkpt lat="46.48225" lon="5.45843">
        <ele>376.8</ele>
        <time>2022-06-04T10:12:03Z</time>
      </trkpt>
      <trkpt lat="46.48198" lon="5.4581">
        <ele>376</ele>
        <time>2022-06-04T10:12:07Z</time>
      </trkpt>
      <trkpt lat="46.48185" lon="5.45793">
        <ele>375.6</ele>
        <time>2022-06-04T10:12:09Z</time>
      </trkpt>
      <trkpt lat="46.48164" lon="5.45767">
        <ele>374.4</ele>
        <time>2022-06-04T10:12:12Z</time>
      </trkpt>
      <trkpt lat="46.48143" lon="5.45741">
        <ele>373</ele>
        <time>2022-06-04T10:12:15Z</time>
      </trkpt>
      <trkpt lat="46.48122" lon="5.45715">
        <ele>372.4</ele>
        <time>2022-06-04T10:12:18Z</time>
      </trkpt>
      <trkpt lat="46.48101" lon="5.45691">
        <ele>371.8</ele>
        <time>2022-06-04T10:12:21Z</time>
      </trkpt>
      <trkpt lat="46.48072" lon="5.45663">
        <ele>370.6</ele>
        <time>2022-06-04T10:12:25Z</time>
      </trkpt>
      <trkpt lat="46.48026" lon="5.45636">
        <ele>370.6</ele>
        <time>2022-06-04T10:12:31Z</time>
      </trkpt>
      <trkpt lat="46.48012" lon="5.45629">
        <ele>370.6</ele>
        <time>2022-06-04T10:12:33Z</time>
      </trkpt>
      <trkpt lat="46.47997" lon="5.45624">
        <ele>370.8</ele>
        <time>2022-06-04T10:12:35Z</time>
      </trkpt>
      <trkpt lat="46.47964" lon="5.4561">
        <ele>371.6</ele>
        <time>2022-06-04T10:12:40Z</time>
      </trkpt>
      <trkpt lat="46.47957" lon="5.45608">
        <ele>371.8</ele>
        <time>2022-06-04T10:12:41Z</time>
      </trkpt>
      <trkpt lat="46.47924" lon="5.45597">
        <ele>372.4</ele>
        <time>2022-06-04T10:12:46Z</time>
      </trkpt>
      <trkpt lat="46.47918" lon="5.45595">
        <ele>372.8</ele>
        <time>2022-06-04T10:12:47Z</time>
      </trkpt>
      <trkpt lat="46.47887" lon="5.45582">
        <ele>374.2</ele>
        <time>2022-06-04T10:12:52Z</time>
      </trkpt>
      <trkpt lat="46.47869" lon="5.45574">
        <ele>374.8</ele>
        <time>2022-06-04T10:12:55Z</time>
      </trkpt>
      <trkpt lat="46.47853" lon="5.45568">
        <ele>375.2</ele>
        <time>2022-06-04T10:12:58Z</time>
      </trkpt>
      <trkpt lat="46.47831" lon="5.45561">
        <ele>376.2</ele>
        <time>2022-06-04T10:13:02Z</time>
      </trkpt>
      <trkpt lat="46.47809" lon="5.45555">
        <ele>377.2</ele>
        <time>2022-06-04T10:13:06Z</time>
      </trkpt>
      <trkpt lat="46.47768" lon="5.45544">
        <ele>378</ele>
        <time>2022-06-04T10:13:13Z</time>
      </trkpt>
      <trkpt lat="46.4775" lon="5.45533">
        <ele>378</ele>
        <time>2022-06-04T10:13:15Z</time>
      </trkpt>
      <trkpt lat="46.47739" lon="5.45523">
        <ele>378</ele>
        <time>2022-06-04T10:13:17Z</time>
      </trkpt>
      <trkpt lat="46.47696" lon="5.45485">
        <ele>377.2</ele>
        <time>2022-06-04T10:13:24Z</time>
      </trkpt>
      <trkpt lat="46.47662" lon="5.45461">
        <ele>377</ele>
        <time>2022-06-04T10:13:29Z</time>
      </trkpt>
      <trkpt lat="46.47662" lon="5.45461">
        <ele>376.8</ele>
        <time>2022-06-04T10:13:30Z</time>
      </trkpt>
      <trkpt lat="46.47613" lon="5.45436">
        <ele>376.6</ele>
        <time>2022-06-04T10:13:36Z</time>
      </trkpt>
      <trkpt lat="46.47565" lon="5.454">
        <ele>376.6</ele>
        <time>2022-06-04T10:13:43Z</time>
      </trkpt>
      <trkpt lat="46.47565" lon="5.454">
        <ele>376.4</ele>
        <time>2022-06-04T10:13:44Z</time>
      </trkpt>
      <trkpt lat="46.47542" lon="5.45383">
        <ele>376.2</ele>
        <time>2022-06-04T10:13:46Z</time>
      </trkpt>
      <trkpt lat="46.47517" lon="5.45367">
        <ele>375.6</ele>
        <time>2022-06-04T10:13:49Z</time>
      </trkpt>
      <trkpt lat="46.475" lon="5.45359">
        <ele>375</ele>
        <time>2022-06-04T10:13:51Z</time>
      </trkpt>
      <trkpt lat="46.47473" lon="5.45351">
        <ele>374</ele>
        <time>2022-06-04T10:13:54Z</time>
      </trkpt>
      <trkpt lat="46.47463" lon="5.45349">
        <ele>373.8</ele>
        <time>2022-06-04T10:13:55Z</time>
      </trkpt>
      <trkpt lat="46.47409" lon="5.45333">
        <ele>372.6</ele>
        <time>2022-06-04T10:14:01Z</time>
      </trkpt>
      <trkpt lat="46.47392" lon="5.45329">
        <ele>372.4</ele>
        <time>2022-06-04T10:14:03Z</time>
      </trkpt>
      <trkpt lat="46.47342" lon="5.45312">
        <ele>371.8</ele>
        <time>2022-06-04T10:14:10Z</time>
      </trkpt>
      <trkpt lat="46.47285" lon="5.45286">
        <ele>371.6</ele>
        <time>2022-06-04T10:14:16Z</time>
      </trkpt>
      <trkpt lat="46.47276" lon="5.45282">
        <ele>371.6</ele>
        <time>2022-06-04T10:14:17Z</time>
      </trkpt>
      <trkpt lat="46.47252" lon="5.45271">
        <ele>371.2</ele>
        <time>2022-06-04T10:14:20Z</time>
      </trkpt>
      <trkpt lat="46.47196" lon="5.45245">
        <ele>371.2</ele>
        <time>2022-06-04T10:14:27Z</time>
      </trkpt>
      <trkpt lat="46.47188" lon="5.45241">
        <ele>371.2</ele>
        <time>2022-06-04T10:14:28Z</time>
      </trkpt>
      <trkpt lat="46.47132" lon="5.45214">
        <ele>371.6</ele>
        <time>2022-06-04T10:14:35Z</time>
      </trkpt>
      <trkpt lat="46.47101" lon="5.45197">
        <ele>371.2</ele>
        <time>2022-06-04T10:14:39Z</time>
      </trkpt>
      <trkpt lat="46.4705" lon="5.45162">
        <ele>370.6</ele>
        <time>2022-06-04T10:14:46Z</time>
      </trkpt>
      <trkpt lat="46.47037" lon="5.4515">
        <ele>370.8</ele>
        <time>2022-06-04T10:14:48Z</time>
      </trkpt>
      <trkpt lat="46.46986" lon="5.45107">
        <ele>371.4</ele>
        <time>2022-06-04T10:14:55Z</time>
      </trkpt>
      <trkpt lat="46.46978" lon="5.45102">
        <ele>371</ele>
        <time>2022-06-04T10:14:57Z</time>
      </trkpt>
      <trkpt lat="46.46955" lon="5.45083">
        <ele>370.4</ele>
        <time>2022-06-04T10:14:59Z</time>
      </trkpt>
      <trkpt lat="46.46916" lon="5.45051">
        <ele>369.2</ele>
        <time>2022-06-04T10:15:04Z</time>
      </trkpt>
      <trkpt lat="46.46909" lon="5.45044">
        <ele>369</ele>
        <time>2022-06-04T10:15:05Z</time>
      </trkpt>
      <trkpt lat="46.46862" lon="5.45007">
        <ele>368.2</ele>
        <time>2022-06-04T10:15:11Z</time>
      </trkpt>
      <trkpt lat="46.46818" lon="5.44967">
        <ele>367.6</ele>
        <time>2022-06-04T10:15:18Z</time>
      </trkpt>
      <trkpt lat="46.46766" lon="5.44927">
        <ele>367.2</ele>
        <time>2022-06-04T10:15:24Z</time>
      </trkpt>
      <trkpt lat="46.46751" lon="5.44918">
        <ele>367</ele>
        <time>2022-06-04T10:15:26Z</time>
      </trkpt>
      <trkpt lat="46.46699" lon="5.44891">
        <ele>367.6</ele>
        <time>2022-06-04T10:15:33Z</time>
      </trkpt>
      <trkpt lat="46.46684" lon="5.44883">
        <ele>367.4</ele>
        <time>2022-06-04T10:15:35Z</time>
      </trkpt>
      <trkpt lat="46.46628" lon="5.44854">
        <ele>367.4</ele>
        <time>2022-06-04T10:15:43Z</time>
      </trkpt>
      <trkpt lat="46.46621" lon="5.4485">
        <ele>367.4</ele>
        <time>2022-06-04T10:15:44Z</time>
      </trkpt>
      <trkpt lat="46.46594" lon="5.44836">
        <ele>368.2</ele>
        <time>2022-06-04T10:15:49Z</time>
      </trkpt>
      <trkpt lat="46.46557" lon="5.44818">
        <ele>368.4</ele>
        <time>2022-06-04T10:15:54Z</time>
      </trkpt>
      <trkpt lat="46.46522" lon="5.448">
        <ele>369.4</ele>
        <time>2022-06-04T10:16:00Z</time>
      </trkpt>
      <trkpt lat="46.46511" lon="5.44795">
        <ele>369.8</ele>
        <time>2022-06-04T10:16:03Z</time>
      </trkpt>
      <trkpt lat="46.46488" lon="5.44783">
        <ele>370.4</ele>
        <time>2022-06-04T10:16:06Z</time>
      </trkpt>
      <trkpt lat="46.46466" lon="5.44772">
        <ele>371.6</ele>
        <time>2022-06-04T10:16:10Z</time>
      </trkpt>
      <trkpt lat="46.4646" lon="5.44769">
        <ele>371.6</ele>
        <time>2022-06-04T10:16:11Z</time>
      </trkpt>
      <trkpt lat="46.46407" lon="5.44742">
        <ele>372.4</ele>
        <time>2022-06-04T10:16:21Z</time>
      </trkpt>
      <trkpt lat="46.46392" lon="5.44735">
        <ele>372.6</ele>
        <time>2022-06-04T10:16:24Z</time>
      </trkpt>
      <trkpt lat="46.46358" lon="5.44717">
        <ele>373.6</ele>
        <time>2022-06-04T10:16:31Z</time>
      </trkpt>
      <trkpt lat="46.46354" lon="5.44714">
        <ele>373.8</ele>
        <time>2022-06-04T10:16:32Z</time>
      </trkpt>
      <trkpt lat="46.46318" lon="5.44696">
        <ele>374.2</ele>
        <time>2022-06-04T10:16:39Z</time>
      </trkpt>
      <trkpt lat="46.46309" lon="5.44691">
        <ele>374.8</ele>
        <time>2022-06-04T10:16:41Z</time>
      </trkpt>
      <trkpt lat="46.46286" lon="5.44681">
        <ele>376</ele>
        <time>2022-06-04T10:16:46Z</time>
      </trkpt>
      <trkpt lat="46.46262" lon="5.44671">
        <ele>377</ele>
        <time>2022-06-04T10:16:51Z</time>
      </trkpt>
      <trkpt lat="46.46245" lon="5.44661">
        <ele>378.2</ele>
        <time>2022-06-04T10:16:55Z</time>
      </trkpt>
      <trkpt lat="46.46227" lon="5.44647">
        <ele>379.4</ele>
        <time>2022-06-04T10:17:00Z</time>
      </trkpt>
      <trkpt lat="46.46227" lon="5.44647">
        <ele>379.8</ele>
        <time>2022-06-04T10:17:01Z</time>
      </trkpt>
      <trkpt lat="46.46219" lon="5.4464">
        <ele>380.2</ele>
        <time>2022-06-04T10:17:02Z</time>
      </trkpt>
      <trkpt lat="46.46213" lon="5.44631">
        <ele>380.4</ele>
        <time>2022-06-04T10:17:04Z</time>
      </trkpt>
      <trkpt lat="46.46207" lon="5.4462">
        <ele>381.2</ele>
        <time>2022-06-04T10:17:06Z</time>
      </trkpt>
      <trkpt lat="46.46205" lon="5.44615">
        <ele>381.6</ele>
        <time>2022-06-04T10:17:07Z</time>
      </trkpt>
      <trkpt lat="46.46203" lon="5.4461">
        <ele>381.8</ele>
        <time>2022-06-04T10:17:08Z</time>
      </trkpt>
      <trkpt lat="46.46198" lon="5.44593">
        <ele>382.6</ele>
        <time>2022-06-04T10:17:11Z</time>
      </trkpt>
      <trkpt lat="46.46197" lon="5.44587">
        <ele>382.8</ele>
        <time>2022-06-04T10:17:12Z</time>
      </trkpt>
      <trkpt lat="46.46195" lon="5.44575">
        <ele>383.4</ele>
        <time>2022-06-04T10:17:14Z</time>
      </trkpt>
      <trkpt lat="46.46194" lon="5.44564">
        <ele>383.8</ele>
        <time>2022-06-04T10:17:16Z</time>
      </trkpt>
      <trkpt lat="46.46194" lon="5.44552">
        <ele>384.6</ele>
        <time>2022-06-04T10:17:18Z</time>
      </trkpt>
      <trkpt lat="46.46193" lon="5.44541">
        <ele>385</ele>
        <time>2022-06-04T10:17:20Z</time>
      </trkpt>
      <trkpt lat="46.46192" lon="5.44512">
        <ele>386.2</ele>
        <time>2022-06-04T10:17:25Z</time>
      </trkpt>
      <trkpt lat="46.46192" lon="5.44501">
        <ele>386.8</ele>
        <time>2022-06-04T10:17:27Z</time>
      </trkpt>
      <trkpt lat="46.46191" lon="5.44483">
        <ele>387.4</ele>
        <time>2022-06-04T10:17:30Z</time>
      </trkpt>
      <trkpt lat="46.46191" lon="5.44452">
        <ele>388.4</ele>
        <time>2022-06-04T10:17:35Z</time>
      </trkpt>
      <trkpt lat="46.46191" lon="5.44446">
        <ele>388.6</ele>
        <time>2022-06-04T10:17:36Z</time>
      </trkpt>
      <trkpt lat="46.46191" lon="5.44416">
        <ele>389.6</ele>
        <time>2022-06-04T10:17:41Z</time>
      </trkpt>
      <trkpt lat="46.46192" lon="5.44399">
        <ele>390.2</ele>
        <time>2022-06-04T10:17:44Z</time>
      </trkpt>
      <trkpt lat="46.46192" lon="5.44388">
        <ele>390.6</ele>
        <time>2022-06-04T10:17:46Z</time>
      </trkpt>
      <trkpt lat="46.46193" lon="5.44361">
        <ele>391.8</ele>
        <time>2022-06-04T10:17:51Z</time>
      </trkpt>
      <trkpt lat="46.46193" lon="5.4432">
        <ele>392.8</ele>
        <time>2022-06-04T10:17:58Z</time>
      </trkpt>
      <trkpt lat="46.46193" lon="5.44296">
        <ele>393.8</ele>
        <time>2022-06-04T10:18:02Z</time>
      </trkpt>
      <trkpt lat="46.46193" lon="5.4429">
        <ele>394.4</ele>
        <time>2022-06-04T10:18:03Z</time>
      </trkpt>
      <trkpt lat="46.46191" lon="5.44278">
        <ele>395</ele>
        <time>2022-06-04T10:18:05Z</time>
      </trkpt>
      <trkpt lat="46.46186" lon="5.44254">
        <ele>396</ele>
        <time>2022-06-04T10:18:09Z</time>
      </trkpt>
      <trkpt lat="46.46184" lon="5.44248">
        <ele>396.4</ele>
        <time>2022-06-04T10:18:10Z</time>
      </trkpt>
      <trkpt lat="46.46176" lon="5.44221">
        <ele>397</ele>
        <time>2022-06-04T10:18:15Z</time>
      </trkpt>
      <trkpt lat="46.46166" lon="5.44189">
        <ele>398.2</ele>
        <time>2022-06-04T10:18:21Z</time>
      </trkpt>
      <trkpt lat="46.46163" lon="5.44179">
        <ele>398.8</ele>
        <time>2022-06-04T10:18:23Z</time>
      </trkpt>
      <trkpt lat="46.46158" lon="5.44164">
        <ele>399.2</ele>
        <time>2022-06-04T10:18:26Z</time>
      </trkpt>
      <trkpt lat="46.46148" lon="5.44137">
        <ele>400.2</ele>
        <time>2022-06-04T10:18:31Z</time>
      </trkpt>
      <trkpt lat="46.46146" lon="5.44126">
        <ele>400.4</ele>
        <time>2022-06-04T10:18:33Z</time>
      </trkpt>
      <trkpt lat="46.46141" lon="5.44103">
        <ele>401.2</ele>
        <time>2022-06-04T10:18:37Z</time>
      </trkpt>
      <trkpt lat="46.4614" lon="5.44097">
        <ele>401.6</ele>
        <time>2022-06-04T10:18:38Z</time>
      </trkpt>
      <trkpt lat="46.46136" lon="5.44074">
        <ele>402.6</ele>
        <time>2022-06-04T10:18:42Z</time>
      </trkpt>
      <trkpt lat="46.46135" lon="5.44063">
        <ele>403</ele>
        <time>2022-06-04T10:18:44Z</time>
      </trkpt>
      <trkpt lat="46.46133" lon="5.44057">
        <ele>403.4</ele>
        <time>2022-06-04T10:18:45Z</time>
      </trkpt>
      <trkpt lat="46.46128" lon="5.44034">
        <ele>404.4</ele>
        <time>2022-06-04T10:18:49Z</time>
      </trkpt>
      <trkpt lat="46.46127" lon="5.44028">
        <ele>404.6</ele>
        <time>2022-06-04T10:18:50Z</time>
      </trkpt>
      <trkpt lat="46.46127" lon="5.44022">
        <ele>405</ele>
        <time>2022-06-04T10:18:51Z</time>
      </trkpt>
      <trkpt lat="46.46127" lon="5.44009">
        <ele>405.2</ele>
        <time>2022-06-04T10:18:53Z</time>
      </trkpt>
      <trkpt lat="46.46128" lon="5.43998">
        <ele>405.4</ele>
        <time>2022-06-04T10:18:55Z</time>
      </trkpt>
      <trkpt lat="46.46129" lon="5.43992">
        <ele>405.6</ele>
        <time>2022-06-04T10:18:56Z</time>
      </trkpt>
      <trkpt lat="46.46129" lon="5.43992">
        <ele>405.8</ele>
        <time>2022-06-04T10:18:57Z</time>
      </trkpt>
      <trkpt lat="46.46136" lon="5.43959">
        <ele>406.6</ele>
        <time>2022-06-04T10:19:02Z</time>
      </trkpt>
      <trkpt lat="46.46138" lon="5.43948">
        <ele>407</ele>
        <time>2022-06-04T10:19:04Z</time>
      </trkpt>
      <trkpt lat="46.46144" lon="5.43926">
        <ele>407.8</ele>
        <time>2022-06-04T10:19:08Z</time>
      </trkpt>
      <trkpt lat="46.46152" lon="5.43899">
        <ele>409.2</ele>
        <time>2022-06-04T10:19:13Z</time>
      </trkpt>
      <trkpt lat="46.46155" lon="5.43888">
        <ele>409.6</ele>
        <time>2022-06-04T10:19:15Z</time>
      </trkpt>
      <trkpt lat="46.46159" lon="5.43871">
        <ele>410.2</ele>
        <time>2022-06-04T10:19:18Z</time>
      </trkpt>
      <trkpt lat="46.46165" lon="5.4385">
        <ele>411.4</ele>
        <time>2022-06-04T10:19:22Z</time>
      </trkpt>
      <trkpt lat="46.46168" lon="5.43839">
        <ele>411.6</ele>
        <time>2022-06-04T10:19:24Z</time>
      </trkpt>
      <trkpt lat="46.46174" lon="5.43819">
        <ele>412.4</ele>
        <time>2022-06-04T10:19:28Z</time>
      </trkpt>
      <trkpt lat="46.4618" lon="5.43799">
        <ele>413.2</ele>
        <time>2022-06-04T10:19:32Z</time>
      </trkpt>
      <trkpt lat="46.46181" lon="5.43793">
        <ele>413.4</ele>
        <time>2022-06-04T10:19:33Z</time>
      </trkpt>
      <trkpt lat="46.46188" lon="5.43767">
        <ele>414.4</ele>
        <time>2022-06-04T10:19:38Z</time>
      </trkpt>
      <trkpt lat="46.46189" lon="5.43762">
        <ele>414.6</ele>
        <time>2022-06-04T10:19:39Z</time>
      </trkpt>
      <trkpt lat="46.46191" lon="5.43733">
        <ele>415.6</ele>
        <time>2022-06-04T10:19:44Z</time>
      </trkpt>
      <trkpt lat="46.46191" lon="5.43721">
        <ele>416.2</ele>
        <time>2022-06-04T10:19:46Z</time>
      </trkpt>
      <trkpt lat="46.4619" lon="5.4371">
        <ele>416.8</ele>
        <time>2022-06-04T10:19:48Z</time>
      </trkpt>
      <trkpt lat="46.46187" lon="5.43686">
        <ele>417.4</ele>
        <time>2022-06-04T10:19:52Z</time>
      </trkpt>
      <trkpt lat="46.46184" lon="5.43673">
        <ele>417.6</ele>
        <time>2022-06-04T10:19:54Z</time>
      </trkpt>
      <trkpt lat="46.46181" lon="5.43662">
        <ele>418</ele>
        <time>2022-06-04T10:19:56Z</time>
      </trkpt>
      <trkpt lat="46.46172" lon="5.43639">
        <ele>418.6</ele>
        <time>2022-06-04T10:20:00Z</time>
      </trkpt>
      <trkpt lat="46.4616" lon="5.43617">
        <ele>419</ele>
        <time>2022-06-04T10:20:04Z</time>
      </trkpt>
      <trkpt lat="46.46156" lon="5.43612">
        <ele>419</ele>
        <time>2022-06-04T10:20:05Z</time>
      </trkpt>
      <trkpt lat="46.46151" lon="5.43606">
        <ele>419.2</ele>
        <time>2022-06-04T10:20:06Z</time>
      </trkpt>
      <trkpt lat="46.46137" lon="5.43591">
        <ele>419.4</ele>
        <time>2022-06-04T10:20:09Z</time>
      </trkpt>
      <trkpt lat="46.4612" lon="5.43579">
        <ele>419.4</ele>
        <time>2022-06-04T10:20:12Z</time>
      </trkpt>
      <trkpt lat="46.46114" lon="5.43576">
        <ele>419.4</ele>
        <time>2022-06-04T10:20:13Z</time>
      </trkpt>
      <trkpt lat="46.46092" lon="5.43569">
        <ele>419.2</ele>
        <time>2022-06-04T10:20:16Z</time>
      </trkpt>
      <trkpt lat="46.46049" lon="5.43565">
        <ele>418.4</ele>
        <time>2022-06-04T10:20:21Z</time>
      </trkpt>
      <trkpt lat="46.46022" lon="5.43561">
        <ele>417.8</ele>
        <time>2022-06-04T10:20:24Z</time>
      </trkpt>
      <trkpt lat="46.46003" lon="5.43553">
        <ele>417</ele>
        <time>2022-06-04T10:20:26Z</time>
      </trkpt>
      <trkpt lat="46.45994" lon="5.43548">
        <ele>416</ele>
        <time>2022-06-04T10:20:27Z</time>
      </trkpt>
      <trkpt lat="46.45976" lon="5.43536">
        <ele>414.8</ele>
        <time>2022-06-04T10:20:29Z</time>
      </trkpt>
      <trkpt lat="46.45958" lon="5.43523">
        <ele>413.6</ele>
        <time>2022-06-04T10:20:31Z</time>
      </trkpt>
      <trkpt lat="46.45941" lon="5.43509">
        <ele>412.6</ele>
        <time>2022-06-04T10:20:33Z</time>
      </trkpt>
      <trkpt lat="46.45914" lon="5.43488">
        <ele>411.4</ele>
        <time>2022-06-04T10:20:36Z</time>
      </trkpt>
      <trkpt lat="46.45878" lon="5.4346">
        <ele>410.6</ele>
        <time>2022-06-04T10:20:40Z</time>
      </trkpt>
      <trkpt lat="46.45869" lon="5.43453">
        <ele>410</ele>
        <time>2022-06-04T10:20:41Z</time>
      </trkpt>
      <trkpt lat="46.45851" lon="5.4344">
        <ele>409</ele>
        <time>2022-06-04T10:20:43Z</time>
      </trkpt>
      <trkpt lat="46.45825" lon="5.43418">
        <ele>407.8</ele>
        <time>2022-06-04T10:20:46Z</time>
      </trkpt>
      <trkpt lat="46.45797" lon="5.43397">
        <ele>406.4</ele>
        <time>2022-06-04T10:20:49Z</time>
      </trkpt>
      <trkpt lat="46.45787" lon="5.4339">
        <ele>406.2</ele>
        <time>2022-06-04T10:20:50Z</time>
      </trkpt>
      <trkpt lat="46.45769" lon="5.43374">
        <ele>405.4</ele>
        <time>2022-06-04T10:20:52Z</time>
      </trkpt>
      <trkpt lat="46.4575" lon="5.43355">
        <ele>404.4</ele>
        <time>2022-06-04T10:20:54Z</time>
      </trkpt>
      <trkpt lat="46.45741" lon="5.43345">
        <ele>403.8</ele>
        <time>2022-06-04T10:20:55Z</time>
      </trkpt>
      <trkpt lat="46.45725" lon="5.43324">
        <ele>403.2</ele>
        <time>2022-06-04T10:20:57Z</time>
      </trkpt>
      <trkpt lat="46.45711" lon="5.433">
        <ele>402</ele>
        <time>2022-06-04T10:20:59Z</time>
      </trkpt>
      <trkpt lat="46.45688" lon="5.4325">
        <ele>401</ele>
        <time>2022-06-04T10:21:03Z</time>
      </trkpt>
      <trkpt lat="46.45682" lon="5.43237">
        <ele>400.8</ele>
        <time>2022-06-04T10:21:04Z</time>
      </trkpt>
      <trkpt lat="46.45671" lon="5.43212">
        <ele>399.8</ele>
        <time>2022-06-04T10:21:06Z</time>
      </trkpt>
      <trkpt lat="46.4565" lon="5.43164">
        <ele>398.8</ele>
        <time>2022-06-04T10:21:10Z</time>
      </trkpt>
      <trkpt lat="46.45639" lon="5.4314">
        <ele>398.6</ele>
        <time>2022-06-04T10:21:12Z</time>
      </trkpt>
      <trkpt lat="46.45609" lon="5.43073">
        <ele>398.4</ele>
        <time>2022-06-04T10:21:18Z</time>
      </trkpt>
      <trkpt lat="46.45604" lon="5.43062">
        <ele>398.4</ele>
        <time>2022-06-04T10:21:19Z</time>
      </trkpt>
      <trkpt lat="46.4558" lon="5.43013">
        <ele>398.6</ele>
        <time>2022-06-04T10:21:24Z</time>
      </trkpt>
      <trkpt lat="46.45565" lon="5.42989">
        <ele>398.8</ele>
        <time>2022-06-04T10:21:27Z</time>
      </trkpt>
      <trkpt lat="46.45554" lon="5.42975">
        <ele>399</ele>
        <time>2022-06-04T10:21:29Z</time>
      </trkpt>
      <trkpt lat="46.45524" lon="5.42936">
        <ele>399.8</ele>
        <time>2022-06-04T10:21:35Z</time>
      </trkpt>
      <trkpt lat="46.4552" lon="5.42931">
        <ele>400</ele>
        <time>2022-06-04T10:21:36Z</time>
      </trkpt>
      <trkpt lat="46.45501" lon="5.42906">
        <ele>401</ele>
        <time>2022-06-04T10:21:40Z</time>
      </trkpt>
      <trkpt lat="46.45488" lon="5.42889">
        <ele>401.6</ele>
        <time>2022-06-04T10:21:43Z</time>
      </trkpt>
      <trkpt lat="46.45475" lon="5.42874">
        <ele>402.2</ele>
        <time>2022-06-04T10:21:46Z</time>
      </trkpt>
      <trkpt lat="46.45458" lon="5.42855">
        <ele>402.8</ele>
        <time>2022-06-04T10:21:50Z</time>
      </trkpt>
      <trkpt lat="46.45449" lon="5.42845">
        <ele>403.4</ele>
        <time>2022-06-04T10:21:52Z</time>
      </trkpt>
      <trkpt lat="46.45426" lon="5.42824">
        <ele>404.4</ele>
        <time>2022-06-04T10:21:57Z</time>
      </trkpt>
      <trkpt lat="46.45417" lon="5.42814">
        <ele>404.8</ele>
        <time>2022-06-04T10:21:59Z</time>
      </trkpt>
      <trkpt lat="46.45404" lon="5.42801">
        <ele>405.2</ele>
        <time>2022-06-04T10:22:02Z</time>
      </trkpt>
      <trkpt lat="46.45395" lon="5.42792">
        <ele>405.6</ele>
        <time>2022-06-04T10:22:04Z</time>
      </trkpt>
      <trkpt lat="46.45375" lon="5.42766">
        <ele>406.4</ele>
        <time>2022-06-04T10:22:09Z</time>
      </trkpt>
      <trkpt lat="46.45371" lon="5.42761">
        <ele>406.6</ele>
        <time>2022-06-04T10:22:10Z</time>
      </trkpt>
      <trkpt lat="46.45351" lon="5.42727">
        <ele>407.6</ele>
        <time>2022-06-04T10:22:16Z</time>
      </trkpt>
      <trkpt lat="46.45344" lon="5.42716">
        <ele>408.4</ele>
        <time>2022-06-04T10:22:18Z</time>
      </trkpt>
      <trkpt lat="46.45338" lon="5.42705">
        <ele>408.8</ele>
        <time>2022-06-04T10:22:20Z</time>
      </trkpt>
      <trkpt lat="46.45314" lon="5.4266">
        <ele>409.8</ele>
        <time>2022-06-04T10:22:28Z</time>
      </trkpt>
      <trkpt lat="46.45311" lon="5.42654">
        <ele>409.8</ele>
        <time>2022-06-04T10:22:29Z</time>
      </trkpt>
      <trkpt lat="46.45295" lon="5.42626">
        <ele>410.8</ele>
        <time>2022-06-04T10:22:34Z</time>
      </trkpt>
      <trkpt lat="46.4528" lon="5.42598">
        <ele>411.4</ele>
        <time>2022-06-04T10:22:39Z</time>
      </trkpt>
      <trkpt lat="46.45268" lon="5.42576">
        <ele>411.8</ele>
        <time>2022-06-04T10:22:43Z</time>
      </trkpt>
      <trkpt lat="46.45252" lon="5.42548">
        <ele>413</ele>
        <time>2022-06-04T10:22:48Z</time>
      </trkpt>
      <trkpt lat="46.45249" lon="5.42542">
        <ele>413.2</ele>
        <time>2022-06-04T10:22:49Z</time>
      </trkpt>
      <trkpt lat="46.45237" lon="5.42519">
        <ele>414</ele>
        <time>2022-06-04T10:22:53Z</time>
      </trkpt>
      <trkpt lat="46.45221" lon="5.42491">
        <ele>414.8</ele>
        <time>2022-06-04T10:22:58Z</time>
      </trkpt>
      <trkpt lat="46.45215" lon="5.4248">
        <ele>415.2</ele>
        <time>2022-06-04T10:23:00Z</time>
      </trkpt>
      <trkpt lat="46.45191" lon="5.42437">
        <ele>416.2</ele>
        <time>2022-06-04T10:23:07Z</time>
      </trkpt>
      <trkpt lat="46.45188" lon="5.42431">
        <ele>416.4</ele>
        <time>2022-06-04T10:23:08Z</time>
      </trkpt>
      <trkpt lat="46.45171" lon="5.42403">
        <ele>417.4</ele>
        <time>2022-06-04T10:23:13Z</time>
      </trkpt>
      <trkpt lat="46.45161" lon="5.42387">
        <ele>417.8</ele>
        <time>2022-06-04T10:23:16Z</time>
      </trkpt>
      <trkpt lat="46.45158" lon="5.42382">
        <ele>418</ele>
        <time>2022-06-04T10:23:17Z</time>
      </trkpt>
      <trkpt lat="46.45151" lon="5.42371">
        <ele>418.2</ele>
        <time>2022-06-04T10:23:19Z</time>
      </trkpt>
      <trkpt lat="46.45144" lon="5.42363">
        <ele>418.4</ele>
        <time>2022-06-04T10:23:21Z</time>
      </trkpt>
      <trkpt lat="46.45135" lon="5.42354">
        <ele>418.8</ele>
        <time>2022-06-04T10:23:23Z</time>
      </trkpt>
      <trkpt lat="46.45124" lon="5.42339">
        <ele>419.2</ele>
        <time>2022-06-04T10:23:26Z</time>
      </trkpt>
      <trkpt lat="46.45118" lon="5.42328">
        <ele>419.6</ele>
        <time>2022-06-04T10:23:28Z</time>
      </trkpt>
      <trkpt lat="46.45098" lon="5.42303">
        <ele>420.6</ele>
        <time>2022-06-04T10:23:33Z</time>
      </trkpt>
      <trkpt lat="46.45095" lon="5.42298">
        <ele>420.8</ele>
        <time>2022-06-04T10:23:34Z</time>
      </trkpt>
      <trkpt lat="46.45091" lon="5.42293">
        <ele>421.2</ele>
        <time>2022-06-04T10:23:35Z</time>
      </trkpt>
      <trkpt lat="46.45086" lon="5.42279">
        <ele>421.6</ele>
        <time>2022-06-04T10:23:37Z</time>
      </trkpt>
      <trkpt lat="46.45085" lon="5.42272">
        <ele>421.8</ele>
        <time>2022-06-04T10:23:38Z</time>
      </trkpt>
      <trkpt lat="46.45084" lon="5.42265">
        <ele>422</ele>
        <time>2022-06-04T10:23:39Z</time>
      </trkpt>
      <trkpt lat="46.45081" lon="5.42236">
        <ele>422.8</ele>
        <time>2022-06-04T10:23:43Z</time>
      </trkpt>
      <trkpt lat="46.4508" lon="5.42229">
        <ele>423</ele>
        <time>2022-06-04T10:23:44Z</time>
      </trkpt>
      <trkpt lat="46.45074" lon="5.42189">
        <ele>424.2</ele>
        <time>2022-06-04T10:23:50Z</time>
      </trkpt>
      <trkpt lat="46.45073" lon="5.42182">
        <ele>424.4</ele>
        <time>2022-06-04T10:23:51Z</time>
      </trkpt>
      <trkpt lat="46.45062" lon="5.42147">
        <ele>425.4</ele>
        <time>2022-06-04T10:23:56Z</time>
      </trkpt>
      <trkpt lat="46.45054" lon="5.42125">
        <ele>425.8</ele>
        <time>2022-06-04T10:23:59Z</time>
      </trkpt>
      <trkpt lat="46.45032" lon="5.42074">
        <ele>426.4</ele>
        <time>2022-06-04T10:24:06Z</time>
      </trkpt>
      <trkpt lat="46.45007" lon="5.42032">
        <ele>426.4</ele>
        <time>2022-06-04T10:24:13Z</time>
      </trkpt>
      <trkpt lat="46.44992" lon="5.42007">
        <ele>427</ele>
        <time>2022-06-04T10:24:17Z</time>
      </trkpt>
      <trkpt lat="46.44977" lon="5.41983">
        <ele>427.6</ele>
        <time>2022-06-04T10:24:21Z</time>
      </trkpt>
      <trkpt lat="46.44961" lon="5.41952">
        <ele>428.8</ele>
        <time>2022-06-04T10:24:26Z</time>
      </trkpt>
      <trkpt lat="46.44958" lon="5.41938">
        <ele>429.2</ele>
        <time>2022-06-04T10:24:28Z</time>
      </trkpt>
      <trkpt lat="46.44957" lon="5.41923">
        <ele>429.4</ele>
        <time>2022-06-04T10:24:30Z</time>
      </trkpt>
      <trkpt lat="46.44957" lon="5.41915">
        <ele>430</ele>
        <time>2022-06-04T10:24:31Z</time>
      </trkpt>
      <trkpt lat="46.4496" lon="5.41893">
        <ele>430.4</ele>
        <time>2022-06-04T10:24:34Z</time>
      </trkpt>
      <trkpt lat="46.44963" lon="5.41883">
        <ele>430.8</ele>
        <time>2022-06-04T10:24:35Z</time>
      </trkpt>
      <trkpt lat="46.44968" lon="5.41868">
        <ele>431</ele>
        <time>2022-06-04T10:24:37Z</time>
      </trkpt>
      <trkpt lat="46.4498" lon="5.41839">
        <ele>431.4</ele>
        <time>2022-06-04T10:24:41Z</time>
      </trkpt>
      <trkpt lat="46.44987" lon="5.41828">
        <ele>431.6</ele>
        <time>2022-06-04T10:24:43Z</time>
      </trkpt>
      <trkpt lat="46.44992" lon="5.41822">
        <ele>432.2</ele>
        <time>2022-06-04T10:24:44Z</time>
      </trkpt>
      <trkpt lat="46.44996" lon="5.41816">
        <ele>432.6</ele>
        <time>2022-06-04T10:24:45Z</time>
      </trkpt>
      <trkpt lat="46.45001" lon="5.41812">
        <ele>432.8</ele>
        <time>2022-06-04T10:24:46Z</time>
      </trkpt>
      <trkpt lat="46.45012" lon="5.41805">
        <ele>433.4</ele>
        <time>2022-06-04T10:24:48Z</time>
      </trkpt>
      <trkpt lat="46.45024" lon="5.41803">
        <ele>433.6</ele>
        <time>2022-06-04T10:24:50Z</time>
      </trkpt>
      <trkpt lat="46.45036" lon="5.41804">
        <ele>433.6</ele>
        <time>2022-06-04T10:24:52Z</time>
      </trkpt>
      <trkpt lat="46.4506" lon="5.41811">
        <ele>433.8</ele>
        <time>2022-06-04T10:24:56Z</time>
      </trkpt>
      <trkpt lat="46.45097" lon="5.41814">
        <ele>434.2</ele>
        <time>2022-06-04T10:25:01Z</time>
      </trkpt>
      <trkpt lat="46.45134" lon="5.41806">
        <ele>433.6</ele>
        <time>2022-06-04T10:25:06Z</time>
      </trkpt>
      <trkpt lat="46.45148" lon="5.41799">
        <ele>433.6</ele>
        <time>2022-06-04T10:25:08Z</time>
      </trkpt>
      <trkpt lat="46.45167" lon="5.41784">
        <ele>433.4</ele>
        <time>2022-06-04T10:25:11Z</time>
      </trkpt>
      <trkpt lat="46.45173" lon="5.41778">
        <ele>433.2</ele>
        <time>2022-06-04T10:25:12Z</time>
      </trkpt>
      <trkpt lat="46.45187" lon="5.41756">
        <ele>433.2</ele>
        <time>2022-06-04T10:25:15Z</time>
      </trkpt>
      <trkpt lat="46.45197" lon="5.41739">
        <ele>433.4</ele>
        <time>2022-06-04T10:25:17Z</time>
      </trkpt>
      <trkpt lat="46.45211" lon="5.41704">
        <ele>434</ele>
        <time>2022-06-04T10:25:21Z</time>
      </trkpt>
      <trkpt lat="46.4523" lon="5.41636">
        <ele>434</ele>
        <time>2022-06-04T10:25:29Z</time>
      </trkpt>
      <trkpt lat="46.45232" lon="5.41628">
        <ele>434.2</ele>
        <time>2022-06-04T10:25:30Z</time>
      </trkpt>
      <trkpt lat="46.45242" lon="5.41581">
        <ele>435.2</ele>
        <time>2022-06-04T10:25:36Z</time>
      </trkpt>
      <trkpt lat="46.45245" lon="5.41573">
        <ele>435.4</ele>
        <time>2022-06-04T10:25:37Z</time>
      </trkpt>
      <trkpt lat="46.45257" lon="5.41552">
        <ele>436</ele>
        <time>2022-06-04T10:25:40Z</time>
      </trkpt>
      <trkpt lat="46.45261" lon="5.41547">
        <ele>436.2</ele>
        <time>2022-06-04T10:25:41Z</time>
      </trkpt>
      <trkpt lat="46.45266" lon="5.41541">
        <ele>436.4</ele>
        <time>2022-06-04T10:25:42Z</time>
      </trkpt>
      <trkpt lat="46.45272" lon="5.41537">
        <ele>436.6</ele>
        <time>2022-06-04T10:25:43Z</time>
      </trkpt>
      <trkpt lat="46.45283" lon="5.4153">
        <ele>436.8</ele>
        <time>2022-06-04T10:25:45Z</time>
      </trkpt>
      <trkpt lat="46.45295" lon="5.41528">
        <ele>437</ele>
        <time>2022-06-04T10:25:47Z</time>
      </trkpt>
      <trkpt lat="46.45306" lon="5.41529">
        <ele>437.2</ele>
        <time>2022-06-04T10:25:49Z</time>
      </trkpt>
      <trkpt lat="46.45317" lon="5.41531">
        <ele>437.4</ele>
        <time>2022-06-04T10:25:51Z</time>
      </trkpt>
      <trkpt lat="46.45329" lon="5.41534">
        <ele>438.2</ele>
        <time>2022-06-04T10:25:53Z</time>
      </trkpt>
      <trkpt lat="46.4534" lon="5.41537">
        <ele>438.4</ele>
        <time>2022-06-04T10:25:55Z</time>
      </trkpt>
      <trkpt lat="46.45361" lon="5.41539">
        <ele>439</ele>
        <time>2022-06-04T10:25:59Z</time>
      </trkpt>
      <trkpt lat="46.45378" lon="5.41538">
        <ele>439.6</ele>
        <time>2022-06-04T10:26:02Z</time>
      </trkpt>
      <trkpt lat="46.454" lon="5.41533">
        <ele>440.2</ele>
        <time>2022-06-04T10:26:06Z</time>
      </trkpt>
      <trkpt lat="46.45416" lon="5.41527">
        <ele>440.6</ele>
        <time>2022-06-04T10:26:09Z</time>
      </trkpt>
      <trkpt lat="46.45463" lon="5.41508">
        <ele>441.8</ele>
        <time>2022-06-04T10:26:18Z</time>
      </trkpt>
      <trkpt lat="46.45479" lon="5.41501">
        <ele>442.8</ele>
        <time>2022-06-04T10:26:21Z</time>
      </trkpt>
      <trkpt lat="46.45506" lon="5.41488">
        <ele>443.6</ele>
        <time>2022-06-04T10:26:26Z</time>
      </trkpt>
      <trkpt lat="46.45512" lon="5.41485">
        <ele>444</ele>
        <time>2022-06-04T10:26:27Z</time>
      </trkpt>
      <trkpt lat="46.45523" lon="5.41479">
        <ele>444</ele>
        <time>2022-06-04T10:26:29Z</time>
      </trkpt>
      <trkpt lat="46.45552" lon="5.41464">
        <ele>444.4</ele>
        <time>2022-06-04T10:26:34Z</time>
      </trkpt>
      <trkpt lat="46.45575" lon="5.41446">
        <ele>444.6</ele>
        <time>2022-06-04T10:26:38Z</time>
      </trkpt>
      <trkpt lat="46.45585" lon="5.41435">
        <ele>444.6</ele>
        <time>2022-06-04T10:26:40Z</time>
      </trkpt>
      <trkpt lat="46.45611" lon="5.41393">
        <ele>444.6</ele>
        <time>2022-06-04T10:26:46Z</time>
      </trkpt>
      <trkpt lat="46.45621" lon="5.41371">
        <ele>445</ele>
        <time>2022-06-04T10:26:49Z</time>
      </trkpt>
      <trkpt lat="46.45628" lon="5.41356">
        <ele>445.2</ele>
        <time>2022-06-04T10:26:51Z</time>
      </trkpt>
      <trkpt lat="46.45632" lon="5.41349">
        <ele>445.2</ele>
        <time>2022-06-04T10:26:52Z</time>
      </trkpt>
      <trkpt lat="46.45647" lon="5.41322">
        <ele>446.2</ele>
        <time>2022-06-04T10:26:56Z</time>
      </trkpt>
      <trkpt lat="46.45657" lon="5.41309">
        <ele>446.4</ele>
        <time>2022-06-04T10:26:58Z</time>
      </trkpt>
      <trkpt lat="46.45694" lon="5.41261">
        <ele>446.6</ele>
        <time>2022-06-04T10:27:05Z</time>
      </trkpt>
      <trkpt lat="46.45727" lon="5.41223">
        <ele>445.8</ele>
        <time>2022-06-04T10:27:11Z</time>
      </trkpt>
      <trkpt lat="46.45738" lon="5.4121">
        <ele>445.8</ele>
        <time>2022-06-04T10:27:13Z</time>
      </trkpt>
      <trkpt lat="46.45756" lon="5.41182">
        <ele>445.8</ele>
        <time>2022-06-04T10:27:17Z</time>
      </trkpt>
      <trkpt lat="46.4576" lon="5.41173">
        <ele>445.8</ele>
        <time>2022-06-04T10:27:18Z</time>
      </trkpt>
      <trkpt lat="46.45771" lon="5.41139">
        <ele>445.8</ele>
        <time>2022-06-04T10:27:22Z</time>
      </trkpt>
      <trkpt lat="46.45774" lon="5.41121">
        <ele>445.8</ele>
        <time>2022-06-04T10:27:24Z</time>
      </trkpt>
      <trkpt lat="46.45792" lon="5.41053">
        <ele>446.6</ele>
        <time>2022-06-04T10:27:32Z</time>
      </trkpt>
      <trkpt lat="46.45805" lon="5.41011">
        <ele>447.2</ele>
        <time>2022-06-04T10:27:37Z</time>
      </trkpt>
      <trkpt lat="46.45814" lon="5.40977">
        <ele>447.4</ele>
        <time>2022-06-04T10:27:41Z</time>
      </trkpt>
      <trkpt lat="46.4582" lon="5.40951">
        <ele>448.4</ele>
        <time>2022-06-04T10:27:44Z</time>
      </trkpt>
      <trkpt lat="46.45828" lon="5.40916">
        <ele>448.8</ele>
        <time>2022-06-04T10:27:48Z</time>
      </trkpt>
      <trkpt lat="46.45831" lon="5.40898">
        <ele>449</ele>
        <time>2022-06-04T10:27:50Z</time>
      </trkpt>
      <trkpt lat="46.45842" lon="5.40833">
        <ele>449</ele>
        <time>2022-06-04T10:27:57Z</time>
      </trkpt>
      <trkpt lat="46.45849" lon="5.40755">
        <ele>448.6</ele>
        <time>2022-06-04T10:28:05Z</time>
      </trkpt>
      <trkpt lat="46.4585" lon="5.40745">
        <ele>448.4</ele>
        <time>2022-06-04T10:28:06Z</time>
      </trkpt>
      <trkpt lat="46.45859" lon="5.40701">
        <ele>448.6</ele>
        <time>2022-06-04T10:28:11Z</time>
      </trkpt>
      <trkpt lat="46.45862" lon="5.40694">
        <ele>448.8</ele>
        <time>2022-06-04T10:28:12Z</time>
      </trkpt>
      <trkpt lat="46.45869" lon="5.40674">
        <ele>449.4</ele>
        <time>2022-06-04T10:28:15Z</time>
      </trkpt>
      <trkpt lat="46.45876" lon="5.40657">
        <ele>450</ele>
        <time>2022-06-04T10:28:18Z</time>
      </trkpt>
      <trkpt lat="46.45878" lon="5.40651">
        <ele>450.6</ele>
        <time>2022-06-04T10:28:19Z</time>
      </trkpt>
      <trkpt lat="46.45884" lon="5.40636">
        <ele>451.6</ele>
        <time>2022-06-04T10:28:22Z</time>
      </trkpt>
      <trkpt lat="46.45891" lon="5.40621">
        <ele>452.8</ele>
        <time>2022-06-04T10:28:25Z</time>
      </trkpt>
      <trkpt lat="46.45897" lon="5.40608">
        <ele>453.8</ele>
        <time>2022-06-04T10:28:28Z</time>
      </trkpt>
      <trkpt lat="46.45902" lon="5.40594">
        <ele>454.8</ele>
        <time>2022-06-04T10:28:31Z</time>
      </trkpt>
      <trkpt lat="46.45905" lon="5.4059">
        <ele>454.8</ele>
        <time>2022-06-04T10:28:32Z</time>
      </trkpt>
      <trkpt lat="46.45911" lon="5.40577">
        <ele>456</ele>
        <time>2022-06-04T10:28:35Z</time>
      </trkpt>
      <trkpt lat="46.45917" lon="5.40563">
        <ele>457</ele>
        <time>2022-06-04T10:28:38Z</time>
      </trkpt>
      <trkpt lat="46.45919" lon="5.40559">
        <ele>457.2</ele>
        <time>2022-06-04T10:28:39Z</time>
      </trkpt>
      <trkpt lat="46.45924" lon="5.40551">
        <ele>458.2</ele>
        <time>2022-06-04T10:28:41Z</time>
      </trkpt>
      <trkpt lat="46.45931" lon="5.40537">
        <ele>459</ele>
        <time>2022-06-04T10:28:44Z</time>
      </trkpt>
      <trkpt lat="46.45933" lon="5.40533">
        <ele>459.2</ele>
        <time>2022-06-04T10:28:45Z</time>
      </trkpt>
      <trkpt lat="46.45945" lon="5.40516">
        <ele>460.4</ele>
        <time>2022-06-04T10:28:50Z</time>
      </trkpt>
      <trkpt lat="46.45952" lon="5.40507">
        <ele>461.6</ele>
        <time>2022-06-04T10:28:53Z</time>
      </trkpt>
      <trkpt lat="46.45961" lon="5.40492">
        <ele>462.8</ele>
        <time>2022-06-04T10:28:57Z</time>
      </trkpt>
      <trkpt lat="46.45964" lon="5.40488">
        <ele>463</ele>
        <time>2022-06-04T10:28:58Z</time>
      </trkpt>
      <trkpt lat="46.45974" lon="5.40473">
        <ele>464</ele>
        <time>2022-06-04T10:29:02Z</time>
      </trkpt>
      <trkpt lat="46.45984" lon="5.40451">
        <ele>464.8</ele>
        <time>2022-06-04T10:29:07Z</time>
      </trkpt>
      <trkpt lat="46.45986" lon="5.40447">
        <ele>465.2</ele>
        <time>2022-06-04T10:29:08Z</time>
      </trkpt>
      <trkpt lat="46.45996" lon="5.40426">
        <ele>466.6</ele>
        <time>2022-06-04T10:29:13Z</time>
      </trkpt>
      <trkpt lat="46.46002" lon="5.40413">
        <ele>467.4</ele>
        <time>2022-06-04T10:29:16Z</time>
      </trkpt>
      <trkpt lat="46.46006" lon="5.40405">
        <ele>467.8</ele>
        <time>2022-06-04T10:29:18Z</time>
      </trkpt>
      <trkpt lat="46.46014" lon="5.4039">
        <ele>468.8</ele>
        <time>2022-06-04T10:29:22Z</time>
      </trkpt>
      <trkpt lat="46.46016" lon="5.40386">
        <ele>469</ele>
        <time>2022-06-04T10:29:23Z</time>
      </trkpt>
      <trkpt lat="46.46023" lon="5.4037">
        <ele>470</ele>
        <time>2022-06-04T10:29:27Z</time>
      </trkpt>
      <trkpt lat="46.46025" lon="5.40365">
        <ele>470.2</ele>
        <time>2022-06-04T10:29:28Z</time>
      </trkpt>
      <trkpt lat="46.46036" lon="5.40349">
        <ele>471</ele>
        <time>2022-06-04T10:29:32Z</time>
      </trkpt>
      <trkpt lat="46.46038" lon="5.40346">
        <ele>471.4</ele>
        <time>2022-06-04T10:29:33Z</time>
      </trkpt>
      <trkpt lat="46.46046" lon="5.40336">
        <ele>472.2</ele>
        <time>2022-06-04T10:29:36Z</time>
      </trkpt>
      <trkpt lat="46.46056" lon="5.40329">
        <ele>472.8</ele>
        <time>2022-06-04T10:29:39Z</time>
      </trkpt>
      <trkpt lat="46.46063" lon="5.40326">
        <ele>473.2</ele>
        <time>2022-06-04T10:29:41Z</time>
      </trkpt>
      <trkpt lat="46.46082" lon="5.40317">
        <ele>474.2</ele>
        <time>2022-06-04T10:29:46Z</time>
      </trkpt>
      <trkpt lat="46.46085" lon="5.40316">
        <ele>474.6</ele>
        <time>2022-06-04T10:29:47Z</time>
      </trkpt>
      <trkpt lat="46.46096" lon="5.40311">
        <ele>475.4</ele>
        <time>2022-06-04T10:29:50Z</time>
      </trkpt>
      <trkpt lat="46.46113" lon="5.40303">
        <ele>476.6</ele>
        <time>2022-06-04T10:29:55Z</time>
      </trkpt>
      <trkpt lat="46.46116" lon="5.40302">
        <ele>476.6</ele>
        <time>2022-06-04T10:29:56Z</time>
      </trkpt>
      <trkpt lat="46.46127" lon="5.40293">
        <ele>477.8</ele>
        <time>2022-06-04T10:29:59Z</time>
      </trkpt>
      <trkpt lat="46.46136" lon="5.40281">
        <ele>478.4</ele>
        <time>2022-06-04T10:30:02Z</time>
      </trkpt>
      <trkpt lat="46.46144" lon="5.40268">
        <ele>478.8</ele>
        <time>2022-06-04T10:30:05Z</time>
      </trkpt>
      <trkpt lat="46.4615" lon="5.40256">
        <ele>479</ele>
        <time>2022-06-04T10:30:07Z</time>
      </trkpt>
      <trkpt lat="46.46152" lon="5.40251">
        <ele>479</ele>
        <time>2022-06-04T10:30:08Z</time>
      </trkpt>
      <trkpt lat="46.46163" lon="5.40231">
        <ele>479.6</ele>
        <time>2022-06-04T10:30:12Z</time>
      </trkpt>
      <trkpt lat="46.46173" lon="5.40205">
        <ele>480.2</ele>
        <time>2022-06-04T10:30:17Z</time>
      </trkpt>
      <trkpt lat="46.46178" lon="5.40196">
        <ele>480.8</ele>
        <time>2022-06-04T10:30:19Z</time>
      </trkpt>
      <trkpt lat="46.46192" lon="5.40167">
        <ele>481.8</ele>
        <time>2022-06-04T10:30:25Z</time>
      </trkpt>
      <trkpt lat="46.46195" lon="5.40162">
        <ele>482</ele>
        <time>2022-06-04T10:30:26Z</time>
      </trkpt>
      <trkpt lat="46.46212" lon="5.40137">
        <ele>483</ele>
        <time>2022-06-04T10:30:31Z</time>
      </trkpt>
      <trkpt lat="46.46216" lon="5.40131">
        <ele>483.2</ele>
        <time>2022-06-04T10:30:32Z</time>
      </trkpt>
      <trkpt lat="46.46238" lon="5.40106">
        <ele>483.4</ele>
        <time>2022-06-04T10:30:37Z</time>
      </trkpt>
      <trkpt lat="46.46242" lon="5.40102">
        <ele>483.4</ele>
        <time>2022-06-04T10:30:38Z</time>
      </trkpt>
      <trkpt lat="46.46252" lon="5.40095">
        <ele>483.4</ele>
        <time>2022-06-04T10:30:40Z</time>
      </trkpt>
      <trkpt lat="46.46258" lon="5.40093">
        <ele>483.4</ele>
        <time>2022-06-04T10:30:41Z</time>
      </trkpt>
      <trkpt lat="46.46268" lon="5.4009">
        <ele>483.4</ele>
        <time>2022-06-04T10:30:43Z</time>
      </trkpt>
      <trkpt lat="46.46292" lon="5.4009">
        <ele>483.8</ele>
        <time>2022-06-04T10:30:48Z</time>
      </trkpt>
      <trkpt lat="46.46302" lon="5.40091">
        <ele>484.2</ele>
        <time>2022-06-04T10:30:50Z</time>
      </trkpt>
      <trkpt lat="46.46311" lon="5.40093">
        <ele>485.2</ele>
        <time>2022-06-04T10:30:52Z</time>
      </trkpt>
      <trkpt lat="46.46325" lon="5.40095">
        <ele>486.4</ele>
        <time>2022-06-04T10:30:55Z</time>
      </trkpt>
      <trkpt lat="46.46341" lon="5.40094">
        <ele>487.4</ele>
        <time>2022-06-04T10:30:58Z</time>
      </trkpt>
      <trkpt lat="46.46346" lon="5.40093">
        <ele>487.8</ele>
        <time>2022-06-04T10:30:59Z</time>
      </trkpt>
      <trkpt lat="46.46383" lon="5.40087">
        <ele>488.6</ele>
        <time>2022-06-04T10:31:06Z</time>
      </trkpt>
      <trkpt lat="46.46393" lon="5.40086">
        <ele>488.8</ele>
        <time>2022-06-04T10:31:08Z</time>
      </trkpt>
      <trkpt lat="46.46426" lon="5.40079">
        <ele>489.6</ele>
        <time>2022-06-04T10:31:15Z</time>
      </trkpt>
      <trkpt lat="46.4644" lon="5.40077">
        <ele>490</ele>
        <time>2022-06-04T10:31:18Z</time>
      </trkpt>
      <trkpt lat="46.4645" lon="5.40075">
        <ele>490.8</ele>
        <time>2022-06-04T10:31:20Z</time>
      </trkpt>
      <trkpt lat="46.4648" lon="5.40071">
        <ele>492</ele>
        <time>2022-06-04T10:31:26Z</time>
      </trkpt>
      <trkpt lat="46.46485" lon="5.40071">
        <ele>492</ele>
        <time>2022-06-04T10:31:27Z</time>
      </trkpt>
      <trkpt lat="46.46516" lon="5.40077">
        <ele>492.8</ele>
        <time>2022-06-04T10:31:33Z</time>
      </trkpt>
      <trkpt lat="46.46521" lon="5.40079">
        <ele>493</ele>
        <time>2022-06-04T10:31:34Z</time>
      </trkpt>
      <trkpt lat="46.46546" lon="5.40091">
        <ele>493.8</ele>
        <time>2022-06-04T10:31:39Z</time>
      </trkpt>
      <trkpt lat="46.46551" lon="5.40094">
        <ele>493.8</ele>
        <time>2022-06-04T10:31:40Z</time>
      </trkpt>
      <trkpt lat="46.46555" lon="5.40097">
        <ele>494</ele>
        <time>2022-06-04T10:31:41Z</time>
      </trkpt>
      <trkpt lat="46.46597" lon="5.40119">
        <ele>495.2</ele>
        <time>2022-06-04T10:31:50Z</time>
      </trkpt>
      <trkpt lat="46.46615" lon="5.40128">
        <ele>496.2</ele>
        <time>2022-06-04T10:31:54Z</time>
      </trkpt>
      <trkpt lat="46.46629" lon="5.40136">
        <ele>497.6</ele>
        <time>2022-06-04T10:31:57Z</time>
      </trkpt>
      <trkpt lat="46.46646" lon="5.40145">
        <ele>498.4</ele>
        <time>2022-06-04T10:32:01Z</time>
      </trkpt>
      <trkpt lat="46.46667" lon="5.40156">
        <ele>499.6</ele>
        <time>2022-06-04T10:32:06Z</time>
      </trkpt>
      <trkpt lat="46.46685" lon="5.40166">
        <ele>500.6</ele>
        <time>2022-06-04T10:32:10Z</time>
      </trkpt>
      <trkpt lat="46.46706" lon="5.40176">
        <ele>501.8</ele>
        <time>2022-06-04T10:32:15Z</time>
      </trkpt>
      <trkpt lat="46.46719" lon="5.40183">
        <ele>502.8</ele>
        <time>2022-06-04T10:32:18Z</time>
      </trkpt>
      <trkpt lat="46.46739" lon="5.40192">
        <ele>503.8</ele>
        <time>2022-06-04T10:32:23Z</time>
      </trkpt>
      <trkpt lat="46.46754" lon="5.40198">
        <ele>505</ele>
        <time>2022-06-04T10:32:27Z</time>
      </trkpt>
      <trkpt lat="46.46764" lon="5.40204">
        <ele>505.8</ele>
        <time>2022-06-04T10:32:30Z</time>
      </trkpt>
      <trkpt lat="46.46768" lon="5.40206">
        <ele>506</ele>
        <time>2022-06-04T10:32:31Z</time>
      </trkpt>
      <trkpt lat="46.46787" lon="5.40216">
        <ele>507.2</ele>
        <time>2022-06-04T10:32:36Z</time>
      </trkpt>
      <trkpt lat="46.46802" lon="5.40224">
        <ele>508</ele>
        <time>2022-06-04T10:32:40Z</time>
      </trkpt>
      <trkpt lat="46.46806" lon="5.40226">
        <ele>508.4</ele>
        <time>2022-06-04T10:32:41Z</time>
      </trkpt>
      <trkpt lat="46.46829" lon="5.40238">
        <ele>509.6</ele>
        <time>2022-06-04T10:32:47Z</time>
      </trkpt>
      <trkpt lat="46.46841" lon="5.40243">
        <ele>510.4</ele>
        <time>2022-06-04T10:32:50Z</time>
      </trkpt>
      <trkpt lat="46.4686" lon="5.40253">
        <ele>510.8</ele>
        <time>2022-06-04T10:32:55Z</time>
      </trkpt>
      <trkpt lat="46.46867" lon="5.40256">
        <ele>511</ele>
        <time>2022-06-04T10:32:57Z</time>
      </trkpt>
      <trkpt lat="46.46879" lon="5.40262">
        <ele>512</ele>
        <time>2022-06-04T10:33:00Z</time>
      </trkpt>
      <trkpt lat="46.46897" lon="5.40272">
        <ele>512.8</ele>
        <time>2022-06-04T10:33:04Z</time>
      </trkpt>
      <trkpt lat="46.46912" lon="5.40279">
        <ele>513</ele>
        <time>2022-06-04T10:33:07Z</time>
      </trkpt>
      <trkpt lat="46.46926" lon="5.40287">
        <ele>513.4</ele>
        <time>2022-06-04T10:33:10Z</time>
      </trkpt>
      <trkpt lat="46.46936" lon="5.40292">
        <ele>513.8</ele>
        <time>2022-06-04T10:33:12Z</time>
      </trkpt>
      <trkpt lat="46.46949" lon="5.403">
        <ele>514.2</ele>
        <time>2022-06-04T10:33:15Z</time>
      </trkpt>
      <trkpt lat="46.46955" lon="5.40303">
        <ele>514.2</ele>
        <time>2022-06-04T10:33:16Z</time>
      </trkpt>
      <trkpt lat="46.46974" lon="5.40311">
        <ele>515.4</ele>
        <time>2022-06-04T10:33:20Z</time>
      </trkpt>
      <trkpt lat="46.4698" lon="5.40313">
        <ele>515.6</ele>
        <time>2022-06-04T10:33:21Z</time>
      </trkpt>
      <trkpt lat="46.47003" lon="5.40321">
        <ele>516.4</ele>
        <time>2022-06-04T10:33:25Z</time>
      </trkpt>
      <trkpt lat="46.47019" lon="5.40325">
        <ele>517</ele>
        <time>2022-06-04T10:33:28Z</time>
      </trkpt>
      <trkpt lat="46.47056" lon="5.40326">
        <ele>517.4</ele>
        <time>2022-06-04T10:33:34Z</time>
      </trkpt>
      <trkpt lat="46.47064" lon="5.40326">
        <ele>517.4</ele>
        <time>2022-06-04T10:33:35Z</time>
      </trkpt>
      <trkpt lat="46.47091" lon="5.40328">
        <ele>517</ele>
        <time>2022-06-04T10:33:38Z</time>
      </trkpt>
      <trkpt lat="46.47112" lon="5.4033">
        <ele>516.2</ele>
        <time>2022-06-04T10:33:40Z</time>
      </trkpt>
      <trkpt lat="46.47131" lon="5.40333">
        <ele>515.2</ele>
        <time>2022-06-04T10:33:42Z</time>
      </trkpt>
      <trkpt lat="46.47145" lon="5.40336">
        <ele>515</ele>
        <time>2022-06-04T10:33:43Z</time>
      </trkpt>
      <trkpt lat="46.47166" lon="5.40342">
        <ele>514</ele>
        <time>2022-06-04T10:33:45Z</time>
      </trkpt>
      <trkpt lat="46.47186" lon="5.40349">
        <ele>513.4</ele>
        <time>2022-06-04T10:33:47Z</time>
      </trkpt>
      <trkpt lat="46.47199" lon="5.40356">
        <ele>513.4</ele>
        <time>2022-06-04T10:33:48Z</time>
      </trkpt>
      <trkpt lat="46.47209" lon="5.40364">
        <ele>513</ele>
        <time>2022-06-04T10:33:49Z</time>
      </trkpt>
      <trkpt lat="46.47228" lon="5.40385">
        <ele>511.8</ele>
        <time>2022-06-04T10:33:51Z</time>
      </trkpt>
      <trkpt lat="46.47256" lon="5.40416">
        <ele>510.4</ele>
        <time>2022-06-04T10:33:54Z</time>
      </trkpt>
      <trkpt lat="46.47267" lon="5.40424">
        <ele>509.8</ele>
        <time>2022-06-04T10:33:55Z</time>
      </trkpt>
      <trkpt lat="46.47279" lon="5.4043">
        <ele>508.8</ele>
        <time>2022-06-04T10:33:56Z</time>
      </trkpt>
      <trkpt lat="46.47314" lon="5.40443">
        <ele>507.6</ele>
        <time>2022-06-04T10:33:59Z</time>
      </trkpt>
      <trkpt lat="46.47326" lon="5.40446">
        <ele>506.8</ele>
        <time>2022-06-04T10:34:00Z</time>
      </trkpt>
      <trkpt lat="46.47337" lon="5.40447">
        <ele>505.6</ele>
        <time>2022-06-04T10:34:01Z</time>
      </trkpt>
      <trkpt lat="46.4736" lon="5.40449">
        <ele>504.4</ele>
        <time>2022-06-04T10:34:03Z</time>
      </trkpt>
      <trkpt lat="46.47394" lon="5.4045">
        <ele>503.2</ele>
        <time>2022-06-04T10:34:06Z</time>
      </trkpt>
      <trkpt lat="46.47417" lon="5.40447">
        <ele>502.2</ele>
        <time>2022-06-04T10:34:08Z</time>
      </trkpt>
      <trkpt lat="46.47463" lon="5.40445">
        <ele>501</ele>
        <time>2022-06-04T10:34:12Z</time>
      </trkpt>
      <trkpt lat="46.47473" lon="5.40447">
        <ele>500.8</ele>
        <time>2022-06-04T10:34:13Z</time>
      </trkpt>
      <trkpt lat="46.47484" lon="5.40449">
        <ele>499.8</ele>
        <time>2022-06-04T10:34:14Z</time>
      </trkpt>
      <trkpt lat="46.47504" lon="5.40457">
        <ele>498.6</ele>
        <time>2022-06-04T10:34:16Z</time>
      </trkpt>
      <trkpt lat="46.47514" lon="5.40463">
        <ele>497.4</ele>
        <time>2022-06-04T10:34:17Z</time>
      </trkpt>
      <trkpt lat="46.47522" lon="5.40471">
        <ele>497.2</ele>
        <time>2022-06-04T10:34:18Z</time>
      </trkpt>
      <trkpt lat="46.47538" lon="5.4048">
        <ele>496.4</ele>
        <time>2022-06-04T10:34:20Z</time>
      </trkpt>
      <trkpt lat="46.47552" lon="5.4048">
        <ele>495</ele>
        <time>2022-06-04T10:34:22Z</time>
      </trkpt>
      <trkpt lat="46.47553" lon="5.4047">
        <ele>494</ele>
        <time>2022-06-04T10:34:23Z</time>
      </trkpt>
      <trkpt lat="46.47554" lon="5.40459">
        <ele>492.4</ele>
        <time>2022-06-04T10:34:24Z</time>
      </trkpt>
      <trkpt lat="46.47553" lon="5.40447">
        <ele>491.8</ele>
        <time>2022-06-04T10:34:25Z</time>
      </trkpt>
      <trkpt lat="46.4755" lon="5.40433">
        <ele>491.2</ele>
        <time>2022-06-04T10:34:26Z</time>
      </trkpt>
      <trkpt lat="46.47545" lon="5.4042">
        <ele>491</ele>
        <time>2022-06-04T10:34:27Z</time>
      </trkpt>
      <trkpt lat="46.47533" lon="5.40391">
        <ele>489.6</ele>
        <time>2022-06-04T10:34:29Z</time>
      </trkpt>
      <trkpt lat="46.47528" lon="5.40359">
        <ele>488</ele>
        <time>2022-06-04T10:34:31Z</time>
      </trkpt>
      <trkpt lat="46.47532" lon="5.40342">
        <ele>487.8</ele>
        <time>2022-06-04T10:34:32Z</time>
      </trkpt>
      <trkpt lat="46.47538" lon="5.40327">
        <ele>487</ele>
        <time>2022-06-04T10:34:33Z</time>
      </trkpt>
      <trkpt lat="46.47546" lon="5.40313">
        <ele>486.6</ele>
        <time>2022-06-04T10:34:34Z</time>
      </trkpt>
      <trkpt lat="46.47565" lon="5.40287">
        <ele>485.8</ele>
        <time>2022-06-04T10:34:36Z</time>
      </trkpt>
      <trkpt lat="46.47576" lon="5.40278">
        <ele>485.4</ele>
        <time>2022-06-04T10:34:37Z</time>
      </trkpt>
      <trkpt lat="46.47588" lon="5.40272">
        <ele>484</ele>
        <time>2022-06-04T10:34:38Z</time>
      </trkpt>
      <trkpt lat="46.47612" lon="5.40264">
        <ele>482.6</ele>
        <time>2022-06-04T10:34:40Z</time>
      </trkpt>
      <trkpt lat="46.47637" lon="5.40261">
        <ele>481.6</ele>
        <time>2022-06-04T10:34:42Z</time>
      </trkpt>
      <trkpt lat="46.47662" lon="5.40256">
        <ele>480</ele>
        <time>2022-06-04T10:34:44Z</time>
      </trkpt>
      <trkpt lat="46.47674" lon="5.40254">
        <ele>479.2</ele>
        <time>2022-06-04T10:34:45Z</time>
      </trkpt>
      <trkpt lat="46.47685" lon="5.40253">
        <ele>479</ele>
        <time>2022-06-04T10:34:46Z</time>
      </trkpt>
      <trkpt lat="46.47698" lon="5.4025">
        <ele>478</ele>
        <time>2022-06-04T10:34:47Z</time>
      </trkpt>
      <trkpt lat="46.4771" lon="5.40243">
        <ele>477.8</ele>
        <time>2022-06-04T10:34:48Z</time>
      </trkpt>
      <trkpt lat="46.47715" lon="5.40221">
        <ele>477</ele>
        <time>2022-06-04T10:34:49Z</time>
      </trkpt>
      <trkpt lat="46.47719" lon="5.40205">
        <ele>476.4</ele>
        <time>2022-06-04T10:34:50Z</time>
      </trkpt>
      <trkpt lat="46.47723" lon="5.4019">
        <ele>476.2</ele>
        <time>2022-06-04T10:34:51Z</time>
      </trkpt>
      <trkpt lat="46.47727" lon="5.40175">
        <ele>475.8</ele>
        <time>2022-06-04T10:34:52Z</time>
      </trkpt>
      <trkpt lat="46.47734" lon="5.40165">
        <ele>475.4</ele>
        <time>2022-06-04T10:34:53Z</time>
      </trkpt>
      <trkpt lat="46.47743" lon="5.40155">
        <ele>475.2</ele>
        <time>2022-06-04T10:34:54Z</time>
      </trkpt>
      <trkpt lat="46.47752" lon="5.40144">
        <ele>474.6</ele>
        <time>2022-06-04T10:34:55Z</time>
      </trkpt>
      <trkpt lat="46.47759" lon="5.40129">
        <ele>474</ele>
        <time>2022-06-04T10:34:56Z</time>
      </trkpt>
      <trkpt lat="46.47763" lon="5.4011">
        <ele>473.6</ele>
        <time>2022-06-04T10:34:57Z</time>
      </trkpt>
      <trkpt lat="46.47766" lon="5.40076">
        <ele>472.8</ele>
        <time>2022-06-04T10:34:59Z</time>
      </trkpt>
      <trkpt lat="46.47763" lon="5.40034">
        <ele>471.2</ele>
        <time>2022-06-04T10:35:02Z</time>
      </trkpt>
      <trkpt lat="46.47769" lon="5.40009">
        <ele>470</ele>
        <time>2022-06-04T10:35:04Z</time>
      </trkpt>
      <trkpt lat="46.47783" lon="5.39995">
        <ele>469.2</ele>
        <time>2022-06-04T10:35:06Z</time>
      </trkpt>
      <trkpt lat="46.47792" lon="5.39989">
        <ele>469</ele>
        <time>2022-06-04T10:35:07Z</time>
      </trkpt>
      <trkpt lat="46.47801" lon="5.39982">
        <ele>468.4</ele>
        <time>2022-06-04T10:35:08Z</time>
      </trkpt>
      <trkpt lat="46.47823" lon="5.39972">
        <ele>467.4</ele>
        <time>2022-06-04T10:35:10Z</time>
      </trkpt>
      <trkpt lat="46.47834" lon="5.39967">
        <ele>466.4</ele>
        <time>2022-06-04T10:35:11Z</time>
      </trkpt>
      <trkpt lat="46.47845" lon="5.39961">
        <ele>466</ele>
        <time>2022-06-04T10:35:12Z</time>
      </trkpt>
      <trkpt lat="46.47867" lon="5.39949">
        <ele>464.6</ele>
        <time>2022-06-04T10:35:14Z</time>
      </trkpt>
      <trkpt lat="46.47889" lon="5.39937">
        <ele>463.2</ele>
        <time>2022-06-04T10:35:16Z</time>
      </trkpt>
      <trkpt lat="46.47909" lon="5.39926">
        <ele>461.4</ele>
        <time>2022-06-04T10:35:18Z</time>
      </trkpt>
      <trkpt lat="46.47923" lon="5.39919">
        <ele>461</ele>
        <time>2022-06-04T10:35:19Z</time>
      </trkpt>
      <trkpt lat="46.47934" lon="5.39913">
        <ele>460.2</ele>
        <time>2022-06-04T10:35:20Z</time>
      </trkpt>
      <trkpt lat="46.47956" lon="5.39901">
        <ele>459.2</ele>
        <time>2022-06-04T10:35:22Z</time>
      </trkpt>
      <trkpt lat="46.47978" lon="5.3989">
        <ele>458.2</ele>
        <time>2022-06-04T10:35:24Z</time>
      </trkpt>
      <trkpt lat="46.47989" lon="5.39885">
        <ele>457.2</ele>
        <time>2022-06-04T10:35:25Z</time>
      </trkpt>
      <trkpt lat="46.47999" lon="5.39881">
        <ele>457</ele>
        <time>2022-06-04T10:35:26Z</time>
      </trkpt>
      <trkpt lat="46.4801" lon="5.39879">
        <ele>456.6</ele>
        <time>2022-06-04T10:35:27Z</time>
      </trkpt>
      <trkpt lat="46.48021" lon="5.39879">
        <ele>456.4</ele>
        <time>2022-06-04T10:35:28Z</time>
      </trkpt>
      <trkpt lat="46.48032" lon="5.39883">
        <ele>456.2</ele>
        <time>2022-06-04T10:35:29Z</time>
      </trkpt>
      <trkpt lat="46.48051" lon="5.39896">
        <ele>455.6</ele>
        <time>2022-06-04T10:35:31Z</time>
      </trkpt>
      <trkpt lat="46.48061" lon="5.39902">
        <ele>455.4</ele>
        <time>2022-06-04T10:35:32Z</time>
      </trkpt>
      <trkpt lat="46.4808" lon="5.39907">
        <ele>455.4</ele>
        <time>2022-06-04T10:35:34Z</time>
      </trkpt>
      <trkpt lat="46.48097" lon="5.39907">
        <ele>455.4</ele>
        <time>2022-06-04T10:35:36Z</time>
      </trkpt>
      <trkpt lat="46.4813" lon="5.399">
        <ele>455.4</ele>
        <time>2022-06-04T10:35:39Z</time>
      </trkpt>
      <trkpt lat="46.48176" lon="5.39876">
        <ele>455.6</ele>
        <time>2022-06-04T10:35:44Z</time>
      </trkpt>
      <trkpt lat="46.48192" lon="5.39862">
        <ele>455.8</ele>
        <time>2022-06-04T10:35:46Z</time>
      </trkpt>
      <trkpt lat="46.48197" lon="5.39852">
        <ele>455.8</ele>
        <time>2022-06-04T10:35:47Z</time>
      </trkpt>
      <trkpt lat="46.48199" lon="5.3984">
        <ele>455.8</ele>
        <time>2022-06-04T10:35:48Z</time>
      </trkpt>
      <trkpt lat="46.48199" lon="5.39828">
        <ele>455.6</ele>
        <time>2022-06-04T10:35:49Z</time>
      </trkpt>
      <trkpt lat="46.48187" lon="5.39765">
        <ele>454.8</ele>
        <time>2022-06-04T10:35:54Z</time>
      </trkpt>
      <trkpt lat="46.48185" lon="5.39752">
        <ele>454.6</ele>
        <time>2022-06-04T10:35:55Z</time>
      </trkpt>
      <trkpt lat="46.48179" lon="5.39687">
        <ele>453.8</ele>
        <time>2022-06-04T10:36:00Z</time>
      </trkpt>
      <trkpt lat="46.4818" lon="5.39674">
        <ele>453.8</ele>
        <time>2022-06-04T10:36:01Z</time>
      </trkpt>
      <trkpt lat="46.48181" lon="5.39663">
        <ele>453.4</ele>
        <time>2022-06-04T10:36:02Z</time>
      </trkpt>
      <trkpt lat="46.48183" lon="5.39649">
        <ele>453.2</ele>
        <time>2022-06-04T10:36:03Z</time>
      </trkpt>
      <trkpt lat="46.48187" lon="5.39635">
        <ele>453</ele>
        <time>2022-06-04T10:36:04Z</time>
      </trkpt>
      <trkpt lat="46.48192" lon="5.39622">
        <ele>453</ele>
        <time>2022-06-04T10:36:05Z</time>
      </trkpt>
      <trkpt lat="46.48204" lon="5.39595">
        <ele>451.6</ele>
        <time>2022-06-04T10:36:07Z</time>
      </trkpt>
      <trkpt lat="46.48208" lon="5.3958">
        <ele>451.2</ele>
        <time>2022-06-04T10:36:08Z</time>
      </trkpt>
      <trkpt lat="46.48214" lon="5.39562">
        <ele>450.6</ele>
        <time>2022-06-04T10:36:09Z</time>
      </trkpt>
      <trkpt lat="46.4822" lon="5.39532">
        <ele>448.8</ele>
        <time>2022-06-04T10:36:11Z</time>
      </trkpt>
      <trkpt lat="46.48223" lon="5.39518">
        <ele>448.2</ele>
        <time>2022-06-04T10:36:12Z</time>
      </trkpt>
      <trkpt lat="46.48227" lon="5.3951">
        <ele>447.2</ele>
        <time>2022-06-04T10:36:13Z</time>
      </trkpt>
      <trkpt lat="46.48233" lon="5.39499">
        <ele>446.2</ele>
        <time>2022-06-04T10:36:14Z</time>
      </trkpt>
      <trkpt lat="46.48238" lon="5.39489">
        <ele>445.8</ele>
        <time>2022-06-04T10:36:15Z</time>
      </trkpt>
      <trkpt lat="46.48243" lon="5.39483">
        <ele>445.2</ele>
        <time>2022-06-04T10:36:16Z</time>
      </trkpt>
      <trkpt lat="46.4825" lon="5.39477">
        <ele>444.4</ele>
        <time>2022-06-04T10:36:17Z</time>
      </trkpt>
      <trkpt lat="46.48259" lon="5.39474">
        <ele>442.8</ele>
        <time>2022-06-04T10:36:18Z</time>
      </trkpt>
      <trkpt lat="46.48266" lon="5.39474">
        <ele>442.2</ele>
        <time>2022-06-04T10:36:19Z</time>
      </trkpt>
      <trkpt lat="46.48273" lon="5.39475">
        <ele>440.8</ele>
        <time>2022-06-04T10:36:20Z</time>
      </trkpt>
      <trkpt lat="46.48281" lon="5.39475">
        <ele>439.6</ele>
        <time>2022-06-04T10:36:21Z</time>
      </trkpt>
      <trkpt lat="46.48297" lon="5.39468">
        <ele>438.8</ele>
        <time>2022-06-04T10:36:23Z</time>
      </trkpt>
      <trkpt lat="46.4831" lon="5.3945">
        <ele>438.2</ele>
        <time>2022-06-04T10:36:25Z</time>
      </trkpt>
      <trkpt lat="46.48316" lon="5.39437">
        <ele>438</ele>
        <time>2022-06-04T10:36:26Z</time>
      </trkpt>
      <trkpt lat="46.48322" lon="5.39426">
        <ele>437.6</ele>
        <time>2022-06-04T10:36:27Z</time>
      </trkpt>
      <trkpt lat="46.48327" lon="5.39416">
        <ele>437.2</ele>
        <time>2022-06-04T10:36:28Z</time>
      </trkpt>
      <trkpt lat="46.48325" lon="5.39385">
        <ele>436.6</ele>
        <time>2022-06-04T10:36:30Z</time>
      </trkpt>
      <trkpt lat="46.48336" lon="5.39352">
        <ele>435.4</ele>
        <time>2022-06-04T10:36:32Z</time>
      </trkpt>
      <trkpt lat="46.48343" lon="5.3934">
        <ele>434.6</ele>
        <time>2022-06-04T10:36:33Z</time>
      </trkpt>
      <trkpt lat="46.48352" lon="5.3933">
        <ele>433.8</ele>
        <time>2022-06-04T10:36:34Z</time>
      </trkpt>
      <trkpt lat="46.48362" lon="5.39323">
        <ele>432.6</ele>
        <time>2022-06-04T10:36:35Z</time>
      </trkpt>
      <trkpt lat="46.48372" lon="5.39318">
        <ele>432.2</ele>
        <time>2022-06-04T10:36:36Z</time>
      </trkpt>
      <trkpt lat="46.48383" lon="5.39315">
        <ele>431.4</ele>
        <time>2022-06-04T10:36:37Z</time>
      </trkpt>
      <trkpt lat="46.48403" lon="5.39317">
        <ele>428.6</ele>
        <time>2022-06-04T10:36:39Z</time>
      </trkpt>
      <trkpt lat="46.48423" lon="5.3932">
        <ele>427</ele>
        <time>2022-06-04T10:36:41Z</time>
      </trkpt>
      <trkpt lat="46.48437" lon="5.39317">
        <ele>426.4</ele>
        <time>2022-06-04T10:36:42Z</time>
      </trkpt>
      <trkpt lat="46.48449" lon="5.39313">
        <ele>425.8</ele>
        <time>2022-06-04T10:36:43Z</time>
      </trkpt>
      <trkpt lat="46.48461" lon="5.39309">
        <ele>424.4</ele>
        <time>2022-06-04T10:36:44Z</time>
      </trkpt>
      <trkpt lat="46.48473" lon="5.39306">
        <ele>423.2</ele>
        <time>2022-06-04T10:36:45Z</time>
      </trkpt>
      <trkpt lat="46.48486" lon="5.39303">
        <ele>422</ele>
        <time>2022-06-04T10:36:46Z</time>
      </trkpt>
      <trkpt lat="46.4851" lon="5.39298">
        <ele>420</ele>
        <time>2022-06-04T10:36:48Z</time>
      </trkpt>
      <trkpt lat="46.48523" lon="5.39295">
        <ele>418.8</ele>
        <time>2022-06-04T10:36:49Z</time>
      </trkpt>
      <trkpt lat="46.48549" lon="5.39289">
        <ele>417</ele>
        <time>2022-06-04T10:36:51Z</time>
      </trkpt>
      <trkpt lat="46.48576" lon="5.39284">
        <ele>415.4</ele>
        <time>2022-06-04T10:36:53Z</time>
      </trkpt>
      <trkpt lat="46.48603" lon="5.39278">
        <ele>413</ele>
        <time>2022-06-04T10:36:55Z</time>
      </trkpt>
      <trkpt lat="46.48616" lon="5.39275">
        <ele>411</ele>
        <time>2022-06-04T10:36:56Z</time>
      </trkpt>
      <trkpt lat="46.48629" lon="5.39272">
        <ele>410</ele>
        <time>2022-06-04T10:36:57Z</time>
      </trkpt>
      <trkpt lat="46.48642" lon="5.39271">
        <ele>408.6</ele>
        <time>2022-06-04T10:36:58Z</time>
      </trkpt>
      <trkpt lat="46.48654" lon="5.39271">
        <ele>408</ele>
        <time>2022-06-04T10:36:59Z</time>
      </trkpt>
      <trkpt lat="46.48666" lon="5.39273">
        <ele>406.6</ele>
        <time>2022-06-04T10:37:00Z</time>
      </trkpt>
      <trkpt lat="46.48676" lon="5.39276">
        <ele>406</ele>
        <time>2022-06-04T10:37:01Z</time>
      </trkpt>
      <trkpt lat="46.48684" lon="5.3928">
        <ele>404.8</ele>
        <time>2022-06-04T10:37:02Z</time>
      </trkpt>
      <trkpt lat="46.48691" lon="5.39284">
        <ele>403.4</ele>
        <time>2022-06-04T10:37:03Z</time>
      </trkpt>
      <trkpt lat="46.48697" lon="5.39289">
        <ele>402.8</ele>
        <time>2022-06-04T10:37:04Z</time>
      </trkpt>
      <trkpt lat="46.48702" lon="5.39293">
        <ele>402</ele>
        <time>2022-06-04T10:37:05Z</time>
      </trkpt>
      <trkpt lat="46.48711" lon="5.393">
        <ele>401.2</ele>
        <time>2022-06-04T10:37:07Z</time>
      </trkpt>
      <trkpt lat="46.48714" lon="5.39302">
        <ele>401</ele>
        <time>2022-06-04T10:37:08Z</time>
      </trkpt>
      <trkpt lat="46.48718" lon="5.39305">
        <ele>400.8</ele>
        <time>2022-06-04T10:37:09Z</time>
      </trkpt>
      <trkpt lat="46.48722" lon="5.39306">
        <ele>400.4</ele>
        <time>2022-06-04T10:37:10Z</time>
      </trkpt>
      <trkpt lat="46.48734" lon="5.39301">
        <ele>399.8</ele>
        <time>2022-06-04T10:37:12Z</time>
      </trkpt>
      <trkpt lat="46.48745" lon="5.39288">
        <ele>399</ele>
        <time>2022-06-04T10:37:14Z</time>
      </trkpt>
      <trkpt lat="46.48747" lon="5.3928">
        <ele>399</ele>
        <time>2022-06-04T10:37:15Z</time>
      </trkpt>
      <trkpt lat="46.48739" lon="5.39271">
        <ele>398.6</ele>
        <time>2022-06-04T10:37:16Z</time>
      </trkpt>
      <trkpt lat="46.48713" lon="5.3924">
        <ele>396.8</ele>
        <time>2022-06-04T10:37:19Z</time>
      </trkpt>
      <trkpt lat="46.48703" lon="5.39228">
        <ele>396</ele>
        <time>2022-06-04T10:37:20Z</time>
      </trkpt>
      <trkpt lat="46.48694" lon="5.39215">
        <ele>394.8</ele>
        <time>2022-06-04T10:37:21Z</time>
      </trkpt>
      <trkpt lat="46.48677" lon="5.3919">
        <ele>392.8</ele>
        <time>2022-06-04T10:37:23Z</time>
      </trkpt>
      <trkpt lat="46.48668" lon="5.39177">
        <ele>391.6</ele>
        <time>2022-06-04T10:37:24Z</time>
      </trkpt>
      <trkpt lat="46.48659" lon="5.39164">
        <ele>391</ele>
        <time>2022-06-04T10:37:25Z</time>
      </trkpt>
      <trkpt lat="46.4865" lon="5.39152">
        <ele>389.6</ele>
        <time>2022-06-04T10:37:26Z</time>
      </trkpt>
      <trkpt lat="46.48628" lon="5.3913">
        <ele>387.8</ele>
        <time>2022-06-04T10:37:28Z</time>
      </trkpt>
      <trkpt lat="46.48604" lon="5.39111">
        <ele>386.6</ele>
        <time>2022-06-04T10:37:30Z</time>
      </trkpt>
      <trkpt lat="46.48594" lon="5.39104">
        <ele>385.2</ele>
        <time>2022-06-04T10:37:31Z</time>
      </trkpt>
      <trkpt lat="46.48566" lon="5.39085">
        <ele>382.4</ele>
        <time>2022-06-04T10:37:33Z</time>
      </trkpt>
      <trkpt lat="46.48541" lon="5.3907">
        <ele>380.8</ele>
        <time>2022-06-04T10:37:35Z</time>
      </trkpt>
      <trkpt lat="46.48519" lon="5.39055">
        <ele>379.2</ele>
        <time>2022-06-04T10:37:37Z</time>
      </trkpt>
      <trkpt lat="46.48509" lon="5.39045">
        <ele>378</ele>
        <time>2022-06-04T10:37:38Z</time>
      </trkpt>
      <trkpt lat="46.48501" lon="5.39032">
        <ele>377</ele>
        <time>2022-06-04T10:37:39Z</time>
      </trkpt>
      <trkpt lat="46.48496" lon="5.39015">
        <ele>374.8</ele>
        <time>2022-06-04T10:37:40Z</time>
      </trkpt>
      <trkpt lat="46.48491" lon="5.38997">
        <ele>373.8</ele>
        <time>2022-06-04T10:37:41Z</time>
      </trkpt>
      <trkpt lat="46.48486" lon="5.38979">
        <ele>372.2</ele>
        <time>2022-06-04T10:37:42Z</time>
      </trkpt>
      <trkpt lat="46.48473" lon="5.38947">
        <ele>370.6</ele>
        <time>2022-06-04T10:37:44Z</time>
      </trkpt>
      <trkpt lat="46.48466" lon="5.38933">
        <ele>369.4</ele>
        <time>2022-06-04T10:37:45Z</time>
      </trkpt>
      <trkpt lat="46.48454" lon="5.38906">
        <ele>368</ele>
        <time>2022-06-04T10:37:47Z</time>
      </trkpt>
      <trkpt lat="46.4845" lon="5.38879">
        <ele>367</ele>
        <time>2022-06-04T10:37:49Z</time>
      </trkpt>
      <trkpt lat="46.48451" lon="5.38867">
        <ele>366.6</ele>
        <time>2022-06-04T10:37:50Z</time>
      </trkpt>
      <trkpt lat="46.48458" lon="5.38858">
        <ele>365.6</ele>
        <time>2022-06-04T10:37:51Z</time>
      </trkpt>
      <trkpt lat="46.48466" lon="5.3885">
        <ele>364.8</ele>
        <time>2022-06-04T10:37:52Z</time>
      </trkpt>
      <trkpt lat="46.48487" lon="5.38837">
        <ele>363.8</ele>
        <time>2022-06-04T10:37:54Z</time>
      </trkpt>
      <trkpt lat="46.48508" lon="5.38825">
        <ele>363</ele>
        <time>2022-06-04T10:37:56Z</time>
      </trkpt>
      <trkpt lat="46.48519" lon="5.38818">
        <ele>362.8</ele>
        <time>2022-06-04T10:37:57Z</time>
      </trkpt>
      <trkpt lat="46.48541" lon="5.38803">
        <ele>361.2</ele>
        <time>2022-06-04T10:37:59Z</time>
      </trkpt>
      <trkpt lat="46.48562" lon="5.3879">
        <ele>359.6</ele>
        <time>2022-06-04T10:38:01Z</time>
      </trkpt>
      <trkpt lat="46.48578" lon="5.3878">
        <ele>358</ele>
        <time>2022-06-04T10:38:03Z</time>
      </trkpt>
      <trkpt lat="46.48588" lon="5.38778">
        <ele>357.4</ele>
        <time>2022-06-04T10:38:04Z</time>
      </trkpt>
      <trkpt lat="46.48596" lon="5.3878">
        <ele>356.4</ele>
        <time>2022-06-04T10:38:05Z</time>
      </trkpt>
      <trkpt lat="46.48603" lon="5.38781">
        <ele>355.6</ele>
        <time>2022-06-04T10:38:06Z</time>
      </trkpt>
      <trkpt lat="46.48609" lon="5.38778">
        <ele>355.2</ele>
        <time>2022-06-04T10:38:07Z</time>
      </trkpt>
      <trkpt lat="46.48615" lon="5.38771">
        <ele>354.4</ele>
        <time>2022-06-04T10:38:08Z</time>
      </trkpt>
      <trkpt lat="46.48621" lon="5.38763">
        <ele>354.2</ele>
        <time>2022-06-04T10:38:09Z</time>
      </trkpt>
      <trkpt lat="46.48632" lon="5.3874">
        <ele>352.8</ele>
        <time>2022-06-04T10:38:11Z</time>
      </trkpt>
      <trkpt lat="46.48636" lon="5.38727">
        <ele>351.8</ele>
        <time>2022-06-04T10:38:12Z</time>
      </trkpt>
      <trkpt lat="46.48639" lon="5.38712">
        <ele>351.4</ele>
        <time>2022-06-04T10:38:13Z</time>
      </trkpt>
      <trkpt lat="46.48641" lon="5.38697">
        <ele>350.6</ele>
        <time>2022-06-04T10:38:14Z</time>
      </trkpt>
      <trkpt lat="46.48642" lon="5.38682">
        <ele>349.8</ele>
        <time>2022-06-04T10:38:15Z</time>
      </trkpt>
      <trkpt lat="46.48641" lon="5.38667">
        <ele>349.4</ele>
        <time>2022-06-04T10:38:16Z</time>
      </trkpt>
      <trkpt lat="46.48639" lon="5.38652">
        <ele>348.4</ele>
        <time>2022-06-04T10:38:17Z</time>
      </trkpt>
      <trkpt lat="46.48636" lon="5.38638">
        <ele>348</ele>
        <time>2022-06-04T10:38:18Z</time>
      </trkpt>
      <trkpt lat="46.48632" lon="5.38623">
        <ele>346.8</ele>
        <time>2022-06-04T10:38:19Z</time>
      </trkpt>
      <trkpt lat="46.48625" lon="5.38594">
        <ele>344.6</ele>
        <time>2022-06-04T10:38:21Z</time>
      </trkpt>
      <trkpt lat="46.48617" lon="5.38563">
        <ele>343.2</ele>
        <time>2022-06-04T10:38:23Z</time>
      </trkpt>
      <trkpt lat="46.48613" lon="5.38547">
        <ele>342.6</ele>
        <time>2022-06-04T10:38:24Z</time>
      </trkpt>
      <trkpt lat="46.48609" lon="5.38531">
        <ele>342</ele>
        <time>2022-06-04T10:38:25Z</time>
      </trkpt>
      <trkpt lat="46.486" lon="5.38499">
        <ele>341</ele>
        <time>2022-06-04T10:38:27Z</time>
      </trkpt>
    </trkseg>
  </trk>
</gpx>